GFSSW_sfc_wetblb_000.txt.gz
Wetbulb
57.27 57.26 57.28 57.25 57.20 57.07 56.94 57.24 57.72 58.74 60.21 60.82 61.87 62.30 63.29 63.06 62.36 57.56 52.98 56.07 58.23 62.62 62.20 55.86 54.49 53.73 53.71 50.03 54.01 52.73 43.24 40.97 42.62 43.07 45.80 49.27 47.74 50.51 51.28 49.84 50.83 51.64 50.71 52.82 55.50
57.66 57.36 57.46 57.05 57.22 56.96 56.83 56.71 57.56 57.92 59.12 60.04 60.73 60.76 61.45 62.31 58.56 55.43 59.63 63.33 64.11 63.79 56.31 52.97 51.06 52.73 48.64 50.02 50.59 49.15 44.28 44.40 47.38 47.92 46.96 49.44 48.56 49.22 47.84 48.21 48.50 49.48 52.55 53.89 57.31
58.39 57.69 57.54 57.33 57.26 56.89 56.88 56.90 57.16 57.78 58.51 59.80 59.82 61.03 61.45 61.01 53.35 53.37 63.10 64.65 64.79 63.56 58.38 56.43 54.51 51.74 47.41 48.63 49.19 49.83 46.21 47.98 48.96 50.94 49.94 48.97 47.91 50.29 48.64 46.64 49.47 49.57 50.86 51.85 54.66
59.21 58.24 57.82 57.45 57.11 56.69 56.61 56.39 57.07 57.42 58.03 58.69 59.33 60.10 61.36 57.82 42.48 53.67 61.68 62.42 64.45 61.97 57.80 55.08 51.77 47.10 45.70 45.75 48.92 45.64 50.30 51.03 51.53 52.73 51.41 48.64 50.25 48.39 48.44 49.22 52.47 52.45 53.29 53.24 53.40
59.79 58.68 57.90 57.46 57.28 56.74 56.55 56.18 56.48 57.18 57.17 58.02 58.80 59.70 55.57 49.15 48.57 55.92 59.80 60.41 57.39 56.92 55.60 53.52 49.70 47.36 43.76 45.36 47.01 46.03 47.46 51.36 52.63 52.83 52.44 52.73 49.47 48.71 49.00 51.90 52.55 53.07 53.56 52.75 53.06
60.30 59.08 58.15 57.53 57.52 57.11 56.71 56.76 56.41 56.78 57.34 57.43 58.24 58.46 50.75 41.49 52.97 53.99 55.68 53.79 54.95 54.64 53.04 53.41 51.20 50.60 46.99 45.55 45.11 47.34 48.76 49.58 50.81 50.95 51.63 50.80 50.71 47.96 49.81 51.99 51.73 52.52 52.37 51.96 52.35
60.80 59.66 59.15 58.08 57.52 57.32 57.04 57.47 57.64 57.32 57.10 57.08 57.48 55.30 49.56 44.76 52.55 52.63 53.10 52.13 52.76 52.51 51.84 53.93 53.63 50.31 49.57 46.01 48.56 47.77 45.00 47.13 47.72 49.74 49.39 51.13 47.53 47.77 50.38 51.24 51.09 51.14 51.11 51.26 51.34
60.57 60.48 59.35 58.57 58.04 57.86 57.34 57.75 56.76 57.47 57.02 57.35 57.12 52.47 43.48 53.45 53.00 51.94 51.99 50.63 50.98 51.84 51.18 51.10 52.58 51.77 49.36 50.31 46.05 43.08 42.96 39.71 45.74 48.91 49.90 49.26 42.85 49.08 50.73 48.83 49.19 49.57 49.39 49.60 50.40
60.56 60.06 59.49 58.55 58.17 58.00 57.95 57.32 56.74 56.53 56.59 56.69 51.60 47.80 41.26 54.53 49.69 51.28 51.34 48.77 48.90 49.12 49.79 52.60 50.45 46.76 45.14 43.76 40.78 40.34 34.92 37.12 41.40 48.63 48.24 47.09 44.50 48.80 51.08 48.50 48.43 48.37 48.13 48.44 48.32
59.85 59.84 59.29 58.40 58.04 57.82 57.61 56.68 56.14 55.55 54.42 54.44 52.26 45.83 46.99 44.72 49.14 50.63 50.86 50.58 46.61 46.65 45.81 45.92 44.49 39.22 39.34 40.16 32.81 36.09 35.43 37.43 37.66 44.17 47.03 45.94 45.51 48.06 49.25 48.22 47.91 48.61 46.19 45.87 47.97
59.04 58.79 58.86 58.16 57.57 57.29 54.33 49.87 44.11 43.10 48.29 41.95 42.72 43.33 44.56 49.25 51.26 48.99 49.94 47.82 46.29 42.66 36.62 40.42 37.41 34.38 36.18 38.23 38.94 38.95 37.35 35.76 38.63 44.06 43.61 43.63 44.77 47.54 49.52 46.77 46.79 46.19 44.48 44.94 47.22
58.31 58.61 58.47 58.19 57.45 57.02 51.38 44.82 44.05 45.29 39.38 45.99 46.03 45.55 47.89 49.73 44.02 47.05 49.62 42.78 42.10 36.91 37.97 36.56 33.82 37.97 39.98 39.29 38.63 37.93 35.59 35.27 39.13 43.10 42.19 42.45 42.71 46.77 48.76 48.78 48.01 47.79 43.89 45.36 46.22
57.82 58.09 58.09 57.76 56.96 54.25 49.25 48.16 49.89 48.05 39.16 42.34 45.28 44.43 45.33 47.31 43.22 44.17 46.42 43.26 40.47 37.48 37.30 33.46 35.56 39.91 38.99 37.66 36.40 36.08 34.53 34.63 35.33 40.47 42.72 41.38 38.96 42.92 47.25 48.04 49.43 47.76 46.45 47.59 47.85
57.44 58.02 57.61 56.76 51.34 49.47 48.22 50.62 49.94 50.34 33.43 35.74 39.42 44.45 47.03 47.63 42.25 48.35 48.20 44.25 40.53 36.04 36.70 35.86 39.21 37.33 36.39 35.70 36.66 31.96 38.88 38.83 37.84 36.50 31.45 43.20 33.15 39.38 44.08 45.48 46.68 46.65 44.69 46.76 46.56
56.85 57.58 57.07 54.84 47.07 46.79 48.30 50.99 50.29 47.52 12.40 36.45 39.39 48.41 47.80 42.81 44.16 43.66 49.34 44.96 37.96 36.40 36.60 33.13 35.41 35.36 33.64 34.99 38.46 34.53 39.49 37.50 37.75 35.34 34.04 35.51 33.83 38.54 42.42 42.02 44.85 46.16 44.69 46.78 47.60
56.59 57.16 56.03 51.53 49.14 49.65 51.17 51.27 48.09 29.59 16.46 34.80 40.58 39.16 40.37 42.11 42.72 44.29 44.20 46.93 44.98 38.92 38.74 35.30 40.29 38.46 36.68 38.57 38.70 40.26 37.21 36.43 36.56 34.83 28.45 33.30 35.28 34.90 38.72 41.72 43.94 43.61 44.21 46.20 47.06
54.52 56.65 54.05 51.72 46.72 51.69 51.27 45.29 29.91 22.46 35.81 34.09 35.82 38.54 37.67 37.69 38.97 40.42 38.62 38.21 34.98 30.78 30.58 35.45 35.26 37.97 40.71 36.06 38.10 37.08 33.20 27.47 24.59 24.10 24.98 34.31 34.11 35.02 40.93 44.14 46.65 43.84 43.59 45.79 47.04
53.51 55.89 53.75 50.99 52.83 51.55 47.88 37.05 22.44 30.58 32.13 38.05 37.10 37.26 34.10 36.85 37.86 38.23 36.99 33.92 38.48 35.95 32.73 28.39 25.87 35.19 38.66 36.18 33.59 34.54 33.53 27.09 18.57 20.66 24.27 36.79 31.47 35.76 44.55 46.66 47.53 47.62 45.91 46.26 46.04
53.23 53.21 49.89 50.83 52.56 50.28 41.58 30.16 26.02 32.70 37.44 35.69 36.60 33.60 33.91 36.77 36.39 36.56 35.69 33.99 35.72 37.15 30.17 28.76 28.42 38.03 38.50 38.93 38.03 33.17 29.66 36.02 30.53 30.90 27.82 32.20 36.08 42.26 45.06 41.88 42.66 43.17 44.47 44.86 46.18
49.26 48.57 47.50 52.00 51.92 46.83 37.48 31.19 33.30 39.92 40.36 39.25 33.50 35.34 31.17 33.39 33.31 33.22 33.66 36.08 35.59 38.70 38.20 31.43 22.96 34.90 36.92 40.28 39.04 35.90 37.58 28.90 30.09 21.86 22.16 30.08 32.59 36.16 40.41 39.20 41.28 42.58 43.53 44.90 46.22
48.41 42.35 48.69 51.95 50.32 41.86 32.66 30.98 36.54 42.50 41.94 38.98 36.99 35.90 33.91 30.95 32.90 31.54 31.47 35.38 37.56 36.92 37.93 34.75 31.93 31.23 35.68 33.72 33.29 34.00 32.35 33.59 32.36 31.42 27.82 28.49 32.72 41.18 42.37 41.60 42.19 43.37 44.64 44.63 45.44
46.56 38.00 49.96 51.12 39.57 39.15 36.18 38.04 41.35 40.62 43.00 41.42 40.63 38.69 35.47 33.51 32.35 30.28 30.51 33.05 39.88 38.50 33.60 36.78 34.99 28.84 31.09 36.90 39.41 37.12 34.28 34.43 28.77 27.22 32.95 31.59 30.61 40.36 44.99 43.53 44.75 44.56 45.04 45.24 46.29
44.09 44.11 50.13 48.83 34.87 35.33 39.45 39.00 40.76 41.17 41.33 40.85 39.45 39.87 39.47 35.75 31.75 33.05 34.33 39.28 40.73 38.17 35.41 38.53 34.50 27.67 29.79 33.89 37.29 36.59 36.21 37.77 36.63 37.12 32.37 29.45 31.84 42.13 39.10 40.81 43.75 43.67 44.01 44.88 45.34
44.73 39.16 43.80 44.94 44.31 38.85 36.72 37.57 37.67 43.60 41.98 42.78 41.62 41.61 39.61 37.92 36.67 34.22 34.98 40.04 41.65 40.76 44.20 41.92 35.94 32.31 27.72 32.24 36.23 34.20 36.76 37.72 37.12 32.05 32.08 33.01 35.17 39.03 39.54 39.43 40.60 41.72 44.00 44.44 44.72
46.35 41.39 43.09 36.16 39.22 39.67 39.76 39.95 37.36 37.72 42.39 43.02 39.40 39.66 38.81 34.51 33.90 34.11 36.83 37.43 41.43 43.54 42.17 39.27 32.07 32.91 34.30 35.59 35.20 37.48 38.04 37.68 36.42 36.88 32.35 34.72 34.82 38.69 41.71 40.50 40.54 42.60 43.65 43.89 44.19
43.64 42.85 44.12 40.00 41.88 40.70 39.79 39.38 38.75 40.49 41.33 39.58 38.48 40.60 39.22 37.47 34.91 32.99 36.86 37.56 37.41 41.03 39.06 39.13 31.86 33.42 32.65 38.14 37.60 37.83 39.23 40.31 39.48 37.46 36.87 37.60 36.59 43.18 40.18 40.60 40.96 42.22 43.80 43.92 44.37
48.34 46.75 45.21 41.17 40.24 38.85 38.97 39.30 39.19 40.78 42.19 43.06 42.25 40.78 39.67 40.04 43.08 42.89 43.10 41.77 41.22 40.42 36.92 35.62 33.90 33.28 32.77 39.93 38.73 35.92 38.67 39.61 36.36 37.39 36.39 33.97 39.74 40.58 38.30 40.15 39.48 41.55 44.48 44.36 44.79

GFSSW_sfc_wetblb_003.txt.gz
Wetbulb
58.93 58.00 57.76 57.74 57.87 57.87 57.74 57.64 58.15 58.62 60.18 61.26 62.86 63.68 63.45 63.22 62.61 58.04 53.02 55.89 57.63 62.44 61.60 55.03 54.01 54.11 52.62 49.85 52.66 50.48 42.66 40.28 41.55 41.61 44.01 47.26 46.20 49.15 49.36 46.75 49.09 49.54 50.18 51.67 53.88
59.44 58.52 57.81 57.74 57.64 57.65 57.60 57.41 57.76 58.33 59.38 60.46 60.70 61.27 61.78 62.54 58.72 55.42 59.26 63.27 64.11 64.05 55.75 52.23 49.88 52.26 48.06 48.98 49.51 48.53 43.69 43.12 46.01 45.52 44.96 47.40 47.30 47.68 46.61 47.19 46.87 48.09 51.22 53.87 57.51
60.08 58.97 58.22 57.80 57.74 57.75 57.65 57.71 57.80 58.16 58.64 59.98 60.05 61.16 60.96 60.99 53.30 53.66 63.22 64.61 64.83 63.06 57.53 55.80 53.89 51.01 46.49 47.98 48.05 48.31 45.02 48.03 47.83 49.42 49.55 47.57 46.40 48.77 46.69 44.92 48.22 48.66 49.63 51.18 55.21
61.00 59.63 58.76 58.13 57.42 57.61 57.50 57.60 57.76 57.82 58.35 58.86 59.57 60.15 61.54 58.30 42.83 52.52 61.45 62.49 64.15 61.11 57.27 54.48 50.86 45.42 44.27 44.81 48.10 44.28 48.18 49.38 50.21 51.59 50.27 48.02 49.06 47.26 46.88 47.39 50.26 50.53 50.75 50.48 53.79
61.32 60.26 59.32 58.42 57.50 57.53 57.15 57.33 57.26 57.65 57.39 58.37 59.24 59.64 55.95 50.25 48.97 55.19 60.64 60.53 58.05 58.62 55.12 52.86 48.39 46.09 42.46 44.18 45.73 44.53 46.08 48.81 50.86 51.72 51.77 51.98 49.70 47.71 48.38 50.29 51.73 51.29 51.30 51.09 51.32
61.47 60.66 59.72 58.59 58.06 57.73 57.19 57.11 57.05 57.31 57.84 57.74 58.70 58.36 50.45 40.68 52.03 52.84 52.52 53.87 54.24 53.85 53.37 53.36 50.46 49.98 46.41 44.90 43.57 45.83 46.41 47.44 49.30 49.43 49.59 49.50 49.93 48.86 48.15 50.02 49.61 50.20 50.66 51.18 50.57
60.85 60.80 60.19 59.35 58.44 57.88 57.50 57.42 57.76 57.60 57.31 57.45 58.00 54.91 48.75 44.91 51.72 51.61 52.43 50.62 51.73 53.46 51.19 52.81 52.56 49.71 49.01 45.18 47.47 46.41 42.59 45.16 46.06 47.09 47.39 49.13 46.45 46.49 49.63 50.08 48.32 48.78 49.09 50.84 50.64
60.45 60.76 59.97 59.57 58.91 58.39 57.81 57.63 57.94 57.40 57.58 57.39 57.43 52.17 43.56 52.79 52.39 51.49 51.39 49.49 50.54 50.90 50.42 50.21 52.45 49.94 48.71 49.57 45.29 42.34 40.55 36.83 43.14 46.62 47.84 48.45 40.90 47.22 50.70 49.21 47.98 48.02 47.72 48.75 49.74
59.68 59.68 59.74 59.46 58.83 58.21 58.23 57.61 56.88 56.23 56.58 56.86 50.66 46.66 40.72 53.38 49.76 51.17 50.90 48.17 47.72 48.27 48.95 52.12 50.57 46.23 45.63 42.75 39.55 40.14 33.50 35.19 39.53 46.27 46.75 45.94 42.80 47.11 50.25 49.57 46.57 46.76 46.99 48.56 48.56
59.01 59.16 59.02 59.04 58.48 58.01 57.88 57.11 56.40 55.18 54.35 53.66 51.45 44.47 45.96 44.17 48.78 49.97 50.43 50.23 45.94 46.06 45.35 44.70 44.69 41.50 41.25 39.76 30.84 32.70 34.04 37.16 35.88 41.81 44.47 43.34 42.85 45.99 48.36 47.30 47.65 47.33 48.01 46.22 46.82
57.41 58.22 58.55 58.56 58.15 57.86 55.12 49.02 43.82 42.78 48.51 42.20 43.01 43.13 44.60 48.48 50.50 48.51 49.33 47.55 45.69 42.37 36.54 39.76 37.20 35.57 37.79 37.93 39.65 37.24 36.35 36.49 39.37 42.20 39.86 39.91 40.68 43.58 46.82 47.27 47.63 45.38 47.74 45.69 45.40
55.99 57.85 58.24 58.39 58.17 57.43 50.78 43.72 43.37 44.44 38.61 45.55 45.62 45.49 47.21 48.63 43.50 46.50 49.28 42.72 40.87 36.20 37.81 36.10 32.51 37.11 38.56 37.78 36.89 36.49 36.05 35.76 39.12 42.01 41.29 39.07 38.53 42.28 44.34 45.80 47.69 47.88 48.55 46.03 44.24
55.23 57.34 57.71 57.99 57.50 54.13 48.67 47.28 49.18 47.22 37.57 40.73 44.26 43.60 44.58 46.44 43.01 43.41 46.10 42.75 38.50 35.69 35.49 32.95 34.91 39.57 37.66 36.03 35.23 34.63 33.02 34.44 34.94 38.09 39.61 37.38 35.43 38.73 42.93 46.11 48.16 49.23 48.75 48.05 46.11
54.94 54.91 57.10 57.48 52.34 51.24 47.94 50.00 49.23 48.35 29.16 32.87 39.46 43.30 45.16 46.03 41.23 47.88 47.33 42.84 38.63 35.14 36.06 36.42 38.77 36.68 34.83 33.82 35.56 31.24 37.12 37.05 35.55 33.05 28.13 37.39 27.83 36.02 39.60 42.23 45.69 47.61 44.69 45.27 45.10
53.52 54.70 56.83 55.85 49.14 47.03 47.99 49.78 49.41 43.74 12.59 35.65 38.79 48.11 47.39 41.46 43.91 42.82 47.53 44.42 37.22 35.61 36.09 32.90 34.37 33.94 32.70 34.19 36.79 33.17 38.00 36.02 36.48 33.93 31.51 32.59 29.97 32.00 40.17 39.00 42.03 44.49 44.12 44.22 46.02
52.71 54.24 56.71 51.71 50.35 49.46 50.91 50.60 47.45 27.98 15.80 34.13 40.30 39.03 40.76 41.79 42.76 43.83 43.33 46.23 43.98 38.10 37.80 34.56 38.89 37.27 35.63 37.49 37.48 38.50 35.47 34.83 34.22 32.12 25.70 30.08 30.19 29.99 34.99 38.95 41.02 43.61 44.47 44.40 45.57
52.28 53.48 53.54 52.04 46.55 50.97 51.25 45.70 29.88 22.91 35.06 33.80 35.38 38.73 37.70 37.85 38.87 40.31 39.15 37.86 35.28 30.76 30.39 36.13 34.61 36.53 39.06 34.05 36.75 35.41 31.70 26.20 24.43 23.84 22.81 31.41 29.50 31.94 37.29 40.95 42.81 43.69 43.22 42.52 44.99
51.90 52.26 53.80 52.03 51.96 51.45 48.14 37.54 20.72 29.57 31.19 37.18 36.42 37.11 33.70 36.33 36.90 37.38 37.23 34.36 38.52 34.41 31.96 27.13 24.33 34.47 37.08 34.78 32.29 32.89 31.29 24.40 19.07 19.15 20.99 31.22 26.02 32.30 41.19 43.96 45.04 46.07 43.62 42.99 44.25
50.64 49.79 49.47 51.23 52.17 50.51 41.79 26.25 25.94 29.98 36.04 34.46 35.93 32.76 33.09 36.22 35.93 36.27 36.14 33.84 34.79 36.87 29.29 25.38 25.80 35.95 37.23 38.19 37.32 32.88 30.33 33.98 27.69 29.21 26.61 27.90 32.84 39.29 42.65 43.19 44.25 43.04 42.64 42.74 44.21
47.84 43.68 47.79 52.04 52.09 47.64 37.05 28.50 30.41 38.30 38.17 36.89 30.94 34.66 30.50 33.11 33.20 33.51 32.31 34.59 35.13 36.94 38.16 32.94 26.86 33.69 36.74 38.22 37.64 33.75 36.00 28.36 28.96 20.82 20.02 24.44 28.83 31.52 36.86 40.68 42.63 41.01 42.12 43.26 44.66
44.79 39.42 48.75 51.89 50.28 42.32 31.77 28.49 34.39 41.03 40.85 37.58 35.02 34.26 33.15 32.10 32.38 31.09 30.95 34.03 37.08 36.01 38.18 35.98 29.95 28.87 35.17 33.41 31.33 32.74 30.70 31.72 29.95 26.78 18.75 20.79 26.17 37.55 38.00 40.92 39.57 40.35 42.11 43.27 44.73
42.04 34.92 49.81 50.54 38.54 39.20 34.07 35.16 40.01 39.52 41.70 40.42 39.32 37.87 35.42 33.25 31.24 29.39 29.84 33.59 38.46 38.00 34.43 36.77 33.54 26.94 29.55 36.17 37.86 36.47 32.00 31.45 26.76 19.94 26.38 27.95 28.33 40.96 40.06 39.47 41.38 41.98 44.33 45.52 46.24
40.20 42.97 49.24 47.12 32.88 34.19 38.15 37.84 39.84 40.38 40.11 40.42 38.63 39.60 39.58 34.78 30.64 32.10 33.06 38.46 39.96 38.03 35.46 37.15 33.51 25.70 30.08 33.80 36.30 34.78 33.76 33.58 33.02 32.36 25.19 22.49 26.85 41.73 42.93 40.67 43.00 43.15 43.82 44.96 44.60
43.04 35.73 42.07 43.91 43.09 36.20 35.09 35.80 36.21 43.13 41.17 42.32 41.15 41.00 38.20 36.02 36.27 33.12 33.37 38.95 40.25 40.25 42.64 40.45 35.29 31.38 25.87 31.03 34.71 31.32 34.31 34.44 32.17 27.43 28.58 30.47 33.54 38.41 40.51 41.25 40.83 41.13 42.98 43.43 44.21
43.50 39.19 39.46 35.12 37.83 37.31 38.08 38.68 36.01 36.48 42.13 42.43 39.96 39.80 38.09 34.32 34.85 33.11 35.93 37.63 40.66 42.29 40.36 38.91 31.64 33.25 34.21 34.93 35.67 35.01 34.41 34.14 32.16 32.55 28.85 32.64 33.73 36.95 39.87 41.91 41.07 41.83 42.63 42.46 42.98
42.40 41.51 41.03 37.91 40.82 38.13 38.19 36.95 38.32 38.51 40.36 39.32 38.64 39.89 40.03 36.96 35.74 31.21 35.88 36.45 36.48 40.54 38.47 40.23 32.40 32.94 31.88 34.87 34.39 32.94 34.69 37.08 35.34 36.24 35.42 36.60 35.35 41.92 43.71 41.09 39.09 41.42 42.65 42.45 43.05
44.19 47.66 43.42 39.49 39.74 37.41 37.31 37.87 39.21 41.51 42.54 42.09 41.04 40.05 39.17 40.53 41.25 41.27 40.82 41.87 41.55 39.75 38.08 35.39 32.88 32.35 29.61 36.86 34.85 30.24 34.07 36.72 37.51 39.26 38.41 33.94 38.66 42.83 40.70 39.46 39.30 40.95 43.39 43.23 43.68

GFSSW_sfc_wetblb_006.txt.gz
Wetbulb
61.09 60.05 58.86 58.06 57.70 57.80 57.84 57.87 57.79 58.46 59.09 60.61 61.65 63.43 63.54 63.10 62.06 58.18 52.51 55.70 57.16 62.49 61.38 54.34 53.27 53.25 51.74 49.56 51.59 49.03 42.13 39.45 40.07 40.62 42.65 46.26 44.77 48.08 48.26 45.49 47.84 48.48 48.05 50.91 52.48
61.41 60.75 59.42 58.31 57.67 57.60 57.57 57.71 57.64 58.00 58.97 60.10 61.08 61.80 62.37 62.48 58.50 55.67 59.31 63.03 63.23 63.34 55.65 51.38 48.94 50.83 47.12 47.99 48.39 47.73 42.35 42.04 45.27 44.52 44.07 46.30 46.33 46.29 46.16 46.05 46.31 47.89 50.49 52.73 55.36
61.04 61.03 60.02 58.76 57.88 57.14 57.48 57.68 57.80 58.09 58.91 59.66 60.08 61.10 61.15 61.16 53.60 53.51 62.75 64.68 64.45 63.82 56.95 54.78 52.78 49.91 45.20 46.45 46.92 46.57 43.61 46.45 47.19 48.28 48.52 47.39 45.98 47.77 45.42 45.00 47.50 47.72 49.39 50.95 54.63
60.64 60.89 60.55 59.35 58.25 57.25 57.32 57.38 57.49 58.12 58.33 58.95 59.61 59.91 60.84 58.16 43.88 52.67 61.27 62.09 64.50 61.56 57.14 53.88 49.64 44.32 43.52 43.57 47.34 42.09 47.25 48.51 49.15 50.51 49.33 47.17 48.81 46.54 46.31 47.20 49.59 49.41 49.63 49.71 52.28
60.64 60.64 60.62 59.70 58.62 57.50 57.19 57.05 57.13 57.57 57.35 58.28 59.23 59.32 56.69 50.92 50.58 55.14 59.81 58.32 58.82 58.22 55.86 53.18 47.70 45.32 41.58 42.86 43.98 43.32 45.15 47.91 49.13 49.66 49.80 50.79 49.26 48.56 48.53 50.58 51.72 51.65 50.29 50.02 50.20
59.95 60.37 60.52 60.11 58.99 58.41 57.47 56.85 57.09 57.26 57.79 57.40 58.50 57.73 49.84 41.43 50.98 52.28 53.15 52.84 55.14 56.33 54.30 53.06 49.79 49.32 44.60 44.24 42.58 44.86 45.26 45.50 47.11 47.91 48.49 47.79 48.05 47.91 50.05 50.35 48.92 49.34 49.25 49.81 49.56
59.72 60.06 60.28 59.94 59.24 58.23 57.76 57.13 57.30 57.19 57.43 56.98 57.66 54.17 47.97 44.84 50.89 50.78 52.09 49.63 51.12 52.84 51.72 53.41 52.50 48.51 47.85 43.91 46.36 45.31 41.33 43.32 44.43 45.79 45.60 47.85 44.81 45.48 50.14 50.16 48.66 47.90 48.00 49.13 49.92
57.48 58.91 59.16 59.27 59.16 58.74 58.02 57.44 57.52 57.58 57.80 57.30 57.29 51.14 43.10 52.04 51.61 51.00 50.46 48.74 49.80 51.48 50.43 52.97 53.09 49.46 46.52 46.90 44.51 41.59 40.26 35.01 41.11 44.25 45.90 46.56 38.99 45.11 48.19 49.08 49.37 50.41 47.54 47.43 49.16
55.67 56.74 58.54 58.94 58.89 58.53 58.39 57.65 56.97 56.11 56.52 56.56 49.59 45.57 40.25 52.55 49.32 50.35 50.06 47.29 47.33 47.98 48.73 51.91 47.93 43.50 43.03 38.94 35.80 38.24 30.86 33.63 37.44 43.53 43.87 44.26 39.30 45.48 48.44 48.14 47.16 46.35 46.08 47.12 47.51
54.29 54.50 56.34 58.27 58.62 58.17 58.13 57.06 56.43 54.98 53.60 52.54 50.52 42.90 44.86 43.67 48.23 49.46 49.84 49.28 45.51 45.78 45.11 44.35 42.51 38.44 39.94 35.76 26.60 30.37 32.55 34.91 36.46 40.39 41.21 41.06 41.58 45.20 45.85 46.33 45.71 45.86 45.63 46.13 46.61
53.33 54.58 54.92 56.84 58.06 57.86 55.48 50.82 45.51 44.88 48.26 41.62 42.43 41.97 44.54 48.07 49.92 47.95 48.97 46.81 44.70 41.84 36.92 39.64 36.29 34.54 36.69 37.24 36.90 35.10 34.09 34.06 36.96 41.26 39.92 37.69 38.27 40.78 42.91 43.93 44.35 46.72 45.85 47.30 46.44
52.26 52.92 54.93 54.94 58.19 57.45 52.18 45.59 43.65 43.70 38.43 45.26 45.26 45.17 47.24 47.84 42.94 45.99 48.83 42.34 40.46 35.10 36.26 36.89 32.47 36.50 38.62 37.90 37.57 37.24 35.26 34.25 36.51 39.94 39.16 37.04 36.47 39.86 41.55 43.38 44.20 45.23 46.70 46.77 47.51
51.65 52.25 53.69 54.37 57.47 53.94 49.25 45.54 48.52 46.76 36.51 39.47 43.81 43.36 44.23 45.94 41.89 42.77 45.64 41.93 37.35 34.78 36.17 32.31 34.00 38.55 37.56 35.50 33.97 32.72 32.15 31.78 31.93 36.13 37.52 34.98 32.50 35.65 40.48 42.89 44.32 45.65 46.47 48.34 49.11
51.08 51.48 52.65 54.19 53.49 51.00 47.19 49.58 48.58 45.81 24.20 31.18 38.84 42.20 44.25 45.12 39.82 47.07 46.81 42.42 38.11 35.17 35.97 34.74 38.29 36.44 34.12 33.39 34.49 30.35 35.93 35.91 34.42 31.28 25.18 33.54 23.45 31.40 35.12 38.43 41.22 43.50 44.44 46.79 47.17
50.26 50.91 52.13 52.98 50.84 47.52 48.98 49.07 48.43 40.19 12.31 34.79 38.90 47.49 45.59 40.54 42.23 41.69 46.71 43.76 35.77 34.84 34.99 31.24 33.33 33.50 32.82 33.82 35.42 32.48 36.91 35.29 35.03 32.41 28.99 30.50 27.53 27.90 34.06 34.87 39.51 41.84 43.09 45.12 47.17
50.12 50.88 52.00 49.93 51.40 50.26 50.92 50.87 45.76 23.66 12.36 33.25 39.21 40.21 39.65 40.34 42.46 42.94 43.13 46.06 44.15 38.07 37.25 33.73 37.89 36.71 34.45 36.46 36.90 37.70 34.03 33.80 33.08 32.62 24.25 27.93 28.02 27.17 30.18 33.23 37.92 40.96 42.67 44.75 45.04
50.54 51.34 51.21 50.12 47.11 51.68 51.41 45.22 27.97 18.62 34.18 33.24 35.10 38.94 38.60 37.45 38.80 40.05 38.01 37.18 35.06 31.02 30.36 35.86 35.27 38.19 38.82 32.93 35.79 35.12 31.62 24.32 23.97 23.60 20.97 28.94 27.06 29.66 34.09 37.26 38.53 40.52 41.77 43.22 43.30
50.67 51.17 50.81 50.24 52.36 51.81 47.82 34.72 19.53 28.69 29.83 37.34 36.21 36.81 34.05 37.48 37.17 38.35 37.18 34.77 38.23 36.23 32.08 25.93 21.78 34.30 37.02 34.47 31.49 31.97 30.86 24.23 16.42 20.99 19.91 29.00 23.89 28.73 37.67 40.94 42.02 42.74 43.90 42.20 41.96
51.04 48.59 48.30 49.35 52.14 50.91 40.39 28.92 26.08 29.82 35.91 34.36 35.38 31.87 32.43 35.32 35.72 35.88 35.78 34.56 36.47 37.71 30.69 28.42 24.96 34.81 36.40 37.71 37.25 33.85 28.80 32.79 27.26 27.55 23.97 24.61 28.88 35.18 39.83 40.03 41.24 40.21 41.64 41.12 42.02
46.93 44.95 45.22 49.51 52.44 47.09 36.43 29.64 30.22 36.85 37.59 36.34 30.27 33.30 29.74 32.21 32.06 33.56 32.90 33.44 36.17 38.61 38.48 32.91 27.00 32.25 35.32 37.47 37.62 35.30 36.50 28.36 28.29 19.10 15.72 21.68 23.98 26.95 34.46 36.54 38.81 40.19 41.65 40.82 42.17
44.73 39.58 46.95 50.73 50.13 41.10 31.52 30.21 33.32 40.13 39.75 35.95 33.65 32.56 34.02 32.68 33.95 32.66 29.21 32.64 35.99 35.43 37.55 34.56 31.76 28.16 35.21 32.27 30.88 32.60 30.79 31.21 30.57 27.67 16.61 16.83 21.87 33.98 35.74 37.22 38.84 40.29 41.62 41.97 42.22
41.67 34.74 49.27 50.47 37.07 38.02 31.68 33.24 38.85 39.02 40.71 40.93 38.46 37.71 34.78 32.92 31.12 28.47 28.70 32.28 37.71 37.44 33.29 36.79 34.33 26.71 28.47 34.71 37.01 34.72 31.56 30.79 25.02 18.82 23.82 19.52 23.97 38.04 38.73 38.98 40.48 41.44 40.47 40.49 42.75
38.51 42.04 49.58 47.24 32.75 34.40 35.42 36.05 38.46 39.23 39.43 39.35 37.70 39.13 39.86 35.29 29.85 31.33 32.39 37.53 38.71 37.38 34.87 36.62 32.72 26.19 26.73 32.03 35.65 33.37 33.40 32.85 31.60 30.30 22.68 18.93 24.89 37.54 39.97 41.46 41.36 40.35 41.00 42.70 43.25
39.87 35.75 41.63 43.19 41.88 36.79 34.47 34.27 34.33 41.01 40.31 41.26 40.03 39.45 37.63 36.20 34.91 31.53 32.68 37.61 38.85 38.70 41.88 40.19 35.17 30.39 24.65 29.57 33.53 31.28 32.47 33.30 31.39 26.50 26.15 26.92 29.34 34.66 37.56 39.67 41.46 41.43 40.98 42.70 43.24
42.82 36.88 38.41 32.32 37.15 36.85 37.72 36.00 34.60 35.47 40.62 41.75 40.05 39.21 38.07 35.73 35.10 33.49 34.74 35.83 38.92 41.25 40.79 38.38 30.91 32.94 33.43 33.79 33.95 34.38 33.55 33.01 30.76 30.59 26.42 29.35 30.68 35.31 37.99 39.16 41.96 43.02 42.25 42.69 43.61
40.41 38.98 39.80 37.17 39.08 35.10 35.18 35.86 35.39 37.63 39.66 38.12 37.13 39.22 39.61 37.16 36.26 31.85 35.54 35.69 35.74 38.16 37.72 39.29 31.41 32.86 31.31 35.15 33.92 32.63 34.92 35.47 34.76 33.18 32.17 32.36 31.77 39.10 40.93 42.21 42.51 41.13 41.67 42.37 43.23
42.47 44.30 41.04 39.45 38.27 34.35 34.41 35.94 36.73 40.72 40.75 41.28 41.08 40.20 38.91 40.63 42.64 42.81 42.14 40.47 40.45 39.12 37.23 35.34 32.52 31.96 28.42 35.32 34.83 29.41 33.23 34.07 35.28 36.22 34.51 30.41 34.81 39.31 39.57 40.92 39.03 39.69 42.27 42.85 43.46

GFSSW_sfc_wetblb_009.txt.gz
Wetbulb
61.34 61.61 61.34 60.10 58.74 57.67 57.64 57.28 57.80 58.02 58.40 58.98 60.45 61.85 63.62 63.43 62.04 58.45 53.06 56.57 57.97 62.79 61.25 56.23 54.86 54.39 54.08 52.32 54.00 51.62 45.92 42.38 43.07 42.76 45.59 49.45 48.45 51.76 52.12 50.30 52.01 53.26 52.97 55.29 57.68
60.86 61.05 61.57 60.82 59.15 58.03 57.53 57.05 57.60 57.95 58.28 59.05 60.23 61.56 62.25 62.41 58.17 55.13 59.19 62.76 63.16 62.98 56.72 53.18 50.76 52.28 49.34 50.35 50.62 50.15 45.42 44.53 47.27 47.06 47.00 49.01 49.30 49.97 50.47 50.27 51.39 52.74 54.79 55.81 58.66
60.55 60.68 60.98 61.13 59.79 58.54 57.36 57.20 57.72 57.98 58.51 58.98 59.78 60.33 61.06 61.22 54.20 53.79 62.77 64.54 64.50 63.83 57.79 55.70 53.80 51.28 47.64 49.76 48.71 48.50 44.75 47.87 48.71 49.66 50.17 49.33 49.27 51.17 49.18 48.32 51.04 52.04 52.70 54.09 57.06
60.32 60.29 60.77 60.88 60.42 58.87 57.47 56.70 57.42 57.63 58.26 58.50 58.96 59.68 60.66 58.25 43.59 53.02 61.79 62.31 65.11 60.92 57.83 54.27 51.02 46.84 45.47 45.13 48.65 45.42 48.22 49.20 50.12 51.73 50.82 49.48 51.11 50.21 49.40 51.06 53.67 52.45 53.20 53.03 54.29
58.30 59.70 60.03 60.43 60.52 59.33 57.72 56.89 57.20 57.24 57.82 57.35 58.49 59.00 56.84 51.34 51.27 56.09 58.40 57.61 59.66 58.35 56.15 53.51 49.08 46.58 43.38 44.84 46.12 45.46 46.55 48.74 49.89 49.90 49.95 50.97 49.73 50.29 50.49 52.67 54.37 55.38 54.64 53.82 53.72
56.59 58.00 58.71 59.51 60.23 59.71 58.70 57.44 57.09 57.18 57.55 57.24 58.01 57.25 50.48 44.44 51.72 52.34 53.72 53.98 57.53 58.18 55.63 54.02 51.29 50.15 46.23 45.63 44.44 45.94 46.21 46.52 47.66 48.02 49.18 48.25 48.81 49.39 51.01 53.85 53.24 52.59 52.98 53.25 52.90
54.99 56.65 56.89 58.78 59.40 59.62 58.12 57.79 57.07 57.24 57.47 57.23 57.55 53.76 48.19 45.20 51.91 51.63 52.16 51.21 52.82 56.09 54.01 54.87 53.35 50.09 49.00 45.38 48.05 46.42 43.10 44.58 45.23 46.64 46.58 48.94 45.20 45.71 51.52 52.51 51.55 51.94 52.83 53.59 53.71
53.34 54.39 55.81 56.29 58.57 59.31 58.76 57.91 57.21 57.46 57.53 57.18 57.26 50.86 43.14 52.06 52.46 51.51 51.41 49.84 51.16 53.41 53.03 54.60 54.32 50.85 48.47 48.20 44.59 42.78 42.58 37.49 42.73 44.99 46.46 47.31 38.56 46.80 50.05 49.97 50.01 51.00 50.85 51.75 53.39
52.39 52.98 54.62 55.49 56.64 58.46 58.53 58.38 57.51 56.92 56.76 57.29 50.18 45.51 40.23 52.28 49.51 51.06 50.36 47.77 48.69 49.46 50.32 52.41 49.60 45.11 45.84 40.65 37.47 39.04 32.99 36.05 38.66 44.81 44.88 44.80 40.77 46.31 49.89 48.50 48.11 49.17 50.30 50.57 51.33
51.31 51.87 53.27 53.79 55.25 57.54 58.20 57.77 56.98 54.88 53.00 52.08 50.90 43.79 45.04 43.59 48.48 49.27 50.79 49.04 46.28 46.47 46.11 45.77 43.80 39.86 40.44 38.24 28.56 31.38 33.63 35.22 35.61 41.25 42.07 40.53 40.37 44.29 47.49 47.51 48.09 48.14 49.23 49.41 50.09
50.77 51.70 52.57 53.10 55.05 56.52 56.36 52.01 46.67 45.12 47.52 41.48 42.08 42.37 44.62 48.24 50.13 47.74 49.45 46.93 45.54 43.29 38.35 41.26 37.75 34.12 36.64 38.00 37.38 36.98 35.45 34.42 37.42 41.16 39.03 38.59 39.10 41.53 44.43 44.38 44.76 45.94 47.67 48.83 49.72
50.60 51.22 51.79 52.34 53.65 55.42 53.79 46.35 44.33 44.77 38.93 45.31 45.11 44.89 47.18 47.83 42.85 45.89 48.89 42.47 41.00 36.36 38.23 37.40 33.39 37.96 38.93 38.42 37.54 36.71 34.86 34.50 37.51 40.02 38.97 37.43 36.12 40.05 41.95 42.75 44.50 45.38 46.33 48.02 49.67
50.09 50.42 51.04 51.43 52.83 52.96 50.11 47.01 47.91 46.62 36.58 39.17 43.82 43.34 44.25 46.20 42.10 42.90 45.80 42.39 38.47 35.73 36.30 33.37 35.15 38.86 37.38 36.19 35.54 35.40 33.67 33.78 33.51 36.65 37.96 35.52 32.89 36.28 39.70 41.73 43.87 45.34 46.52 47.98 48.22
49.70 49.64 50.03 50.95 48.55 51.53 47.75 49.76 48.46 45.20 24.71 31.71 37.96 42.22 44.30 44.83 39.68 46.96 47.13 43.09 38.98 35.83 37.52 35.83 38.94 36.94 34.94 34.24 35.56 30.88 36.48 35.92 34.50 32.48 26.91 34.53 24.59 33.71 37.69 38.78 40.42 42.27 44.32 45.91 47.34
48.82 49.48 50.20 50.45 47.56 48.33 49.50 49.74 46.32 41.09 12.11 34.33 38.43 47.44 45.18 40.62 41.01 41.98 46.93 43.42 36.04 35.52 35.79 32.64 34.16 34.33 33.82 34.54 36.12 33.07 36.94 35.01 34.89 32.88 31.13 31.32 28.02 31.21 35.35 35.09 38.51 41.23 43.17 44.95 46.96
48.81 49.82 50.32 48.36 49.04 48.68 51.49 49.77 44.23 25.20 13.20 32.70 38.94 39.83 38.70 39.77 41.93 42.86 43.12 46.14 43.67 37.54 37.78 34.72 38.38 36.70 35.21 36.87 37.27 38.19 35.22 34.45 34.03 32.36 25.45 29.17 28.89 29.10 33.16 35.48 37.66 40.81 42.88 44.81 47.49
49.04 49.79 48.40 49.45 43.73 51.40 51.31 45.27 29.37 18.03 33.67 32.82 34.74 39.63 38.09 36.28 38.60 39.59 38.09 36.95 34.92 30.55 30.12 34.51 35.49 37.88 38.33 33.63 36.17 35.58 32.91 25.22 23.78 23.93 22.26 30.16 28.20 30.77 36.34 38.94 39.65 40.52 42.72 44.21 46.22
48.94 50.11 49.21 49.34 49.89 49.67 47.63 35.88 23.11 28.13 29.81 37.19 36.79 38.21 34.74 36.79 37.33 38.27 36.04 34.27 37.91 35.91 31.09 23.28 22.86 34.47 37.84 35.28 32.09 32.59 31.58 25.78 18.72 19.42 22.90 28.87 25.44 30.54 37.94 41.05 41.62 42.52 43.10 43.60 45.31
50.29 45.87 46.92 48.34 50.05 47.71 40.41 29.10 26.27 29.33 35.44 34.64 35.57 32.79 32.90 35.69 36.18 36.04 36.02 35.11 37.58 37.63 30.82 26.79 26.96 34.92 36.21 37.33 36.84 32.69 29.00 34.34 27.82 28.38 24.37 26.55 30.03 34.99 37.81 39.44 40.85 42.18 43.56 43.53 43.68
45.33 44.83 44.89 49.74 49.93 45.10 35.05 30.61 29.73 37.25 37.55 36.59 30.83 33.28 30.03 32.52 32.94 34.23 33.95 34.91 35.91 38.85 39.77 33.55 26.15 32.36 35.44 37.14 37.15 35.47 36.58 27.78 28.71 20.24 18.74 22.89 24.99 27.53 32.85 36.21 40.06 40.34 42.88 44.44 43.93
43.43 39.64 46.23 50.06 48.17 40.09 31.52 30.02 33.37 39.30 39.10 35.44 33.22 32.07 32.01 31.94 32.83 32.77 30.58 32.65 36.20 35.95 38.71 36.06 31.60 29.16 35.43 32.43 30.87 32.65 31.50 32.42 31.52 28.98 21.49 19.28 24.41 32.90 34.14 38.55 38.86 40.63 43.16 44.21 43.61
40.61 35.05 46.85 49.19 35.55 33.96 33.13 33.12 39.94 37.87 40.95 39.93 38.05 36.07 33.29 33.77 32.86 32.22 29.31 31.61 36.96 37.17 34.35 35.91 33.32 27.55 27.75 34.70 37.21 35.35 32.30 31.96 25.82 22.77 25.97 22.78 24.87 37.59 38.97 40.63 40.16 41.30 42.86 43.98 44.36
37.71 40.51 47.75 45.55 32.27 33.68 35.95 36.64 38.99 38.94 38.91 38.75 37.27 38.70 37.78 33.97 30.73 31.84 31.87 36.94 38.31 36.59 33.92 36.40 32.29 23.66 24.24 31.96 34.93 32.56 33.34 33.54 32.67 30.83 25.08 21.38 24.86 36.93 37.02 39.53 41.36 42.25 42.93 43.91 43.59
39.41 34.84 40.31 42.69 41.05 34.61 33.69 34.05 34.83 40.85 39.97 40.58 38.95 39.08 37.01 35.81 35.78 31.79 32.45 37.20 38.16 38.36 41.32 39.80 33.66 26.69 25.36 29.45 32.88 31.05 32.28 33.33 31.68 26.91 26.13 26.49 28.76 33.73 36.39 38.36 40.18 41.41 43.52 43.96 43.45
41.74 36.78 38.41 33.28 36.17 36.56 36.72 35.66 34.45 34.86 39.52 40.58 38.32 39.00 36.71 35.12 35.36 34.01 34.27 35.29 37.86 40.23 39.88 37.54 30.59 32.48 33.13 33.85 33.43 33.22 33.18 33.04 31.05 30.71 26.36 29.30 29.64 33.81 36.86 38.49 40.00 41.74 42.93 43.46 42.97
37.17 38.52 38.33 36.34 38.73 35.97 34.57 32.47 33.80 36.33 38.61 37.37 36.06 39.45 39.62 37.01 36.43 33.02 34.93 34.62 34.90 37.12 38.16 39.19 32.09 33.28 31.07 34.85 34.34 31.41 34.07 34.33 33.56 33.10 31.62 31.93 31.16 38.22 39.60 40.51 40.80 42.02 43.31 43.23 43.23
42.20 43.58 40.74 38.61 36.82 34.03 31.95 36.21 35.77 39.31 39.61 41.57 39.68 39.63 38.85 40.09 42.24 42.49 42.92 42.12 40.34 37.73 36.21 35.87 32.89 31.67 28.14 34.52 34.01 30.74 33.32 33.72 34.58 35.70 33.97 29.81 34.74 39.32 38.70 39.47 40.48 42.23 41.37 42.86 44.34

GFSSW_sfc_wetblb_012.txt.gz
Wetbulb
60.53 61.14 61.37 61.57 61.06 59.69 58.49 58.08 57.39 57.64 58.19 58.65 59.48 60.76 62.65 63.37 62.67 59.65 55.53 58.48 59.82 62.92 62.06 59.01 57.60 57.01 57.33 55.53 57.18 57.27 48.42 45.14 46.71 47.17 48.67 52.69 51.39 54.83 55.50 54.15 55.44 56.50 56.55 58.20 60.65
59.50 60.77 61.05 61.27 61.21 60.15 58.88 58.19 57.52 57.83 58.21 58.50 59.37 60.58 61.98 62.57 59.46 55.99 60.32 62.52 63.35 63.43 59.43 56.06 53.84 54.82 52.97 53.15 54.19 52.41 47.61 47.10 51.13 51.89 50.32 52.22 52.50 53.23 53.13 53.57 54.44 55.90 58.30 58.48 60.64
57.78 58.98 60.05 60.94 61.04 60.62 59.26 58.28 57.66 58.08 58.18 58.70 59.00 60.00 60.78 61.39 54.44 54.79 62.53 63.90 64.59 64.08 60.29 58.02 56.22 53.89 50.37 52.64 52.04 51.44 47.50 50.83 51.45 52.89 53.24 52.13 52.54 54.64 52.73 51.39 54.58 54.98 56.65 58.02 58.58
55.45 57.25 58.83 59.55 60.26 60.59 59.63 58.34 57.31 57.84 57.97 58.09 58.47 59.39 60.16 58.51 44.80 56.59 61.70 63.27 65.41 63.15 59.39 56.77 54.12 50.30 48.56 47.72 51.47 46.82 50.53 51.25 51.58 53.39 53.28 52.11 54.41 52.90 53.49 53.69 56.61 57.51 57.58 58.54 59.24
53.58 54.92 56.86 58.19 58.93 59.87 60.03 58.60 57.48 57.89 57.65 57.38 58.09 58.57 57.94 52.39 51.70 57.86 57.99 59.21 61.92 61.07 57.26 54.66 51.88 50.48 47.25 48.18 49.16 48.14 49.24 50.72 52.13 52.47 52.49 53.05 51.37 52.10 52.75 56.23 58.14 58.47 58.63 58.98 59.47
52.53 53.92 54.76 56.67 57.33 59.11 59.83 59.30 57.94 57.87 57.48 57.83 57.94 57.25 52.69 47.48 55.10 55.87 55.65 58.27 59.99 59.68 56.88 55.22 52.57 52.64 48.47 47.71 47.34 48.51 48.98 49.59 50.53 50.49 51.11 49.44 50.15 51.35 52.69 55.63 55.39 56.04 56.56 58.15 58.98
51.82 52.87 53.26 54.05 56.08 57.36 59.06 58.59 58.19 57.71 57.73 57.84 57.55 55.71 50.21 48.20 54.86 55.38 54.93 53.21 56.74 59.32 55.34 55.70 55.03 52.02 51.39 47.29 50.40 48.95 45.35 47.70 48.40 49.02 48.46 50.83 46.85 47.68 52.66 53.96 53.02 54.34 55.55 56.36 57.63
50.74 52.20 52.41 53.06 55.06 56.20 58.10 58.74 58.42 58.00 57.75 57.56 57.30 53.25 46.36 53.68 56.37 54.21 54.62 53.93 55.83 56.86 57.70 57.99 57.19 52.31 49.03 50.17 47.39 44.58 44.94 40.83 46.34 47.63 48.48 47.84 41.63 48.44 53.24 53.00 52.53 53.55 54.35 54.91 56.05
51.29 50.83 51.50 52.23 53.72 54.38 56.46 58.64 58.07 57.84 57.48 57.57 52.18 48.90 44.19 53.48 50.03 53.52 54.38 52.35 53.70 53.68 56.16 56.82 53.12 47.97 47.78 42.68 40.75 42.26 37.93 39.62 42.02 47.27 47.15 46.67 44.09 48.90 52.05 52.17 51.71 52.65 54.07 54.97 55.79
50.45 50.58 51.10 51.82 52.93 53.77 54.80 58.63 57.47 56.69 55.47 53.45 51.25 45.88 47.95 45.45 50.08 51.53 53.37 52.98 50.67 50.98 49.15 48.55 47.85 43.59 43.26 41.03 35.19 37.25 37.23 39.01 39.10 43.79 44.91 43.56 43.80 47.85 50.42 50.00 49.91 51.35 53.39 54.40 54.81
50.03 50.27 50.87 51.70 52.16 52.82 52.74 54.16 47.01 46.33 49.27 45.25 45.31 44.35 46.21 49.94 52.11 49.46 51.69 50.03 49.76 48.47 42.51 44.78 40.44 37.12 40.26 42.01 41.74 39.51 38.59 38.26 41.43 44.35 42.24 41.49 42.42 44.90 47.79 48.27 48.19 49.36 50.50 51.83 53.66
49.67 49.75 50.60 50.71 51.50 51.99 51.12 47.30 47.53 49.95 42.10 47.14 47.09 46.91 48.39 49.54 44.33 47.47 51.33 45.22 44.23 40.09 43.34 40.21 36.04 41.98 42.32 41.84 40.04 39.29 37.50 37.68 41.01 42.97 41.35 40.92 40.18 43.70 45.13 45.58 47.04 48.09 49.30 50.52 52.07
49.15 49.61 49.84 50.42 50.72 49.47 47.27 48.09 50.85 49.44 42.11 43.14 46.20 45.18 46.05 48.03 44.05 44.85 48.15 45.63 42.61 39.87 40.27 38.20 38.78 41.33 40.24 39.09 37.44 38.30 37.18 37.37 36.68 40.24 41.44 39.32 37.70 41.92 44.81 45.90 46.49 47.05 48.15 49.06 49.88
49.06 49.19 49.56 49.87 47.05 47.93 45.92 52.12 50.59 47.54 35.88 35.84 40.92 44.35 46.08 47.28 42.26 49.23 49.72 45.79 41.74 38.93 40.08 39.33 42.49 38.52 37.89 36.95 38.67 34.58 39.83 38.19 36.37 34.47 30.84 38.23 30.57 39.21 42.63 43.24 44.70 46.45 47.66 48.44 49.64
49.20 49.39 49.59 49.55 46.64 43.67 48.39 51.18 48.21 45.75 25.29 37.32 39.14 49.01 46.85 42.35 43.41 43.68 49.70 45.45 39.48 39.00 39.12 36.44 37.17 37.05 34.94 36.46 39.39 35.63 39.26 37.42 37.17 35.13 33.14 34.60 29.32 36.42 40.93 40.01 42.71 45.68 47.46 48.98 50.12
49.03 49.35 49.40 47.87 47.91 48.00 51.80 49.87 45.64 30.73 24.14 34.02 39.76 39.82 39.44 40.98 42.09 44.04 44.28 46.72 45.07 39.62 39.63 38.89 41.39 39.73 38.95 40.14 40.26 40.28 37.31 36.66 35.96 33.27 26.80 33.21 31.73 33.09 37.85 40.82 42.58 44.84 47.04 48.54 49.59
49.18 49.34 48.33 48.30 42.94 51.28 51.10 43.44 29.96 28.99 36.06 33.08 35.03 38.21 37.23 36.54 39.22 40.61 39.44 37.71 36.10 31.66 32.33 35.96 37.63 40.17 40.51 36.08 39.32 38.32 33.87 28.41 24.91 24.49 25.61 35.21 32.05 34.76 40.26 42.28 43.64 44.48 46.28 47.99 49.40
49.56 50.32 49.37 49.12 50.17 50.88 46.11 35.30 27.72 32.47 33.72 38.27 38.27 37.61 35.29 37.63 38.20 38.59 37.34 35.03 39.03 37.03 32.99 30.85 29.86 37.12 39.97 37.12 35.33 34.77 34.53 28.68 21.42 24.31 27.92 34.73 28.71 34.63 42.53 44.53 45.70 46.38 46.89 49.48 50.42
50.09 47.59 46.83 48.64 50.75 47.62 38.37 31.34 31.46 33.41 37.42 35.56 37.17 33.82 34.30 36.36 37.86 36.74 35.87 35.09 37.69 38.29 32.47 30.33 29.34 37.91 39.42 40.39 39.38 33.92 30.10 37.08 30.15 31.59 26.21 30.41 35.12 39.72 42.14 42.05 43.83 44.82 47.31 48.22 49.36
45.89 43.61 45.58 49.51 49.43 44.73 34.68 34.36 33.33 39.22 39.53 38.84 32.71 35.18 31.21 33.76 34.60 34.60 35.09 39.08 38.38 41.31 41.63 35.95 29.73 36.00 37.92 40.12 39.74 37.20 38.48 29.56 30.59 21.58 20.95 28.67 30.10 31.79 37.73 39.62 42.17 44.75 45.92 47.05 48.80
43.85 39.31 47.28 49.57 46.99 37.72 33.07 33.35 37.56 41.36 41.39 37.77 35.41 34.64 35.44 34.10 35.35 34.50 35.42 37.51 40.20 40.23 41.70 38.76 33.86 32.42 35.64 33.69 33.78 33.44 31.44 33.37 32.72 31.12 22.93 22.30 29.03 39.78 38.49 40.70 41.08 43.94 45.42 46.63 48.38
41.21 34.09 47.19 48.38 35.30 36.15 35.05 35.45 41.04 39.74 43.18 40.82 40.34 38.45 36.34 36.57 34.58 34.99 34.75 36.43 40.92 41.29 36.39 39.46 34.88 29.22 32.02 38.74 40.08 38.52 34.81 33.45 27.63 25.92 29.47 28.03 28.97 41.13 41.55 42.63 44.82 44.12 45.47 47.60 48.76
37.39 39.33 47.65 47.26 34.19 35.48 36.91 38.27 41.15 39.90 40.79 40.27 38.88 40.07 39.87 36.57 33.37 36.27 36.17 40.14 40.91 40.37 38.35 39.17 33.39 27.44 31.37 34.67 37.56 33.62 35.90 35.79 34.18 33.04 28.09 25.16 29.01 40.04 40.91 41.36 43.03 43.83 45.08 46.47 48.01
38.69 34.68 39.43 42.19 42.90 37.32 36.56 36.62 37.72 43.00 41.64 42.07 40.16 41.43 39.00 36.54 38.11 35.30 35.73 39.36 41.00 41.01 41.51 41.32 35.80 31.76 28.98 32.99 36.26 33.01 33.83 34.81 33.52 28.66 29.78 29.91 32.08 37.42 39.77 40.37 42.11 43.34 44.87 45.55 47.24
41.66 37.39 39.35 35.21 37.49 39.18 39.37 38.74 37.31 36.96 42.04 43.00 39.47 39.24 38.17 35.07 35.82 35.32 37.27 37.78 39.49 41.05 40.96 39.39 31.71 33.86 34.21 35.02 34.80 34.08 33.56 34.55 31.68 32.69 28.99 32.75 33.31 37.19 40.13 41.05 42.41 44.07 44.39 44.13 46.12
37.83 38.68 41.59 39.28 40.12 38.81 38.71 36.79 36.80 38.94 39.78 38.32 38.83 40.24 40.18 36.99 37.90 35.92 38.08 38.10 37.82 39.99 38.68 40.13 32.73 34.58 31.57 35.09 35.55 33.16 35.23 35.34 34.90 34.76 34.19 34.63 33.90 41.12 41.98 43.19 42.80 43.37 42.62 43.23 45.73
43.14 43.44 42.28 39.66 38.55 37.63 37.88 37.79 38.14 41.03 41.59 42.66 41.53 40.32 38.93 40.32 43.34 44.09 43.94 42.52 41.27 39.48 37.75 36.77 34.28 32.27 29.05 35.88 35.43 31.89 35.03 35.87 35.94 36.63 35.50 31.40 36.86 40.73 38.01 39.02 39.61 41.18 42.72 44.59 45.56

GFSSW_sfc_wetblb_015.txt.gz
Wetbulb
57.11 58.61 60.09 60.71 61.22 61.20 60.65 59.54 58.89 57.89 57.74 58.47 58.69 59.47 60.94 62.44 62.85 60.16 54.58 59.72 61.19 63.56 62.18 60.07 58.63 58.41 58.41 56.19 56.97 58.32 49.51 45.75 47.54 47.72 49.25 53.78 52.12 55.37 56.45 54.51 55.52 57.04 57.16 59.66 62.16
55.20 56.66 57.80 59.31 60.28 60.65 60.69 59.92 59.18 58.25 57.94 58.46 58.77 59.53 60.84 62.22 58.59 55.27 60.68 61.67 62.54 63.62 59.41 56.83 54.54 55.93 53.78 53.94 54.70 52.41 47.31 47.29 51.17 51.75 51.11 52.74 52.91 53.88 53.45 53.36 53.47 55.90 58.50 59.61 61.36
53.51 54.43 55.89 57.57 59.15 59.76 60.30 60.17 59.24 58.33 58.39 58.38 58.97 59.27 60.24 61.33 54.18 55.09 64.71 63.34 63.94 63.68 60.88 58.55 56.96 54.53 50.80 53.12 52.68 51.81 47.10 50.83 51.72 53.61 54.24 52.89 52.60 54.63 52.85 51.87 54.35 54.22 56.86 58.98 59.39
52.85 53.16 54.14 55.64 56.92 58.36 59.52 60.27 59.35 58.51 58.34 58.33 58.32 58.97 59.90 58.65 45.48 58.95 61.66 63.18 64.68 63.29 59.76 57.09 54.98 51.49 49.61 48.36 51.88 47.88 50.80 51.57 52.54 53.37 53.14 51.86 53.78 52.27 53.42 53.82 56.72 57.32 58.58 59.08 58.85
52.45 52.20 52.87 54.09 55.25 56.59 58.01 59.51 59.79 58.16 58.19 58.21 57.60 58.72 57.40 52.68 51.83 59.68 59.06 60.58 63.17 61.13 57.43 55.15 52.83 51.97 48.30 50.26 50.91 48.86 50.15 51.05 52.15 52.53 52.64 53.45 51.68 52.25 53.36 56.48 57.53 57.78 58.02 58.28 58.63
52.50 51.88 51.95 53.23 53.59 54.75 56.66 58.67 59.73 58.26 58.11 58.12 57.47 58.63 54.07 47.71 57.84 58.94 58.27 59.46 59.99 59.92 57.05 56.28 53.76 53.91 50.83 49.83 48.92 50.72 50.32 50.67 51.87 51.63 52.12 50.27 50.50 51.38 52.46 55.47 55.37 55.97 56.50 57.77 58.69
52.17 52.11 51.34 51.87 52.22 53.44 55.17 57.26 58.89 58.40 57.96 58.48 57.91 56.50 51.35 50.52 56.77 57.50 57.95 57.94 60.22 60.06 56.52 57.30 56.16 52.06 51.65 48.13 51.67 50.42 46.75 49.02 49.73 50.32 49.58 51.26 47.10 48.15 52.98 54.14 53.15 54.05 55.23 56.05 57.11
51.65 51.44 51.41 51.37 51.85 52.43 54.05 55.36 56.47 58.40 57.91 58.28 57.67 54.46 47.93 55.61 57.74 54.49 56.66 57.49 59.85 60.57 58.61 57.66 56.49 52.91 50.93 51.44 48.85 45.67 46.68 42.56 48.63 48.94 49.92 48.90 42.32 49.77 53.07 53.27 52.76 53.60 54.13 54.71 55.60
50.83 51.04 51.05 50.84 51.34 52.11 53.29 54.02 55.20 58.29 57.85 57.95 53.68 51.47 45.98 54.33 51.12 55.10 55.82 54.64 56.51 57.40 58.34 57.86 55.11 49.85 48.95 44.47 42.27 43.82 39.82 42.58 45.00 49.29 48.13 47.53 44.97 50.39 52.79 52.40 51.88 53.10 54.13 55.03 55.71
50.51 50.37 50.36 50.61 51.38 52.04 52.82 53.13 54.10 57.08 55.84 54.73 53.04 46.90 49.49 47.31 51.78 53.29 55.42 55.68 52.88 53.12 51.78 50.44 48.75 44.79 44.89 42.87 36.50 39.65 39.55 41.78 41.23 45.57 46.43 44.84 44.77 48.56 50.82 50.92 51.32 52.11 52.71 53.75 54.82
50.06 49.68 49.99 50.06 50.92 51.04 51.13 48.38 49.20 47.51 50.16 46.32 46.86 46.24 48.26 51.65 53.59 51.26 53.39 52.98 51.77 49.24 42.58 45.97 40.77 38.70 42.73 44.09 44.11 41.99 40.44 40.00 43.36 45.97 43.76 42.81 43.52 45.79 48.49 49.07 49.08 49.89 51.11 51.98 52.96
50.00 50.09 49.96 49.87 50.52 50.90 49.74 41.77 44.42 48.27 42.54 48.83 47.95 48.18 50.54 51.70 45.81 49.00 52.94 47.16 45.48 41.68 44.08 40.59 37.40 43.79 45.65 44.31 42.52 41.33 39.07 38.94 42.44 44.65 42.87 41.87 41.49 45.14 46.70 47.31 48.47 48.54 49.20 50.27 51.64
49.97 49.54 49.70 49.86 50.31 49.21 46.90 43.14 48.91 49.27 42.63 44.15 47.47 46.87 47.28 49.40 45.73 46.03 49.39 47.19 44.38 41.56 41.01 39.24 41.27 43.32 42.86 41.26 39.30 39.97 38.45 38.96 38.92 42.21 42.26 40.36 39.12 43.02 46.83 48.14 48.79 49.23 49.72 49.84 50.10
49.32 49.30 49.54 49.57 46.70 47.63 45.34 48.72 50.18 49.27 35.88 38.01 41.46 45.21 47.33 48.44 43.46 50.31 50.82 47.22 43.41 39.57 41.05 40.72 44.27 40.21 40.12 38.79 40.47 36.41 42.40 40.75 38.79 36.70 33.28 40.07 31.62 39.72 43.30 44.53 46.49 47.73 48.55 49.06 49.66
48.63 49.22 49.41 49.02 44.89 43.25 46.87 50.81 49.78 45.79 26.59 38.79 40.88 50.04 47.88 43.77 44.81 45.05 51.09 46.42 40.56 41.29 41.29 38.61 38.64 39.11 37.10 38.56 41.31 37.82 40.73 38.75 38.12 35.92 34.24 35.45 31.86 37.37 42.37 41.06 43.64 46.34 48.14 49.53 50.59
48.78 49.01 48.88 47.35 46.77 47.21 50.17 50.44 46.52 32.18 26.66 34.68 39.94 39.79 39.59 42.42 42.88 45.01 44.68 47.74 46.33 40.92 41.53 40.33 43.15 41.48 40.83 41.63 41.76 41.47 38.38 36.97 36.40 32.99 26.55 33.64 34.30 35.18 39.04 41.03 42.58 45.30 46.98 48.30 49.66
49.15 50.10 49.38 49.23 41.29 50.43 50.19 45.68 31.14 29.87 37.58 33.40 34.46 38.97 38.23 36.78 38.89 40.19 39.10 38.35 36.90 32.09 32.80 37.55 38.22 41.21 42.11 37.70 40.45 38.80 33.26 29.78 27.29 26.21 26.68 37.10 33.95 36.41 41.80 43.45 43.93 44.25 46.48 47.62 48.93
50.49 50.24 49.34 48.20 49.66 51.13 44.67 37.25 27.51 35.17 35.07 38.62 37.87 37.74 34.34 37.03 37.84 38.53 37.31 35.12 39.59 38.58 35.90 30.92 32.08 38.38 41.12 38.45 36.71 34.73 34.25 29.87 23.37 26.52 30.00 36.88 30.88 36.09 43.51 45.06 45.31 46.04 46.97 47.87 48.99
50.20 48.33 46.68 48.70 50.69 48.30 40.70 29.05 33.01 35.96 38.23 36.40 36.17 33.35 34.12 36.69 38.23 38.09 36.55 36.31 39.29 40.43 34.09 33.28 31.68 40.29 41.10 41.29 40.34 35.43 31.05 38.07 30.62 32.13 27.43 31.44 36.05 40.82 42.73 42.76 44.14 44.76 45.79 46.46 48.80
45.91 44.31 44.35 49.74 49.46 45.33 37.68 33.57 34.79 40.60 40.87 39.65 33.01 35.83 31.18 33.85 35.31 35.63 35.75 40.26 38.17 41.87 43.08 37.46 31.14 37.74 39.64 41.10 41.30 38.31 39.87 29.52 31.16 22.46 22.81 30.30 32.40 33.65 38.80 40.48 42.69 43.45 44.79 46.15 48.86
45.26 38.70 45.62 50.01 49.10 40.59 33.30 34.71 38.17 42.59 42.64 38.80 36.92 35.64 36.18 34.45 36.72 35.23 36.29 40.06 42.28 41.68 42.40 39.45 35.33 33.80 36.63 34.88 35.23 34.67 32.82 33.91 33.92 31.81 25.37 24.19 30.21 40.38 39.57 41.43 41.89 43.25 45.20 47.15 47.61
40.21 33.85 47.00 49.51 37.77 38.69 36.40 37.41 41.61 40.08 43.33 41.21 41.61 40.01 38.35 38.23 36.97 37.22 37.24 38.47 43.03 43.10 37.29 40.50 35.46 30.83 33.24 39.77 41.17 39.22 35.64 34.52 28.38 27.87 30.01 29.23 29.11 42.13 42.15 43.04 43.53 43.75 46.18 46.42 47.20
38.78 38.70 46.94 46.88 34.52 35.47 37.16 38.94 41.11 40.23 41.53 41.26 39.54 41.23 41.62 38.75 35.14 38.40 38.91 42.09 42.44 41.73 39.38 39.97 34.50 28.94 32.04 36.64 39.56 35.76 37.39 37.25 35.90 34.20 29.30 26.60 29.80 41.69 42.52 42.05 42.79 43.15 44.68 45.95 46.83
40.26 34.47 39.69 43.56 44.05 38.69 37.44 38.40 38.32 43.84 42.40 43.02 41.42 42.24 40.19 38.49 40.36 37.56 37.43 40.40 42.31 42.44 42.61 43.10 36.32 33.20 29.59 34.34 37.07 33.54 35.10 36.54 34.73 30.16 30.43 31.17 32.98 37.91 40.38 41.07 42.53 44.03 45.07 45.58 46.25
42.88 38.07 40.57 35.97 38.78 39.64 40.44 39.70 37.92 37.44 42.84 43.46 40.24 40.34 39.15 36.02 37.00 36.58 39.15 39.87 41.31 42.82 41.42 39.68 32.97 34.85 35.38 36.37 36.40 35.40 34.93 35.46 32.53 33.68 29.91 33.05 33.46 37.62 40.41 41.14 42.13 44.11 45.19 45.08 45.62
38.56 38.81 42.18 40.99 41.62 39.65 39.44 39.39 38.66 39.98 40.64 39.10 39.43 41.00 40.90 38.24 39.10 36.50 39.27 39.48 38.62 40.69 39.54 40.14 33.61 34.79 31.55 35.70 35.97 34.23 37.01 37.27 36.98 36.43 34.82 34.99 34.02 40.95 42.57 42.79 42.75 43.20 43.98 43.93 44.29
44.37 44.15 41.67 40.16 40.65 39.54 39.77 39.97 39.36 42.12 42.74 43.60 42.63 41.43 39.69 41.21 43.89 44.55 44.91 44.02 42.57 39.66 37.84 37.14 34.29 32.18 30.02 36.50 35.65 33.08 36.87 37.41 37.52 38.33 36.88 33.19 37.59 41.76 39.99 40.54 40.94 41.03 43.12 42.57 43.71

GFSSW_sfc_wetblb_018.txt.gz
Wetbulb
54.79 55.11 56.09 57.45 58.68 59.80 60.62 61.04 60.73 59.73 58.93 58.12 58.73 58.88 59.70 61.00 62.17 60.00 55.20 57.70 61.04 63.69 62.48 61.07 58.35 57.05 56.80 54.24 55.60 55.49 45.99 42.71 44.46 45.45 47.25 51.29 49.49 52.10 53.17 50.72 52.30 52.49 52.12 57.17 62.95
53.66 54.21 54.35 55.26 56.76 58.10 59.24 60.30 60.95 60.14 59.30 58.21 58.81 58.99 59.87 61.31 58.53 55.81 61.21 62.77 62.74 64.41 57.90 56.18 53.45 54.83 51.54 51.85 52.40 49.24 45.05 45.81 50.13 49.58 48.36 51.40 49.93 50.28 49.50 50.36 49.58 50.93 54.67 58.27 59.38
53.44 53.44 53.36 53.71 54.92 56.67 57.58 58.89 60.39 60.35 59.38 58.54 58.69 59.23 59.76 60.11 53.82 52.50 63.60 63.38 63.76 62.86 59.67 57.88 56.20 53.51 49.58 50.96 50.44 49.21 44.17 48.81 49.46 50.39 51.76 51.26 51.07 52.09 49.71 47.92 50.83 49.90 52.89 55.71 56.34
53.49 53.47 53.24 52.81 53.92 54.64 55.99 58.00 59.24 60.18 59.43 58.61 58.54 58.87 59.66 57.47 43.68 58.06 63.76 64.40 63.97 62.10 58.85 55.77 53.52 49.64 47.32 45.82 50.07 45.62 49.50 49.89 50.48 51.66 51.36 49.67 52.22 49.94 50.19 49.75 53.74 53.85 54.63 54.27 55.09
53.50 53.24 52.99 52.89 52.58 53.16 54.45 55.88 57.83 59.76 59.48 58.50 58.39 58.33 56.41 51.77 51.78 60.21 62.00 62.28 62.04 60.51 56.67 54.05 50.65 49.51 46.09 47.73 48.24 46.32 47.99 49.95 50.55 50.72 50.01 51.82 49.55 49.59 50.21 53.18 54.47 54.91 55.10 54.08 54.04
53.53 53.23 52.64 52.39 52.27 52.33 52.75 54.50 56.69 58.63 59.03 58.31 58.26 58.46 52.65 46.62 58.74 58.77 58.52 58.97 59.36 58.75 56.75 55.35 52.32 52.95 50.01 48.67 47.47 49.51 49.33 49.31 50.26 49.75 50.25 48.64 48.31 49.08 49.71 52.47 52.66 53.64 53.40 53.46 54.26
53.24 52.88 51.93 51.82 52.09 51.97 52.26 53.63 55.59 57.32 58.81 58.37 58.40 56.01 50.18 49.10 57.59 58.36 58.01 57.27 59.20 58.84 55.50 56.84 56.33 52.73 51.78 47.88 50.98 49.31 44.96 47.30 47.92 48.51 47.75 49.32 45.16 45.89 50.76 51.94 50.86 50.94 51.76 53.50 53.95
52.33 52.00 51.93 51.37 51.16 51.48 51.95 52.91 54.32 54.92 57.94 58.25 58.46 53.95 46.26 56.15 56.84 54.50 56.72 56.64 58.50 59.79 58.49 58.04 56.71 53.11 50.35 50.71 48.44 44.78 44.55 39.08 46.13 47.99 48.59 47.06 39.07 47.13 50.43 50.12 49.45 50.38 50.82 51.41 52.77
51.58 51.33 51.11 50.76 50.93 51.04 51.81 52.90 53.80 54.13 57.15 57.78 53.30 50.93 44.56 54.22 51.69 54.69 54.97 54.29 56.77 57.65 57.99 57.67 55.10 50.27 49.07 43.47 39.62 41.22 35.13 38.49 42.30 47.66 46.58 44.63 40.43 47.35 50.30 49.23 47.86 48.93 49.20 50.95 51.68
51.02 50.70 50.60 50.44 50.56 50.88 51.19 52.20 52.77 53.24 56.53 55.41 53.08 46.52 48.48 46.82 51.25 53.21 54.48 55.50 53.58 53.79 52.32 51.84 48.49 43.39 43.57 39.95 32.14 36.03 36.48 39.03 38.63 43.26 43.97 42.06 41.78 45.60 47.80 47.65 46.58 47.71 48.53 49.11 50.35
50.76 50.46 50.53 50.47 50.39 50.53 49.89 48.16 45.91 46.99 49.53 44.90 45.14 45.96 47.11 51.65 53.43 51.16 53.14 52.83 51.59 50.14 42.98 46.79 41.00 37.20 40.69 42.20 42.43 41.24 38.71 36.89 40.30 44.17 40.96 39.58 40.41 42.83 45.42 45.36 45.33 46.39 47.49 48.68 49.95
50.46 50.31 50.20 50.21 50.26 50.62 48.83 42.14 42.17 45.08 41.67 48.39 48.40 48.56 50.55 51.36 45.81 48.80 53.17 47.15 45.69 41.33 43.81 40.92 36.27 42.50 44.56 44.38 41.72 40.09 37.26 36.43 40.17 43.26 40.74 38.74 38.14 41.68 43.69 44.39 45.46 45.64 46.11 47.20 48.05
49.84 49.74 49.59 49.83 50.22 48.60 45.64 44.32 48.18 47.17 41.81 43.52 47.06 46.82 47.48 49.40 45.51 45.74 49.43 47.60 43.36 40.73 40.38 37.83 40.30 44.33 42.28 40.91 38.60 37.70 36.40 36.40 36.43 40.18 40.48 37.94 35.35 38.36 43.22 44.66 45.63 46.66 47.39 47.57 47.21
49.71 49.27 49.46 49.54 46.00 45.88 43.02 48.71 48.82 47.70 34.41 38.39 41.22 45.62 47.51 48.80 43.60 50.07 50.58 47.34 43.88 39.95 41.57 40.12 43.68 40.93 39.55 39.01 39.81 34.36 40.42 39.70 38.46 34.07 27.90 37.44 25.56 34.65 38.81 40.17 43.41 43.67 43.69 44.40 45.34
49.30 48.99 49.04 47.76 44.25 41.62 45.92 49.64 48.65 43.63 25.77 39.16 41.11 50.54 48.07 44.02 44.50 45.23 50.81 46.75 40.74 40.82 40.80 38.05 39.11 38.59 36.76 38.34 40.62 36.65 40.46 37.95 37.16 33.05 29.49 30.89 26.21 30.84 37.95 36.90 39.33 40.20 42.95 44.12 45.59
49.73 50.18 50.62 48.11 45.85 45.58 48.66 49.05 43.76 29.17 25.12 35.70 39.95 39.94 40.67 42.89 43.20 45.09 45.27 47.67 46.73 41.57 41.98 40.75 42.89 41.16 40.09 41.67 40.99 40.97 38.46 36.06 34.02 30.50 19.83 28.73 28.94 29.44 33.81 37.49 38.77 38.86 41.27 42.48 43.49
50.35 50.83 49.58 49.08 42.75 48.51 48.98 43.76 29.45 25.69 36.78 32.80 35.79 39.02 38.31 37.82 39.52 40.82 39.23 38.34 35.46 31.70 32.82 37.05 37.44 40.41 41.66 36.61 39.55 39.06 33.69 23.41 22.12 24.19 19.68 32.88 29.29 31.66 37.68 40.17 40.13 38.42 39.21 42.36 42.95
50.67 50.60 49.21 48.03 48.41 49.32 45.75 34.59 23.64 33.03 33.92 38.13 37.95 38.00 34.53 37.84 37.75 38.46 37.36 34.91 39.19 36.87 32.88 28.29 29.35 37.16 40.50 37.07 35.12 35.07 33.86 24.76 19.36 19.13 23.26 32.55 25.28 31.38 39.07 40.78 41.96 42.37 41.96 42.32 42.89
51.11 48.41 47.47 48.53 50.24 47.98 40.84 27.37 29.66 34.45 37.29 35.67 37.05 33.21 33.20 36.50 37.24 36.56 35.88 35.09 37.69 38.97 31.44 30.47 31.03 40.21 40.59 40.57 39.16 34.63 28.60 34.23 28.42 27.56 20.47 25.98 30.42 37.10 40.24 40.28 41.34 41.16 41.87 41.33 42.26
47.26 45.05 44.62 49.86 50.00 45.91 37.55 32.16 33.84 40.50 39.74 38.62 31.62 35.47 30.48 32.87 34.53 35.09 34.44 38.43 37.46 40.43 41.09 37.36 29.24 37.15 38.93 40.06 39.43 36.52 37.97 28.52 29.73 14.46 17.64 24.42 27.24 29.50 35.08 36.19 39.09 39.40 39.60 41.00 42.97
45.70 39.24 45.70 50.06 49.38 41.56 32.66 33.22 38.20 42.27 42.17 39.04 35.87 34.66 34.53 33.31 35.86 34.19 34.41 39.15 40.40 39.96 41.36 38.43 32.98 32.76 35.39 33.48 32.78 33.63 31.81 32.65 31.15 28.47 20.28 20.22 24.79 35.25 36.91 37.97 37.80 38.58 40.89 42.14 43.22
42.39 34.41 46.58 49.33 36.82 37.80 34.99 36.68 41.79 40.19 44.18 41.59 41.95 39.63 35.74 35.93 35.11 34.65 35.81 38.34 42.41 41.71 36.20 39.61 35.41 26.39 30.75 37.92 39.18 37.30 33.78 32.94 27.13 22.00 26.89 24.89 26.21 40.19 40.01 38.62 40.08 39.17 40.17 41.33 42.65
39.74 39.58 47.18 45.84 33.48 35.09 37.88 39.29 40.77 40.70 41.87 41.13 39.45 41.62 40.50 36.94 34.38 37.63 38.83 40.81 41.78 40.57 37.86 39.03 32.20 23.51 27.01 33.98 36.92 33.49 35.27 35.52 34.55 32.73 27.12 24.19 26.50 40.29 41.49 41.30 41.05 41.85 41.66 42.97 43.17
41.25 34.60 40.84 42.82 42.54 36.93 37.13 37.15 38.12 44.01 42.43 43.02 41.02 41.99 39.67 37.49 39.78 36.21 36.90 40.31 41.07 41.58 43.76 42.36 36.06 28.00 23.62 27.95 33.29 31.08 33.91 35.40 33.90 28.99 28.27 29.29 30.88 36.50 39.29 40.33 41.27 41.79 43.05 43.78 44.42
43.72 38.68 41.11 36.75 38.32 38.81 40.74 40.00 37.50 37.34 43.00 43.55 40.37 40.42 38.84 35.38 36.25 35.99 38.65 38.46 40.51 42.41 40.90 37.88 31.10 30.88 33.74 34.81 34.32 32.75 33.08 34.32 32.74 33.75 30.04 31.66 32.71 36.60 39.47 40.62 41.83 42.85 43.29 43.31 42.52
39.76 38.65 40.82 40.50 40.93 39.92 39.73 38.70 38.37 39.90 40.93 39.06 39.16 40.67 40.26 37.24 38.58 35.93 38.34 38.40 37.33 39.41 37.42 39.18 32.38 34.07 30.45 34.00 33.99 31.70 34.05 35.11 36.07 36.91 36.62 36.47 35.53 41.78 42.97 42.10 40.74 40.96 40.80 40.67 42.19
44.56 44.82 41.10 40.84 39.22 37.61 37.96 39.63 39.99 42.20 42.69 43.37 42.39 40.61 39.84 41.16 43.32 42.98 43.05 42.96 41.65 38.69 36.85 36.94 34.49 31.60 26.73 34.33 33.14 29.77 34.60 37.92 38.07 38.84 38.44 34.64 38.43 41.82 41.22 41.21 40.94 41.59 41.72 42.30 43.46

GFSSW_sfc_wetblb_021.txt.gz
Wetbulb
54.36 54.56 54.57 54.53 54.86 56.56 58.23 59.22 60.15 60.94 60.57 59.76 58.69 58.57 58.90 59.58 60.52 58.57 53.41 56.98 58.75 64.47 62.44 59.78 56.74 55.78 54.39 50.85 52.46 50.80 41.37 38.99 41.80 42.92 44.52 49.36 47.46 49.87 50.82 48.82 49.67 49.74 49.88 58.44 63.14
54.39 54.39 54.29 54.08 53.69 54.37 55.92 57.73 59.03 59.83 60.94 59.97 58.87 58.75 58.93 60.29 56.95 54.79 60.05 63.62 63.95 63.74 58.65 54.52 52.66 53.00 47.89 48.98 49.26 45.49 41.54 42.81 47.25 46.87 45.98 48.92 48.61 48.30 47.69 47.96 46.92 47.61 54.68 58.02 61.43
54.31 54.22 54.02 53.97 53.93 53.42 53.90 55.70 57.33 58.71 60.24 60.12 58.98 58.88 59.45 59.38 52.63 52.45 63.89 64.16 64.77 63.47 58.48 56.10 54.66 51.75 47.26 47.70 46.83 46.02 41.39 47.17 49.06 49.28 48.84 49.22 48.78 50.60 46.87 44.95 47.94 48.02 50.32 54.63 56.67
54.40 54.27 54.11 54.02 53.02 53.18 52.70 53.02 55.37 57.26 59.36 60.14 59.05 58.81 59.41 56.25 42.33 56.81 63.18 65.01 63.98 61.46 57.44 54.96 51.98 46.98 45.21 44.39 47.68 43.00 47.10 48.35 49.09 50.25 48.89 47.27 50.27 48.29 47.78 47.20 51.41 50.81 51.75 52.58 52.76
53.91 53.89 53.80 53.55 52.82 52.84 52.23 52.71 53.20 56.01 57.96 59.78 59.10 59.03 56.11 50.91 49.71 59.92 63.07 63.54 61.46 59.67 55.45 53.53 49.44 46.80 43.69 44.63 45.39 43.42 45.61 48.56 48.96 48.88 47.95 49.54 47.32 47.08 47.63 50.64 51.87 52.60 52.81 50.64 52.70
53.05 53.16 52.98 52.98 52.72 52.01 52.27 51.99 52.49 54.80 56.76 59.05 58.82 58.62 52.49 45.30 56.99 59.44 59.15 59.74 59.13 58.08 55.95 54.30 49.97 49.74 46.38 45.68 44.29 46.49 47.10 46.87 48.10 47.87 48.00 47.20 46.31 46.39 47.52 50.51 49.59 50.16 50.55 50.28 51.55
52.47 52.58 52.33 52.16 52.05 51.61 51.54 52.23 52.45 53.86 55.53 57.80 58.71 55.28 49.33 48.11 56.65 56.66 57.66 57.17 58.45 57.90 54.46 56.02 55.63 51.82 48.85 45.74 48.39 47.53 43.27 45.12 45.95 47.14 45.93 48.04 43.44 44.05 48.43 49.31 48.79 48.41 48.06 50.16 50.73
52.10 51.68 51.53 51.38 51.23 50.98 51.47 51.88 52.42 53.53 54.70 56.39 58.13 53.44 45.74 55.23 54.25 55.70 56.51 55.72 56.59 58.59 57.49 57.48 56.21 52.17 48.73 48.08 46.37 43.11 42.18 37.17 44.05 46.63 47.26 45.92 37.73 45.76 48.78 47.05 47.55 49.14 49.59 49.07 50.92
51.44 51.20 51.24 51.03 50.95 50.89 51.02 51.56 52.07 53.27 54.39 55.38 53.78 50.61 43.50 55.12 51.43 52.75 52.97 53.74 55.61 57.73 57.12 57.60 55.01 50.01 48.41 42.62 38.90 38.80 32.73 35.86 39.66 46.04 45.64 43.77 38.90 45.84 48.34 47.07 45.16 46.90 48.10 49.10 50.46
51.03 50.88 50.90 50.82 50.81 50.63 50.88 51.47 51.58 52.14 52.21 55.15 53.30 45.88 48.12 46.30 51.53 53.15 52.85 53.30 53.21 54.13 52.67 51.99 49.18 44.11 42.86 39.73 31.15 33.01 33.16 35.85 35.96 41.74 42.99 40.82 39.52 43.68 45.84 44.66 43.13 44.32 45.17 45.79 47.98
50.70 50.71 50.57 50.61 50.46 50.48 48.42 45.09 41.07 44.11 48.56 45.26 44.32 45.15 47.02 51.33 53.15 51.08 52.05 52.21 52.17 49.47 43.81 47.84 41.15 38.09 40.40 38.95 39.70 37.97 35.49 34.36 37.65 42.07 39.12 37.75 37.94 40.19 43.17 42.22 43.18 44.28 43.62 45.98 47.13
50.43 50.30 50.41 50.00 50.36 50.50 47.01 40.44 42.49 42.99 35.69 48.30 47.51 48.22 50.02 51.16 45.39 48.80 52.00 46.40 46.20 42.66 43.51 40.62 37.47 41.11 43.10 43.05 41.32 38.06 35.22 33.52 37.59 41.06 38.91 37.13 37.16 40.51 42.10 42.93 44.00 44.30 43.20 42.94 44.80
49.68 49.85 49.80 49.78 49.29 46.84 43.84 43.23 48.22 45.80 34.98 44.15 47.67 46.81 47.08 49.67 44.98 45.28 48.99 46.30 42.51 41.44 40.86 36.17 39.01 43.18 41.96 40.05 37.72 34.96 33.86 34.04 34.14 37.72 37.04 34.94 32.50 35.95 40.14 42.18 43.76 44.66 45.72 44.74 44.70
49.29 49.58 49.69 48.69 43.73 43.78 41.66 47.81 48.31 45.60 30.18 38.25 42.23 45.81 47.38 48.05 43.33 49.41 50.22 46.83 43.80 39.99 41.12 40.13 42.94 40.74 38.93 38.24 38.21 32.08 38.10 37.87 36.24 31.76 26.10 34.15 23.87 30.87 36.29 38.03 41.10 41.91 42.71 44.50 45.52
50.28 50.57 50.61 50.47 43.73 40.32 44.64 48.06 47.05 41.58 22.96 38.18 41.16 50.09 47.52 43.72 44.17 44.78 50.32 47.03 40.21 40.61 41.04 37.52 39.57 38.73 35.86 37.48 39.22 35.09 38.93 36.18 35.05 30.17 26.99 27.59 24.36 27.94 33.44 34.25 37.48 38.60 40.24 41.31 42.66
50.57 50.84 51.27 49.02 46.03 44.86 45.72 47.81 43.59 28.39 22.95 35.97 40.65 40.67 40.52 42.60 42.98 44.87 45.39 47.88 46.34 42.13 41.21 39.04 41.42 40.00 38.80 40.50 39.61 39.86 35.60 34.10 32.23 27.72 16.74 25.97 26.44 24.63 30.31 34.71 35.89 37.90 38.26 40.07 41.67
50.58 51.21 49.52 48.66 42.74 47.02 47.83 43.02 27.14 21.40 36.30 34.36 36.73 39.24 38.73 38.08 39.32 41.22 39.52 38.32 34.63 30.85 33.38 37.98 36.68 38.95 40.38 35.47 37.76 35.85 29.31 17.49 17.22 20.08 18.28 29.44 27.01 28.52 35.14 38.30 38.57 38.87 39.56 40.18 41.02
51.50 51.02 48.86 48.32 48.52 46.53 44.64 33.35 22.08 34.08 32.44 38.56 38.53 38.29 35.05 37.68 37.54 38.90 37.69 34.83 37.28 34.73 28.00 25.10 23.15 35.06 38.55 35.50 32.93 32.44 30.53 20.13 17.49 16.71 22.06 30.53 24.51 29.73 38.12 40.39 40.45 40.91 39.52 40.17 40.82
50.74 44.82 46.05 47.46 48.76 46.23 39.63 25.53 26.74 34.53 36.86 36.08 36.85 33.02 33.91 37.08 36.49 36.79 36.09 34.98 35.88 35.96 28.05 24.78 28.82 38.22 38.65 39.04 38.12 32.19 27.29 32.85 24.74 24.86 16.45 23.71 28.31 34.43 37.93 38.18 38.15 38.68 38.68 38.15 39.28
42.29 40.66 43.56 48.45 48.69 44.80 36.54 29.82 32.01 39.50 39.63 38.79 31.15 34.86 30.47 33.80 32.93 34.50 34.51 36.82 36.47 38.51 37.84 36.35 28.32 36.43 37.96 39.18 38.54 34.13 35.88 23.69 22.04 11.74 16.31 21.90 23.47 27.88 32.70 34.23 37.21 37.18 37.50 39.93 40.79
40.75 37.81 45.02 49.41 47.94 39.61 31.37 31.84 37.34 41.27 42.11 38.10 33.63 33.72 33.25 33.05 33.93 33.03 32.93 36.53 38.57 37.98 38.50 37.91 32.08 30.99 36.98 32.36 31.37 31.75 28.78 30.40 28.70 24.77 17.36 18.47 22.90 32.46 33.89 34.97 35.14 36.00 37.69 37.80 41.15
40.63 33.02 44.88 47.94 33.83 36.33 32.70 34.30 41.37 40.51 43.21 42.01 40.14 36.32 33.54 34.42 33.21 32.21 31.55 36.43 40.57 41.45 35.27 38.95 33.71 25.06 28.67 35.54 37.46 34.93 31.83 31.09 25.03 19.12 23.59 20.64 25.50 39.19 39.04 37.17 38.91 41.82 43.06 44.74 43.61
35.68 39.15 46.02 42.87 30.24 33.79 37.70 39.40 41.26 40.34 40.74 40.68 38.74 39.20 38.35 33.97 32.01 35.09 36.25 38.86 40.93 40.41 35.47 38.02 29.79 20.95 26.59 32.30 34.88 32.55 33.98 34.42 33.97 31.34 24.98 22.70 25.54 37.92 39.13 40.12 41.94 41.51 43.57 43.93 43.91
40.08 29.02 35.68 39.77 38.51 37.47 36.89 37.44 37.37 42.82 41.46 42.15 40.11 39.65 36.97 36.52 37.47 35.02 34.26 38.74 39.89 40.79 44.02 41.64 33.46 24.35 22.30 25.97 32.27 28.88 32.46 33.45 32.82 28.28 27.11 27.68 29.84 35.05 37.93 40.07 42.64 43.80 44.25 44.02 43.99
40.89 33.60 38.66 28.73 34.18 35.39 38.50 38.60 36.83 37.15 41.52 41.54 38.49 38.75 37.31 33.75 34.81 33.86 35.82 36.36 38.78 42.23 39.06 38.67 26.88 28.63 31.86 33.39 32.90 31.35 31.81 33.15 30.85 32.26 29.34 31.51 32.53 36.01 39.92 41.64 43.15 43.02 42.16 42.68 43.31
38.37 37.40 39.46 36.00 37.99 35.63 36.95 35.84 37.12 38.56 39.94 37.77 37.42 39.41 39.44 36.51 37.39 34.27 36.60 35.47 34.23 36.37 35.68 36.86 24.53 31.90 25.31 32.46 32.48 30.14 33.03 34.09 34.24 34.34 34.11 34.59 34.33 41.74 44.13 43.48 42.16 42.45 41.87 41.81 42.17
43.45 44.23 41.17 37.61 34.66 32.83 33.91 37.46 38.64 40.50 41.13 42.12 40.55 39.18 39.11 40.51 41.69 41.10 42.61 41.37 40.03 36.05 34.74 35.91 31.17 27.06 21.30 32.18 31.22 28.39 31.92 34.22 38.05 39.25 38.33 34.52 38.39 43.39 42.09 41.89 39.29 39.50 40.90 42.27 43.19

GFSSW_sfc_wetblb_024.txt.gz
Wetbulb
55.15 54.66 54.68 54.43 54.35 54.21 54.16 55.27 57.22 58.54 59.75 60.72 60.41 59.30 58.76 59.03 59.22 57.17 51.72 55.63 58.38 63.59 62.91 59.09 56.18 55.23 53.71 49.57 50.95 48.97 40.37 37.97 40.47 40.94 42.48 47.17 46.38 49.62 49.80 46.87 47.89 48.30 53.14 58.66 62.43
55.06 55.03 54.65 54.56 54.62 53.60 53.83 53.46 54.95 56.67 58.07 59.54 60.70 59.51 58.85 59.58 55.58 52.16 58.59 62.29 63.42 63.70 58.93 54.65 52.92 52.47 47.46 47.81 47.95 44.48 39.57 41.53 45.84 45.67 44.25 46.97 46.84 47.84 47.42 46.53 45.77 47.20 54.86 60.70 61.48
55.01 54.70 54.36 54.71 54.08 53.57 53.63 53.02 53.12 54.03 55.89 57.91 60.04 59.46 59.40 58.75 52.00 50.67 62.02 63.89 64.78 63.29 58.33 57.38 53.98 51.03 46.51 46.51 45.84 44.44 40.40 46.13 47.84 49.09 48.02 47.26 47.51 49.04 46.14 44.63 46.23 46.02 54.44 56.80 56.88
54.78 54.29 54.03 53.94 53.70 53.52 52.61 52.84 52.74 53.32 54.38 56.63 58.41 59.58 59.30 55.83 40.55 54.59 62.69 64.55 64.63 61.26 57.13 54.34 51.74 47.04 44.64 43.79 46.97 41.46 45.81 47.33 48.12 49.32 47.61 45.74 48.90 46.31 47.19 47.73 50.18 49.59 50.37 51.13 53.68
53.46 52.95 53.33 53.53 53.17 53.00 52.88 52.27 52.68 52.33 53.39 55.44 57.23 59.54 55.57 48.93 48.85 57.81 62.71 64.16 61.29 58.51 54.85 52.11 48.87 46.65 42.68 44.20 45.18 41.62 43.78 47.07 48.39 48.46 46.97 47.85 46.41 46.64 46.86 50.12 50.98 50.50 51.66 51.03 50.83
53.21 53.01 52.83 52.69 52.19 51.89 51.88 51.64 51.99 52.56 52.35 54.47 56.38 58.84 51.71 43.33 55.60 58.95 59.67 59.69 59.09 56.70 54.04 53.19 50.52 49.56 45.19 44.50 43.08 44.90 45.39 45.55 46.65 46.88 47.03 46.08 45.62 45.62 46.41 49.30 48.80 49.35 49.04 49.12 50.63
52.39 52.19 51.87 51.79 51.72 51.26 51.45 51.50 51.99 52.22 52.55 54.35 55.72 56.02 48.66 46.15 55.32 57.69 59.63 57.91 58.80 57.70 54.12 54.89 53.87 49.01 47.34 44.87 47.77 46.58 42.19 43.90 44.84 45.84 45.27 46.60 43.71 42.89 47.95 48.52 47.23 47.31 47.75 49.47 49.40
51.82 51.49 51.34 51.45 51.35 51.00 51.30 51.57 51.61 51.86 52.49 54.32 55.81 53.99 44.49 54.55 54.69 55.16 56.26 55.02 58.22 58.35 56.64 56.57 55.30 50.55 47.77 47.16 45.22 42.51 41.28 36.51 43.08 45.04 45.86 45.41 37.97 44.30 47.76 45.58 46.03 46.94 47.15 47.68 50.30
51.38 51.17 51.15 51.02 51.07 50.94 50.89 51.28 51.58 52.20 52.55 53.50 51.74 50.36 42.03 55.88 51.31 53.15 53.97 53.00 55.05 56.68 56.95 57.49 54.80 49.08 45.92 40.73 37.10 37.91 32.29 35.26 38.89 44.72 44.21 42.81 38.30 45.45 48.39 45.85 44.05 44.46 45.26 46.89 48.67
50.93 50.96 51.02 50.93 50.75 50.70 50.79 51.30 51.28 50.80 50.35 51.64 53.08 45.13 46.29 46.25 51.52 52.29 53.37 53.58 53.24 53.77 52.77 52.04 49.56 44.66 41.90 37.89 30.55 32.64 32.38 34.43 34.76 40.05 40.85 38.76 39.67 43.28 44.44 44.49 43.50 43.31 43.64 44.02 46.47
50.48 50.11 50.50 50.61 50.30 50.50 48.12 43.71 39.37 40.80 45.41 43.04 45.27 44.45 45.44 51.01 53.45 51.02 52.12 52.84 52.18 49.80 43.90 47.46 41.88 39.23 41.54 41.08 38.02 39.42 37.13 33.31 36.37 41.20 38.02 36.97 36.51 39.38 42.23 40.78 40.91 42.93 42.85 43.57 45.38
49.87 49.67 49.84 50.05 49.98 49.75 45.87 38.78 40.70 41.57 36.46 42.49 47.05 47.65 49.51 50.78 45.81 49.06 51.93 47.50 47.17 41.55 43.50 41.95 38.60 42.80 44.70 44.00 40.77 37.88 34.08 32.94 36.54 39.51 37.58 36.07 35.76 39.43 41.43 42.27 42.95 44.14 44.79 44.48 44.75
49.87 50.15 50.19 50.19 48.93 46.20 42.20 41.82 47.63 46.02 35.25 41.15 47.58 46.43 47.20 49.29 44.77 45.67 48.82 46.26 44.88 41.52 41.08 38.47 39.89 44.40 42.20 40.25 37.16 34.05 32.91 32.72 33.38 36.46 35.19 33.79 33.64 35.11 38.57 40.66 42.86 44.69 45.30 45.53 45.47
50.44 50.82 50.86 50.64 45.01 44.67 40.87 47.46 47.60 45.26 29.68 37.66 42.16 46.07 47.53 48.12 42.77 49.14 51.06 46.29 43.98 40.33 41.02 39.70 41.13 40.22 38.27 37.69 37.37 31.50 36.57 36.68 35.03 31.13 25.74 32.96 23.58 29.77 34.87 36.66 38.66 39.43 39.46 41.67 43.43
50.79 51.00 51.02 51.06 44.13 41.15 44.19 47.64 45.65 41.60 20.65 38.07 41.87 50.38 47.37 43.09 43.76 44.89 50.41 47.14 40.17 41.08 40.84 37.07 38.07 36.98 35.95 37.42 39.03 34.80 38.02 35.48 33.84 28.86 25.76 26.59 23.99 27.06 31.43 32.85 35.49 37.14 38.79 40.34 41.14
51.74 51.38 50.95 46.22 45.93 46.03 46.74 46.49 42.35 28.75 20.87 34.80 40.54 40.68 40.96 42.04 42.48 45.34 45.28 47.60 46.59 42.01 40.99 37.69 40.74 39.59 37.87 39.33 38.88 39.51 34.70 32.31 31.00 26.61 16.94 24.40 25.27 23.98 28.11 32.75 34.76 36.58 37.45 39.65 40.76
51.62 50.61 48.64 48.32 42.47 46.78 46.81 41.46 26.87 21.42 35.35 34.45 36.97 39.40 38.68 37.82 39.92 41.44 39.87 38.39 35.68 33.70 33.74 37.53 36.14 38.02 39.74 34.99 37.36 34.99 28.54 17.00 15.04 13.75 17.45 26.96 24.81 26.18 32.64 36.02 35.59 37.32 38.43 38.63 38.93
50.78 49.88 49.09 48.27 46.76 45.92 44.79 31.64 20.85 32.81 34.07 39.37 38.49 38.10 35.30 37.53 38.92 39.17 37.78 35.04 38.02 33.91 32.05 26.99 23.42 34.55 37.84 35.22 32.73 31.37 29.36 19.38 16.20 15.78 20.16 28.01 23.41 28.74 36.05 37.79 37.46 37.81 36.94 38.40 39.10
48.83 44.70 45.96 46.70 47.48 47.30 38.91 25.79 26.44 31.83 38.16 37.03 36.97 32.68 32.87 35.87 37.60 37.01 36.10 35.77 35.63 35.33 28.23 24.93 27.31 37.27 37.50 38.11 36.82 31.24 24.74 31.23 23.55 22.01 14.63 22.20 26.12 32.83 35.46 35.42 36.90 37.08 37.45 38.06 39.43
40.56 41.64 43.19 49.34 48.78 44.35 34.74 30.89 32.03 37.60 39.74 38.45 30.16 33.63 29.66 32.27 32.74 34.36 34.15 36.84 35.50 37.67 36.67 33.00 25.36 35.30 36.83 38.08 36.95 33.40 34.72 22.83 18.23 9.82 14.62 20.56 22.25 26.93 31.52 32.12 36.14 35.97 36.04 37.99 39.88
40.96 36.67 43.41 48.64 47.21 39.05 30.74 31.31 37.96 41.46 41.52 37.98 32.94 32.18 33.77 33.24 32.40 31.44 32.43 35.28 37.41 37.01 37.76 34.59 29.32 29.68 35.41 31.34 30.43 30.74 26.63 27.82 26.58 23.27 16.65 18.86 22.41 31.20 32.71 33.43 34.68 35.82 37.64 38.49 41.45
37.43 28.26 42.75 45.58 33.65 36.72 33.13 35.15 40.49 39.83 41.49 39.89 37.28 34.93 32.56 33.83 31.83 30.79 30.96 33.96 39.16 38.84 34.06 36.37 31.30 20.52 28.76 34.17 35.86 33.70 31.04 29.40 20.43 17.68 21.09 20.15 23.72 36.14 34.06 35.12 37.74 40.74 41.84 43.03 43.74
34.38 35.09 43.54 41.31 27.45 34.96 36.13 38.12 40.57 39.43 39.44 38.75 36.67 37.31 36.75 33.79 30.19 32.36 34.62 38.35 40.28 38.90 35.05 36.40 28.13 18.50 25.74 31.55 33.39 31.31 32.67 32.67 31.03 30.98 20.76 21.90 24.08 35.90 36.14 39.48 41.36 42.95 44.89 45.98 45.82
35.61 27.83 35.06 38.19 38.53 36.02 33.85 35.60 35.94 41.35 39.96 40.09 37.07 38.22 35.80 34.10 35.35 34.12 33.73 38.14 39.94 41.21 43.62 40.49 31.07 23.34 21.31 23.46 30.01 26.55 30.95 32.23 30.72 23.73 24.95 25.91 29.15 34.39 37.08 39.44 42.30 44.27 44.50 43.92 41.32
36.43 33.40 36.91 29.11 33.21 33.22 36.29 36.81 35.69 36.33 40.67 40.18 37.18 37.07 35.80 33.80 33.70 33.00 34.82 35.52 38.50 42.54 40.46 37.46 24.94 26.34 30.33 32.14 31.66 30.53 30.96 31.46 27.32 30.59 26.40 30.10 31.19 35.00 38.12 40.72 42.69 42.27 42.48 43.59 43.42
35.73 36.55 38.81 35.84 35.89 34.90 35.61 34.36 36.31 37.65 38.56 36.99 36.49 38.68 37.89 35.83 35.58 33.18 35.14 33.84 33.21 35.51 36.35 35.43 23.59 31.71 28.64 31.06 31.56 28.85 31.65 32.25 32.89 33.62 33.23 32.63 31.79 39.46 41.95 44.42 43.66 40.65 40.72 40.35 42.54
41.72 43.50 40.68 35.77 33.88 31.73 32.52 35.97 37.15 38.99 39.62 40.83 38.99 38.88 38.26 39.67 40.73 39.80 39.46 38.77 37.43 34.57 33.17 33.07 29.53 28.01 22.80 30.30 29.84 26.19 30.37 32.43 34.57 35.94 33.95 32.92 37.51 41.27 40.77 40.88 40.43 40.03 37.16 36.25 40.29

GFSSW_sfc_wetblb_027.txt.gz
Wetbulb
56.11 56.04 55.85 55.20 55.20 54.35 54.27 53.95 53.81 54.57 55.94 57.27 58.82 60.72 59.80 58.99 58.79 55.28 51.20 54.63 57.40 62.90 63.09 58.51 57.01 55.19 53.19 49.49 50.15 47.55 39.53 37.06 38.17 38.98 40.87 45.34 44.48 47.99 48.28 45.83 47.23 47.08 53.28 56.63 60.65
55.48 55.87 55.65 55.13 54.88 54.62 54.09 52.84 54.05 53.38 54.36 55.21 56.94 58.77 59.65 59.43 54.74 50.29 56.41 61.00 62.35 62.76 59.07 54.45 51.60 51.94 47.56 47.72 47.51 44.13 39.01 40.66 44.74 44.03 42.99 45.49 45.53 46.19 46.89 45.63 44.77 47.04 55.14 59.69 60.59
54.59 54.68 54.85 54.51 54.31 54.04 53.73 53.68 52.57 52.58 53.33 54.50 55.77 57.52 59.43 58.15 49.61 48.31 60.06 61.85 63.09 62.75 58.80 57.19 53.55 50.86 46.19 45.99 45.58 44.08 40.27 44.93 46.71 48.24 47.49 45.90 46.01 47.81 45.30 44.49 44.78 45.09 49.92 54.08 58.39
53.69 53.88 53.62 53.86 53.97 53.61 53.38 53.07 52.99 52.47 52.71 53.12 54.79 56.26 57.91 55.23 38.96 53.27 61.74 62.99 63.60 60.73 56.56 53.84 51.15 46.25 44.39 43.28 46.20 41.31 45.21 46.59 47.70 49.13 46.77 44.38 46.98 45.06 46.63 47.18 49.16 49.47 50.04 50.35 52.45
53.21 53.02 53.06 52.93 52.85 52.20 52.61 52.39 52.74 52.51 52.49 52.80 53.43 55.27 55.24 48.12 46.91 56.47 61.74 63.41 60.52 59.33 55.25 52.27 47.95 46.04 43.04 44.35 44.49 41.91 43.31 46.41 47.66 47.89 46.15 46.94 45.02 44.81 45.35 49.51 49.90 49.54 50.49 49.83 50.05
52.60 52.50 52.22 52.25 52.06 51.75 51.69 51.91 52.02 52.23 52.55 52.50 53.14 55.00 52.00 41.66 53.95 56.70 58.45 59.51 58.93 56.66 53.23 51.81 48.95 48.43 44.59 43.17 43.56 44.61 45.01 45.31 45.80 45.78 46.17 45.21 44.80 44.78 44.79 48.51 48.37 47.98 48.17 48.37 48.84
52.09 52.02 51.68 51.54 51.57 51.50 51.52 51.61 51.84 51.93 52.02 52.31 53.05 52.52 49.69 45.79 54.27 54.74 59.44 58.47 58.16 56.27 52.54 53.15 52.41 48.06 46.24 43.85 46.33 45.63 41.27 42.61 44.03 45.37 44.64 45.39 42.57 41.67 46.96 47.79 46.56 46.77 46.59 47.63 48.24
51.88 51.42 51.38 51.36 51.30 51.16 51.39 51.57 51.61 51.84 51.77 51.95 53.22 51.72 45.19 53.99 53.91 52.51 57.18 56.95 58.18 57.47 55.84 55.80 55.50 50.50 46.27 46.65 44.36 41.94 40.39 36.09 42.00 44.48 45.17 44.73 37.59 43.75 46.81 44.45 45.21 45.99 46.61 46.47 47.92
51.45 50.97 51.22 51.14 51.11 51.06 51.05 51.36 51.61 51.84 51.99 51.95 49.27 49.78 42.93 56.14 50.39 52.40 54.61 53.23 55.56 56.43 56.22 56.96 52.78 47.64 44.87 40.24 36.36 37.02 31.98 34.70 38.30 43.67 43.11 41.90 37.30 43.90 46.60 45.71 44.35 44.94 45.18 45.06 46.11
51.11 50.71 50.39 50.43 50.65 50.48 50.69 51.02 51.20 50.28 48.85 49.64 49.75 44.39 47.30 45.40 50.96 52.09 53.26 55.14 53.63 53.18 52.14 50.63 48.15 42.06 39.75 36.83 30.92 32.38 32.48 33.37 34.14 38.49 39.98 37.54 37.14 42.43 45.66 43.34 42.50 42.89 43.49 44.01 45.28
50.93 50.02 49.76 49.78 50.21 50.02 47.49 42.75 37.71 38.65 43.60 40.38 43.58 43.95 45.48 50.75 52.80 50.76 52.17 53.00 52.59 49.41 45.00 47.86 43.11 39.58 39.06 38.86 37.61 36.97 34.54 33.19 35.83 40.06 37.21 35.91 35.39 38.55 41.21 39.89 39.51 40.61 42.43 43.60 44.68
50.59 50.22 50.54 50.35 50.43 49.20 45.15 37.89 39.56 41.13 34.41 42.97 44.17 46.76 48.88 50.62 45.18 48.65 53.84 47.82 46.88 42.72 44.16 42.56 38.87 43.79 44.94 43.76 42.05 39.75 35.04 32.28 35.92 38.38 36.44 34.93 34.30 38.67 40.75 41.60 42.97 43.50 44.29 44.97 44.07
50.50 50.50 50.63 50.83 49.51 46.23 42.07 40.43 47.00 44.37 35.59 38.66 45.35 45.86 46.76 48.91 44.39 45.96 49.64 47.47 44.91 41.70 41.22 39.50 40.70 45.26 43.72 41.97 39.85 35.14 32.27 32.06 32.79 35.53 34.02 32.50 31.48 33.99 37.63 39.14 40.59 42.98 44.56 45.34 44.52
51.92 51.29 50.76 50.34 45.54 44.73 40.79 46.88 47.63 43.36 29.50 36.85 40.84 45.54 46.91 47.32 42.16 49.22 50.92 46.78 44.10 40.25 41.10 39.61 41.62 42.45 40.99 38.99 37.24 31.12 35.76 35.98 33.76 30.49 25.70 32.25 23.60 29.91 34.54 35.39 36.39 37.43 37.72 39.90 41.58
51.83 51.61 51.40 49.99 43.75 40.94 43.16 46.49 45.72 40.11 20.51 37.02 41.56 50.12 47.33 42.03 43.26 44.76 50.22 47.45 41.20 41.10 40.24 37.07 38.49 38.82 37.29 37.60 40.04 36.20 37.09 34.28 32.50 28.08 24.43 26.03 23.39 27.83 30.07 32.08 34.78 35.66 36.67 37.58 39.29
51.17 50.74 50.15 45.51 45.27 45.84 46.47 45.62 40.97 27.53 21.93 33.87 40.78 41.21 40.18 41.39 42.22 45.49 45.17 47.69 47.18 41.73 40.42 38.06 40.25 39.73 37.55 38.22 38.68 39.40 33.74 30.62 28.69 26.04 16.67 23.21 23.84 24.95 27.96 30.24 32.78 34.81 36.56 36.80 37.48
50.83 50.65 47.56 47.38 41.50 47.44 45.48 39.14 26.84 21.52 34.51 33.49 36.81 39.13 38.91 38.66 40.46 41.36 39.93 38.27 36.35 33.66 32.94 37.11 35.67 38.98 39.76 35.29 36.93 34.28 28.60 17.43 15.10 14.62 17.32 25.78 24.12 27.41 32.19 34.17 34.54 35.71 35.41 36.71 37.96
50.24 48.78 47.69 45.89 45.85 45.51 43.01 33.15 22.88 30.99 34.28 39.59 39.04 38.42 34.87 38.46 39.05 39.42 36.67 34.69 36.55 35.09 33.97 30.67 27.90 34.20 37.15 34.85 32.84 30.91 29.20 20.00 14.84 14.87 19.56 26.70 23.00 28.47 33.65 34.17 35.65 35.74 35.29 37.46 38.69
48.79 43.36 44.66 45.52 47.40 45.44 37.87 25.75 26.48 31.28 38.42 36.85 37.26 33.40 34.56 36.98 38.27 37.48 36.15 34.18 35.25 33.83 28.24 27.43 26.52 36.42 36.97 37.17 36.20 31.00 23.60 29.88 22.55 20.23 15.30 22.09 25.75 31.47 34.05 34.73 35.52 36.14 37.46 37.70 38.77
40.40 39.93 42.04 47.96 46.77 40.98 32.37 31.87 33.80 37.45 39.58 36.10 29.34 33.34 30.88 33.21 33.64 34.73 34.25 37.14 36.24 37.19 36.06 32.12 25.72 34.51 35.99 37.39 36.55 32.65 34.06 23.16 18.51 9.59 14.08 19.02 21.16 23.95 29.37 31.63 34.88 34.73 35.71 36.97 38.40
38.82 36.10 43.21 46.61 44.76 35.56 30.25 32.72 37.93 40.90 40.21 35.40 32.12 31.43 32.14 31.91 33.00 31.94 32.25 34.34 37.59 35.98 36.23 33.63 29.47 30.65 34.14 31.21 30.34 30.93 26.69 27.00 25.57 22.58 15.66 17.07 21.55 29.90 30.36 32.01 33.75 35.43 39.81 39.99 40.58
35.61 28.37 41.71 43.52 32.52 37.13 34.27 36.75 40.29 39.27 40.37 38.82 36.03 33.65 32.03 33.04 31.25 30.05 30.61 33.50 38.04 37.58 32.88 35.16 29.58 21.60 28.86 33.43 35.12 32.97 30.29 28.34 19.69 16.83 19.65 19.15 23.12 34.55 33.62 33.46 36.08 39.50 39.47 44.09 45.83
33.80 34.11 42.07 40.69 28.81 34.30 35.90 36.97 38.83 38.25 37.93 37.29 34.78 35.80 35.33 32.52 29.61 31.22 32.96 37.37 38.85 37.20 34.15 35.60 26.04 16.31 24.10 29.63 32.53 29.72 31.22 30.87 28.53 24.81 17.02 18.32 23.28 34.98 33.69 37.88 39.88 41.61 44.10 44.88 44.93
34.72 29.43 35.22 37.31 36.26 34.33 33.65 34.71 35.00 39.95 38.58 37.92 35.90 36.73 34.71 33.04 33.63 31.87 32.80 37.47 39.15 39.38 42.95 39.81 29.80 23.40 20.26 23.03 28.24 24.84 29.99 31.42 28.56 21.73 23.08 24.86 26.69 33.89 36.22 38.09 41.01 42.73 43.03 43.17 43.29
35.06 34.48 36.59 30.81 32.88 32.83 34.24 35.88 34.95 35.92 39.51 37.93 35.13 35.83 34.97 31.72 32.53 31.94 33.80 34.71 38.20 42.96 38.63 35.56 24.74 26.01 29.53 31.26 30.78 30.23 30.47 30.49 26.25 29.13 24.81 27.86 28.58 33.52 37.35 39.28 40.20 43.35 42.28 41.59 39.22
34.84 36.80 39.00 34.50 34.50 33.07 34.20 33.65 35.53 36.84 37.63 36.12 34.47 36.26 35.48 33.62 34.27 32.20 34.16 33.05 33.74 35.63 36.37 34.42 25.70 30.90 24.67 30.42 30.64 28.51 30.76 31.25 31.51 31.61 30.92 31.41 30.66 38.42 39.46 39.48 42.31 41.29 40.29 37.39 36.41
39.32 42.58 39.63 35.47 32.52 30.81 31.40 34.97 36.44 38.29 38.87 39.85 38.57 37.69 37.27 38.77 39.44 38.27 37.78 37.52 36.31 34.57 32.85 32.07 30.49 28.38 23.89 28.78 29.43 26.09 29.69 31.11 31.95 33.61 32.62 28.76 34.27 38.24 39.79 41.81 40.38 39.72 36.97 34.98 36.34

GFSSW_sfc_wetblb_030.txt.gz
Wetbulb
55.62 55.64 55.71 55.80 56.03 55.60 55.34 55.22 53.70 53.58 54.42 54.56 55.85 56.72 59.07 60.45 59.50 55.22 50.81 54.48 57.09 62.26 63.28 58.42 58.28 55.88 52.54 48.77 49.09 46.47 38.89 35.01 37.52 38.76 40.43 44.16 42.97 47.22 47.14 44.82 46.48 46.50 48.86 54.70 61.23
54.56 54.61 54.69 54.94 54.87 55.06 55.00 54.59 54.16 53.42 53.29 53.55 54.41 55.95 57.24 58.98 54.58 51.75 55.73 60.25 61.64 61.63 58.04 55.32 53.27 52.08 48.07 47.10 47.01 43.72 38.23 39.56 43.11 42.54 42.34 44.19 44.16 44.60 45.70 44.99 44.08 44.81 55.07 58.48 63.36
53.99 54.01 54.02 54.04 54.35 54.09 54.11 53.84 53.72 53.72 53.16 53.21 53.38 54.35 55.88 56.97 49.92 47.46 59.46 60.43 61.75 61.79 59.24 56.43 53.74 50.73 46.20 45.61 44.79 43.69 39.65 44.09 46.12 46.98 47.34 45.42 44.91 46.32 43.79 43.03 44.65 43.80 47.31 52.92 56.35
53.54 53.40 53.56 53.16 53.40 53.13 53.00 53.19 53.18 53.30 53.20 53.16 53.15 53.61 54.96 54.28 39.14 51.42 59.21 61.28 61.94 59.75 57.80 55.36 50.44 46.44 44.22 42.65 45.72 41.16 44.76 45.76 47.39 48.90 46.98 44.01 45.41 43.28 45.42 45.69 48.19 48.04 48.51 49.29 51.64
52.69 52.81 52.76 52.68 52.50 52.31 52.17 52.26 52.48 52.45 52.67 52.71 52.80 53.16 52.32 48.93 45.94 55.48 60.81 61.88 58.24 57.98 55.25 53.53 49.02 45.41 42.66 44.02 44.05 42.20 43.26 46.09 47.40 47.46 46.05 46.38 44.02 43.84 43.96 47.74 48.86 49.29 49.64 48.48 48.63
52.61 52.26 51.84 51.84 51.92 51.64 51.65 51.70 51.89 52.17 51.99 51.55 52.23 52.72 48.81 43.01 53.73 54.99 55.54 59.10 56.71 56.61 54.11 52.87 50.12 48.10 45.01 43.91 42.85 44.63 44.96 44.79 45.32 45.38 45.40 44.21 43.55 43.71 44.41 46.50 46.86 47.03 47.93 47.88 47.79
52.58 52.21 51.69 51.59 51.65 51.48 51.40 51.57 51.81 51.61 51.73 51.96 51.88 49.80 47.16 46.25 54.01 53.17 57.07 58.05 58.38 57.15 52.93 52.61 51.58 48.06 45.74 42.70 45.95 44.60 40.44 41.62 43.25 44.25 43.97 44.64 41.08 40.82 46.02 47.27 46.06 45.34 45.49 47.35 48.18
52.29 51.78 51.37 51.17 51.21 51.22 51.40 51.59 51.65 51.41 51.22 51.28 51.79 49.12 44.12 53.77 55.13 53.09 54.51 56.37 57.56 56.74 55.07 54.29 54.13 49.31 45.42 45.72 43.84 41.31 40.11 35.41 41.54 43.97 44.65 43.87 35.08 42.74 46.15 44.43 44.23 44.78 44.49 45.00 47.40
52.03 51.78 51.29 50.88 50.51 50.71 50.98 51.07 51.33 51.51 51.60 51.10 46.90 46.55 43.04 53.96 50.48 52.75 52.83 54.36 55.57 55.79 55.40 56.03 52.50 47.27 44.21 39.34 37.43 36.28 31.79 34.13 38.32 43.13 42.21 41.25 36.52 42.78 44.69 42.93 42.78 43.13 43.69 44.57 45.14
51.26 51.38 50.81 50.12 49.94 50.19 50.57 50.81 50.55 49.30 48.61 48.77 47.37 42.52 47.00 45.62 50.19 52.34 54.34 55.94 52.86 52.74 51.05 49.68 48.77 41.63 38.63 38.81 30.06 34.00 31.17 32.96 34.14 37.45 39.49 37.63 36.25 40.66 42.09 41.61 41.89 42.33 42.56 42.73 43.94
51.28 50.75 50.58 50.42 50.14 50.00 47.03 41.54 36.49 36.69 41.48 37.88 41.38 43.14 45.65 49.85 52.98 50.75 53.07 53.35 52.81 50.08 43.00 46.57 42.06 38.00 39.21 38.80 36.90 36.23 34.15 32.64 34.96 39.20 36.51 35.41 34.24 38.03 41.14 39.39 39.17 40.24 41.52 42.83 44.33
52.34 50.88 50.42 50.42 50.52 49.16 44.33 38.42 38.05 40.11 32.10 41.47 43.91 46.25 48.89 50.63 45.48 48.51 53.60 48.11 47.05 41.29 44.44 41.81 38.21 41.98 42.12 40.46 39.85 37.80 34.10 31.93 35.87 37.65 35.37 34.24 33.19 37.91 40.37 39.78 41.14 42.26 42.86 43.80 43.99
52.00 51.82 48.63 49.89 49.72 46.27 41.82 39.74 44.78 43.38 34.04 38.07 42.96 45.04 46.95 48.82 44.83 45.62 50.16 48.14 44.49 42.37 41.57 39.10 40.10 45.34 43.47 41.62 39.97 36.76 34.39 31.86 32.73 34.89 33.31 31.82 31.26 32.82 37.07 37.84 39.19 40.26 41.01 41.46 42.03
51.60 51.66 51.01 49.48 45.04 44.71 39.62 45.71 45.40 42.43 28.46 32.67 39.93 44.97 47.58 47.64 42.36 49.52 50.99 47.49 44.52 40.60 41.50 39.25 44.12 42.44 41.87 40.32 39.31 33.33 35.71 35.36 33.31 30.16 26.23 31.64 23.98 30.26 33.59 33.55 35.08 34.71 35.17 36.05 37.25
51.31 51.44 50.69 49.62 43.50 40.97 42.05 46.43 44.79 39.32 19.47 36.64 41.25 49.76 46.46 41.23 42.75 44.80 50.36 47.43 41.39 40.32 41.23 36.57 40.30 40.04 39.15 39.40 39.90 35.77 36.54 33.61 31.76 28.08 24.33 26.04 23.65 28.30 29.22 30.82 32.60 34.65 34.85 35.80 36.26
50.90 50.40 48.97 46.13 45.08 46.06 45.35 44.55 39.75 21.77 19.02 34.21 40.75 40.90 39.60 41.50 41.94 45.13 45.12 47.81 46.96 40.71 39.98 37.01 41.23 40.46 39.60 39.14 39.90 38.31 33.63 30.31 28.08 25.66 16.68 22.63 22.97 25.16 27.31 28.23 31.84 33.41 33.62 36.06 37.25
50.81 49.66 46.84 46.34 38.95 45.38 43.84 38.24 23.17 22.95 34.95 33.92 36.80 38.43 37.67 38.83 40.29 41.29 40.01 38.14 37.63 33.14 33.00 36.40 35.49 38.34 39.76 34.92 36.18 34.74 31.80 19.40 16.20 13.56 16.90 25.07 23.45 26.05 30.55 32.84 32.61 33.17 34.21 36.39 37.18
50.89 48.80 47.09 45.69 46.36 45.85 43.00 31.89 20.85 32.08 34.41 39.47 37.65 37.33 35.15 37.59 38.62 39.20 37.48 34.79 36.25 36.06 32.33 29.03 29.39 35.63 37.48 34.66 32.55 29.86 29.06 19.87 14.79 13.25 18.56 25.84 22.11 27.69 32.46 33.14 34.15 34.52 35.14 38.09 39.69
47.81 42.14 42.57 46.70 47.70 46.57 37.07 27.39 26.39 31.82 38.32 36.83 36.29 33.90 34.05 36.93 38.37 37.15 34.48 33.33 34.24 33.25 27.80 24.92 26.60 35.75 36.78 36.53 35.45 29.98 23.23 28.73 21.33 19.17 15.43 20.30 24.95 30.39 32.84 32.86 32.96 34.35 36.46 37.25 37.70
39.35 38.73 39.90 46.08 46.70 40.46 30.73 32.58 33.65 37.58 37.34 35.18 29.48 32.51 28.27 34.11 33.54 35.00 32.33 35.35 34.99 36.00 34.88 30.96 26.30 34.20 35.65 37.08 35.92 32.66 33.59 24.05 19.97 10.55 14.00 18.66 20.17 23.59 28.37 30.62 33.99 34.83 34.90 38.74 39.49
37.72 34.53 41.19 44.99 43.03 36.22 28.91 33.11 38.09 41.18 39.53 34.14 30.85 30.05 31.24 31.21 32.15 32.28 31.83 33.66 36.31 35.40 36.52 32.47 29.45 30.95 33.78 30.56 29.89 30.41 26.73 26.22 24.76 22.04 15.54 16.43 21.70 29.04 29.73 30.60 32.94 34.74 37.12 38.19 38.55
35.27 29.58 41.25 42.40 33.70 37.57 34.98 37.21 40.40 38.72 39.89 37.10 34.88 33.12 30.98 31.17 29.11 29.49 30.92 32.77 37.45 37.19 32.83 34.21 29.18 20.62 28.83 32.43 34.11 31.88 29.51 27.15 18.45 16.15 19.32 18.46 22.09 32.94 32.44 33.40 34.80 39.09 37.95 40.33 43.94
33.07 33.33 41.08 40.17 29.40 33.33 35.63 36.73 38.40 37.58 37.27 35.50 33.52 34.76 34.44 31.44 29.39 31.00 32.55 36.49 38.20 36.31 33.84 34.56 26.06 17.75 24.97 29.42 31.97 29.72 30.57 29.93 27.16 23.89 15.34 17.09 22.91 33.57 32.73 34.78 38.32 39.37 40.22 43.13 44.32
34.16 29.16 34.98 36.63 34.87 35.50 34.95 33.52 34.30 38.95 37.52 36.91 34.81 35.65 33.73 31.35 33.39 31.00 31.64 37.13 37.61 38.13 42.27 38.61 28.63 24.07 20.49 23.55 28.40 25.37 29.55 29.82 27.78 16.74 21.90 23.14 25.42 32.34 34.65 35.54 38.92 41.23 40.29 42.30 41.87
34.17 34.41 37.71 31.76 31.54 30.07 32.28 34.25 33.94 34.85 38.36 36.50 33.65 34.41 33.34 29.96 31.60 31.13 33.17 34.27 37.98 42.33 37.88 35.32 23.19 24.70 28.69 30.26 29.57 29.11 29.66 29.76 25.60 27.04 22.06 25.53 26.89 32.04 35.37 36.77 39.68 39.34 42.59 40.85 36.91
34.70 36.03 38.83 35.78 33.07 30.27 32.06 32.38 34.54 35.96 36.46 33.88 33.01 35.05 34.49 31.76 32.72 31.45 33.44 32.64 32.49 35.83 34.34 33.94 28.16 30.56 22.13 29.64 29.60 27.78 30.07 30.63 30.51 31.08 30.15 31.03 30.18 37.53 38.23 39.44 41.55 42.06 39.23 37.01 36.89
40.88 41.42 39.24 35.05 31.17 29.28 30.38 32.57 35.31 37.75 37.61 38.75 36.89 36.14 35.42 37.26 38.10 36.85 36.88 36.99 35.86 34.08 32.35 32.58 29.10 23.11 19.17 27.92 28.72 25.23 28.94 30.31 31.36 32.27 32.00 28.04 33.62 36.37 37.05 40.98 40.90 39.01 35.96 35.00 35.86

GFSSW_sfc_wetblb_033.txt.gz
Wetbulb
55.16 55.25 55.18 55.00 54.79 55.14 55.49 55.39 55.40 55.02 53.64 53.78 53.85 54.77 56.02 57.36 58.17 56.58 50.67 54.51 57.18 62.17 61.99 57.03 58.62 58.21 53.60 50.55 50.64 48.66 42.57 38.89 41.54 40.43 43.38 46.85 45.85 50.22 50.93 49.63 50.14 51.27 53.45 57.78 63.38
54.08 54.30 54.49 54.56 54.44 54.33 54.36 54.71 54.51 54.41 54.18 53.55 53.49 53.78 54.61 55.81 53.15 52.43 56.03 60.24 61.34 62.04 57.03 53.90 54.23 53.43 49.66 48.75 48.82 46.39 41.37 40.71 44.34 45.43 44.45 47.17 48.09 48.65 49.38 48.31 49.31 50.47 53.48 61.51 64.36
53.80 53.66 53.79 53.69 53.65 53.53 53.30 53.68 53.64 53.60 53.72 53.73 53.31 53.34 53.82 54.69 49.95 50.36 60.49 60.95 61.47 61.48 57.87 56.89 55.82 52.38 47.97 47.51 46.76 45.58 41.50 44.86 46.72 46.91 48.63 47.43 47.99 49.56 48.18 46.98 49.19 49.11 51.58 57.50 62.21
53.71 53.29 53.01 53.09 53.03 52.94 52.68 52.75 52.78 52.80 52.77 53.08 53.12 52.79 53.21 51.67 39.98 52.60 60.06 62.09 61.63 59.19 57.76 53.98 52.25 48.56 45.85 43.91 46.86 43.57 45.95 46.54 48.38 49.56 48.48 47.09 48.69 47.26 48.54 49.52 51.09 51.82 52.33 52.88 59.67
53.56 53.26 52.75 52.29 52.14 52.20 52.10 52.15 52.10 51.95 52.32 52.48 52.09 52.79 49.86 45.57 46.97 54.93 58.44 59.09 58.25 57.33 55.38 52.38 49.91 48.02 45.51 45.15 45.41 44.01 44.95 47.33 48.49 48.36 48.04 48.25 46.69 47.27 46.90 49.82 51.22 50.95 51.91 52.42 52.78
53.21 52.82 52.54 52.20 51.77 51.66 51.55 51.51 51.76 51.66 51.81 51.81 51.42 52.02 45.89 39.89 54.32 55.31 54.08 56.09 55.75 56.45 55.02 53.53 50.41 49.61 46.65 45.48 44.84 46.15 46.26 46.15 47.05 46.91 47.30 45.66 45.75 46.24 47.74 49.52 49.24 48.94 50.56 51.31 51.60
52.96 52.34 52.15 51.90 51.59 51.34 51.44 51.42 51.70 51.60 51.72 51.47 51.19 48.94 43.15 42.48 53.79 54.43 53.78 56.58 56.25 56.88 53.51 54.00 52.74 48.89 46.53 44.11 47.12 45.16 42.41 44.14 44.61 45.62 45.45 46.68 42.53 42.73 48.30 49.09 48.58 48.85 49.13 50.40 51.11
52.36 51.89 51.84 51.33 51.32 50.95 51.13 51.55 51.35 51.22 51.38 51.06 51.24 47.67 39.03 52.04 54.69 53.51 53.47 55.86 57.05 58.23 56.15 55.01 53.82 49.53 47.50 47.34 44.93 42.48 42.56 37.99 43.49 44.47 45.52 45.46 37.27 44.81 47.54 46.59 46.83 47.50 47.47 47.75 49.38
53.05 52.43 51.50 51.30 50.73 50.46 50.49 51.20 51.34 51.47 51.42 50.67 46.43 44.26 39.66 54.22 50.09 53.06 52.38 53.12 55.47 55.72 55.01 56.00 53.43 48.69 46.23 40.99 38.79 39.60 33.81 36.00 39.64 44.60 43.90 43.13 39.15 44.61 46.60 46.10 45.74 46.50 47.08 47.03 47.99
52.57 52.43 51.13 50.90 50.03 49.63 50.12 50.71 49.84 49.20 48.64 48.62 46.81 40.87 45.23 45.02 50.14 51.85 54.39 54.48 52.69 52.51 50.78 50.05 47.88 43.30 40.81 38.70 31.13 34.31 34.27 36.48 36.45 40.32 41.24 39.89 39.37 42.90 44.43 43.15 43.82 44.99 45.75 45.74 46.77
52.27 52.03 51.58 49.42 50.17 50.13 46.46 41.66 37.33 36.26 41.52 36.40 39.32 41.33 45.82 50.18 52.49 51.03 54.20 53.42 52.16 49.05 43.06 46.35 40.56 37.50 40.44 39.91 38.22 37.71 36.24 35.47 37.71 40.42 39.12 37.79 37.06 39.65 42.69 42.02 42.04 43.03 44.37 45.73 46.13
51.65 51.84 50.89 48.64 50.21 49.68 43.45 37.69 37.49 39.83 31.96 40.67 42.39 43.76 48.49 50.28 44.62 48.77 53.13 48.25 46.05 40.90 44.47 41.95 37.32 41.25 42.58 40.71 38.91 37.89 35.21 34.77 37.87 39.11 38.19 35.80 35.54 39.89 41.87 41.70 42.53 42.96 43.49 44.26 44.66
51.85 52.30 50.85 48.44 49.59 45.94 42.41 39.46 44.38 44.15 34.73 37.75 41.56 43.00 46.56 49.10 44.99 46.00 50.46 47.59 41.92 40.42 40.65 37.61 41.11 43.78 42.07 40.10 38.88 37.26 35.39 34.41 35.18 36.65 36.00 33.73 33.99 35.84 39.33 39.83 40.66 39.08 38.81 39.94 41.07
51.03 51.69 50.08 48.69 45.32 44.63 38.87 45.33 44.23 42.41 29.64 34.44 38.64 44.30 46.74 47.69 43.24 49.77 50.46 47.63 44.54 36.51 41.13 40.04 44.03 42.71 40.97 39.37 40.00 35.25 38.42 36.62 34.63 33.23 29.96 33.59 28.17 33.43 35.03 36.04 37.21 36.70 38.51 39.58 40.68
50.51 50.32 49.99 49.14 41.91 39.72 41.81 45.14 43.63 40.18 21.64 35.30 39.42 49.55 46.77 42.06 44.64 44.37 50.46 47.34 40.93 40.66 41.28 36.74 41.14 41.06 39.44 40.42 41.40 36.13 37.40 34.56 33.18 30.42 29.53 29.48 28.11 31.80 33.70 34.11 35.35 36.57 38.23 39.82 40.82
50.65 49.96 48.45 44.90 43.51 44.30 44.96 44.87 40.47 22.49 21.46 34.06 41.21 40.69 40.28 42.12 42.96 45.42 45.63 48.58 46.44 40.41 39.70 37.87 43.53 41.95 40.37 41.24 40.35 37.55 33.99 31.63 30.11 28.60 23.66 26.39 27.10 29.12 31.23 33.69 35.82 37.05 37.93 39.50 40.27
50.94 49.42 46.10 45.38 38.52 44.68 43.28 37.68 21.98 20.84 35.03 34.59 36.11 39.36 37.97 38.02 40.02 41.66 40.36 38.22 37.94 32.61 32.96 36.55 36.11 39.13 40.71 35.93 37.66 36.71 34.42 24.32 21.15 20.97 23.60 27.29 25.86 29.24 33.32 35.58 36.69 37.56 38.67 39.84 40.58
51.24 48.27 46.66 45.39 46.74 46.54 43.64 27.85 23.09 33.79 35.07 39.14 37.29 37.57 36.01 37.30 38.22 39.26 37.67 33.35 36.49 37.20 33.13 30.75 28.94 35.81 38.49 35.94 33.98 33.13 32.37 24.65 20.12 18.89 22.20 26.93 24.07 30.67 35.28 36.92 37.87 38.64 39.24 39.67 41.40
48.20 41.11 41.45 44.31 46.87 45.28 34.28 28.68 23.13 32.97 38.26 35.96 34.90 32.34 33.24 36.54 37.80 36.86 34.54 33.24 35.11 35.71 30.67 28.04 28.40 37.26 37.15 37.42 36.68 32.27 28.26 30.58 22.91 21.14 20.37 23.83 26.94 32.05 35.56 35.40 37.09 38.47 39.17 39.93 42.07
38.82 38.03 38.89 44.89 45.17 42.34 33.28 33.26 34.31 37.63 37.34 34.94 28.90 32.45 28.54 33.48 33.35 34.08 33.36 35.72 34.94 36.37 35.95 31.79 27.06 34.98 35.77 37.66 36.26 34.04 33.57 26.52 23.10 16.55 18.06 21.67 22.94 27.38 31.29 33.91 36.47 37.08 38.32 39.91 41.39
36.85 34.50 40.62 44.05 42.27 36.05 31.55 32.85 36.77 40.04 38.82 33.54 30.53 29.93 30.74 31.44 32.23 32.31 31.83 34.81 37.02 36.05 36.02 33.18 30.75 31.81 34.83 32.36 30.68 31.27 28.92 27.53 27.05 24.19 19.86 19.36 24.44 31.13 32.83 35.03 35.81 37.10 39.09 39.87 41.73
34.73 29.92 41.13 41.63 33.87 36.60 34.16 36.73 40.07 37.81 39.08 35.88 34.37 32.92 31.00 31.64 30.09 29.89 31.02 33.03 37.82 37.76 33.21 34.74 30.25 25.81 30.09 33.91 35.24 33.52 30.68 28.58 23.49 20.13 22.17 22.12 24.97 35.10 34.91 35.11 36.10 37.79 39.33 41.69 44.80
33.19 32.75 40.36 39.88 32.72 34.02 36.68 37.00 38.39 37.03 36.85 35.28 32.91 34.42 34.02 31.07 29.19 30.72 32.91 36.78 38.24 36.83 34.20 34.86 27.45 20.22 25.79 30.06 33.32 31.49 31.41 30.10 27.56 26.01 21.60 21.35 25.88 34.79 35.18 36.79 38.19 38.23 40.55 42.69 43.24
33.26 27.89 34.44 36.22 33.72 31.93 31.58 32.07 33.45 38.37 36.97 36.11 34.18 35.24 32.59 30.86 32.71 30.86 31.63 36.90 37.24 37.66 42.26 38.17 29.46 24.95 20.80 24.02 29.18 27.04 30.17 30.02 28.82 22.94 23.61 24.20 26.63 32.79 35.14 36.11 38.40 39.60 40.36 42.57 39.94
33.88 33.62 37.28 30.58 31.15 30.46 30.88 33.14 32.62 33.94 37.57 35.78 33.01 33.65 32.37 29.13 30.52 29.87 32.69 34.50 37.05 41.45 36.87 34.94 25.70 26.44 29.45 30.50 30.47 30.28 30.41 29.68 26.23 27.71 25.15 27.24 27.00 32.29 35.35 36.86 38.42 39.86 41.97 39.63 38.10
34.40 34.61 37.75 35.64 32.44 28.90 31.35 31.16 33.14 34.90 35.39 32.81 32.42 34.29 33.78 31.41 31.84 30.67 32.83 32.01 32.33 35.08 34.24 33.89 28.08 29.73 23.84 30.55 30.38 28.79 30.63 30.81 30.80 30.94 29.78 30.44 30.46 38.26 39.29 38.34 40.20 40.97 38.58 36.90 36.27
40.13 41.40 38.58 34.58 29.69 27.91 29.75 31.69 34.17 36.39 36.88 37.93 35.81 35.38 34.73 36.80 38.18 36.88 35.96 36.16 35.56 34.00 32.26 33.68 29.54 23.55 20.29 28.65 28.90 25.55 29.12 30.57 31.49 32.09 32.45 28.51 33.73 36.92 36.77 38.75 40.16 39.58 36.84 34.83 35.09

GFSSW_sfc_wetblb_036.txt.gz
Wetbulb
55.06 54.97 54.85 54.76 54.68 54.74 54.74 54.85 55.01 55.46 55.10 54.59 53.96 53.60 54.27 55.15 55.70 54.00 53.59 56.40 57.97 60.94 62.11 57.25 58.22 59.59 56.47 54.56 54.79 54.66 49.21 46.58 47.74 47.57 49.30 51.29 50.34 52.70 53.85 52.73 54.14 54.98 55.95 61.35 64.45
55.05 54.96 54.61 53.99 54.15 53.95 53.80 54.30 54.25 53.96 54.02 54.46 53.89 53.60 53.69 54.41 51.03 49.95 57.85 61.67 61.14 61.50 58.71 53.81 54.26 56.90 52.11 52.27 52.71 50.76 47.68 47.96 51.94 51.97 50.32 50.60 50.62 52.05 51.80 51.97 52.69 53.77 57.48 64.39 65.85
54.75 54.45 54.09 53.91 53.44 53.28 53.19 53.25 53.35 52.92 53.21 53.59 53.70 52.98 52.79 53.88 46.55 49.12 60.78 61.78 62.14 61.04 58.99 57.07 57.40 54.94 50.20 51.51 50.97 49.97 46.36 50.34 49.78 51.42 51.04 51.11 51.17 53.10 51.33 50.02 52.61 52.63 55.00 61.60 63.93
54.33 53.98 53.78 53.23 53.00 52.71 52.82 52.24 52.54 52.09 51.84 52.63 52.62 52.66 51.69 50.94 37.01 53.70 59.59 62.35 61.88 60.09 57.85 55.80 54.72 51.00 49.06 46.83 50.61 45.97 49.12 49.79 50.18 51.08 50.76 50.08 52.45 51.01 52.01 51.57 54.80 56.01 55.58 56.49 62.87
53.66 53.60 53.25 52.92 52.37 52.30 52.35 51.97 51.66 51.71 51.51 51.82 52.48 51.84 49.02 43.99 44.60 56.10 58.49 57.64 59.84 57.89 55.38 54.09 51.56 50.66 47.63 48.59 49.03 46.84 48.47 49.81 50.75 51.40 51.42 51.68 50.70 50.75 51.51 54.48 55.33 55.14 55.11 55.94 56.49
53.74 52.99 52.66 52.43 52.08 51.82 51.84 51.60 51.46 51.14 51.25 51.75 51.24 51.37 46.22 38.03 51.71 56.37 54.92 55.78 57.26 56.19 54.87 54.84 51.93 53.76 49.42 48.83 47.90 49.21 48.74 49.31 50.41 50.18 50.34 49.27 50.03 50.27 51.94 54.20 53.73 54.07 54.17 55.31 56.23
54.16 53.49 52.43 51.96 51.92 51.80 51.28 51.40 51.49 51.43 51.32 51.62 50.79 49.38 44.19 41.95 54.75 56.31 55.08 54.28 57.61 56.15 53.71 56.35 55.48 51.82 51.49 47.23 50.88 49.23 45.42 47.78 48.40 49.22 48.60 50.07 46.39 46.79 52.32 53.51 52.24 52.72 53.53 54.32 55.49
53.52 53.07 52.69 51.76 51.51 51.24 50.97 51.13 51.52 51.34 51.28 51.32 50.76 48.20 39.89 49.95 51.53 52.25 54.64 53.54 57.37 57.78 56.45 57.38 56.75 52.84 50.40 50.90 48.35 45.80 45.37 40.56 46.67 48.68 48.71 48.08 41.98 47.21 51.06 51.34 50.71 51.67 52.54 53.28 54.41
52.88 52.86 52.23 51.54 50.43 49.86 50.19 50.42 51.32 51.41 51.69 50.55 47.31 45.25 39.08 52.98 48.30 52.75 53.56 51.28 55.20 56.41 56.89 56.91 54.62 49.99 48.84 44.42 41.61 43.83 37.89 39.50 41.72 47.85 46.97 46.36 42.49 47.50 49.89 49.60 49.69 50.98 51.93 52.46 53.37
52.78 52.66 51.78 50.80 50.05 49.73 49.66 50.09 49.49 50.14 50.13 49.63 47.89 40.46 43.94 44.50 50.90 52.02 53.90 53.48 52.32 53.24 50.83 50.35 49.23 46.13 45.54 42.41 33.81 36.79 37.56 39.48 39.26 43.66 45.62 44.08 43.23 47.09 49.61 49.13 48.86 49.99 51.01 51.87 52.25
52.46 52.79 51.80 50.37 50.20 49.91 48.60 47.05 42.77 41.12 43.73 37.88 38.86 39.80 45.29 50.82 53.22 50.64 53.10 53.18 52.62 49.31 42.45 46.54 42.48 39.39 42.71 43.86 42.36 41.76 39.39 37.98 41.38 43.16 42.62 42.68 43.06 45.16 47.83 48.45 48.17 49.09 50.18 50.96 51.96
52.57 52.36 51.12 50.96 50.78 49.32 47.99 41.45 41.20 43.29 34.96 41.48 41.35 42.48 45.26 50.24 45.91 49.39 53.97 47.95 46.94 41.98 44.57 42.26 38.66 44.22 45.76 44.39 42.41 41.50 38.74 38.29 40.91 42.39 42.48 41.97 41.31 45.17 46.85 47.25 47.92 47.70 48.44 49.41 50.03
51.60 50.65 49.74 50.20 49.86 47.83 44.17 43.12 47.35 46.22 37.66 39.40 42.31 42.46 46.46 49.70 45.49 46.53 49.18 45.44 44.58 42.00 42.51 39.01 41.50 45.41 43.73 42.34 40.78 40.67 38.52 38.29 38.51 40.60 41.09 39.70 40.25 41.84 41.69 43.76 42.78 43.55 44.17 45.64 47.19
50.96 50.76 50.48 49.63 46.48 45.94 42.60 47.58 48.08 46.62 33.21 34.54 39.26 44.37 47.19 48.63 44.21 49.97 51.05 45.21 42.00 39.70 41.90 40.96 45.35 42.54 41.94 40.96 42.43 37.61 41.88 40.44 38.28 38.29 35.29 38.90 36.08 40.01 40.53 39.92 42.58 44.31 45.55 46.68 47.96
50.85 49.91 49.47 49.17 46.04 42.93 45.22 48.40 47.96 44.90 25.43 36.53 39.28 48.92 47.72 43.63 44.55 45.40 51.37 47.65 39.08 39.27 40.73 38.41 41.41 41.26 40.03 41.55 43.97 38.78 41.86 39.15 37.87 37.05 35.96 35.30 34.89 37.55 39.69 38.40 40.69 43.62 45.35 46.69 47.55
51.99 49.89 48.31 48.15 47.34 46.00 48.21 47.63 45.00 32.70 25.57 35.07 41.84 40.02 41.18 43.02 43.90 46.20 46.05 47.64 45.56 39.99 41.09 39.74 43.47 42.81 41.79 40.63 43.91 40.67 38.87 37.23 37.01 36.05 31.76 33.89 33.11 35.00 36.91 39.26 40.78 42.78 44.45 46.83 47.69
51.40 50.00 47.95 48.01 43.75 48.41 48.06 44.30 33.78 29.37 36.34 35.14 37.34 40.58 39.80 39.13 40.29 41.87 40.56 39.40 37.19 32.72 32.80 35.23 36.06 40.78 41.86 37.33 39.10 39.33 38.40 31.92 30.29 30.56 30.95 31.53 30.52 36.37 38.71 40.55 42.13 42.72 44.31 46.87 47.92
51.60 49.12 48.25 47.76 49.48 48.65 46.59 38.39 29.60 33.51 34.92 40.30 39.91 40.26 36.71 39.11 38.70 39.54 38.49 37.01 40.55 39.49 36.07 34.13 30.49 37.00 39.31 37.41 35.66 37.44 38.40 33.66 26.25 26.43 29.54 30.88 29.63 35.88 40.58 41.74 41.82 43.29 44.57 46.21 47.49
48.59 47.75 47.78 49.13 49.37 48.99 41.91 33.14 31.83 33.85 38.44 37.46 38.43 35.21 35.23 38.63 39.63 39.47 38.37 37.44 39.58 40.63 35.50 33.78 31.73 38.79 39.04 39.82 39.78 34.90 34.58 35.20 30.43 28.46 29.51 32.74 33.79 37.40 39.18 39.34 41.45 43.19 44.35 46.05 47.46
46.59 45.34 45.90 48.19 49.46 46.27 42.13 33.95 35.90 39.06 39.99 38.77 33.52 36.10 33.00 36.06 36.45 37.66 37.52 39.10 37.55 39.65 40.76 35.95 31.29 36.58 37.33 39.63 39.32 38.19 38.44 31.96 32.67 25.41 26.10 30.17 30.25 34.02 36.16 38.68 41.51 42.37 44.28 46.02 47.55
45.31 43.91 45.96 47.65 48.35 45.35 33.79 35.32 38.50 42.36 41.90 37.45 35.30 34.64 35.51 35.12 36.61 36.09 35.65 38.07 40.08 38.59 40.44 38.86 36.32 33.28 37.32 35.75 35.22 34.65 34.57 33.25 34.19 31.10 28.22 28.06 31.99 39.17 39.94 41.22 41.37 43.09 45.04 45.72 47.79
43.21 42.16 47.02 47.13 43.04 42.73 37.21 37.95 40.52 40.94 42.61 39.32 39.06 37.36 36.42 36.24 35.56 35.71 34.67 37.67 41.72 41.33 37.34 38.11 36.66 30.93 32.66 36.74 38.25 37.48 35.91 35.48 31.79 27.26 29.73 30.43 33.04 40.39 41.38 41.68 41.93 43.92 45.29 46.74 47.97
41.76 41.78 47.49 46.68 38.29 38.95 40.04 39.47 40.74 40.08 39.91 39.08 37.03 38.60 38.68 36.44 34.00 35.80 36.63 39.60 41.23 40.39 38.53 39.12 34.27 28.47 28.67 33.90 36.34 34.51 36.31 35.19 33.03 33.13 28.89 29.56 32.96 40.15 41.31 41.74 44.02 43.78 45.64 47.11 46.13
41.36 39.33 43.58 44.38 41.63 40.14 38.22 38.01 37.85 41.69 40.42 39.76 38.30 39.71 37.38 35.71 37.68 35.13 35.70 39.24 40.28 40.46 42.03 41.55 33.96 31.92 28.98 31.60 35.10 31.95 34.00 34.69 34.25 29.79 30.58 31.75 33.73 38.06 40.11 42.02 44.29 45.41 46.64 46.38 44.96
40.66 35.36 37.82 37.76 38.52 38.16 38.40 38.28 37.08 37.33 41.18 40.45 37.67 37.97 37.00 34.12 35.11 34.81 37.07 37.80 39.44 41.80 40.07 39.74 33.30 32.30 33.20 33.86 34.00 33.78 33.58 33.64 31.11 34.07 30.93 33.58 33.20 38.27 40.83 42.73 43.64 45.28 45.93 44.32 42.70
38.13 36.70 38.97 37.23 36.60 36.45 36.73 37.77 37.41 38.94 39.33 37.23 36.60 38.44 39.23 36.61 36.97 35.05 37.53 37.87 37.10 39.62 38.45 38.09 32.29 32.41 31.03 33.04 33.36 31.47 34.06 34.57 34.31 34.64 34.29 35.18 34.55 41.93 43.92 44.03 43.50 44.56 43.69 42.18 40.53
41.09 42.09 38.77 36.12 36.11 36.31 37.04 36.88 37.93 39.43 40.96 41.64 39.74 40.03 38.82 40.01 42.48 42.47 42.69 42.52 41.47 38.82 37.22 37.05 33.41 31.84 29.03 31.93 32.06 29.54 33.14 34.23 35.15 36.25 35.96 31.94 37.85 42.12 41.04 41.85 42.49 44.03 42.30 40.37 39.47

GFSSW_sfc_wetblb_039.txt.gz
Wetbulb
56.16 56.12 55.62 55.29 55.03 54.67 54.74 54.63 54.86 54.74 54.74 55.09 55.80 53.96 53.54 54.12 54.94 52.55 49.08 56.80 59.61 60.10 61.43 56.59 58.14 59.86 58.47 56.19 57.29 57.26 47.89 45.72 48.89 49.22 50.20 54.53 52.71 55.55 56.03 54.00 54.36 55.49 56.93 62.40 67.18
55.68 55.62 55.22 54.66 54.65 54.25 53.97 54.02 53.93 53.55 53.22 53.67 54.21 53.95 53.45 53.35 50.74 47.54 54.47 61.05 62.47 60.68 58.69 53.58 54.70 57.05 53.02 52.97 53.85 51.27 48.76 49.33 53.43 53.31 51.94 53.52 52.55 53.44 52.33 52.35 52.71 54.27 58.64 64.27 66.79
54.90 54.66 54.39 54.34 54.05 53.76 53.31 53.22 53.04 52.85 52.35 52.94 53.35 53.77 52.43 52.76 46.88 46.89 58.05 61.17 62.52 61.75 59.85 56.09 57.17 55.87 50.39 52.34 51.63 50.21 47.19 51.94 53.00 53.08 54.03 53.12 51.87 53.53 51.96 50.32 52.85 52.86 55.78 62.17 64.38
54.48 54.38 54.02 53.85 53.51 53.34 52.98 52.87 52.50 52.12 51.73 52.06 52.80 52.21 52.04 50.34 36.02 53.50 60.63 62.44 63.09 60.52 57.88 55.08 54.13 52.02 48.87 47.78 51.46 46.95 50.00 51.04 52.67 51.83 50.86 51.03 53.49 51.65 52.35 52.28 55.07 56.15 57.08 57.88 62.84
54.95 54.79 54.19 53.54 52.81 52.78 52.36 52.33 51.75 51.55 51.27 51.34 51.82 51.80 49.92 44.29 44.56 57.68 58.62 61.82 59.93 58.19 53.83 53.69 50.76 50.96 47.44 49.09 49.63 47.49 49.26 50.87 51.58 51.20 51.10 52.64 51.17 51.19 51.77 54.72 56.18 56.62 56.06 56.36 57.35
54.60 53.99 53.62 53.25 52.60 52.19 52.02 51.84 51.17 51.22 50.88 51.28 51.23 51.79 46.37 38.67 51.59 56.49 55.93 56.57 58.14 56.43 54.98 54.46 51.65 53.75 49.82 49.30 48.31 49.93 50.02 49.64 50.43 50.52 51.23 49.96 50.56 51.48 52.44 55.04 54.74 54.71 54.64 55.52 56.47
53.80 53.49 52.99 52.83 52.61 51.91 51.37 51.51 51.10 51.38 51.43 51.24 50.98 49.58 44.55 42.65 52.35 56.91 54.82 54.41 56.09 57.60 52.68 55.15 54.78 52.73 51.97 47.88 51.63 50.00 46.40 48.22 48.38 49.42 49.00 51.16 47.59 48.67 53.39 54.40 53.32 53.50 54.25 54.59 55.10
53.52 53.38 52.76 52.26 51.48 50.67 50.46 50.97 50.83 51.01 50.94 50.79 50.78 48.59 40.76 50.34 52.43 52.21 54.83 53.52 56.64 58.23 55.42 56.52 56.64 52.55 50.19 51.29 49.10 45.86 46.46 41.05 46.88 48.30 49.44 48.83 42.82 49.96 53.51 52.84 52.24 52.88 53.60 53.88 54.55
53.60 53.31 52.36 51.30 50.20 49.60 49.94 50.00 50.72 51.17 51.33 50.99 48.03 45.86 39.49 52.41 46.65 49.99 54.63 51.09 54.32 56.36 55.98 57.45 55.08 50.46 50.21 45.03 42.72 44.18 38.02 40.72 42.69 48.33 47.93 46.64 43.95 49.68 51.30 50.70 50.81 51.81 52.42 52.99 53.69
53.49 52.94 52.24 51.14 50.80 50.17 49.84 49.53 49.81 50.65 50.70 50.37 48.30 41.12 43.73 43.16 48.71 51.47 55.29 53.28 52.33 52.38 51.22 50.62 49.89 45.78 44.78 42.81 35.00 37.81 38.19 41.05 40.93 45.11 46.02 45.03 44.54 48.47 49.53 49.55 49.94 50.66 51.38 51.90 52.51
52.57 51.81 51.44 50.71 50.25 50.02 49.52 48.26 44.41 42.08 44.47 39.55 40.04 39.18 43.85 49.59 52.64 50.39 52.93 51.21 51.96 49.33 43.66 47.32 42.81 39.76 42.68 43.94 43.47 42.38 40.59 39.52 42.56 45.11 43.96 43.27 44.00 46.09 48.67 49.27 49.07 49.90 50.49 51.10 51.73
51.49 50.52 51.11 51.18 50.49 49.17 49.68 43.57 42.34 43.41 36.49 42.10 42.43 42.03 45.14 46.72 44.01 47.29 52.92 47.15 46.36 41.39 44.76 42.65 37.96 44.35 45.76 44.99 43.27 42.11 39.97 38.89 42.29 44.50 42.76 42.28 42.46 45.76 47.26 47.74 48.76 49.17 49.87 50.65 51.53
51.54 51.20 50.63 49.99 49.44 49.06 46.03 44.18 48.95 47.91 37.28 38.91 41.60 41.79 44.78 47.93 43.98 45.91 47.69 45.96 44.18 41.95 42.02 38.78 41.23 45.86 44.00 42.29 41.16 41.05 39.50 38.97 38.74 42.12 43.61 41.72 39.79 42.30 46.08 46.58 46.94 46.30 47.27 48.00 48.88
52.73 50.72 50.16 50.01 47.92 47.48 43.68 47.76 49.08 47.73 33.76 34.99 38.90 43.65 47.00 47.95 42.96 50.00 49.78 45.55 42.27 40.71 42.26 41.17 44.79 43.26 42.61 40.86 42.42 37.57 43.28 42.00 39.99 38.45 34.01 41.99 33.42 41.36 42.37 41.74 43.68 45.46 47.06 48.12 49.40
52.13 51.93 49.84 50.53 48.01 45.32 45.78 49.44 49.31 45.30 26.28 37.91 40.71 49.84 48.76 44.92 44.80 44.49 51.22 45.68 39.72 40.99 41.16 38.09 41.32 41.21 40.00 41.80 44.39 40.22 44.48 41.84 40.50 38.38 37.75 37.97 35.37 39.87 41.99 39.06 41.88 44.85 46.87 48.24 49.54
51.43 52.04 50.42 49.62 49.92 47.68 50.02 49.32 46.19 32.65 25.44 36.30 42.19 41.66 42.00 44.56 43.37 45.41 45.32 46.75 44.76 41.02 40.56 39.68 43.68 43.34 43.08 42.94 44.60 44.34 41.32 40.68 40.23 38.16 31.98 37.52 36.64 37.19 38.27 40.72 42.13 44.66 46.94 48.27 49.41
51.21 51.92 50.36 49.88 46.48 50.59 49.95 44.34 33.35 30.63 37.44 35.50 37.89 41.13 40.30 39.72 40.99 42.35 40.71 38.11 34.88 32.48 32.60 36.63 35.79 41.50 42.81 39.89 42.60 42.31 38.77 31.84 29.86 30.75 30.33 35.20 33.21 39.19 41.84 43.76 44.27 44.32 46.24 48.41 49.80
51.40 50.83 50.90 49.96 51.76 50.32 46.09 40.35 30.61 33.45 35.66 41.43 40.93 40.22 37.12 39.68 39.32 40.07 38.93 37.73 40.63 39.38 35.97 33.74 29.34 35.52 38.86 39.36 37.19 39.21 39.07 34.26 26.61 28.99 31.93 33.09 30.00 37.36 42.66 44.49 44.93 45.97 46.53 48.11 49.27
50.60 50.58 49.32 51.75 51.57 48.61 42.41 34.41 33.11 35.45 39.46 38.00 39.64 36.64 36.72 39.87 39.83 40.12 39.60 38.24 40.16 41.80 35.88 34.42 32.65 38.36 39.19 39.99 41.30 36.82 34.76 38.59 32.91 32.60 31.39 33.32 36.46 39.34 41.44 41.64 42.68 44.23 45.67 47.37 48.73
48.25 47.83 48.85 50.74 51.33 46.49 42.98 34.61 37.49 41.12 41.50 40.58 35.03 38.09 35.26 37.47 38.06 39.03 39.00 40.85 40.03 41.88 42.39 39.20 31.79 37.52 38.47 40.21 38.86 38.40 40.62 33.09 34.89 27.60 26.78 31.75 33.65 34.68 36.90 38.95 41.85 43.46 45.29 47.31 48.52
47.48 44.60 49.28 50.58 50.62 46.60 36.15 35.42 40.00 43.63 43.21 39.22 37.28 36.60 37.89 36.94 38.68 38.20 37.74 40.14 42.05 40.78 42.85 41.48 38.20 34.34 38.41 36.10 34.91 34.29 34.19 35.47 36.14 33.48 29.40 29.58 32.50 41.26 39.81 41.98 42.39 44.06 46.05 46.99 48.29
46.83 43.49 49.71 50.45 44.70 45.22 39.98 40.94 41.68 42.18 44.00 41.10 41.04 39.54 38.48 38.58 37.60 37.66 36.91 40.16 43.66 43.04 39.01 40.52 38.19 31.97 34.23 38.57 40.22 39.56 37.98 38.23 32.96 30.32 32.14 31.26 32.41 41.81 43.69 43.91 43.49 44.65 46.39 47.69 48.92
42.96 44.33 50.81 50.06 40.36 40.41 41.55 41.13 42.69 41.63 41.39 40.71 38.91 40.39 41.00 38.77 35.58 38.65 38.83 41.78 43.18 42.11 39.97 41.21 36.07 29.03 30.69 35.88 38.40 35.97 38.19 38.25 36.44 35.01 31.58 30.30 32.63 42.68 43.30 43.28 45.13 45.41 47.16 48.25 48.00
43.02 39.46 46.83 48.47 46.22 42.77 40.10 39.57 39.46 43.53 41.97 41.84 40.29 41.46 39.60 38.04 39.84 37.38 38.21 40.57 42.19 42.27 42.05 43.24 36.91 33.60 30.98 33.46 36.96 33.10 36.22 37.77 35.35 31.95 33.05 33.38 35.71 39.05 41.16 42.68 45.46 46.42 47.85 47.92 47.31
43.70 38.92 39.66 40.63 41.66 41.81 41.55 40.77 38.79 38.69 42.75 42.40 39.79 39.89 38.78 35.97 37.08 36.61 39.43 39.07 40.66 41.94 41.96 41.15 34.44 33.83 35.41 36.18 36.12 35.32 35.04 36.02 33.21 35.02 32.89 36.18 36.10 39.70 42.10 43.20 45.53 46.06 47.33 46.33 45.23
38.17 36.45 40.06 39.75 39.74 39.97 38.53 39.69 39.10 40.34 40.73 38.97 38.07 40.20 40.14 37.76 38.71 36.59 38.99 39.44 37.99 41.04 39.98 40.50 33.29 34.57 32.45 35.37 35.11 32.82 35.46 36.33 35.72 35.79 35.70 36.59 36.21 42.95 44.32 45.59 44.58 45.43 45.97 44.70 43.47
40.85 42.68 38.80 38.54 39.48 39.00 40.04 39.67 39.88 41.51 42.67 43.05 41.28 40.59 39.42 41.13 44.06 44.20 44.49 43.64 42.75 39.89 38.78 38.04 35.16 32.67 30.19 33.91 33.20 29.69 34.19 35.51 36.49 38.01 37.51 33.40 38.96 43.27 42.43 42.91 43.66 44.62 45.18 43.42 42.27

GFSSW_sfc_wetblb_042.txt.gz
Wetbulb
56.20 56.02 55.80 55.75 55.40 55.35 55.10 54.87 54.59 54.64 54.65 54.79 54.85 55.94 54.11 53.65 54.39 53.06 48.25 55.22 59.30 61.34 60.13 56.22 57.00 58.12 59.60 56.22 56.64 55.54 46.24 43.00 45.63 46.64 49.41 52.78 50.83 52.67 52.97 50.42 50.50 51.60 57.68 62.67 67.06
55.15 55.58 55.67 55.32 54.93 54.86 54.56 54.31 54.04 53.84 53.50 53.65 53.37 54.26 54.94 53.45 49.94 46.78 54.20 59.15 62.46 62.50 56.73 52.39 52.79 56.40 53.03 52.88 53.08 49.96 45.64 45.77 49.93 51.88 51.09 52.55 50.93 50.47 49.29 49.50 48.79 50.13 59.45 63.93 65.62
55.79 55.79 55.78 55.50 54.95 54.39 53.96 53.56 53.32 52.78 52.43 51.58 52.49 53.31 53.91 52.89 45.15 45.12 57.02 60.37 61.93 62.44 57.35 54.72 55.69 55.35 51.10 51.21 50.38 49.32 45.35 50.25 52.07 53.66 52.01 52.38 50.97 51.68 48.76 47.14 49.34 49.00 54.55 60.82 62.93
55.67 55.29 54.87 54.94 54.61 53.99 53.33 52.84 52.49 51.89 52.09 51.11 50.99 52.23 52.77 49.79 35.12 52.13 58.46 60.18 61.62 60.61 57.67 54.57 51.11 49.74 48.02 46.59 50.41 45.46 49.26 50.14 51.79 52.46 50.93 50.04 52.54 49.58 49.58 48.68 52.13 53.28 54.35 57.11 60.19
55.02 54.79 54.19 54.16 53.98 53.40 52.44 52.38 52.03 51.36 51.33 51.17 52.04 52.14 49.67 42.74 43.20 55.82 59.39 59.73 59.02 58.32 54.31 52.73 49.16 49.25 46.05 47.57 48.10 46.53 48.11 49.71 50.78 50.34 49.28 51.55 50.06 48.62 49.18 51.67 53.70 54.35 54.25 52.21 52.73
54.71 54.54 53.97 53.64 53.31 52.79 51.76 51.56 50.98 51.14 50.98 51.12 51.25 51.72 45.69 36.76 50.43 55.27 56.39 57.46 57.91 56.56 53.26 53.88 49.79 52.40 48.82 48.02 46.33 48.25 48.96 48.90 49.32 49.17 50.07 48.63 48.44 47.88 49.37 51.69 52.23 52.57 51.19 51.47 52.51
54.65 54.54 53.80 53.31 52.82 51.59 51.26 50.83 51.11 51.07 51.15 51.12 51.14 49.34 43.88 41.44 51.52 55.54 54.83 52.38 57.53 56.26 51.93 53.22 53.13 50.55 50.65 47.55 50.81 49.28 44.70 46.86 46.86 48.29 47.72 49.45 45.28 45.54 49.61 50.82 50.49 50.73 51.22 52.48 52.48
54.31 53.89 53.18 52.39 51.81 50.89 50.43 50.65 50.71 50.89 50.92 50.88 51.00 48.37 39.66 49.98 50.70 50.44 53.44 52.09 53.70 56.78 55.10 55.74 54.96 51.32 49.96 50.60 48.08 45.02 44.23 39.27 45.64 47.12 48.28 47.41 39.57 47.31 50.32 49.30 49.01 49.53 49.59 50.62 52.26
53.31 53.14 52.53 51.80 50.97 50.27 50.15 50.03 50.41 51.00 51.20 51.12 47.46 44.71 38.56 52.78 45.63 48.53 51.33 49.95 52.97 55.70 56.18 56.20 55.00 48.90 48.91 43.25 41.19 42.56 35.82 38.33 41.63 47.50 46.54 45.12 41.06 47.42 49.55 49.71 47.98 48.43 49.85 49.74 50.03
52.00 52.38 52.17 51.59 51.34 51.11 50.70 49.71 50.12 50.18 50.06 49.84 47.53 40.47 43.27 41.20 47.29 47.86 51.83 52.86 51.39 52.55 51.66 50.10 47.97 43.72 43.27 40.54 33.01 36.02 36.82 38.98 38.64 44.09 45.31 43.22 42.32 46.34 47.48 46.43 45.45 45.79 46.15 46.68 48.79
52.29 51.87 51.74 51.59 51.15 50.63 49.88 48.43 43.82 41.51 44.12 39.03 39.30 39.43 40.96 46.14 51.18 49.19 52.84 50.54 51.34 49.41 42.88 46.57 41.01 37.45 40.27 42.24 41.91 40.86 38.76 37.41 41.33 45.16 42.85 41.86 42.89 44.92 46.23 45.52 44.45 45.16 45.79 46.57 47.33
53.33 51.59 51.52 51.38 50.87 51.23 49.21 42.94 42.22 43.69 36.64 42.38 42.37 41.82 44.08 46.22 42.70 47.42 52.08 47.71 46.47 41.51 44.28 42.06 38.20 42.62 44.58 43.55 41.88 40.39 36.45 37.34 39.60 43.57 41.93 40.62 40.67 44.03 44.52 45.28 46.09 45.67 45.36 45.91 46.46
52.38 52.85 51.29 51.09 51.44 49.42 45.05 44.24 48.82 47.57 35.82 39.17 41.52 41.37 44.33 46.63 43.03 43.69 48.76 46.52 43.59 40.89 41.47 38.11 40.52 45.83 43.51 41.44 39.82 38.45 36.47 36.66 36.54 40.78 41.39 39.08 36.37 39.36 43.63 45.50 46.40 43.54 43.15 44.37 44.24
51.41 52.08 52.50 50.67 47.18 47.56 44.06 47.99 49.40 48.43 32.66 35.24 39.67 43.27 46.05 46.15 42.52 49.39 48.82 45.48 42.94 39.93 41.21 40.95 44.33 42.88 41.49 40.41 41.37 35.67 41.12 40.36 38.91 35.91 30.40 39.23 26.11 36.90 41.17 41.36 41.72 40.10 40.67 42.18 44.67
50.83 51.61 52.30 50.46 47.01 45.12 46.41 49.68 49.83 45.10 24.47 38.15 40.94 50.08 46.46 42.91 44.12 45.42 50.01 45.05 40.57 41.25 41.69 38.49 40.49 40.42 39.86 41.13 42.85 39.34 42.90 40.39 39.37 35.68 33.73 34.50 29.51 34.24 38.57 36.48 38.69 40.71 42.50 43.56 44.92
50.26 51.60 51.84 50.66 49.41 48.71 50.34 49.78 45.51 31.67 23.32 36.15 41.56 41.60 42.54 43.40 42.91 45.34 44.14 46.21 44.64 41.15 41.44 39.75 43.98 43.10 42.47 44.17 44.20 44.53 40.04 38.85 37.27 34.81 26.41 33.61 32.02 31.97 35.54 38.02 39.44 41.40 42.87 44.50 45.17
50.04 51.26 50.27 50.07 45.82 50.90 49.80 43.91 31.74 27.59 37.50 35.27 38.24 41.14 40.50 39.11 40.65 41.61 38.98 38.15 36.28 32.40 32.64 35.50 36.01 41.11 42.53 40.26 42.31 40.96 35.62 26.48 25.04 24.43 23.29 33.51 32.06 33.96 38.35 40.55 41.24 41.33 42.79 44.54 45.94
51.03 51.06 51.03 49.81 51.50 50.52 46.41 37.38 26.52 33.44 35.39 41.17 40.78 40.39 37.25 39.65 39.42 40.15 38.57 36.01 39.41 38.64 35.01 32.50 28.61 36.84 39.76 39.37 36.72 37.08 35.36 28.11 21.88 22.58 24.72 31.16 26.76 33.02 39.39 42.13 43.58 43.30 43.80 44.69 44.97
51.33 50.71 49.12 51.55 51.97 48.87 40.62 31.96 30.68 35.55 39.58 38.38 39.79 36.68 36.81 39.97 39.43 39.19 38.44 37.46 39.97 41.38 34.85 33.19 31.15 38.21 39.34 40.95 40.24 36.35 30.58 35.40 28.85 27.92 23.78 27.01 30.93 36.19 38.93 39.11 39.96 41.15 42.86 43.12 44.54
47.20 47.63 48.41 51.52 51.32 45.80 40.70 33.77 36.94 41.46 41.84 40.79 35.09 37.84 34.25 37.52 37.79 38.59 37.65 40.20 39.22 41.91 42.49 37.65 30.63 37.19 38.34 40.79 40.12 37.66 38.67 31.77 28.49 20.06 21.37 25.94 27.81 28.58 33.93 36.23 38.81 39.72 41.22 43.66 44.90
46.99 43.79 47.97 51.26 49.90 44.01 35.24 35.14 39.79 43.59 43.18 38.73 37.28 36.64 37.85 36.63 38.21 37.61 37.23 40.02 41.73 40.43 41.83 40.71 35.62 34.10 37.17 35.32 34.95 35.00 33.25 33.73 32.35 28.97 23.18 21.62 25.58 35.07 35.91 37.62 37.91 40.49 43.02 43.62 44.68
45.17 40.85 49.14 50.34 43.33 43.88 38.83 40.91 42.31 41.99 44.10 41.49 41.06 39.59 37.69 37.70 36.22 36.20 35.99 39.18 42.63 41.86 37.68 39.01 34.86 30.97 33.89 38.32 41.04 39.11 36.61 35.94 28.30 25.71 25.85 25.07 26.29 37.97 38.68 39.99 41.22 41.95 43.82 44.78 46.61
40.53 42.62 49.63 49.24 38.71 38.11 41.41 40.79 42.73 41.38 41.71 40.96 39.28 40.55 40.58 37.52 34.02 37.44 37.80 41.40 42.65 40.89 37.17 38.74 32.04 26.43 28.89 33.39 36.76 34.79 37.05 38.26 36.34 33.41 29.45 26.51 25.52 39.26 39.30 39.45 41.45 42.12 43.89 45.58 46.00
41.95 37.83 44.64 46.49 44.27 41.19 39.47 39.07 39.23 43.87 42.27 41.99 40.57 41.13 38.65 37.07 38.47 36.08 37.07 40.80 41.36 41.67 43.08 41.46 34.80 29.08 24.14 28.09 33.92 30.56 34.53 36.05 32.38 27.18 29.39 29.06 29.39 34.06 37.39 39.13 41.96 43.46 44.62 44.38 44.10
42.60 37.45 39.36 36.90 39.07 38.76 40.99 40.81 38.97 38.67 42.54 42.60 39.41 39.24 38.04 34.77 35.40 35.34 38.22 37.91 40.18 41.39 39.69 38.59 29.75 28.98 32.98 35.28 34.54 33.57 33.80 34.82 30.14 32.35 27.15 31.96 32.17 35.56 37.74 39.52 42.31 43.20 44.61 44.46 43.20
36.78 34.97 37.92 37.32 39.25 38.65 38.25 39.77 39.28 40.59 40.59 39.24 37.61 40.14 39.05 36.46 37.32 35.17 37.54 36.62 35.19 38.44 37.80 38.83 30.71 31.96 27.26 34.43 33.39 30.10 33.68 34.30 35.01 34.89 33.75 34.15 32.93 38.25 39.29 40.56 41.39 42.09 43.70 43.30 41.99
38.70 40.88 38.40 36.69 37.13 37.03 37.08 38.14 39.20 41.29 42.46 42.91 41.20 39.22 38.14 40.78 42.62 41.99 41.07 40.68 39.44 37.12 36.01 35.72 31.19 27.07 23.95 32.39 30.99 25.99 31.62 33.19 34.39 35.60 35.27 30.63 35.20 39.38 39.73 41.46 41.20 40.92 43.24 42.09 40.78

GFSSW_sfc_wetblb_045.txt.gz
Wetbulb
56.43 56.64 56.43 56.43 56.25 55.58 55.27 55.08 54.72 54.54 54.39 54.59 54.82 55.25 56.12 54.39 54.67 53.11 47.34 53.38 58.53 61.10 60.75 54.58 53.42 55.45 57.37 55.26 55.88 55.92 46.13 42.42 43.61 44.87 47.09 52.69 50.74 50.23 50.97 48.93 50.14 53.61 58.53 63.62 65.84
56.34 56.21 55.84 55.56 55.58 55.36 54.85 54.53 54.23 53.97 53.41 53.26 53.83 54.16 54.72 55.09 50.12 46.53 53.04 58.52 61.84 62.44 54.56 50.76 50.17 53.89 51.90 52.42 52.96 50.28 45.38 44.72 49.86 49.99 49.06 51.19 51.96 50.40 47.65 47.40 47.64 55.07 63.60 65.23 64.93
55.64 55.46 55.39 55.11 54.81 54.63 54.16 53.68 53.27 52.91 52.19 51.53 52.26 53.24 53.15 53.05 45.08 43.80 56.00 58.27 61.49 62.19 55.83 53.24 53.84 53.32 49.11 50.26 49.97 49.21 44.68 48.93 49.79 51.18 52.15 51.23 51.46 52.85 47.79 44.92 47.05 51.41 60.19 62.72 62.86
55.08 55.69 55.66 54.89 54.33 54.10 53.19 52.60 52.35 51.95 51.50 51.24 51.54 52.13 51.97 49.54 35.48 47.24 59.17 58.81 61.38 60.32 56.93 52.36 51.74 48.59 46.95 45.64 50.22 44.64 49.38 50.28 51.70 53.12 51.91 50.35 52.17 49.61 48.43 47.59 50.84 50.20 58.57 60.60 60.91
55.45 55.05 54.93 54.40 53.80 53.41 52.38 51.95 51.65 51.45 51.24 51.62 51.45 50.82 48.50 41.39 42.16 51.73 58.28 58.13 58.11 57.76 54.02 51.81 48.40 48.36 43.87 46.16 47.63 45.32 47.12 50.31 51.12 50.44 50.51 51.96 50.40 49.26 48.29 50.70 52.24 52.57 52.76 54.64 58.53
54.68 54.32 54.17 53.82 53.16 52.81 51.68 51.36 51.08 50.79 51.24 51.21 51.85 52.00 45.58 36.16 49.98 55.43 55.53 54.90 56.28 55.49 53.47 52.55 46.94 49.63 46.07 46.20 44.80 47.47 48.07 48.19 48.54 48.70 49.22 47.98 49.03 47.73 48.20 50.16 50.93 51.42 50.04 50.12 50.20
54.22 53.80 53.26 53.06 52.76 52.06 51.63 51.12 51.35 50.88 51.23 51.19 51.11 49.35 43.43 40.12 49.64 53.90 54.66 52.62 55.53 55.37 52.10 53.60 52.10 49.40 47.70 45.16 47.97 46.81 44.14 45.92 46.68 47.11 46.89 47.83 45.06 46.53 48.36 48.61 49.43 48.37 48.86 50.45 50.26
53.00 52.99 52.73 52.29 51.50 51.49 51.13 51.20 50.90 50.99 50.97 50.90 50.82 47.75 39.78 49.54 47.89 47.57 52.28 51.89 53.01 55.71 55.55 54.97 52.86 49.65 48.58 49.56 46.49 43.78 42.66 37.80 44.71 46.32 47.40 46.02 38.87 45.60 49.20 45.58 47.15 47.14 47.57 48.76 50.72
53.03 52.59 52.99 52.36 51.85 51.51 50.82 50.65 50.77 51.08 51.18 51.25 46.90 43.80 37.50 52.05 45.22 46.61 50.20 48.04 51.29 53.55 55.16 55.52 52.82 48.15 46.26 41.44 38.91 41.03 34.12 36.77 40.70 46.08 45.71 44.02 38.71 46.02 48.19 46.64 46.71 46.51 47.11 48.36 48.39
53.70 52.38 52.24 52.01 51.56 51.22 51.42 51.30 51.04 49.66 49.30 49.79 47.28 38.46 42.61 40.82 45.68 47.47 50.71 49.12 49.65 50.72 49.52 49.53 46.50 42.08 42.68 38.38 32.56 34.50 34.86 37.38 37.53 42.90 44.05 41.51 40.44 45.55 45.87 45.95 45.38 45.33 45.05 45.23 47.42
52.87 53.27 51.75 51.84 51.74 52.03 49.30 45.61 40.58 39.05 42.37 39.04 38.95 39.10 41.22 45.15 50.08 47.56 49.95 49.04 49.02 47.64 41.03 45.84 39.56 36.84 39.37 39.95 39.60 38.90 37.01 35.38 39.48 44.00 41.87 40.78 40.63 44.57 44.69 42.57 43.01 43.60 44.52 45.18 46.22
51.54 52.67 52.87 51.65 51.93 52.07 47.80 40.68 42.62 42.90 35.27 42.90 42.27 42.10 43.61 45.55 41.92 46.35 51.33 44.46 45.52 41.06 42.23 40.53 35.43 40.19 42.72 41.91 40.38 38.55 35.57 34.64 38.13 43.28 42.34 38.83 39.52 43.03 45.03 42.84 43.87 44.33 44.38 44.84 44.33
51.06 51.31 52.29 51.62 51.44 47.50 43.14 43.75 48.14 46.56 36.68 39.39 41.80 40.70 43.78 45.71 41.94 42.96 47.23 46.72 43.17 37.65 40.40 37.72 39.16 43.77 42.46 39.96 38.23 36.05 33.33 33.23 35.17 39.45 40.05 36.12 34.49 38.22 42.30 42.84 44.57 44.67 42.99 43.39 43.98
51.00 50.53 51.88 52.24 46.10 44.44 42.38 47.22 48.65 46.34 32.03 35.71 39.61 43.17 46.14 45.94 39.63 47.83 49.38 45.85 43.44 38.64 41.23 40.26 43.22 41.55 40.05 38.54 38.87 32.92 38.62 38.59 37.53 34.30 29.60 37.36 25.04 32.71 39.85 41.13 42.26 40.59 40.15 41.03 42.73
50.85 50.38 51.78 51.60 43.36 43.12 45.30 47.87 47.03 43.77 20.75 39.15 40.90 48.91 46.02 40.59 42.26 44.36 49.69 45.89 40.06 41.09 40.83 37.85 40.07 39.99 38.31 39.45 40.66 36.51 40.92 38.56 36.80 33.02 32.24 32.29 26.83 31.79 36.70 36.19 37.44 38.90 39.24 40.26 42.97
50.31 50.39 51.14 48.95 45.66 47.85 49.07 47.18 44.44 28.84 22.45 35.03 39.79 40.12 39.34 41.15 42.99 44.43 44.03 46.83 44.99 41.50 40.31 39.42 43.61 42.13 41.11 43.03 43.03 42.19 38.59 36.86 34.87 31.82 22.24 31.36 29.39 29.16 32.68 37.45 37.38 38.79 40.29 42.24 43.62
50.99 50.56 49.32 49.34 44.36 48.14 48.44 43.71 28.60 23.02 36.24 35.82 37.43 41.04 39.47 39.11 40.67 40.86 39.36 38.76 36.91 33.30 33.18 36.93 36.99 41.06 42.99 38.76 41.27 40.74 34.70 26.67 24.34 19.89 21.48 29.51 29.18 32.93 36.99 38.15 39.38 39.26 40.22 41.81 42.73
50.50 51.40 49.61 49.41 47.93 49.30 46.00 36.43 22.86 32.24 33.96 41.12 40.50 39.99 36.53 38.95 39.33 39.30 38.23 35.97 39.33 37.24 34.74 31.07 30.09 37.65 40.19 39.75 37.24 37.34 33.79 26.53 19.44 18.79 23.32 29.52 25.17 32.06 36.86 40.63 42.81 42.56 42.05 42.92 43.24
49.85 46.10 45.26 47.50 49.00 47.04 40.55 24.67 25.92 35.48 39.51 38.29 39.57 36.05 36.56 39.26 39.29 38.70 37.84 35.89 38.91 39.38 33.76 30.86 30.50 38.62 40.28 41.10 39.72 36.86 32.81 36.37 28.48 26.44 21.14 25.63 28.46 34.79 36.73 39.19 41.28 40.59 41.68 41.93 42.92
41.63 42.14 44.09 49.29 47.82 45.17 35.64 30.06 33.27 40.69 41.11 39.63 33.70 37.02 34.14 36.81 37.01 37.64 36.79 40.43 39.62 42.04 41.13 36.73 30.41 37.01 38.85 41.24 40.63 37.86 38.68 29.85 27.42 21.18 18.99 23.17 24.52 27.35 32.02 34.88 38.88 39.57 40.73 41.72 43.95
41.29 38.27 44.91 48.84 47.55 42.43 30.72 32.00 38.29 42.67 41.75 37.11 34.32 34.01 35.58 34.57 37.43 36.35 35.57 39.69 41.23 40.85 40.73 38.41 33.07 33.91 37.02 34.73 35.96 35.31 33.85 33.14 31.75 27.37 21.83 18.91 24.13 33.09 34.81 36.29 36.57 39.02 41.37 42.27 43.57
37.90 35.13 45.08 47.24 37.83 39.83 30.14 37.68 41.35 40.38 41.62 39.77 37.99 37.02 34.45 34.78 33.63 33.60 33.96 37.50 42.04 40.84 37.05 38.91 34.44 30.68 32.94 39.64 40.97 39.05 35.61 34.03 25.39 25.12 24.05 22.32 24.90 36.31 36.20 37.38 38.13 39.49 42.64 43.69 44.84
34.17 36.35 45.31 44.22 36.70 33.22 37.01 39.81 41.09 39.82 39.41 39.20 37.03 38.49 37.68 34.47 31.58 34.53 35.15 39.96 41.42 39.26 36.55 38.18 30.43 27.20 29.51 33.18 37.00 35.73 36.19 37.76 34.35 30.82 25.19 22.75 24.13 36.65 37.00 38.34 40.56 40.97 42.07 44.51 44.16
36.02 32.05 37.77 40.61 39.07 38.72 35.37 36.29 37.04 41.54 40.55 40.11 38.32 38.38 35.80 34.18 35.35 33.60 34.40 39.03 39.74 39.89 43.73 40.81 32.74 26.52 22.81 26.43 32.20 29.52 34.72 37.09 34.24 25.41 28.25 27.81 29.01 31.95 35.78 37.58 39.02 40.63 42.67 43.39 42.91
35.72 34.73 34.80 33.03 33.99 35.50 37.29 40.10 36.73 37.26 40.26 40.17 36.89 37.06 35.10 31.91 32.67 33.24 35.48 35.80 38.48 41.61 38.24 36.67 25.93 25.80 31.11 34.57 33.41 32.69 32.67 34.30 31.61 32.29 28.46 32.02 29.56 33.52 36.90 37.21 38.81 42.07 42.76 42.30 41.37
31.39 30.48 33.50 33.95 34.83 34.93 36.53 37.33 37.57 39.76 38.50 38.87 35.31 38.01 36.27 34.52 34.61 32.19 35.41 33.99 33.35 35.74 35.03 35.93 25.38 27.81 23.49 32.36 32.43 29.24 32.79 33.36 34.17 33.91 32.15 32.36 31.57 38.05 38.31 39.53 40.49 41.04 42.28 41.96 41.00
33.89 35.22 34.58 34.16 32.14 32.78 35.55 35.91 37.66 39.62 41.17 40.96 39.02 37.25 35.57 39.28 39.53 38.48 37.89 38.02 37.22 35.16 33.68 34.00 26.73 21.93 20.29 30.80 29.08 24.29 30.09 32.05 33.07 35.14 35.23 30.23 35.48 37.27 38.67 39.28 39.88 40.25 42.07 41.41 40.24

GFSSW_sfc_wetblb_048.txt.gz
Wetbulb
56.57 55.85 56.12 55.89 55.83 55.63 55.79 55.62 54.74 54.72 54.57 54.54 54.58 54.85 55.16 56.08 56.41 53.60 48.54 51.48 55.59 62.78 62.27 54.33 53.21 54.26 55.75 54.64 56.36 55.26 45.37 40.71 42.72 43.99 45.85 51.95 49.20 52.38 51.90 49.64 53.71 57.08 58.63 62.67 65.08
55.48 56.26 56.29 56.04 55.47 55.01 54.75 54.73 53.87 53.73 53.34 53.09 53.19 54.15 54.43 54.12 50.55 47.21 53.87 57.31 59.83 62.29 52.99 50.53 47.53 52.49 53.12 52.05 53.11 49.93 44.26 43.76 48.15 48.80 47.94 51.12 50.55 50.89 49.04 48.40 53.15 59.10 63.10 64.36 64.35
55.63 55.57 55.28 55.59 54.93 54.43 54.37 52.84 52.63 52.66 51.88 52.00 51.86 52.92 53.06 52.82 43.65 45.34 56.38 57.95 58.94 61.65 56.07 51.97 51.09 53.56 50.32 49.47 49.94 50.03 44.38 48.34 49.39 50.95 51.57 50.55 50.60 53.13 48.74 45.93 50.46 57.40 60.48 61.91 61.53
55.57 55.05 54.87 54.93 54.40 54.10 53.14 52.54 52.14 51.52 51.43 51.61 51.77 52.18 52.34 49.34 36.06 46.66 56.52 58.32 59.22 58.30 56.04 51.24 51.36 49.85 47.23 46.59 49.50 45.83 49.56 50.16 51.04 52.58 51.72 49.90 52.34 50.02 49.33 48.76 50.90 57.60 62.01 60.90 60.51
54.88 54.19 54.09 54.38 53.94 53.55 52.26 52.07 51.35 51.67 51.22 51.99 51.19 51.01 48.20 41.78 41.68 51.07 55.97 57.70 55.65 56.54 53.37 49.58 49.10 48.11 44.14 45.36 48.06 44.64 48.39 50.55 51.99 52.58 52.04 52.36 50.21 50.33 49.49 52.63 51.26 57.31 59.63 59.81 59.92
53.88 53.53 53.28 52.83 53.04 52.68 52.33 51.73 51.51 51.34 51.44 51.29 51.93 50.90 44.75 36.92 49.33 52.04 51.59 53.87 53.24 55.20 53.34 52.19 48.58 50.04 45.17 45.68 46.01 47.53 47.87 48.43 49.65 49.55 51.29 48.83 49.15 50.04 50.82 51.40 49.88 51.16 50.97 52.70 57.53
53.53 53.33 53.15 52.63 51.85 52.05 51.70 51.53 51.64 51.05 51.27 51.22 51.11 49.52 43.20 39.12 49.46 51.45 53.11 52.07 55.13 55.63 52.01 53.78 50.92 49.06 46.48 43.92 46.57 46.36 44.35 45.34 46.16 47.49 46.70 49.24 45.54 47.07 51.73 51.15 48.40 47.33 48.75 50.65 50.49
54.40 53.01 52.82 52.55 52.23 51.51 51.12 51.32 50.71 50.95 51.03 50.93 50.90 47.30 39.12 49.71 49.51 47.87 51.70 51.39 53.63 55.32 55.03 55.63 52.77 49.57 45.71 46.56 44.57 41.24 42.30 37.75 43.88 45.90 47.24 46.34 39.84 47.98 52.46 48.25 46.33 46.41 46.34 48.30 49.97
53.54 53.58 52.56 52.20 51.85 51.72 51.47 51.18 50.88 51.10 51.07 51.12 46.11 43.23 37.12 50.77 45.12 46.76 49.88 48.71 51.65 53.54 54.61 55.45 51.70 45.45 44.26 40.60 37.21 37.85 33.74 36.73 39.94 46.16 45.35 43.60 39.64 45.95 49.10 46.14 45.13 44.72 45.87 47.04 48.12
52.49 53.28 53.33 52.03 52.00 52.27 52.01 51.74 50.57 49.93 48.92 49.40 47.64 37.87 41.78 39.94 45.11 47.84 50.07 50.88 49.61 50.70 50.70 49.51 46.83 42.06 40.28 39.10 31.98 34.70 33.86 37.99 37.24 42.56 43.96 41.94 39.83 44.52 45.31 44.00 44.03 44.18 45.11 45.98 46.74
51.75 51.76 52.74 53.03 52.21 52.22 48.30 43.66 39.16 37.57 41.12 38.18 38.02 38.18 40.65 44.40 48.36 46.38 50.20 48.13 47.60 46.20 40.50 46.00 40.26 36.77 38.43 38.60 38.84 38.19 34.74 35.66 38.66 43.16 41.76 41.25 40.53 43.83 45.05 41.44 41.17 42.83 43.56 44.55 45.27
51.52 51.25 51.29 52.62 52.28 52.17 45.94 40.22 41.90 41.77 34.37 42.39 41.70 41.92 43.67 44.37 41.65 45.24 50.82 41.75 41.19 39.39 40.46 41.76 36.88 39.87 42.04 41.77 39.50 38.36 35.03 32.92 37.75 42.17 41.75 39.92 40.10 42.95 44.31 42.52 42.66 42.35 42.52 44.00 43.45
51.69 51.04 50.56 51.87 52.46 45.97 41.22 43.13 47.18 46.18 36.43 39.14 41.76 40.40 42.76 45.66 41.53 42.83 46.80 44.29 40.60 37.93 38.21 38.00 39.98 43.11 42.14 38.89 37.64 34.81 33.58 32.76 34.00 38.71 39.30 36.87 35.07 38.21 41.85 42.45 43.25 43.47 43.30 43.59 43.98
51.03 50.75 50.50 52.04 46.03 43.75 41.50 45.76 47.07 46.12 31.34 36.14 39.12 42.56 45.48 45.73 40.10 47.05 48.39 45.94 41.04 38.80 39.18 40.23 42.02 40.84 39.86 38.15 37.68 31.91 37.51 36.96 36.10 34.22 30.21 36.53 26.32 32.93 38.95 39.66 41.22 42.80 40.03 41.63 41.90
51.12 50.50 50.57 50.88 42.05 42.01 44.71 46.93 46.04 42.62 21.02 37.40 40.53 48.38 44.55 41.12 41.66 44.29 49.77 46.51 40.59 38.01 40.87 37.86 39.22 38.25 37.74 38.60 39.27 35.92 38.98 37.15 35.32 31.81 31.03 30.34 26.73 30.63 34.37 34.11 39.14 40.73 38.69 39.44 41.57
50.47 50.16 51.03 47.73 46.05 46.06 48.95 48.07 43.85 23.01 17.40 34.25 39.32 39.37 37.32 40.14 42.75 44.56 44.60 47.16 45.99 41.10 40.04 39.63 43.47 41.31 39.62 41.55 41.37 40.78 37.18 35.29 33.61 30.30 21.90 29.19 28.26 28.05 32.39 34.63 35.87 36.76 38.40 39.49 42.02
50.41 50.42 49.84 48.68 42.17 47.61 48.79 42.23 22.28 21.30 34.79 35.22 37.80 39.02 39.01 39.02 40.11 40.17 39.86 38.95 36.98 32.04 31.38 37.18 37.77 41.25 41.52 37.60 41.28 37.44 32.24 21.24 22.62 22.08 22.49 28.66 27.67 34.03 36.35 38.00 37.84 36.87 38.18 40.64 42.15
50.81 50.44 49.55 48.68 47.22 48.02 45.50 31.13 17.81 30.04 35.80 41.31 39.86 38.79 36.37 39.21 38.82 38.66 38.16 35.01 39.25 36.00 32.38 31.13 29.30 38.00 40.69 38.80 35.86 36.32 31.99 23.40 19.32 19.83 22.10 28.10 24.81 30.63 37.32 38.81 40.52 40.75 41.20 41.07 41.53
48.87 44.72 44.70 46.68 47.71 47.64 39.25 19.94 23.15 29.99 38.32 38.36 39.44 36.27 36.34 38.96 38.36 37.56 37.03 35.95 37.45 36.11 31.66 31.41 29.32 38.86 40.91 41.18 38.70 36.45 31.17 34.00 25.51 23.04 18.34 24.14 28.14 33.81 34.35 35.26 39.11 39.57 40.52 40.90 41.76
39.81 40.86 42.41 47.99 47.71 45.16 34.14 27.95 30.31 39.65 39.93 38.25 31.81 36.57 33.94 36.43 37.02 36.85 36.04 38.90 38.95 40.84 39.07 34.21 29.31 37.34 39.22 41.50 39.49 36.13 38.46 30.32 25.20 19.60 17.73 22.13 23.35 27.08 30.04 34.15 38.53 39.67 40.38 41.23 42.97
40.51 38.20 44.14 47.58 47.84 41.90 23.88 26.59 36.61 41.52 40.48 36.35 33.21 32.40 33.37 34.29 36.70 35.60 35.08 39.13 40.86 39.73 39.95 35.61 31.34 33.81 37.75 36.18 36.19 35.51 34.45 34.76 32.87 29.10 21.09 19.23 22.97 31.51 32.87 35.57 37.61 39.86 41.31 41.22 43.13
36.07 37.08 44.38 47.14 39.03 38.55 28.32 36.16 41.15 38.96 40.25 38.78 36.91 35.67 33.15 33.87 31.99 31.81 33.32 36.06 41.85 41.42 35.93 36.51 32.61 28.86 32.71 39.06 40.80 39.49 35.57 34.64 28.87 23.33 24.01 22.20 24.28 34.31 35.10 37.01 39.51 39.75 41.27 42.99 44.58
33.99 34.77 44.52 45.48 36.32 31.24 36.11 38.47 39.91 38.50 38.20 38.12 35.71 37.33 36.55 33.61 30.76 33.19 34.11 38.50 40.61 38.39 37.10 37.67 30.14 25.79 27.38 31.80 37.45 36.54 37.39 37.22 33.97 30.35 22.73 21.34 25.45 36.63 33.92 36.42 38.61 39.39 41.43 43.56 43.30
35.57 29.11 36.50 41.62 40.86 35.24 35.16 34.93 35.87 40.34 39.18 38.76 36.94 37.32 34.60 32.97 34.49 32.24 33.04 38.00 38.81 38.43 43.25 40.11 31.10 26.27 24.02 26.52 31.22 31.27 35.68 36.35 33.95 25.49 29.11 25.66 29.13 33.24 35.23 36.16 38.39 40.18 41.57 42.92 42.47
33.15 32.24 32.30 32.93 35.39 35.57 37.14 38.68 35.60 36.25 39.02 38.57 35.56 35.57 33.78 30.17 31.25 31.71 34.07 34.58 37.75 40.78 37.30 35.41 25.63 25.72 29.30 32.83 31.85 30.87 32.17 34.93 33.29 34.46 29.94 33.33 30.79 34.44 36.66 37.95 39.05 40.61 41.88 42.19 41.30
29.47 28.36 32.06 30.45 33.75 34.78 36.10 35.62 36.51 39.58 37.47 38.02 34.02 36.92 34.88 33.54 32.79 31.30 34.15 32.85 32.52 34.69 34.03 34.35 23.82 26.38 22.43 30.73 31.53 29.36 31.57 33.77 35.44 35.64 33.57 31.45 31.04 36.99 38.96 38.36 39.21 40.50 41.30 41.05 40.42
33.03 33.76 33.12 31.74 27.86 31.77 31.71 33.05 34.83 38.39 40.47 39.95 37.75 35.85 35.44 37.48 38.27 37.73 37.21 36.94 35.88 34.29 32.74 32.25 26.15 20.64 18.35 29.03 28.24 24.28 29.34 31.07 33.06 35.10 34.99 29.46 35.48 35.92 36.18 38.21 39.93 40.61 41.42 41.42 40.31

GFSSW_sfc_wetblb_051.txt.gz
Wetbulb
56.13 56.62 55.95 56.07 56.73 56.41 55.95 55.55 55.33 54.84 54.81 54.21 54.14 54.39 54.81 55.29 55.95 53.11 49.77 51.48 53.92 60.82 61.87 55.40 53.52 53.24 56.75 53.27 55.87 55.41 44.84 41.40 42.10 43.44 45.44 49.71 49.58 51.47 52.93 48.96 52.48 59.94 57.32 61.10 64.06
55.71 55.91 55.41 55.58 55.72 55.29 55.13 54.89 54.13 53.87 53.45 53.11 52.75 53.46 54.05 54.16 50.01 48.44 54.48 57.89 59.17 60.24 53.50 52.00 48.38 52.01 52.97 50.55 52.61 49.77 44.58 43.56 46.79 48.35 47.56 49.43 50.26 49.83 48.66 49.04 51.99 57.46 62.31 63.63 63.38
55.17 54.97 55.05 55.12 54.98 54.91 54.28 53.54 53.36 52.77 52.05 52.01 51.77 52.44 52.99 52.18 44.58 43.97 56.83 58.96 58.96 58.56 55.98 52.25 50.39 50.23 48.26 50.41 50.06 49.40 44.02 47.58 48.57 49.84 51.72 50.31 50.36 51.91 48.49 46.16 46.42 46.61 59.73 61.55 61.92
54.59 54.18 53.86 54.37 54.57 53.93 53.44 53.05 52.22 51.62 51.45 51.46 51.48 51.95 52.55 48.87 33.32 45.62 55.71 58.68 59.61 56.53 55.40 51.38 49.41 45.98 45.49 46.81 49.04 45.76 48.79 49.56 50.24 52.19 51.08 49.38 51.67 49.94 49.03 49.67 52.19 52.08 53.72 60.35 60.40
54.00 53.98 53.71 53.02 53.46 53.30 52.89 52.13 51.58 51.66 51.24 51.56 51.03 50.86 48.11 42.12 41.03 50.69 55.18 54.02 53.53 53.72 51.24 50.27 46.69 44.99 43.93 46.28 48.02 43.40 48.09 49.82 52.07 52.03 51.36 52.28 50.16 49.94 49.15 52.18 53.75 52.61 59.12 59.22 59.50
55.16 53.60 53.35 53.08 52.04 52.50 52.35 52.03 51.65 51.54 51.33 51.49 51.45 50.48 44.81 35.62 47.83 51.22 51.14 50.27 50.83 52.18 50.84 51.32 47.70 48.83 45.75 45.65 46.40 46.73 48.43 49.05 51.03 50.49 51.20 49.43 49.56 49.90 50.88 52.10 51.88 50.53 58.82 58.48 58.56
54.92 54.15 53.26 52.89 52.49 51.88 52.02 52.33 51.66 51.27 51.31 51.20 50.99 49.46 43.05 39.17 48.20 49.78 49.17 50.56 53.20 52.77 49.39 53.32 51.89 49.27 46.16 43.40 47.14 46.36 43.78 45.84 48.34 49.69 49.19 50.54 46.12 46.88 50.85 51.51 50.05 49.35 49.83 55.24 57.57
53.71 54.02 53.19 52.60 52.30 52.15 51.86 51.85 51.71 51.49 51.78 50.89 50.76 46.36 38.95 48.22 50.15 48.27 48.07 51.11 54.28 54.51 54.09 55.12 53.36 49.29 45.29 45.36 43.29 40.71 41.13 37.30 44.54 47.70 48.16 48.88 41.33 48.20 51.49 49.83 49.28 48.89 45.91 48.00 49.87
52.23 52.50 53.00 52.94 52.20 52.35 52.52 52.37 51.67 51.79 51.82 51.41 45.30 42.90 37.03 50.35 45.89 48.02 48.83 47.91 51.72 53.74 54.25 55.45 51.81 46.30 44.03 39.69 36.00 36.12 32.38 35.07 39.34 47.09 45.64 45.44 39.95 47.89 51.15 50.06 49.25 49.83 44.84 46.21 47.37
52.50 51.47 51.59 52.39 52.62 52.52 52.56 51.71 51.32 49.79 48.45 48.88 47.23 36.95 41.26 39.32 44.96 48.00 50.99 50.08 48.80 50.28 49.42 48.51 46.64 41.49 38.45 37.30 31.16 33.91 31.67 37.31 36.81 42.36 43.48 42.64 39.76 45.38 49.42 49.47 49.24 50.11 45.33 45.04 46.36
52.23 52.27 51.07 51.21 52.54 52.44 48.63 42.26 39.05 36.51 39.72 37.69 37.18 37.44 40.03 43.49 46.91 46.59 49.80 46.94 47.76 46.56 42.39 44.74 39.66 35.47 38.34 38.27 37.18 36.26 34.14 34.11 36.80 42.70 42.38 41.16 40.72 43.24 45.27 43.26 43.15 42.13 41.97 43.85 45.33
51.74 51.72 50.46 50.84 52.04 52.40 44.75 38.68 40.06 39.40 33.13 40.90 41.49 40.98 43.18 43.41 40.68 45.32 50.29 41.88 40.22 37.16 43.03 40.19 36.43 39.38 41.25 41.09 39.01 37.40 33.42 32.35 36.53 41.67 41.95 40.10 39.40 43.07 44.93 44.35 44.03 44.51 41.42 42.42 42.60
51.69 51.21 50.86 50.67 52.39 45.40 40.48 41.53 46.29 45.44 35.39 38.38 41.18 40.13 41.89 45.22 41.32 42.78 46.59 43.13 38.15 37.12 38.40 37.02 38.60 42.39 41.36 39.19 37.22 33.56 33.11 31.70 33.26 37.82 39.08 37.90 36.01 39.34 42.91 43.19 44.43 43.35 42.88 42.12 42.95
51.34 50.62 50.54 50.82 45.42 43.07 40.61 44.15 46.26 44.79 24.40 36.00 38.66 42.19 45.00 45.22 39.26 46.81 47.93 44.10 39.63 36.82 38.07 39.57 41.90 41.01 39.13 37.40 37.27 31.44 36.88 36.56 35.70 33.32 29.82 37.31 28.67 34.49 39.45 40.22 41.69 44.77 41.61 42.04 41.55
50.61 50.74 50.22 50.62 41.82 41.10 43.95 46.60 45.56 42.48 10.53 35.86 40.18 47.91 44.72 41.33 41.14 42.71 47.44 45.68 37.45 39.33 39.67 36.70 39.58 38.75 37.53 37.84 38.54 34.89 37.69 35.50 34.23 30.69 29.31 30.75 29.33 32.69 33.72 33.34 39.19 42.34 43.85 40.58 40.64
50.60 50.47 49.79 47.47 47.55 45.42 48.80 48.08 44.26 21.24 17.74 35.06 40.07 38.33 38.19 40.81 41.51 44.34 44.91 47.64 44.77 40.99 41.05 40.00 42.57 40.91 38.90 40.42 40.08 39.80 35.87 34.06 32.44 29.39 21.60 29.41 29.48 29.27 32.32 35.02 34.22 37.96 40.56 39.82 39.72
50.49 50.40 48.96 47.72 41.34 47.38 48.59 42.94 22.64 14.68 33.45 33.78 36.28 38.15 37.49 38.11 39.52 40.45 40.37 39.04 33.97 31.86 32.98 38.02 37.89 40.26 41.30 37.41 39.01 37.06 32.76 26.31 24.80 26.30 21.25 27.47 28.26 33.88 36.01 36.64 37.17 37.75 37.69 38.05 40.38
50.58 49.64 49.76 47.96 46.59 48.45 45.05 32.79 16.63 27.05 34.62 40.51 39.13 39.26 36.37 39.10 37.45 38.77 37.82 36.00 39.30 36.51 33.88 31.91 29.57 38.29 39.80 36.95 34.30 33.90 31.83 23.37 19.36 19.83 21.79 27.49 25.29 31.66 36.36 39.33 39.82 40.16 38.57 38.46 40.46
48.22 43.34 44.12 46.01 48.38 47.52 38.92 18.00 21.16 27.38 37.25 37.27 38.76 35.48 35.77 38.80 37.98 37.45 36.68 36.25 36.57 36.76 30.77 28.28 30.53 39.24 41.15 39.50 37.42 33.58 27.87 31.63 24.15 21.15 17.16 23.44 26.90 32.91 35.19 36.05 36.81 37.05 38.52 38.94 40.27
39.11 40.21 42.02 47.16 48.83 44.88 36.04 28.17 28.49 37.93 38.81 37.94 30.74 35.16 33.89 36.43 35.53 35.30 35.05 36.98 37.19 39.30 37.16 32.38 28.69 36.54 39.59 41.50 39.05 34.85 36.61 28.59 22.96 15.52 17.18 20.65 22.36 26.61 30.04 33.14 35.66 36.66 38.50 39.71 40.79
39.87 38.62 43.50 48.16 47.55 41.69 28.65 25.11 34.89 40.32 39.41 35.07 32.09 31.46 33.35 35.77 37.26 35.33 35.59 37.66 39.80 39.06 38.22 33.91 31.41 33.09 38.08 35.90 36.03 35.33 33.35 32.80 30.60 25.24 19.96 19.13 23.38 30.41 31.33 32.98 34.44 36.45 39.85 41.09 42.28
35.51 33.94 45.17 45.56 38.86 39.41 26.37 34.65 40.77 37.88 39.29 37.81 35.62 34.52 31.83 33.51 32.70 31.10 34.33 35.52 41.17 40.37 35.45 35.68 32.60 28.76 32.13 38.49 40.98 38.54 36.08 33.39 28.89 24.32 22.20 20.36 23.75 33.05 32.60 33.43 36.79 38.23 40.16 41.14 43.80
33.61 35.68 45.66 45.64 35.17 29.93 34.56 37.16 38.77 37.75 36.98 36.71 34.85 36.41 35.17 32.07 30.61 32.00 33.02 38.22 41.82 38.75 35.87 36.91 30.94 27.00 29.27 33.19 37.30 36.74 37.73 36.63 34.11 28.93 23.20 20.35 25.67 35.76 33.33 33.23 38.26 38.69 40.07 41.95 43.19
33.89 29.05 36.79 42.15 41.13 33.76 32.97 34.56 34.39 39.39 37.97 37.62 35.83 36.28 33.71 31.77 33.93 31.97 32.79 37.04 38.55 39.64 43.04 40.77 31.14 26.91 23.91 25.13 30.72 32.98 35.22 37.37 35.22 28.15 28.30 26.81 28.72 34.51 34.74 34.22 36.15 38.86 40.77 42.19 42.06
31.58 29.55 30.74 32.48 33.67 33.54 35.04 35.77 34.83 35.35 37.96 38.45 35.06 35.05 33.02 29.25 30.65 30.90 33.24 34.01 36.85 40.70 36.52 34.68 26.16 26.39 28.98 31.34 31.03 30.53 31.72 34.99 34.05 34.50 30.39 32.95 30.96 35.01 35.62 35.78 36.44 37.92 40.52 41.17 40.46
27.61 27.16 30.83 28.91 30.63 32.48 34.31 34.71 34.09 34.84 38.57 36.20 33.81 36.12 33.64 32.25 32.02 30.77 33.27 32.08 32.31 33.64 32.93 33.22 23.39 25.95 22.99 29.29 30.92 29.33 31.07 32.93 34.48 35.07 34.82 34.75 32.54 38.01 39.27 35.98 36.59 38.84 40.83 41.73 40.96
32.08 32.72 31.19 28.60 25.79 29.98 26.26 31.20 32.76 34.74 40.33 39.22 36.45 35.06 35.00 36.29 37.05 37.62 36.41 35.66 35.05 33.68 32.05 30.82 25.62 20.56 17.65 27.36 27.40 24.02 28.80 30.06 32.15 34.92 35.46 32.43 36.72 36.49 36.83 36.78 38.90 39.63 41.17 41.14 41.29

GFSSW_sfc_wetblb_054.txt.gz
Wetbulb
55.88 55.58 55.66 55.95 55.72 55.83 55.70 55.55 55.29 54.93 54.12 53.07 53.32 54.00 54.52 54.96 55.16 51.92 48.40 52.65 54.53 60.01 59.60 55.87 54.20 52.40 55.81 52.78 55.83 53.29 44.85 41.07 41.66 43.04 44.89 49.45 47.51 50.91 51.85 49.29 51.05 59.08 58.73 61.32 63.11
54.91 55.24 54.77 54.67 55.27 55.13 54.64 54.42 54.27 53.86 53.29 53.02 52.92 53.17 53.60 53.99 49.70 47.33 53.26 57.90 59.93 59.32 54.66 51.94 49.81 50.75 49.45 49.68 52.76 49.35 44.42 43.66 46.79 47.94 46.68 49.80 49.59 49.24 48.79 48.65 46.64 50.79 54.73 61.53 62.54
54.83 54.62 54.83 53.98 54.39 54.38 54.04 53.68 53.23 53.04 52.66 52.38 52.25 52.37 53.19 52.05 44.43 42.29 55.47 58.54 59.37 58.27 55.57 53.08 51.62 49.52 44.87 48.47 48.10 49.15 44.28 47.89 47.61 49.29 51.22 49.69 50.00 51.29 48.14 46.02 46.99 48.60 51.29 55.54 61.22
55.97 54.39 54.36 53.83 53.35 53.93 53.56 53.00 52.73 52.17 51.89 51.83 51.90 52.23 52.50 48.37 32.39 46.53 55.92 57.81 59.71 57.08 54.11 51.82 49.14 44.51 42.55 44.61 48.45 44.44 47.22 49.30 49.69 51.24 50.66 48.75 50.70 48.17 48.55 49.24 51.70 51.60 52.11 52.99 59.27
55.87 55.49 53.61 54.07 53.06 53.08 53.03 52.74 52.51 52.24 52.08 51.56 51.32 51.41 48.23 41.56 40.71 50.13 54.62 53.28 52.27 54.17 50.95 50.19 46.79 43.88 41.52 44.96 47.18 43.94 46.35 48.57 51.25 51.16 50.45 51.76 49.87 49.76 49.45 52.23 52.96 51.84 52.07 56.12 59.44
54.89 55.07 54.50 52.98 53.10 52.44 52.52 52.73 52.60 52.33 52.11 51.74 51.55 50.86 44.99 35.38 46.15 48.96 49.74 49.07 50.27 49.14 49.41 50.28 47.78 47.08 43.93 43.42 44.64 47.92 48.69 48.17 50.28 50.07 51.09 48.99 49.44 50.29 50.82 52.51 51.12 51.19 51.04 52.34 58.22
53.07 53.74 54.14 53.45 52.78 52.65 52.41 52.35 52.25 51.76 51.97 51.95 51.42 49.08 42.91 38.66 47.11 48.70 48.74 47.52 50.72 50.32 48.13 51.22 51.92 47.65 45.97 42.81 47.84 47.50 44.90 46.88 47.92 49.41 48.95 49.69 45.94 46.42 51.12 52.20 49.94 49.56 49.99 49.45 52.64
53.92 52.16 52.72 53.21 52.87 52.59 52.75 52.84 52.08 51.39 51.41 51.83 51.34 45.33 38.86 48.45 49.91 48.90 48.76 47.94 51.15 52.57 51.92 53.60 53.57 48.91 46.00 45.72 44.67 42.57 42.66 39.97 44.74 47.90 48.69 47.48 40.58 46.92 51.42 50.22 48.52 48.72 49.53 48.94 48.76
53.30 53.01 51.84 51.52 52.70 52.77 52.70 52.87 52.22 51.60 51.64 51.26 44.99 41.56 36.85 50.28 45.31 47.82 48.50 46.74 50.71 51.94 52.91 53.10 52.05 46.58 44.90 39.98 37.25 38.85 34.15 33.79 39.61 47.88 47.43 45.17 40.84 47.98 51.13 49.89 48.02 48.60 49.10 48.81 46.92
52.77 52.63 51.91 50.94 51.46 52.74 52.70 52.02 51.14 49.37 47.92 48.33 46.88 38.20 41.14 39.03 44.79 47.22 50.60 50.38 48.59 49.71 48.15 49.19 46.40 41.33 39.67 37.78 30.74 33.94 30.50 33.33 34.33 43.63 45.63 43.50 39.38 46.79 49.65 48.09 47.73 49.10 49.42 47.00 46.28
52.79 52.50 51.94 50.67 51.16 52.27 48.20 41.48 37.97 35.51 38.92 36.91 36.37 36.28 39.31 43.36 46.65 46.08 49.48 47.69 47.34 46.00 39.72 44.69 38.22 34.02 36.66 36.01 35.91 35.13 33.81 33.58 35.19 41.45 41.20 42.87 42.44 42.76 48.27 47.37 46.72 47.96 49.23 44.90 45.18
52.13 52.17 51.73 50.79 50.82 52.42 43.81 37.33 39.34 38.82 33.21 39.98 40.40 40.26 42.29 43.15 40.08 44.90 48.83 41.72 40.97 37.97 41.21 39.53 34.79 37.80 40.68 39.94 37.55 35.92 32.99 30.46 35.26 40.11 41.17 39.16 40.18 43.81 43.85 46.66 47.90 48.20 48.51 46.49 43.51
51.69 51.73 51.26 50.22 50.81 45.21 39.67 40.39 45.33 44.49 35.12 38.37 40.61 39.77 41.53 44.67 40.77 42.10 45.05 42.91 38.29 37.14 35.79 35.57 37.72 41.12 40.35 38.33 35.77 32.34 32.60 31.46 33.33 36.91 37.14 37.42 36.36 39.38 43.32 43.49 44.90 47.07 48.09 44.78 42.83
51.48 50.88 50.41 49.95 44.95 42.38 39.81 44.10 45.47 44.42 24.77 34.77 38.76 42.08 44.59 44.59 38.34 46.50 47.47 42.06 37.98 36.07 36.58 38.08 41.51 40.07 38.65 37.70 36.54 30.68 36.55 35.76 34.96 33.58 28.23 35.28 28.17 35.90 41.23 42.14 42.46 44.61 45.70 43.67 42.44
50.71 50.47 50.00 49.91 41.63 40.29 42.90 45.94 44.54 40.67 14.78 36.47 39.94 47.80 44.25 40.68 39.60 42.20 47.82 44.25 35.42 37.48 36.39 36.38 39.00 38.93 37.31 37.73 39.22 34.02 37.18 35.22 33.65 30.08 28.28 27.85 28.17 32.68 34.40 36.45 42.68 45.02 44.11 43.96 42.41
50.15 50.49 49.79 48.10 47.28 44.54 48.32 47.80 42.35 21.39 18.16 34.91 39.91 38.42 38.47 39.86 41.11 43.49 43.92 46.63 44.26 39.26 39.72 39.96 42.63 40.75 38.77 39.52 38.64 37.89 34.78 33.48 31.10 29.49 20.64 27.79 28.42 30.37 32.38 34.52 37.07 39.16 42.98 44.17 41.72
50.34 50.43 48.55 47.01 40.87 46.98 48.31 42.73 20.63 16.42 33.40 32.81 35.26 37.67 38.04 37.70 39.31 40.39 38.47 37.35 34.48 31.55 32.29 37.93 38.59 39.07 40.44 36.72 37.38 35.77 32.51 23.03 23.82 21.68 20.71 26.15 26.60 32.48 35.15 36.99 37.20 38.74 39.63 40.24 39.43
50.28 49.12 49.26 47.04 47.61 48.40 44.71 31.67 16.90 25.31 33.55 40.10 39.28 38.91 35.21 37.77 38.17 38.86 37.39 35.36 38.95 37.01 33.13 32.07 30.06 37.11 39.37 36.20 33.43 34.12 32.88 23.47 18.73 19.47 21.10 26.65 24.34 29.86 35.81 37.29 38.91 40.60 40.05 39.11 38.59
47.38 42.64 43.84 46.61 48.70 47.38 38.94 16.46 19.98 29.68 38.12 37.72 37.86 35.05 35.83 38.27 36.47 37.45 36.98 36.37 37.70 37.27 31.85 30.92 31.26 39.65 40.85 39.11 36.76 32.89 30.70 30.56 22.90 19.25 16.61 23.30 26.28 31.60 33.66 35.07 36.63 37.12 37.00 36.84 39.19
39.32 39.67 42.10 48.08 48.72 44.76 36.53 27.94 27.69 35.09 37.98 39.61 33.18 36.49 34.28 35.27 35.26 35.25 35.57 36.78 37.45 39.69 36.28 31.19 29.97 36.67 39.55 39.93 38.47 34.18 35.55 27.08 22.83 14.37 16.84 20.14 21.12 25.68 30.89 33.22 34.70 36.15 36.57 37.14 39.93
39.23 38.90 44.05 48.47 47.50 41.27 30.76 24.40 33.59 39.41 38.62 34.24 31.67 32.47 35.45 35.79 36.29 34.63 33.50 36.64 39.28 39.15 36.87 33.50 31.64 33.03 37.80 35.94 35.48 33.50 30.84 31.54 29.25 24.31 18.25 17.72 23.07 29.54 31.37 33.09 32.28 33.55 36.98 38.12 40.03
35.65 36.40 45.89 47.32 37.80 39.32 33.31 33.55 40.18 37.10 38.81 36.89 34.91 34.37 31.64 36.34 35.60 33.98 32.63 35.22 40.05 39.55 33.86 34.57 31.38 29.53 32.57 38.38 40.40 38.90 33.60 31.87 23.93 21.91 21.09 19.78 25.89 33.58 32.54 33.04 33.03 34.67 36.79 38.78 41.44
33.22 36.60 46.01 45.64 34.46 32.22 34.20 36.49 37.90 36.90 36.29 36.11 34.21 35.96 34.46 32.06 31.32 33.71 34.31 38.35 40.48 37.66 34.54 35.25 28.25 27.45 27.89 33.18 36.97 36.21 37.20 36.44 32.49 28.41 20.72 22.72 26.22 35.21 34.89 34.17 35.54 35.42 36.85 39.14 41.12
33.11 29.30 36.64 42.30 39.52 34.06 31.14 33.15 33.45 38.74 36.99 36.70 34.96 35.07 32.97 31.57 33.31 31.34 32.98 37.94 39.84 38.39 43.83 39.49 30.07 25.33 22.35 25.38 31.36 32.53 35.09 36.56 34.59 29.99 28.88 29.10 30.94 35.82 36.28 35.46 34.99 36.43 37.78 39.59 40.63
30.49 28.41 29.84 25.94 31.91 33.67 33.86 34.41 33.40 34.49 37.80 36.95 33.95 34.57 31.65 28.60 30.30 29.88 32.78 33.52 37.40 41.98 38.52 36.97 27.03 26.20 28.33 29.88 31.33 31.21 32.10 34.82 33.68 33.74 29.89 32.41 32.48 35.98 38.09 38.94 35.32 36.50 38.16 39.76 40.14
27.37 26.53 29.56 26.89 27.91 30.35 32.22 34.04 31.41 33.31 36.08 35.09 33.74 35.40 33.22 31.61 31.01 29.31 32.14 30.96 31.90 33.26 33.13 33.10 25.17 26.42 25.37 29.31 30.18 28.86 30.50 31.89 34.00 34.91 35.46 35.41 34.16 40.79 37.29 36.06 35.12 36.63 38.34 39.71 40.52
30.49 31.42 30.05 26.94 25.38 29.97 25.11 30.43 32.19 35.17 38.40 37.68 36.92 34.10 33.69 35.65 36.27 35.52 35.78 34.57 33.49 32.96 31.21 31.44 26.25 20.58 17.74 26.40 26.76 23.18 28.43 30.13 31.00 34.20 34.58 31.01 35.85 37.04 38.52 38.93 37.89 37.00 38.44 40.50 41.68

GFSSW_sfc_wetblb_057.txt.gz
Wetbulb
55.62 55.33 55.70 54.88 54.59 55.42 54.92 54.91 54.86 54.56 54.28 53.95 53.76 53.99 54.01 54.72 55.07 51.53 48.20 52.67 55.50 59.87 59.13 56.34 55.64 54.67 56.34 54.67 55.66 54.63 45.88 41.76 42.93 43.83 45.79 50.88 49.57 52.16 53.05 52.75 53.46 56.48 56.11 59.46 64.37
56.74 55.63 54.93 54.90 54.23 54.94 54.13 54.01 53.93 53.84 53.83 53.43 53.51 53.16 53.57 53.72 49.89 47.00 52.63 57.37 59.34 59.48 54.43 52.89 51.49 52.15 52.42 51.60 53.18 50.38 44.43 44.60 47.97 48.23 47.67 50.24 50.39 50.72 50.66 49.74 49.87 52.43 55.25 56.15 63.84
56.54 56.24 54.71 54.37 54.40 53.45 53.98 53.60 53.34 53.10 52.91 52.97 52.65 52.81 53.06 52.02 44.62 43.25 56.85 56.91 58.57 58.39 55.35 54.25 52.98 50.98 49.06 50.23 50.10 49.53 44.52 48.01 49.19 50.31 51.81 50.25 50.01 52.03 49.87 48.11 49.89 50.41 52.26 54.43 58.08
55.33 56.13 55.43 53.87 53.98 53.03 53.48 53.31 53.02 52.83 52.61 52.39 52.06 52.74 52.35 48.32 32.19 46.92 56.20 56.73 57.55 55.67 54.21 52.15 50.47 45.89 45.32 46.21 49.56 46.37 48.73 49.43 50.03 51.44 50.73 48.95 51.35 49.55 50.32 50.83 52.94 53.49 52.84 54.40 56.28
53.62 54.34 54.75 55.00 53.05 53.08 52.56 53.24 53.10 52.96 52.33 51.98 51.86 51.57 48.44 41.32 40.95 49.21 53.65 52.19 51.82 53.68 50.73 49.88 47.73 45.31 42.28 46.22 48.56 46.11 47.83 49.54 51.15 51.08 50.84 51.79 50.07 50.09 50.44 52.92 54.52 53.13 53.47 52.93 55.53
54.28 53.40 53.16 54.04 54.15 52.46 52.82 52.66 52.93 52.24 52.16 52.20 51.65 51.61 44.40 35.11 46.58 48.37 48.99 49.20 50.13 51.55 49.82 50.82 48.65 47.64 44.82 46.60 45.94 47.98 48.35 48.11 50.18 50.12 51.11 49.34 49.32 50.27 51.28 53.01 52.52 52.67 52.62 52.83 52.46
54.25 53.59 52.87 52.32 53.47 53.31 52.85 53.12 52.70 52.32 51.76 52.05 51.28 48.89 42.42 39.01 47.40 48.78 49.03 47.97 49.85 50.27 48.08 50.99 52.08 47.68 46.88 44.12 47.77 47.39 44.96 47.02 48.04 49.13 49.33 50.79 46.41 47.16 51.50 52.64 50.94 51.28 51.85 52.60 52.80
54.33 53.48 52.52 52.48 51.77 52.80 53.21 52.91 52.96 52.71 51.67 51.42 51.29 45.88 37.82 48.21 49.99 47.99 49.06 47.52 49.22 49.61 51.13 52.58 52.70 48.64 46.51 47.78 45.31 43.01 43.78 40.11 46.56 48.65 49.32 48.97 40.55 48.12 51.59 51.33 50.53 50.63 51.25 51.56 53.01
53.77 53.31 52.74 52.12 51.43 51.81 53.03 52.93 52.93 52.28 52.43 51.35 45.26 42.18 36.16 50.10 44.99 47.05 47.95 46.11 48.89 50.30 51.51 52.74 51.60 46.69 45.42 42.33 39.12 40.22 36.22 37.27 41.33 48.31 47.68 46.34 42.37 48.00 51.31 50.70 50.17 51.44 51.10 51.13 52.31
53.30 52.79 52.75 51.87 51.34 51.51 52.72 52.40 51.32 49.40 47.87 48.17 46.61 37.95 40.79 39.02 43.85 46.08 49.99 49.48 47.41 48.25 47.29 46.14 45.87 42.25 40.98 39.65 30.82 34.56 34.54 36.29 38.22 45.39 46.54 43.85 41.65 47.46 49.79 49.83 49.67 50.74 51.44 51.74 51.41
52.67 52.25 52.26 51.63 50.86 51.43 48.18 40.79 38.35 36.27 39.98 36.37 35.76 36.09 38.74 43.37 46.54 45.65 48.78 47.56 47.67 45.53 38.99 42.43 35.94 35.87 39.34 38.32 38.02 37.16 36.59 36.17 38.70 44.93 44.86 43.89 43.52 44.28 48.98 48.20 47.87 49.48 49.86 49.68 50.55
52.31 52.09 51.83 50.99 50.40 51.37 43.60 36.78 38.62 39.47 33.76 39.47 39.62 39.69 41.87 43.26 39.73 44.18 48.87 41.59 42.42 37.73 39.18 35.70 34.06 39.18 41.45 40.47 37.97 38.77 34.46 35.16 38.30 42.62 43.37 42.12 42.66 45.61 46.65 47.69 48.11 48.46 50.57 51.82 49.99
51.91 51.52 51.12 50.43 50.19 45.44 39.20 39.82 45.26 44.81 33.12 38.37 40.54 39.83 41.19 44.31 40.45 41.24 45.28 42.46 40.30 37.22 35.04 34.99 37.89 40.69 40.84 38.25 36.31 35.06 35.75 33.46 35.27 39.28 40.66 39.12 38.06 40.55 44.70 46.98 48.60 49.07 50.24 50.68 50.40
51.28 50.87 50.71 49.65 43.92 41.92 39.38 43.70 45.18 43.76 22.52 34.20 38.87 42.01 44.19 44.36 38.40 46.25 47.37 41.99 39.05 35.55 37.10 38.14 41.11 38.82 39.18 37.36 37.25 33.74 37.65 37.33 36.36 35.47 32.37 38.48 30.70 36.72 41.89 41.77 44.15 47.45 48.84 49.36 49.38
50.35 50.95 50.90 48.58 42.18 39.71 42.42 45.74 44.26 39.63 14.06 35.56 39.52 47.84 44.74 40.20 39.83 41.73 47.13 42.43 36.44 36.66 37.76 36.42 37.70 37.57 37.34 38.25 39.46 35.56 38.38 36.53 35.24 32.73 32.54 32.84 32.17 34.15 38.78 39.78 42.74 44.98 46.59 47.10 48.36
50.63 50.53 49.82 46.58 46.88 43.67 47.80 47.61 40.41 22.69 17.68 34.26 39.84 38.08 37.64 38.62 40.74 42.58 43.62 45.19 42.87 38.85 38.82 38.73 43.24 41.74 39.83 40.20 39.42 37.99 35.77 34.66 32.94 31.65 26.94 30.38 31.76 31.36 34.31 36.78 39.54 43.40 47.06 47.17 47.76
50.56 50.54 48.18 46.58 40.45 47.57 48.03 42.57 21.81 15.80 33.27 33.41 34.96 38.15 38.00 37.69 39.11 40.23 37.99 35.65 34.23 31.51 31.96 38.23 39.02 40.99 41.27 37.21 39.22 37.43 33.82 28.24 27.23 26.93 24.28 28.42 28.33 33.82 36.86 39.24 39.95 40.87 41.70 43.59 45.38
49.40 49.52 48.61 46.57 47.85 48.14 44.63 32.61 18.66 29.14 33.97 40.07 38.97 38.39 35.41 37.69 37.74 38.27 36.10 33.37 37.46 36.53 33.28 32.47 29.59 38.20 40.11 37.45 35.65 35.40 34.19 25.82 20.62 21.65 24.84 28.47 26.44 32.94 37.90 39.57 39.43 40.22 41.42 41.33 41.97
48.29 44.52 42.61 46.89 48.83 47.28 39.36 17.00 26.90 31.38 37.90 36.76 37.75 33.72 35.25 37.68 37.79 37.72 36.95 36.44 38.00 37.48 32.94 32.18 31.81 40.06 40.28 39.42 37.92 35.19 31.62 32.02 24.31 22.75 22.00 26.51 29.12 33.82 35.48 36.92 38.59 39.02 39.60 40.13 40.42
39.82 39.45 41.39 48.00 48.56 44.81 36.45 28.23 31.43 35.39 38.64 39.87 32.77 35.95 31.91 34.18 34.99 35.89 35.26 38.18 37.82 40.50 38.11 33.26 30.89 37.65 39.52 40.35 39.47 35.50 36.07 29.75 26.74 18.34 19.64 23.40 24.07 29.08 33.31 35.85 37.10 36.96 37.52 39.38 40.47
39.34 38.63 43.89 48.42 47.37 41.10 32.45 30.45 34.53 39.79 39.26 34.73 32.44 33.07 35.84 35.61 34.94 34.02 34.16 37.22 39.88 39.09 37.26 34.13 32.06 33.54 37.97 36.42 34.93 33.76 31.58 31.77 30.85 26.94 22.51 20.51 25.84 32.02 33.69 36.18 35.24 35.84 36.32 38.48 40.42
36.43 36.83 45.97 47.37 37.71 39.30 34.53 35.95 40.57 38.26 37.96 36.46 36.52 35.80 34.98 36.68 35.47 33.19 32.31 35.96 40.73 40.19 34.23 34.90 32.91 29.85 32.98 37.88 40.35 38.38 33.99 32.46 26.98 23.55 23.85 23.23 25.93 36.08 35.21 35.62 35.07 36.61 38.09 40.24 42.02
33.41 39.14 46.07 45.54 33.32 33.68 35.71 36.88 38.62 36.85 35.52 34.93 34.31 35.70 34.41 31.99 30.79 33.30 33.38 38.90 40.29 37.34 35.05 35.82 29.34 27.55 29.21 33.55 36.74 35.89 37.13 35.12 31.94 29.05 22.65 24.68 27.83 35.90 35.73 36.70 37.64 38.22 39.62 40.41 42.34
32.96 28.51 36.78 42.60 40.23 34.98 33.90 34.16 33.74 38.19 36.23 36.07 34.26 34.95 32.57 31.12 33.17 31.69 33.48 38.55 39.23 39.92 42.61 38.84 30.30 26.30 23.67 26.34 31.77 32.42 35.02 36.93 35.23 30.55 30.23 28.81 31.92 36.63 38.80 39.28 39.62 38.75 39.90 40.45 41.99
29.75 28.40 29.77 25.72 30.33 33.73 34.41 33.95 32.99 33.46 37.06 36.68 33.81 33.96 31.05 28.17 30.13 30.61 33.04 34.54 38.41 41.34 38.94 36.19 27.09 26.20 29.40 30.91 32.67 32.24 32.50 34.57 33.13 33.81 30.02 32.76 32.08 36.81 38.69 38.61 39.64 38.90 39.01 39.73 40.91
27.48 27.36 28.10 25.51 26.31 28.62 32.86 33.71 31.58 32.95 34.57 34.08 33.02 34.66 33.44 31.38 30.95 29.22 32.13 31.59 31.90 34.83 36.15 33.91 27.31 27.71 24.08 29.93 30.74 29.48 30.82 32.22 34.07 34.50 34.60 34.74 33.72 40.40 41.97 40.29 40.21 39.23 37.56 39.14 40.89
29.40 30.74 28.92 26.22 24.50 29.98 27.54 30.36 33.81 35.20 37.95 37.26 35.27 33.28 33.81 35.09 35.42 36.24 35.29 33.98 33.89 32.92 30.92 30.55 26.69 22.43 21.11 27.08 27.17 24.20 29.16 30.48 31.86 33.84 35.01 31.44 36.05 39.54 38.32 39.13 40.40 41.19 40.30 38.42 40.92

GFSSW_sfc_wetblb_060.txt.gz
Wetbulb
57.49 56.69 55.47 55.30 55.21 54.41 54.89 54.22 54.40 54.31 54.34 54.38 54.14 53.92 53.92 53.84 54.09 52.14 48.28 52.15 55.33 59.59 59.42 57.46 57.23 57.36 58.04 54.88 58.57 57.89 46.99 44.22 46.15 46.61 48.01 53.18 51.97 53.69 56.32 56.20 57.02 57.74 56.78 57.76 65.07
56.00 57.19 55.87 54.61 54.93 53.56 54.39 53.89 53.77 53.57 53.53 53.58 53.32 53.36 53.54 53.57 49.10 46.24 52.43 56.65 58.18 58.19 55.17 53.76 52.48 54.83 53.46 52.99 54.30 51.87 45.38 46.96 50.90 51.08 50.30 51.53 52.96 52.95 52.97 53.99 54.53 56.54 58.30 59.93 64.95
54.32 55.30 55.93 54.75 53.76 53.73 53.89 53.40 53.45 53.17 53.02 53.05 52.90 53.55 53.48 52.82 45.19 44.65 55.17 56.92 57.56 57.11 54.71 54.93 55.10 53.17 50.13 52.87 50.86 51.89 46.63 51.30 51.57 52.11 53.12 51.76 52.05 53.78 52.66 51.32 54.32 53.98 56.21 57.99 58.67
55.37 54.15 54.39 55.15 54.70 53.34 52.77 53.53 53.43 53.22 52.75 52.35 52.33 52.74 52.84 50.11 34.23 49.21 54.52 55.26 56.50 55.78 51.98 52.21 51.79 49.29 47.16 47.47 51.13 47.52 51.85 51.58 52.48 52.81 51.76 50.68 52.56 50.90 52.15 53.34 55.78 56.31 56.85 58.17 58.22
55.03 54.66 53.87 53.41 54.61 53.31 52.60 52.66 53.48 52.75 52.76 52.55 52.36 52.21 49.63 43.04 42.56 50.72 52.91 52.08 53.06 52.95 49.17 49.31 48.62 48.40 45.04 48.42 50.48 48.36 50.83 52.40 53.19 52.87 53.03 53.56 50.86 50.89 51.89 55.18 56.61 56.17 56.68 57.26 57.74
55.17 54.49 53.76 53.12 52.85 53.94 52.76 53.23 52.93 52.58 52.24 52.54 52.32 51.82 45.80 37.03 49.22 50.58 50.61 50.26 50.53 51.13 49.35 50.23 49.52 50.73 47.82 47.93 48.60 50.91 50.20 51.07 52.32 51.56 52.57 50.83 51.34 52.00 53.16 55.98 55.44 55.46 55.75 56.60 57.14
55.01 54.19 53.61 52.71 52.63 52.30 53.43 53.00 53.24 52.91 52.32 52.27 51.91 49.96 43.72 40.60 49.56 50.93 50.19 49.14 51.01 51.36 47.71 50.64 52.35 48.93 49.85 46.73 50.84 50.22 47.19 49.04 49.08 50.57 48.82 52.42 48.61 49.25 53.89 55.71 54.19 54.99 55.81 55.96 56.88
54.83 53.85 53.56 53.00 51.86 51.24 52.32 53.61 52.93 53.00 52.83 51.95 51.63 48.52 39.95 49.17 51.64 49.28 50.05 48.87 49.89 52.53 50.37 52.60 52.18 50.28 49.24 50.64 49.02 45.77 46.90 41.71 47.67 49.82 50.18 49.94 43.96 50.95 53.81 53.83 53.52 54.69 55.65 56.00 56.29
54.47 53.60 52.90 52.87 51.73 51.00 51.70 53.18 53.14 52.81 52.30 52.43 48.29 45.14 38.39 50.62 45.28 48.25 49.58 46.61 48.92 49.21 51.22 52.56 49.60 48.36 48.22 44.24 42.10 43.79 38.61 40.97 43.77 50.24 49.95 49.23 45.53 50.17 52.91 52.50 52.48 54.11 55.32 55.95 56.71
53.68 53.03 52.62 52.39 51.61 50.91 51.75 52.68 50.58 51.14 49.49 49.84 48.06 41.13 43.22 39.49 45.16 46.81 49.84 49.89 47.09 47.59 45.93 45.35 42.05 43.59 44.07 41.61 34.13 37.84 39.36 41.26 41.82 46.96 48.40 47.21 46.34 48.31 51.93 52.16 51.63 53.23 54.58 55.35 56.01
52.91 52.62 52.23 51.76 51.34 50.87 51.11 47.82 44.17 42.01 44.09 39.46 38.73 38.82 41.16 45.40 48.91 45.86 48.70 47.27 46.83 44.65 39.33 42.45 36.19 36.81 40.81 42.64 41.78 41.69 40.75 40.55 44.06 47.94 46.53 45.44 46.16 48.16 50.34 51.07 51.71 52.89 53.34 54.44 55.68
52.07 52.15 51.91 51.24 50.77 51.06 49.80 42.53 41.92 43.79 38.06 41.91 41.26 41.73 44.27 45.41 40.14 43.31 49.28 42.23 41.90 37.94 40.94 38.74 35.16 37.21 43.96 43.27 41.33 41.02 39.13 39.58 42.59 47.48 46.81 45.74 45.23 48.64 50.10 50.67 51.58 52.14 52.92 54.43 55.63
51.91 51.68 51.16 50.81 50.27 49.16 46.23 43.35 48.97 47.48 39.46 39.98 42.92 42.19 43.44 45.59 41.03 40.23 45.69 43.43 39.90 38.04 39.07 35.33 37.90 41.08 42.68 41.27 40.06 40.59 39.02 39.52 40.06 45.18 45.71 44.49 42.85 45.75 49.59 50.96 51.54 52.96 53.52 53.70 54.72
51.51 50.91 51.04 50.93 46.36 47.14 44.18 47.28 49.21 48.03 35.04 35.76 39.30 42.51 44.34 45.46 39.46 46.78 47.19 42.71 39.92 36.75 38.69 37.68 41.28 39.41 41.33 39.70 41.49 36.99 43.31 42.12 41.36 40.62 36.14 44.24 34.75 42.15 46.03 46.99 48.87 50.60 52.17 52.69 54.01
50.86 50.93 50.83 49.66 47.37 44.51 45.83 48.79 48.81 45.76 25.90 36.99 39.66 48.47 45.49 40.86 41.65 41.30 48.20 43.97 38.09 38.38 38.92 36.70 38.45 39.26 39.91 40.40 42.60 38.68 42.88 41.80 41.32 38.86 37.80 37.98 35.49 40.05 43.41 43.26 45.99 48.80 50.69 52.67 54.16
50.61 50.83 49.66 47.02 48.67 47.77 48.63 48.68 46.26 32.99 24.62 34.61 39.84 38.35 37.87 39.90 41.12 43.33 43.48 46.62 45.05 39.59 39.45 39.94 43.33 42.33 42.23 43.17 42.59 42.53 40.95 40.57 40.66 38.82 31.35 36.81 36.30 37.64 40.46 42.40 45.26 47.94 50.14 51.60 52.43
50.53 50.37 48.99 49.42 45.41 49.62 49.28 45.45 33.02 28.74 35.92 34.13 36.06 37.97 36.84 36.57 38.19 40.10 38.72 37.41 35.64 31.73 31.99 38.27 39.35 42.90 43.49 40.22 41.97 42.30 39.09 31.38 29.53 29.84 29.75 34.63 34.79 38.78 42.97 44.61 46.11 46.05 47.26 49.47 52.05
49.63 49.56 49.01 49.33 50.28 49.64 47.18 37.92 29.15 31.80 34.53 40.54 39.17 39.31 35.64 37.86 37.55 37.92 35.66 35.17 38.75 38.16 34.24 32.19 30.54 39.25 42.81 41.75 38.37 38.90 38.82 32.45 24.11 26.50 30.58 33.77 31.68 38.71 44.20 45.73 47.27 46.29 47.11 48.02 48.29
48.86 49.52 48.70 49.24 50.18 49.15 42.55 33.55 32.02 33.53 39.06 36.89 38.74 34.78 36.32 38.22 37.27 37.48 36.25 36.37 38.34 38.87 35.05 33.35 31.64 40.62 41.72 41.85 42.06 38.20 35.60 37.41 32.16 30.45 31.51 34.72 36.22 41.45 44.22 43.49 44.95 45.03 45.54 46.34 47.02
47.58 47.30 47.10 49.72 50.21 46.36 39.64 32.24 34.70 36.92 39.66 40.21 33.63 36.37 32.65 35.61 35.21 35.57 35.67 38.79 37.53 41.15 41.18 37.56 31.74 39.32 40.34 42.84 42.15 40.61 41.11 33.12 35.13 26.15 24.62 30.45 31.91 35.60 39.27 41.74 43.51 44.54 44.83 45.59 46.14
46.95 42.98 47.62 49.48 49.46 42.14 35.01 34.42 36.31 41.99 41.49 37.69 35.65 35.38 34.80 35.50 36.92 35.49 35.47 37.89 41.03 39.70 40.75 38.29 37.25 34.72 40.56 38.35 37.15 37.47 36.39 36.93 37.18 34.65 29.24 28.20 32.96 40.89 40.69 42.28 42.54 43.78 45.26 45.83 46.50
45.45 39.04 48.61 48.64 40.01 40.24 36.50 36.96 40.70 40.70 41.91 39.79 40.51 38.02 36.72 37.33 35.49 34.59 35.55 38.17 43.28 40.89 35.88 38.80 38.16 32.86 35.04 40.12 42.59 40.76 39.13 39.29 32.92 30.38 32.92 32.00 33.38 42.68 42.32 41.97 41.53 44.17 45.80 46.28 46.44
42.65 40.94 47.27 46.81 36.30 36.08 37.47 37.86 40.12 39.99 39.13 38.80 37.88 38.66 38.82 37.10 34.54 36.52 37.23 41.39 42.29 40.80 38.55 39.83 35.83 30.13 31.34 35.54 39.04 37.95 39.66 39.75 37.77 36.16 32.08 30.09 34.22 41.02 41.50 41.77 43.32 44.65 46.61 47.14 46.74
41.76 36.18 40.00 43.25 41.68 36.70 36.18 36.68 37.21 41.51 39.73 39.55 38.65 39.04 37.45 36.25 37.89 35.67 36.47 39.89 42.68 42.26 42.17 42.28 35.70 33.48 30.97 33.42 37.62 34.54 37.62 39.07 37.74 32.65 32.79 33.84 35.78 40.59 42.53 43.87 45.80 46.46 47.20 47.31 47.32
39.38 37.15 37.92 34.46 36.49 37.83 38.20 37.21 36.56 36.46 40.67 40.85 38.37 37.61 36.38 34.66 35.54 35.22 37.62 38.32 40.97 41.91 41.83 40.62 33.92 33.10 33.95 35.52 36.07 35.60 36.16 37.47 35.41 36.35 32.44 35.31 36.59 40.29 43.17 44.15 45.19 46.60 46.20 45.44 45.46
36.03 36.10 35.55 34.00 33.37 36.50 36.94 35.80 34.93 35.46 38.28 37.55 37.07 38.08 38.19 35.90 35.71 34.75 37.35 37.93 37.92 40.38 40.20 39.28 33.24 33.04 30.59 33.21 33.89 32.46 35.58 36.94 37.47 37.81 37.35 37.56 36.44 43.00 44.70 45.58 44.79 45.38 45.75 45.56 45.83
37.19 37.97 38.30 30.84 33.51 36.27 33.93 33.68 34.35 36.57 39.65 40.41 39.30 38.64 38.30 38.06 39.38 40.73 40.84 39.43 40.34 39.52 37.39 37.11 34.36 33.02 29.49 31.05 31.45 28.63 32.98 34.82 36.01 38.20 38.16 34.10 38.97 43.26 42.03 42.50 43.65 44.61 45.15 44.98 46.32

GFSSW_sfc_wetblb_063.txt.gz
Wetbulb
55.42 56.72 57.20 55.19 54.86 54.72 54.53 54.33 54.20 53.92 53.99 54.19 54.11 53.99 54.02 54.30 54.18 52.52 48.27 52.68 54.65 58.69 58.92 57.26 56.40 56.89 57.60 55.60 58.47 57.78 45.93 44.74 47.24 47.49 48.87 53.80 52.35 55.15 57.72 57.60 59.22 59.60 58.76 60.48 66.66
55.75 55.09 55.49 56.47 54.60 54.09 53.74 54.17 54.20 53.64 53.48 53.71 53.55 53.93 54.07 53.77 50.09 47.50 54.28 55.39 57.15 58.13 53.71 53.29 50.85 53.54 52.10 53.30 54.90 51.36 45.81 46.14 52.08 52.77 51.00 52.97 53.06 54.02 54.88 55.40 56.16 57.30 60.20 65.62 66.39
55.77 55.72 54.75 54.56 55.78 54.18 53.72 53.91 54.30 53.45 53.11 52.99 52.94 53.44 53.44 53.13 46.13 45.37 54.93 55.66 57.65 57.57 53.71 53.86 53.16 52.31 49.28 52.30 50.63 52.09 47.08 50.99 51.93 52.74 53.97 52.86 52.98 55.24 54.00 52.87 56.08 55.26 57.42 60.50 64.95
56.05 55.66 54.92 54.19 54.03 55.17 53.47 53.09 53.76 53.46 53.47 52.92 53.03 52.77 52.91 50.79 34.79 49.98 54.35 54.67 55.93 56.29 52.26 49.69 51.07 47.50 47.18 46.57 51.65 46.95 52.24 52.52 52.39 53.49 53.56 51.86 54.33 52.71 53.78 54.69 56.77 57.03 57.96 59.29 61.81
55.97 55.67 54.77 54.17 53.65 53.74 54.69 53.12 53.97 53.70 52.93 53.06 53.11 52.81 50.56 44.24 43.96 52.02 52.17 52.61 52.85 54.04 48.10 45.94 47.60 47.66 45.95 48.27 50.19 48.98 50.39 52.26 53.03 53.25 53.02 53.47 51.75 51.70 52.61 55.47 57.15 56.86 57.19 57.76 59.07
55.63 55.41 54.43 53.91 53.52 52.91 53.20 54.38 53.71 53.86 53.02 52.62 52.74 52.05 46.60 38.12 50.31 51.24 51.00 50.47 50.60 51.18 48.49 48.45 48.09 51.03 48.54 47.69 48.08 51.25 49.08 50.53 52.73 52.05 52.41 50.54 50.56 52.06 53.51 56.12 55.63 56.06 56.09 57.28 57.88
55.38 55.22 54.18 53.81 53.60 52.52 52.26 53.28 54.46 53.53 53.37 52.58 52.26 50.53 44.77 42.44 50.14 51.38 51.13 49.91 50.91 50.84 47.31 50.08 51.16 49.17 49.99 46.78 50.95 50.33 45.31 47.88 50.94 50.88 51.41 52.74 47.72 47.77 53.13 54.96 54.49 54.90 56.17 56.79 57.69
54.78 54.64 53.98 53.19 53.15 52.66 51.47 52.00 53.52 53.55 53.24 52.89 51.83 49.10 41.27 49.79 52.32 50.11 50.57 49.35 51.05 51.96 49.16 51.68 51.53 47.44 47.56 50.50 48.52 46.70 46.66 39.61 48.76 50.52 50.98 50.89 43.96 50.85 54.19 53.54 52.91 54.66 55.48 56.40 57.22
54.34 53.92 53.68 53.02 52.83 52.43 51.11 51.99 53.49 53.31 53.10 52.88 49.07 45.98 39.82 50.95 46.90 49.08 50.14 46.27 48.53 50.29 50.46 51.65 48.53 44.86 48.64 43.67 41.26 43.46 39.34 39.58 42.83 49.91 49.38 48.42 44.60 50.90 53.21 53.11 52.22 54.03 55.31 55.99 57.06
53.57 53.18 52.90 52.58 52.18 51.86 51.20 52.24 52.04 51.67 51.10 50.31 48.54 41.13 44.67 41.21 46.28 47.88 50.77 49.61 46.61 46.89 45.89 45.34 40.80 39.93 44.74 42.10 34.39 37.96 39.14 41.88 40.84 46.49 47.92 46.32 44.31 50.16 52.53 53.03 52.28 53.12 54.20 55.16 56.22
52.94 52.36 52.45 52.15 51.69 51.14 50.38 50.39 46.12 43.87 45.71 41.85 41.08 41.01 42.54 47.03 49.46 46.87 49.31 47.32 46.56 44.15 36.79 39.32 33.46 37.60 41.95 44.00 43.30 42.46 40.48 40.15 43.54 47.68 45.34 43.84 44.98 47.96 51.01 52.46 52.24 52.56 52.99 54.18 55.70
52.59 52.10 52.08 51.45 51.36 50.74 50.11 45.45 43.85 45.94 40.27 44.13 43.53 43.39 45.95 46.42 40.98 44.15 49.82 42.08 40.87 37.00 39.97 37.58 33.93 41.67 44.39 44.56 41.99 42.22 40.53 40.89 43.87 47.23 46.14 45.01 44.40 48.18 50.73 51.52 52.67 52.89 53.04 54.24 55.41
52.08 51.88 51.19 51.21 51.30 48.60 47.12 45.36 49.90 49.08 40.92 41.82 44.77 43.69 44.43 46.13 41.01 41.32 45.16 43.16 39.21 36.92 38.43 35.85 37.26 42.03 42.23 41.75 40.11 41.39 40.36 41.10 41.07 44.49 46.50 44.87 42.74 45.66 49.92 51.93 52.64 53.59 54.50 54.25 53.94
51.49 50.91 51.02 51.34 46.46 48.95 45.90 48.81 50.88 49.57 35.51 37.21 40.00 43.20 45.43 45.96 39.82 46.74 46.69 43.45 38.37 38.11 40.05 39.07 41.50 39.47 40.06 40.12 41.83 36.31 43.01 42.39 41.55 40.72 35.79 44.60 34.88 42.91 46.59 47.97 50.46 52.11 52.30 52.85 54.12
50.57 50.65 51.24 50.31 46.84 46.09 47.89 50.36 50.66 47.29 27.03 38.55 39.80 49.08 46.39 41.03 41.18 41.56 47.12 45.36 38.76 38.92 39.86 36.79 38.35 36.61 39.05 40.74 43.66 39.89 44.32 42.67 42.75 40.64 39.69 39.89 36.78 40.84 45.04 44.53 47.59 50.06 51.85 52.62 53.91
50.49 51.16 50.58 48.38 48.93 49.67 50.16 50.05 47.78 32.80 24.39 35.77 40.85 38.50 39.10 41.17 41.31 43.14 43.79 47.38 45.71 39.45 39.28 39.49 43.98 41.22 42.63 44.32 44.23 44.95 42.86 42.01 41.94 39.36 31.76 37.12 36.97 37.78 41.79 43.45 45.45 48.41 50.27 51.63 52.57
50.50 49.71 49.86 50.81 46.84 51.56 50.74 45.66 33.88 29.43 37.85 34.95 36.84 37.71 37.78 37.73 39.11 40.63 39.58 38.84 35.81 32.20 31.73 37.49 37.53 41.82 45.07 41.16 43.94 42.47 38.95 30.95 29.31 30.30 30.16 37.79 36.39 39.70 44.00 45.47 46.62 47.19 48.46 50.38 52.36
49.66 49.86 49.25 50.89 52.57 51.20 48.43 39.09 29.30 33.78 35.13 40.92 39.93 38.06 35.66 38.45 37.95 38.56 37.32 34.93 39.18 37.49 34.52 33.55 31.02 39.71 43.89 42.08 39.42 40.18 39.16 32.84 24.96 27.26 31.17 36.68 32.09 38.87 45.28 47.25 47.86 48.30 48.26 49.26 50.02
49.64 51.12 49.85 51.24 51.35 51.33 42.26 33.62 33.54 35.52 39.97 37.88 39.64 36.19 33.28 36.87 37.63 36.84 36.39 36.33 38.99 40.60 33.67 34.12 31.98 41.95 43.31 43.95 43.68 39.85 36.14 39.82 34.10 35.24 32.79 34.97 38.20 42.79 44.97 44.84 46.03 46.25 46.89 47.52 48.54
49.96 48.94 47.97 51.37 52.00 47.70 40.24 33.69 36.47 39.55 40.47 41.11 34.23 36.67 35.10 35.29 35.32 36.45 36.46 39.81 38.86 41.79 43.36 38.32 32.43 39.66 41.58 44.01 43.43 41.65 43.29 33.69 35.84 26.55 25.40 31.65 33.40 36.06 40.51 42.37 44.81 45.76 46.67 47.88 48.91
49.22 43.56 48.58 51.92 51.07 43.60 36.86 35.82 38.46 43.21 42.51 38.74 37.07 35.25 35.79 35.07 37.24 36.41 35.91 38.76 41.42 41.18 42.69 42.18 37.69 35.71 41.08 38.82 38.00 38.45 37.02 38.40 38.28 35.34 29.68 28.87 33.22 42.33 42.32 43.97 43.79 45.50 47.07 47.98 48.78
47.50 39.05 49.48 50.89 41.27 41.94 38.78 39.11 41.44 41.73 43.52 41.31 42.00 40.41 37.21 37.98 35.80 35.98 35.94 38.63 43.87 42.73 38.77 40.95 38.16 32.47 35.40 40.97 43.65 42.36 39.27 39.32 33.21 31.16 34.37 33.19 34.24 43.93 44.30 44.37 44.16 45.73 47.52 49.11 49.39
43.85 41.47 50.17 48.23 36.89 38.05 40.03 40.10 41.71 41.14 40.56 40.09 39.74 40.70 40.78 38.80 35.16 37.72 38.76 41.85 43.73 41.59 39.27 40.94 36.84 30.90 32.25 37.16 40.71 38.97 40.88 41.05 40.15 38.08 33.19 30.80 34.46 44.57 44.11 43.39 44.58 45.85 48.28 48.85 49.17
44.32 36.02 42.14 44.03 43.12 39.51 38.75 38.48 38.62 42.92 41.07 41.44 40.37 41.41 39.57 38.41 40.45 37.73 37.79 41.27 43.58 43.27 42.36 42.81 38.67 35.44 31.33 34.92 39.15 35.95 38.80 40.50 39.00 33.70 33.82 34.57 36.69 41.49 43.53 44.13 45.92 47.32 48.17 48.39 48.42
43.95 41.06 42.46 34.98 39.01 40.26 40.93 40.03 38.25 37.70 41.97 42.32 39.80 39.53 38.61 36.53 37.89 37.10 38.79 39.67 42.60 42.70 43.09 42.47 35.62 34.48 36.06 37.60 38.11 37.49 37.78 38.87 36.26 37.47 33.74 36.50 37.11 41.20 43.71 44.79 45.77 46.83 46.87 46.93 47.36
39.68 39.55 40.61 41.01 40.24 40.29 39.58 39.01 38.46 38.66 40.30 38.68 38.54 40.16 40.25 37.86 38.01 36.42 38.85 39.42 38.98 42.27 41.57 41.50 34.18 35.11 33.26 35.38 35.55 33.86 37.11 38.27 38.60 38.83 38.61 38.69 37.94 44.68 45.98 45.92 45.05 45.32 46.03 46.07 46.50
42.19 42.79 42.29 36.75 38.69 38.78 38.61 39.27 38.36 39.54 41.31 42.19 41.25 41.06 39.40 39.02 41.53 42.01 42.94 42.06 42.82 40.72 40.13 39.31 35.75 34.00 31.36 33.46 33.09 29.94 34.65 36.37 37.41 39.22 38.69 34.82 40.08 43.24 42.25 43.41 44.98 45.84 46.39 46.01 46.89

GFSSW_sfc_wetblb_066.txt.gz
Wetbulb
56.94 56.83 55.83 55.89 56.89 55.43 54.73 54.83 54.77 54.50 54.25 54.38 54.34 54.34 54.61 54.63 54.23 51.44 47.05 51.88 54.26 58.36 58.03 55.40 55.30 54.61 55.88 53.67 56.17 56.22 45.78 42.07 44.68 46.35 48.31 52.26 50.79 53.77 56.15 55.42 56.88 57.40 56.71 63.25 66.08
56.25 56.33 56.19 55.79 55.27 56.14 55.00 54.33 54.85 54.48 54.03 53.77 53.67 53.68 54.26 54.13 49.41 46.30 53.42 57.06 55.66 57.61 52.38 50.91 49.77 52.04 50.13 50.86 52.87 49.64 44.47 44.62 49.64 50.66 49.22 51.33 51.47 52.32 52.92 53.83 53.49 56.23 63.16 65.04 65.77
56.56 56.61 56.39 55.36 55.09 54.72 55.72 54.25 53.92 55.08 54.20 53.83 53.50 53.51 53.46 52.79 45.44 45.70 55.42 55.49 55.74 56.43 53.29 52.36 51.17 50.52 47.51 49.73 50.12 49.72 44.73 48.89 50.02 52.09 52.82 51.40 51.27 54.19 52.75 51.14 54.02 52.98 57.66 63.73 64.00
56.30 56.49 56.21 55.56 54.70 54.49 54.50 55.44 53.76 54.02 54.16 53.65 53.73 53.84 53.60 49.95 34.34 49.54 53.86 53.68 54.78 54.56 52.56 49.45 47.41 46.34 45.23 44.64 49.75 45.87 49.79 50.80 50.84 52.95 53.06 50.99 52.96 51.33 52.96 52.46 54.90 55.23 56.98 61.98 62.80
56.14 56.06 56.11 55.33 54.74 54.25 53.63 53.91 54.88 54.45 53.96 53.36 53.34 53.33 49.53 43.49 43.13 52.07 51.88 51.93 51.78 52.66 49.60 46.66 43.64 45.99 43.28 45.46 47.52 46.17 49.22 51.30 52.30 52.33 52.83 53.83 51.15 50.75 51.38 53.97 55.52 55.70 56.65 56.55 61.04
56.20 55.69 55.54 54.95 54.28 54.12 53.53 52.75 53.83 55.04 54.04 53.57 52.90 53.04 46.41 36.92 49.85 50.87 50.81 50.06 49.39 50.39 47.99 47.05 44.16 47.23 45.59 45.78 45.67 48.90 49.43 50.44 51.22 50.88 51.71 50.14 49.42 50.51 51.49 53.94 53.91 55.00 54.20 55.03 56.35
55.71 55.13 54.85 54.43 54.04 53.39 53.53 52.15 52.82 54.04 54.00 53.84 53.04 50.01 44.23 41.36 50.22 50.51 50.28 49.31 49.98 49.61 46.42 47.48 47.04 45.02 47.16 44.31 48.77 49.27 45.79 47.29 48.36 50.43 49.89 51.28 46.81 46.99 51.25 53.36 52.43 53.24 53.33 54.88 55.64
55.35 54.78 54.26 54.02 53.60 53.33 53.08 51.84 52.26 53.20 54.24 53.58 53.21 48.46 40.03 50.31 50.93 49.17 49.85 48.34 50.31 50.96 49.58 50.03 49.39 47.07 46.13 48.90 46.22 44.51 45.53 40.39 45.27 48.53 50.27 49.00 41.56 48.77 51.76 51.03 50.45 51.70 52.46 53.52 55.02
54.80 54.15 53.39 53.31 52.95 52.64 52.40 51.71 51.94 53.50 53.37 53.17 49.02 45.79 38.45 50.82 46.37 48.40 49.10 45.68 47.79 49.64 49.64 49.87 48.66 43.82 43.47 41.52 39.10 41.60 37.62 39.53 39.29 45.57 48.12 46.59 43.76 49.48 51.78 51.33 49.96 50.64 51.50 53.13 53.72
54.04 53.41 52.64 52.67 52.46 52.06 51.80 51.68 52.49 51.57 51.19 50.78 48.50 40.31 43.89 41.40 46.61 47.75 49.75 48.85 45.74 46.23 44.30 42.81 41.05 37.78 38.38 39.64 31.13 35.06 36.66 39.80 37.82 42.44 45.08 44.40 44.10 47.96 49.85 50.93 49.84 50.71 51.91 52.36 53.01
53.33 52.95 52.50 52.23 51.88 51.56 50.16 48.65 44.88 42.59 45.88 41.55 41.56 41.02 42.43 46.57 49.31 46.51 48.84 46.60 45.62 42.88 36.28 38.91 34.97 33.53 35.29 40.48 41.03 40.40 39.42 38.00 40.72 45.42 43.31 43.70 43.82 44.99 48.48 49.65 49.47 50.38 50.86 51.90 53.37
52.89 52.41 52.18 51.55 51.22 51.53 48.96 44.28 44.23 45.51 38.58 45.15 43.97 43.63 45.75 46.29 40.63 44.28 49.39 41.44 40.31 35.04 38.69 35.92 32.08 37.77 40.77 41.51 41.77 40.39 38.30 37.75 41.91 45.68 44.48 42.59 41.64 45.30 47.02 47.87 49.11 49.19 49.71 50.63 52.53
52.19 51.75 50.97 51.15 51.71 48.82 45.80 46.42 50.04 49.20 39.45 41.87 44.79 43.65 44.32 45.25 40.91 41.83 45.55 42.97 38.78 34.57 35.62 35.52 36.29 40.12 41.42 41.43 39.64 38.73 37.14 37.82 38.90 43.60 44.91 42.48 39.25 42.34 46.27 48.06 49.24 50.15 50.78 51.25 50.66
51.57 50.96 50.81 51.39 47.54 47.73 45.01 49.74 50.97 49.74 33.79 37.40 40.17 43.29 45.29 45.49 39.54 45.92 46.54 42.92 38.28 34.85 38.37 37.81 39.92 40.27 39.92 38.25 40.20 35.99 42.89 42.07 41.00 38.51 33.53 41.76 29.49 39.64 44.00 45.54 48.45 48.21 48.38 49.22 49.80
50.82 50.24 50.73 51.14 46.76 44.96 47.94 50.71 50.89 46.51 24.49 38.82 40.20 48.68 46.40 40.86 41.01 41.29 47.47 43.89 37.02 38.22 39.35 35.94 37.49 37.95 38.78 39.62 41.72 37.79 42.49 40.74 40.32 37.25 35.76 36.30 30.66 35.46 42.65 40.59 44.29 46.87 48.67 49.02 49.52
50.56 50.73 50.91 47.60 47.88 49.19 50.75 50.25 47.03 31.71 20.68 35.47 40.59 38.74 38.98 41.36 41.41 42.80 43.98 46.25 45.40 40.40 40.77 39.52 42.50 40.95 41.07 43.60 43.66 44.11 40.95 40.19 39.35 36.50 24.84 32.46 32.25 32.22 36.00 40.13 43.18 47.65 48.44 49.52 49.09
49.95 49.58 49.21 50.69 46.11 51.43 50.56 45.31 32.57 27.58 37.74 34.87 35.85 37.57 37.74 37.54 38.96 40.12 39.08 38.00 35.52 31.59 31.70 37.36 36.71 41.56 43.64 39.89 42.34 41.43 35.97 26.21 24.30 22.82 22.92 33.98 30.98 33.68 39.70 41.82 42.91 42.62 43.53 44.83 46.98
49.70 49.62 49.16 50.67 51.65 51.50 47.69 38.45 27.57 33.41 35.20 41.11 39.23 38.31 35.51 38.33 37.34 38.38 36.79 34.45 39.15 37.83 33.74 31.93 28.30 38.25 43.72 40.78 36.84 37.89 35.44 27.72 21.00 20.54 25.60 33.90 26.56 33.81 41.06 43.60 44.65 44.57 43.38 43.17 43.51
50.02 49.40 49.41 50.13 51.46 50.63 41.97 31.76 31.28 35.63 39.59 37.68 38.23 33.55 32.42 36.42 37.24 36.52 36.78 35.55 37.52 40.17 33.84 32.10 32.00 41.76 43.41 43.30 41.55 36.37 32.04 36.35 30.70 29.24 26.55 29.62 32.88 37.58 41.80 41.46 42.38 42.53 43.32 42.59 43.28
48.25 47.77 47.17 51.65 51.87 47.81 38.86 33.45 36.83 40.32 40.94 41.07 34.34 36.85 33.52 33.61 34.72 35.38 36.01 39.25 37.97 40.98 42.31 37.45 30.46 39.35 41.21 42.77 41.80 39.96 40.30 30.24 29.70 21.94 21.85 27.26 28.82 30.14 35.93 39.28 41.71 41.59 41.61 42.89 44.47
47.66 43.40 48.23 51.77 50.50 43.05 34.82 35.88 38.57 43.05 42.52 38.88 36.86 35.09 35.11 33.79 36.02 35.38 35.31 38.63 41.09 40.13 41.43 39.66 34.77 34.54 39.26 36.56 35.07 35.97 35.29 36.55 34.96 29.84 25.07 23.67 26.88 36.73 37.84 39.98 39.93 41.18 42.52 42.52 43.34
46.57 38.87 49.04 50.74 38.88 40.21 37.01 38.40 41.78 41.61 43.68 41.64 41.91 38.80 37.32 37.94 35.61 36.12 35.10 38.47 43.31 41.54 36.91 39.22 36.45 32.62 34.84 39.90 42.07 40.42 36.67 36.28 29.10 27.58 28.66 26.97 27.93 39.42 40.02 40.49 40.66 42.26 41.87 43.28 44.75
42.44 41.57 48.45 48.01 35.40 36.64 40.06 40.23 41.90 40.87 40.78 40.18 39.86 40.87 41.24 38.25 34.00 37.81 38.00 42.19 42.89 41.16 37.52 38.68 34.33 29.12 31.18 36.01 38.77 37.39 39.05 39.15 36.91 34.31 28.63 24.77 28.17 40.71 40.64 39.86 40.88 41.06 41.56 43.84 44.76
42.18 35.00 41.67 43.24 41.95 38.20 38.01 38.35 38.25 43.04 41.03 41.72 40.52 41.26 39.31 37.73 40.17 36.91 36.76 41.22 42.94 43.06 43.52 42.09 36.35 31.70 28.69 29.79 35.48 32.95 37.31 38.98 36.32 27.85 30.65 30.17 32.35 36.49 38.46 39.09 39.96 40.65 41.71 41.80 42.96
42.79 38.37 40.16 33.83 36.72 39.17 40.41 39.91 37.70 37.18 41.92 41.95 39.24 39.75 38.49 35.08 36.90 35.73 38.23 39.73 42.01 42.57 41.01 40.19 32.26 28.99 33.74 36.14 36.08 35.16 35.53 36.63 32.94 34.91 28.63 32.50 33.57 36.57 39.03 39.57 39.95 41.11 42.38 43.09 43.22
38.60 37.90 40.15 39.21 40.01 38.57 38.97 37.96 37.81 38.75 39.82 38.32 38.03 39.69 39.13 36.39 36.80 35.67 37.78 38.36 36.73 39.93 39.08 39.16 30.79 30.45 26.42 33.80 33.55 29.82 34.71 35.72 36.40 36.84 37.14 37.09 35.35 40.18 41.58 40.67 41.26 41.62 43.02 43.05 43.29
40.55 41.70 39.71 39.21 37.20 36.95 37.33 39.03 39.15 40.68 41.32 41.81 41.04 39.76 37.67 38.07 39.86 39.89 40.60 40.12 40.10 38.59 38.38 37.39 30.64 27.33 27.25 30.91 29.75 24.76 31.62 33.97 35.08 36.21 35.44 32.36 35.57 38.74 39.86 41.92 41.83 41.80 42.25 40.80 41.52

GFSSW_sfc_wetblb_069.txt.gz
Wetbulb
56.82 56.85 56.94 56.18 55.54 55.42 56.16 55.55 54.84 55.47 54.70 54.44 54.28 54.15 54.37 54.65 54.29 50.03 46.07 50.12 52.69 58.73 57.81 53.59 52.77 53.81 53.47 51.92 54.49 54.88 43.73 40.62 41.66 43.19 45.08 50.87 49.68 51.64 53.96 53.67 56.01 57.25 58.72 62.90 65.57
56.60 57.19 57.13 56.58 55.50 54.93 55.08 55.83 54.88 54.35 55.46 54.59 54.19 54.17 54.16 54.03 49.03 45.89 51.99 56.23 56.84 57.14 51.78 49.59 47.45 49.83 47.33 48.38 51.47 49.15 43.00 43.22 46.96 47.87 47.57 49.31 49.86 50.95 51.32 51.74 55.73 60.20 63.83 65.43 65.77
56.73 56.59 56.79 56.47 55.79 54.86 54.38 54.69 55.62 54.19 54.45 54.53 54.25 54.24 54.27 52.65 44.99 43.68 54.79 55.03 54.74 55.60 51.61 51.18 50.38 48.31 45.84 48.06 47.81 49.06 43.62 47.83 48.46 51.03 52.79 50.05 49.08 52.89 50.87 48.93 52.55 58.36 61.19 63.86 64.12
57.05 56.75 56.66 56.50 55.92 55.22 54.82 53.89 53.96 55.04 54.87 54.30 53.71 53.75 53.84 49.03 33.41 48.34 54.36 53.74 54.42 54.27 51.11 48.83 47.50 44.15 43.68 43.67 47.72 45.19 48.30 49.10 50.27 51.91 52.29 49.50 51.06 50.09 51.44 49.97 53.56 59.18 63.02 63.27 63.61
57.01 56.88 56.13 55.85 55.35 54.67 54.63 54.36 53.18 54.16 55.23 54.52 53.74 53.13 49.10 42.25 42.42 52.61 52.96 51.63 51.17 51.86 47.97 46.74 44.30 43.45 41.56 44.89 45.14 45.02 47.32 49.95 51.25 52.57 51.52 52.41 49.83 49.21 49.76 52.03 54.00 55.29 62.18 62.01 62.90
56.73 56.25 55.57 55.06 54.70 54.42 53.74 53.89 53.12 53.18 54.20 54.43 53.77 52.60 45.66 36.80 48.25 51.37 50.25 49.57 48.97 49.50 47.20 47.98 44.22 45.77 44.06 44.25 44.17 46.17 47.37 49.04 50.89 50.87 51.69 49.90 48.90 49.60 50.43 52.66 52.39 53.83 54.40 58.82 61.93
56.20 55.98 55.18 54.63 54.41 54.08 53.76 53.63 52.92 52.24 53.59 54.61 53.47 50.23 43.43 40.95 48.53 48.46 49.44 48.09 49.68 48.88 45.73 47.61 46.37 43.63 44.00 42.88 47.00 46.38 44.00 46.98 48.98 49.86 48.63 50.21 46.52 45.85 49.85 52.00 51.40 51.57 52.47 54.18 56.12
55.72 55.42 54.57 53.56 53.57 53.34 53.18 52.91 52.54 51.56 52.53 54.10 53.16 47.60 39.11 49.63 47.39 48.05 48.09 47.55 49.72 49.84 49.40 49.10 48.57 45.07 43.73 44.99 44.74 41.23 43.76 40.20 45.65 49.41 49.49 47.01 40.46 48.05 50.28 49.12 48.88 49.79 50.58 52.56 54.15
55.21 54.72 53.84 52.83 52.80 52.76 52.54 52.51 51.95 51.92 53.48 53.07 48.06 45.31 38.16 50.87 45.78 47.54 47.34 44.96 47.59 48.89 48.82 49.23 47.46 44.06 44.68 39.06 38.08 39.12 35.40 38.62 40.41 47.93 46.90 46.86 41.27 48.17 50.49 48.84 47.36 47.95 48.74 50.84 52.55
54.39 53.83 53.33 52.64 52.47 52.12 51.93 51.72 51.91 51.61 50.12 50.19 48.73 41.35 42.24 41.02 46.43 47.37 48.36 48.29 45.22 45.02 43.51 42.77 40.22 38.18 38.36 38.04 31.07 33.76 35.42 39.04 38.51 41.74 45.56 43.50 42.18 46.49 49.88 47.90 47.14 47.46 48.15 49.20 51.04
53.72 53.18 52.61 52.33 51.69 50.96 48.96 45.49 42.26 40.48 43.63 39.50 40.76 39.71 42.53 46.39 48.82 46.35 48.55 46.12 44.75 41.63 35.50 38.66 34.53 32.82 34.96 37.25 38.51 38.61 37.41 37.79 40.52 43.07 41.62 41.67 41.61 45.00 47.39 46.96 46.21 46.35 47.31 48.45 50.41
52.99 52.45 51.72 51.02 51.08 51.65 46.73 41.86 43.17 42.60 35.91 44.21 43.52 43.26 45.56 46.18 40.15 44.42 48.78 40.72 39.08 34.65 37.97 35.24 31.56 37.65 39.87 39.16 38.65 39.79 37.36 37.60 41.36 43.98 41.50 40.73 40.03 44.35 46.27 46.02 46.62 47.27 47.29 48.29 49.63
51.93 51.70 50.78 50.66 51.31 48.87 43.00 44.66 47.72 46.63 35.68 41.26 43.95 43.34 44.25 45.01 40.69 41.45 45.08 42.34 37.44 35.36 35.68 33.98 35.95 40.28 38.86 38.39 37.85 38.23 37.10 37.81 38.17 42.01 43.57 41.45 38.33 41.37 45.84 46.01 47.33 47.74 48.35 49.02 49.14
51.39 50.86 49.83 50.60 46.90 46.96 44.56 47.86 48.09 46.24 32.33 36.40 40.25 43.16 45.00 43.60 39.19 45.32 46.43 42.56 38.61 34.97 34.52 36.18 40.38 39.70 37.95 37.91 39.67 32.24 40.20 41.28 40.59 38.62 33.60 41.89 31.18 38.92 43.51 43.65 44.73 45.42 46.07 47.93 49.18
51.03 50.17 50.06 50.53 44.84 44.61 47.60 48.08 47.37 43.14 15.67 38.45 39.36 48.40 46.34 40.87 41.02 40.95 47.35 41.98 35.60 36.80 38.67 34.82 37.13 38.95 37.56 39.23 41.38 38.15 42.56 41.51 41.11 37.33 35.36 36.57 29.90 34.50 41.73 39.61 42.55 44.21 46.06 47.04 49.03
50.61 50.39 50.83 47.24 45.85 48.49 47.60 46.85 43.77 30.53 10.95 35.34 40.11 38.62 39.12 41.20 40.82 42.05 43.19 44.24 42.73 40.13 39.46 37.62 42.29 41.13 40.62 43.01 42.72 43.19 40.29 39.04 38.32 35.79 24.73 34.56 32.20 30.75 33.89 40.38 41.14 45.17 45.77 47.12 47.35
50.34 50.46 49.24 48.63 45.35 48.10 47.22 42.44 31.78 23.98 35.59 34.78 35.29 37.13 38.08 37.47 38.95 40.08 38.70 36.84 33.61 29.37 31.80 35.58 37.19 40.77 43.12 38.77 41.07 40.40 34.59 26.65 24.73 23.77 24.27 32.95 31.46 31.69 36.28 39.23 40.83 43.01 42.00 44.41 45.61
50.44 50.20 49.52 50.35 48.66 47.56 45.35 34.92 25.82 32.05 34.98 40.04 38.33 37.85 34.99 37.58 37.38 38.27 35.37 32.05 37.85 36.59 33.03 25.97 25.77 37.66 42.16 38.27 34.87 34.68 33.79 26.02 20.27 19.32 24.23 32.14 27.67 32.54 37.76 40.47 41.85 42.51 42.32 41.45 40.98
50.57 45.96 46.59 48.30 49.13 47.41 40.38 30.25 27.85 34.27 39.27 37.72 37.40 32.23 31.77 35.25 36.38 36.10 34.48 33.68 36.93 38.67 33.52 31.91 31.73 39.85 42.01 41.39 39.25 36.67 27.79 34.09 27.09 26.26 22.08 26.78 30.46 36.28 38.16 38.67 39.79 41.01 41.45 40.74 41.44
44.65 44.49 45.73 49.64 48.66 46.00 37.22 31.60 34.53 40.23 40.55 40.47 33.80 36.25 31.77 32.93 32.53 33.21 34.87 37.71 37.58 40.27 40.64 35.45 30.45 39.10 40.40 41.51 40.75 37.56 37.65 27.13 25.89 17.28 19.97 24.81 25.79 28.36 33.61 35.75 39.25 39.93 40.61 41.89 42.90
45.04 40.91 46.44 49.54 46.74 41.60 33.07 34.16 37.74 42.74 41.40 38.71 35.54 34.00 33.42 33.30 34.06 33.40 33.22 37.25 38.80 38.42 39.76 37.74 33.78 32.47 37.68 35.55 34.32 35.59 34.11 34.66 32.49 28.63 23.62 20.49 24.13 33.71 34.71 37.46 37.82 39.86 41.56 41.43 41.66
43.77 35.10 48.08 47.45 36.66 38.90 34.92 37.76 41.54 40.75 41.83 41.31 41.56 38.78 35.71 36.32 34.62 33.83 32.75 36.44 41.06 39.76 35.15 37.22 33.66 29.20 30.27 38.74 39.48 38.17 36.84 36.15 28.55 27.12 27.38 24.96 26.40 36.93 37.57 38.62 40.40 40.92 41.29 41.14 41.58
40.18 40.21 47.95 45.71 29.49 34.66 39.34 38.67 41.26 40.07 38.99 40.10 39.36 39.49 41.67 36.55 34.07 36.43 35.85 42.03 41.95 40.72 35.68 36.93 29.27 27.51 27.37 32.52 36.66 35.29 37.07 37.80 34.85 32.45 26.52 22.93 26.11 38.19 38.22 38.21 39.11 39.27 40.58 41.03 42.34
38.61 34.11 40.89 41.82 38.79 33.47 34.69 36.22 37.04 41.19 39.26 40.37 38.76 38.63 36.81 35.35 39.28 35.54 36.17 40.89 41.34 41.30 43.74 40.86 33.89 27.07 22.57 26.30 33.71 32.18 36.22 37.34 33.37 23.28 28.74 30.01 29.86 33.60 36.94 38.14 39.39 39.25 39.29 40.05 41.74
39.63 33.96 36.47 33.44 33.36 35.05 35.93 37.51 37.07 35.64 39.54 39.38 36.65 37.31 37.43 34.72 36.16 35.62 37.59 39.46 41.14 42.48 39.54 37.99 28.13 27.28 32.45 34.55 34.31 33.74 34.34 35.71 31.42 33.04 27.47 31.70 31.63 34.85 35.76 36.81 37.78 39.27 41.37 41.89 41.25
36.83 35.21 36.35 33.72 35.29 34.71 35.81 35.42 37.56 37.68 37.76 35.88 35.49 37.74 37.33 35.14 33.94 33.92 37.07 38.04 36.32 38.06 37.54 37.34 27.54 28.57 26.21 33.13 32.61 29.73 33.15 33.76 35.08 35.35 35.03 34.42 33.83 37.03 37.97 39.56 40.37 40.19 40.54 39.70 40.13
38.06 37.70 36.41 35.54 32.84 32.48 33.59 35.60 39.03 38.78 39.67 39.67 38.67 36.81 35.38 36.11 36.50 36.27 38.05 39.45 38.60 36.91 36.63 34.77 28.18 24.06 22.24 29.02 27.60 23.40 29.62 32.28 33.23 34.55 34.88 31.65 34.45 37.71 38.08 39.95 39.45 39.16 40.40 40.22 40.39

GFSSW_sfc_wetblb_072.txt.gz
Wetbulb
56.75 57.21 57.57 57.45 56.59 55.61 54.82 55.22 56.04 54.70 54.69 54.97 54.52 54.07 54.24 54.20 53.93 49.57 44.71 49.24 51.74 57.97 57.92 52.54 51.02 52.37 53.43 49.38 52.58 52.72 43.85 39.59 41.36 40.69 42.76 49.22 48.22 50.87 53.88 54.11 59.22 60.62 60.20 62.41 64.46
57.00 57.10 56.91 57.01 56.70 56.01 54.91 54.25 55.01 55.74 54.24 55.02 54.66 54.32 54.29 54.24 48.12 45.22 51.29 56.00 56.58 57.12 50.89 48.42 45.97 48.81 46.20 47.12 49.32 47.83 42.97 41.46 46.59 46.95 46.55 48.88 47.56 49.52 50.99 53.67 56.98 60.28 63.49 63.83 64.29
56.97 57.41 57.27 57.14 56.62 56.36 55.78 54.56 53.82 54.43 55.34 54.65 54.57 53.97 53.86 52.32 44.03 43.42 55.20 54.85 54.53 53.99 51.14 49.62 48.97 46.83 43.50 46.21 46.32 47.59 43.49 46.56 47.63 49.54 51.14 49.59 48.42 51.37 50.24 48.84 55.98 57.75 61.31 63.22 63.97
57.00 57.03 57.63 56.54 55.98 55.73 55.56 55.23 54.51 53.64 54.39 55.38 54.64 53.78 53.54 48.27 29.21 47.04 55.08 53.57 53.74 53.96 50.87 47.61 45.98 42.57 41.43 40.71 45.85 42.63 47.50 48.00 50.14 51.52 51.94 49.13 50.42 49.74 49.63 49.79 56.66 60.95 63.11 63.43 63.01
56.91 56.90 56.97 56.02 55.42 55.08 54.82 54.23 54.38 53.54 53.31 54.77 54.55 53.00 48.58 41.39 40.81 52.04 53.80 51.36 50.20 51.13 47.54 44.78 42.45 41.78 39.04 41.57 43.87 42.86 45.36 48.69 50.57 52.02 51.55 52.75 49.95 49.20 48.12 50.80 57.79 62.04 62.60 61.22 63.13
57.02 56.65 56.48 55.82 54.96 54.84 54.50 54.02 53.69 53.39 52.54 54.02 54.13 52.35 44.75 34.86 46.78 51.54 49.74 48.54 48.18 48.81 46.83 46.03 43.45 44.24 41.58 42.02 42.23 44.26 45.63 47.15 49.79 49.90 51.24 49.70 49.39 49.02 49.45 51.01 53.88 59.86 60.40 60.99 61.90
56.97 56.49 55.86 55.19 54.25 53.92 54.10 53.79 53.72 52.42 51.93 53.38 54.09 50.48 43.05 39.12 47.57 48.28 48.37 46.93 48.42 47.58 45.33 45.82 45.69 43.94 43.65 41.37 45.55 44.95 42.46 45.67 47.18 48.83 48.97 50.50 47.06 45.40 49.62 51.43 50.35 52.97 56.27 59.47 60.99
56.99 55.96 55.28 54.46 53.44 53.06 53.34 53.34 52.82 51.99 51.60 52.73 53.26 47.06 38.62 48.67 46.99 46.78 47.04 46.09 48.52 48.93 48.57 47.82 47.48 44.41 41.54 43.37 43.14 41.34 42.26 38.08 45.08 48.06 48.87 48.88 41.76 46.77 48.72 49.07 48.81 48.98 50.69 53.35 57.63
56.68 55.26 54.55 53.80 53.06 52.75 52.67 52.36 52.07 52.07 52.17 53.31 47.12 43.49 37.70 50.07 45.45 46.70 46.40 44.50 46.65 47.94 48.20 48.86 46.59 42.29 42.96 38.44 37.74 38.77 34.31 37.25 41.08 48.52 48.00 45.50 42.32 47.59 50.77 48.10 46.60 47.33 47.38 49.88 51.11
55.68 54.48 53.76 53.34 52.69 52.12 51.51 52.06 51.58 50.96 49.76 49.90 48.33 41.31 41.90 40.30 45.77 46.96 48.15 47.92 44.59 44.26 43.09 42.26 39.56 37.55 37.90 35.73 29.53 33.56 34.32 37.68 38.00 43.86 44.04 43.96 42.75 45.12 48.42 47.90 45.65 46.62 47.02 47.21 49.59
54.90 53.95 52.94 52.54 51.85 51.25 48.80 43.94 41.27 39.45 42.91 38.57 39.71 39.28 41.55 46.19 48.63 45.39 48.33 45.71 44.52 40.49 35.04 38.75 33.70 30.15 35.00 37.82 37.07 36.34 36.49 35.99 39.42 44.23 42.24 42.42 41.87 44.48 46.56 46.74 45.28 44.96 46.27 47.01 48.24
54.22 53.23 52.26 51.26 50.98 50.97 45.83 40.44 41.29 41.53 34.76 42.53 43.18 42.47 44.76 46.01 40.31 43.95 48.55 39.49 38.44 32.92 36.73 33.75 31.22 34.67 39.23 38.83 37.84 37.26 36.21 37.07 40.59 43.43 42.08 41.54 40.82 43.98 45.99 45.91 45.90 46.74 46.18 47.06 48.04
53.92 52.56 51.88 50.63 50.86 48.10 42.45 43.51 47.30 45.26 34.54 40.16 43.02 42.32 43.43 45.12 40.39 41.33 45.11 41.86 36.52 33.96 34.68 32.51 35.55 38.84 38.31 36.97 36.79 37.57 36.11 36.86 37.28 41.59 43.22 40.22 38.50 40.63 44.31 46.27 46.71 47.04 47.63 47.49 48.41
53.23 52.01 51.27 50.39 45.64 45.21 42.75 47.17 47.06 45.10 23.53 35.58 39.17 42.59 44.31 44.83 39.00 45.18 46.28 41.70 38.65 34.05 35.40 34.75 40.06 38.41 37.55 35.55 37.68 33.48 40.89 39.85 38.34 38.14 33.47 40.37 30.64 38.23 41.75 42.99 44.60 45.06 44.59 45.99 46.79
52.85 51.62 50.56 50.26 43.90 42.82 46.40 47.20 46.45 41.11 11.35 37.50 38.35 47.49 45.82 40.73 40.94 41.12 46.93 42.25 36.23 34.84 35.42 34.36 37.73 37.40 36.20 37.37 40.47 35.78 41.96 40.51 39.02 35.23 34.93 35.28 31.61 34.07 41.29 39.80 42.39 43.08 43.86 45.02 46.56
52.03 51.32 50.78 48.15 45.10 47.26 47.35 46.27 42.90 23.72 10.97 33.98 39.35 37.68 38.67 40.72 40.38 42.01 41.77 43.82 41.72 37.60 38.52 37.38 41.72 41.47 40.15 41.90 41.26 41.74 39.94 39.48 37.95 35.70 29.25 33.15 33.16 30.86 34.65 40.05 41.79 43.03 43.83 45.30 46.36
51.52 51.09 49.32 47.10 42.27 47.28 46.34 41.16 23.39 15.08 32.72 33.70 34.35 36.58 36.92 36.73 38.10 38.49 38.44 37.34 34.46 29.06 28.77 35.36 37.33 42.21 43.34 39.34 40.40 39.30 34.06 28.77 27.37 26.56 23.78 34.23 31.81 32.91 36.59 39.04 41.93 42.51 43.71 43.67 43.95
51.15 51.07 49.42 48.88 48.32 46.80 43.64 36.63 14.04 27.93 33.11 38.95 37.48 37.55 33.54 36.02 35.57 37.07 36.12 32.01 38.47 36.66 33.35 30.48 28.92 37.63 42.04 37.89 36.85 36.00 32.08 25.71 21.87 22.47 23.94 31.52 27.80 33.07 37.74 38.61 40.40 40.35 39.09 39.02 39.62
51.41 46.32 46.10 47.05 48.24 46.57 38.13 26.62 21.90 28.96 38.36 36.93 36.18 31.89 30.50 33.61 34.68 34.12 32.77 34.12 36.15 38.00 31.29 29.27 31.92 39.85 41.25 40.09 38.37 35.35 31.57 32.49 26.35 25.75 25.33 27.83 31.86 36.17 37.71 37.92 39.29 39.88 40.44 40.05 40.74
45.66 44.61 44.29 48.61 47.87 43.66 35.83 29.06 31.42 39.25 40.10 39.45 33.38 35.59 27.45 30.05 29.89 32.48 33.25 36.34 36.50 39.04 39.32 32.95 28.89 37.40 39.43 39.91 39.67 36.42 37.22 26.50 24.66 18.80 21.13 24.70 25.31 29.95 33.62 36.05 38.30 38.86 39.27 39.78 41.12
45.29 40.79 45.63 48.73 46.66 40.42 27.14 28.06 36.20 41.86 40.81 38.99 34.16 33.39 31.41 30.95 32.64 31.83 31.36 35.47 38.15 37.47 38.50 35.19 31.56 30.71 35.55 34.31 32.58 34.07 31.48 32.41 29.78 26.32 20.90 19.77 23.79 32.25 34.12 37.37 36.96 37.82 39.39 39.92 40.86
43.82 36.26 47.24 46.88 37.38 38.56 33.29 37.76 41.10 40.61 40.95 40.66 40.74 36.94 31.60 33.62 32.66 31.10 31.27 34.41 39.84 38.32 34.04 36.14 31.67 28.45 29.57 37.43 38.24 37.03 34.17 32.22 23.32 22.93 24.78 23.27 26.02 35.34 36.48 37.54 38.31 38.04 39.47 39.42 40.13
39.94 40.70 47.88 45.80 32.28 33.60 38.52 37.45 41.02 39.16 39.48 40.14 39.58 39.61 39.63 35.35 31.47 32.97 34.43 39.84 40.54 38.60 34.25 35.28 28.11 19.12 24.59 31.08 35.22 34.29 36.39 36.19 33.32 29.75 24.07 22.08 25.44 37.03 36.25 36.30 38.03 38.05 38.18 39.38 40.62
39.22 34.49 41.24 42.58 39.61 35.83 36.03 35.19 37.12 41.96 38.31 40.47 38.25 39.36 36.41 35.83 36.51 33.12 33.76 40.54 40.58 39.61 43.25 40.69 31.90 25.89 22.08 25.58 31.28 30.31 34.61 35.57 32.15 23.64 27.64 28.34 28.98 31.17 34.65 36.28 37.03 37.95 39.02 39.81 40.04
39.26 33.83 37.01 32.32 34.51 34.76 35.56 36.49 35.61 34.36 38.28 38.02 35.49 36.70 36.27 33.87 35.64 34.67 37.57 38.50 39.68 41.85 38.92 36.60 27.04 25.93 30.76 32.58 33.23 32.37 33.10 34.33 29.46 30.58 25.94 30.41 30.95 33.06 34.88 36.15 37.49 39.17 39.78 39.60 39.54
37.84 34.31 34.96 32.22 34.09 35.03 36.13 34.35 35.15 36.47 35.95 34.60 34.46 36.44 35.92 33.34 33.22 32.91 37.46 37.72 33.97 36.02 35.24 35.45 24.94 27.33 24.93 31.59 30.90 29.29 31.54 32.99 34.09 33.59 32.97 33.18 32.78 35.45 36.54 38.71 38.54 38.49 39.63 39.23 39.41
38.96 37.43 36.51 34.06 31.19 34.03 33.26 34.59 37.75 37.95 38.10 38.22 37.46 35.65 34.44 35.03 35.38 36.06 38.92 37.71 37.51 36.01 34.70 32.93 27.62 23.31 21.34 27.51 27.63 24.50 28.26 30.90 32.31 33.73 34.46 31.44 34.67 37.03 36.66 38.43 38.26 36.36 36.91 37.05 37.99

GFSSW_sfc_wetblb_075.txt.gz
Wetbulb
57.70 57.44 57.48 57.17 57.20 57.08 56.12 55.35 54.64 55.57 55.52 54.77 55.32 54.63 54.34 54.30 53.86 48.39 43.26 47.44 50.95 57.24 57.83 51.62 49.73 49.52 50.79 48.43 50.94 50.81 42.58 39.31 41.43 40.42 43.00 46.98 46.35 50.49 53.62 53.99 58.72 58.65 59.79 60.83 62.68
57.83 58.01 58.02 57.57 57.27 56.97 56.87 56.24 54.55 54.20 55.17 55.22 54.76 54.77 54.08 53.97 47.43 43.96 50.92 55.00 57.06 56.21 50.68 47.36 44.82 46.12 43.55 45.04 46.88 44.54 40.87 40.76 45.94 46.10 43.70 47.74 46.86 49.21 52.10 54.70 56.45 59.65 62.63 63.06 63.01
58.20 58.15 57.69 58.03 57.22 56.35 56.07 56.24 55.92 54.05 54.12 54.93 55.49 54.46 53.74 51.73 42.19 41.71 55.28 56.36 54.84 54.12 50.01 48.57 47.81 45.63 40.89 43.55 43.53 43.30 40.13 44.44 46.77 48.52 50.28 49.75 48.30 50.19 50.43 50.36 55.90 57.17 59.11 62.03 63.05
58.93 58.44 57.48 58.07 56.58 55.91 55.48 55.40 54.91 54.69 53.88 53.97 55.28 54.34 53.33 47.22 26.96 45.45 55.56 54.40 53.73 52.90 49.75 45.98 44.62 40.14 38.90 37.89 42.68 40.31 43.66 46.02 47.50 49.43 50.71 48.80 50.93 48.29 49.26 50.65 56.36 60.77 61.16 61.18 62.19
59.35 58.52 57.32 57.15 56.58 55.54 55.13 55.07 54.43 54.20 53.61 53.07 54.74 53.61 47.47 40.18 39.84 49.25 55.33 52.99 50.59 50.57 46.39 43.61 41.30 40.13 36.32 39.46 40.82 40.82 42.64 46.23 48.39 50.48 51.36 52.35 49.79 48.72 48.23 51.59 60.55 62.31 61.39 60.72 62.27
59.84 58.38 57.24 56.67 56.26 54.74 54.26 54.42 54.26 54.02 52.49 52.53 54.21 52.72 43.86 34.18 44.55 48.54 50.87 47.58 47.46 48.15 45.63 44.78 42.21 42.99 39.64 38.09 39.05 41.57 42.76 44.05 48.22 48.44 50.53 48.97 49.22 49.43 49.42 51.40 59.12 60.91 60.56 61.15 61.81
60.39 58.27 57.20 55.97 55.70 54.49 53.48 53.61 53.39 53.04 52.08 51.93 53.39 50.46 43.06 38.83 46.04 47.65 47.54 46.23 47.24 46.61 44.32 45.44 45.39 41.69 41.24 37.98 41.25 41.86 40.00 42.35 45.10 47.33 47.78 50.32 46.31 46.39 49.48 51.17 55.53 57.84 58.78 60.32 61.81
60.57 58.09 56.60 55.59 54.63 53.38 53.01 52.85 52.71 52.48 51.99 51.94 53.23 47.41 36.88 47.56 46.41 46.02 46.70 45.04 47.08 47.66 47.25 47.16 46.97 42.63 40.68 42.30 41.23 38.71 40.55 34.70 42.92 46.03 48.22 47.96 40.24 48.56 50.14 49.06 49.02 52.64 54.22 57.36 60.12
59.07 57.87 55.98 55.15 53.86 52.96 52.66 52.09 52.02 51.82 51.69 51.85 47.68 42.25 36.27 49.53 45.12 46.63 45.33 43.64 45.47 46.88 47.29 47.69 45.22 41.44 40.25 34.76 34.97 36.32 33.36 33.92 39.82 46.58 46.72 45.82 41.78 48.78 50.51 48.59 47.96 48.07 47.65 50.39 54.48
58.45 56.93 55.16 54.31 53.17 52.26 51.34 51.52 51.17 50.47 49.39 49.74 48.06 40.20 41.86 39.38 44.53 45.87 46.61 47.20 43.93 43.54 42.46 41.94 39.68 34.75 36.65 34.11 28.49 31.12 31.66 35.01 37.34 43.08 44.73 43.70 41.74 46.68 48.56 47.29 45.82 45.44 47.53 47.76 49.15
58.28 55.76 54.48 53.58 52.26 51.63 48.52 43.62 41.73 39.39 42.60 38.08 39.09 39.08 40.73 44.91 47.43 44.48 47.50 44.64 42.99 40.75 34.28 38.54 33.59 29.89 33.53 35.99 37.41 35.42 34.04 34.77 39.25 44.30 42.80 42.86 41.71 44.68 47.25 47.35 45.95 45.10 45.40 46.30 47.68
57.74 54.85 54.12 52.90 51.52 50.60 45.67 39.63 40.77 40.95 33.96 41.77 42.49 42.14 43.84 44.96 40.08 43.26 47.33 38.57 37.94 31.33 35.85 33.47 30.07 34.53 38.04 37.92 38.00 36.52 34.14 35.85 38.52 42.39 42.70 40.08 40.94 44.36 46.42 46.38 46.72 45.35 46.05 46.04 46.66
56.55 54.44 53.48 52.12 50.64 48.39 42.70 41.84 46.43 44.35 33.22 38.56 42.15 41.21 42.33 43.97 40.46 40.39 43.95 40.55 35.15 32.76 33.59 31.08 33.41 37.27 37.70 36.69 35.83 36.20 33.86 36.23 36.87 38.73 40.49 39.20 37.48 40.83 44.61 46.44 47.05 46.10 46.48 47.15 47.22
55.79 53.98 52.52 51.14 45.32 44.97 41.62 45.84 46.34 43.61 22.09 33.37 38.07 41.43 43.70 44.99 39.03 44.78 45.22 40.94 38.36 33.11 34.07 34.57 37.41 36.18 36.12 34.63 36.51 32.82 38.66 39.81 38.57 36.30 33.36 39.04 29.85 38.04 41.55 43.13 44.20 45.16 44.12 45.34 46.65
55.17 53.32 52.28 50.87 44.12 42.50 45.53 46.34 45.56 38.79 10.24 34.81 37.56 46.48 45.03 40.75 40.29 41.25 46.67 41.65 34.65 35.68 35.52 33.57 36.51 36.73 33.97 35.33 39.55 34.89 41.07 38.16 37.46 34.56 35.20 35.97 31.02 34.37 40.65 39.50 42.69 44.26 43.21 44.38 45.57
53.88 52.84 51.45 48.60 45.86 46.31 46.53 45.91 41.51 22.66 10.66 32.77 38.28 36.82 37.93 40.36 39.98 41.86 40.95 43.36 41.02 35.58 35.21 36.67 41.92 39.37 38.56 40.52 40.68 41.80 39.88 38.29 37.75 34.46 28.08 33.21 31.32 29.96 35.64 39.53 42.22 43.14 42.92 44.13 45.18
53.32 52.17 49.88 48.29 41.79 46.51 46.23 40.33 24.53 13.45 31.16 32.76 33.30 35.32 35.61 35.81 37.65 38.20 38.45 36.82 35.28 30.54 31.12 36.86 38.26 42.25 41.68 38.65 41.11 39.51 35.51 28.72 26.67 26.52 26.33 33.82 31.75 32.51 36.24 38.35 40.71 41.45 42.43 43.58 42.93
52.54 51.74 50.22 47.06 47.38 46.78 42.80 33.51 14.65 25.26 31.19 37.86 35.94 35.76 31.85 34.74 34.51 36.77 34.94 34.03 38.26 36.44 33.33 30.06 28.67 37.61 41.65 36.22 34.48 34.11 32.80 28.16 22.74 22.61 24.66 31.83 28.68 31.98 36.04 38.08 39.40 41.53 39.48 38.55 39.07
51.62 48.14 46.24 47.45 47.64 45.39 36.63 27.55 21.40 27.03 37.24 35.29 35.28 27.85 25.91 32.41 33.70 33.40 34.53 34.77 37.33 38.52 31.72 30.77 31.65 39.14 40.28 38.89 37.50 33.08 29.06 33.38 27.01 26.97 25.78 26.89 31.14 36.27 38.21 37.55 38.50 37.81 38.88 38.64 39.47
46.40 44.91 45.05 48.44 47.62 41.98 32.66 28.28 29.89 36.50 39.06 38.48 31.21 31.71 25.52 28.24 28.90 29.71 31.08 35.26 36.37 38.93 39.05 34.69 30.55 36.83 38.36 39.68 38.88 35.69 35.96 27.52 26.21 21.86 20.80 24.36 24.60 29.20 33.39 35.97 37.23 38.05 38.25 39.13 40.04
45.61 40.80 45.82 47.92 46.16 38.62 30.19 27.31 34.22 41.00 40.89 37.42 32.97 31.94 29.77 28.68 31.09 30.48 29.66 33.98 37.91 37.08 38.03 34.15 30.96 31.80 34.77 34.06 31.51 33.09 32.63 31.77 29.60 26.26 21.33 20.95 25.39 32.19 34.35 37.05 37.15 36.85 38.27 39.00 39.73
44.05 35.60 46.46 46.67 37.23 34.26 27.50 34.78 39.98 38.92 39.46 38.96 37.80 34.18 30.52 32.08 32.43 29.23 29.73 32.85 39.24 37.51 33.30 34.73 30.39 28.60 30.77 35.34 37.03 35.15 32.34 29.88 23.34 22.93 22.94 21.46 23.54 34.17 35.31 36.95 37.33 37.69 38.37 39.30 39.36
40.70 40.20 47.10 45.31 29.92 29.58 35.37 35.91 39.57 38.85 38.87 38.10 37.28 37.92 36.59 33.28 29.88 31.44 33.10 38.84 39.72 37.45 32.80 33.89 27.60 18.16 23.92 29.56 33.66 32.73 34.37 33.51 30.85 27.28 22.16 19.58 24.70 34.94 34.89 35.89 36.66 36.47 37.33 38.68 39.35
40.65 33.62 40.90 42.61 37.01 31.19 34.05 35.87 36.99 41.37 39.37 38.55 36.60 37.07 35.99 33.28 34.87 31.66 32.53 38.70 39.89 38.57 43.09 39.36 29.80 25.33 20.96 25.28 29.81 29.34 33.12 33.77 30.47 21.64 25.37 25.42 27.16 32.39 32.55 34.92 36.28 38.05 38.32 37.63 38.03
40.15 35.22 37.61 32.66 33.94 33.20 36.76 37.40 36.10 35.53 39.20 36.90 34.58 35.65 34.29 32.44 32.81 31.72 34.53 35.71 38.48 40.42 37.33 34.67 26.38 25.58 29.75 31.65 31.81 31.08 31.40 32.77 27.68 29.05 25.55 28.67 29.05 31.99 33.52 34.86 36.51 37.29 38.51 38.97 38.96
37.86 35.06 35.41 31.14 33.67 33.66 36.20 35.88 35.50 36.15 34.83 33.55 33.66 35.43 35.29 32.36 31.93 31.72 35.25 33.64 31.94 35.86 33.72 33.91 24.13 26.68 24.01 29.39 29.13 29.37 30.41 32.65 33.01 31.96 31.31 31.69 30.64 34.87 36.08 37.54 37.33 37.67 37.87 36.49 36.54
40.94 39.70 34.87 34.83 30.52 34.32 34.86 34.77 36.15 36.72 36.80 37.02 36.57 34.65 33.35 33.91 34.68 34.59 37.76 36.97 35.83 34.05 33.25 31.48 26.37 22.57 21.01 26.48 26.92 23.33 26.80 30.05 31.54 33.29 33.45 29.68 33.57 35.95 36.10 37.34 35.12 33.16 33.50 33.33 34.52

GFSSW_sfc_wetblb_078.txt.gz
Wetbulb
59.42 59.25 58.45 58.41 58.20 57.61 57.61 57.45 56.50 54.88 54.93 55.97 55.04 55.43 55.15 54.52 54.05 47.27 41.56 45.53 50.26 56.27 56.53 51.08 48.90 48.48 48.39 47.15 49.81 48.93 41.24 36.39 39.42 40.71 42.21 46.27 46.06 50.26 53.12 51.64 55.26 57.85 57.87 59.64 60.97
60.05 59.57 58.68 58.70 58.46 58.17 57.20 56.86 57.20 55.55 54.38 54.48 55.53 55.26 54.85 54.02 47.31 43.21 49.44 54.14 54.66 56.58 48.98 46.41 43.71 44.92 41.69 43.38 45.40 42.45 37.08 37.60 42.91 44.15 42.36 46.62 47.18 48.13 51.61 52.64 54.11 57.47 60.83 59.93 61.72
61.33 59.96 59.00 58.75 58.09 58.39 56.66 56.12 56.15 56.11 54.92 54.11 54.44 55.80 54.08 51.37 39.90 37.75 54.77 55.41 55.33 54.17 48.96 47.50 46.83 44.61 39.35 41.83 42.40 41.88 37.69 41.27 42.81 46.24 47.39 47.38 48.44 50.09 50.42 48.95 53.68 55.78 58.39 58.67 60.11
62.82 61.15 59.72 58.97 57.99 57.54 56.52 55.77 55.73 55.20 54.74 54.27 53.87 55.20 53.04 47.21 27.59 43.48 55.36 55.33 54.40 51.63 48.82 44.99 43.48 38.98 37.28 36.70 41.05 37.72 41.52 42.72 44.28 47.25 47.25 46.21 50.18 48.50 50.33 50.43 52.05 58.09 60.29 58.95 60.12
62.01 62.67 60.38 58.85 57.80 56.75 56.49 55.21 55.14 54.83 54.53 53.17 53.08 54.24 47.81 39.31 38.57 47.31 55.32 53.10 51.39 50.18 45.56 42.58 39.82 38.82 35.56 37.00 38.93 37.92 39.63 43.59 44.88 45.40 47.24 48.71 48.17 49.31 48.77 50.80 54.47 60.31 60.76 57.87 60.19
61.11 61.92 60.26 58.27 57.55 56.47 55.34 54.42 54.22 54.48 54.01 52.11 52.20 52.96 44.17 34.25 44.06 47.00 47.57 47.41 46.93 47.29 44.65 43.99 41.08 42.44 38.55 37.34 37.62 38.71 40.28 40.99 43.85 44.94 46.73 46.93 47.73 49.41 49.77 51.03 52.22 59.07 59.71 58.87 61.48
59.39 60.41 60.30 58.05 56.86 56.09 54.72 53.65 53.51 53.48 53.07 51.73 51.56 51.01 43.32 38.81 44.97 45.81 46.95 45.41 46.32 46.57 43.45 44.90 44.39 40.71 40.60 37.05 39.51 38.85 36.03 39.78 41.62 43.14 45.25 48.31 44.77 46.56 49.21 50.31 50.29 57.07 58.35 59.90 61.40
57.90 59.61 59.10 57.61 55.89 55.25 53.63 52.70 52.84 52.15 52.45 51.83 51.57 48.26 38.58 46.60 45.94 45.72 45.72 44.78 46.28 46.15 46.69 46.21 46.15 42.38 39.79 41.46 38.63 35.58 35.56 31.93 39.70 43.11 46.21 45.69 38.68 47.41 49.65 48.61 48.45 50.40 54.56 58.47 60.82
55.51 57.91 58.44 56.95 55.47 53.99 52.57 52.47 52.13 51.86 52.19 51.36 48.06 43.55 34.64 48.64 44.78 46.45 44.84 43.48 44.65 46.74 46.63 47.33 44.70 39.89 40.14 34.39 32.65 32.53 27.49 30.07 35.61 42.96 44.39 44.00 40.99 48.02 49.25 47.40 46.75 48.76 49.84 51.17 56.41
55.49 56.82 58.47 56.16 54.47 53.27 52.00 50.80 51.63 50.59 49.49 49.93 47.82 39.31 40.98 38.75 43.61 45.01 46.60 46.34 43.43 42.33 41.83 41.34 39.55 34.78 35.52 33.27 24.15 26.58 28.19 34.73 33.48 40.66 42.81 42.59 41.46 47.67 48.49 47.80 45.87 46.66 47.29 48.89 50.37
54.83 56.05 57.52 55.02 53.81 52.71 48.95 44.87 42.20 39.83 42.31 36.86 37.20 38.01 40.17 43.99 46.52 43.77 46.68 43.88 42.37 39.30 33.50 37.91 33.19 29.19 30.23 34.27 34.46 32.32 31.04 31.37 36.19 42.75 41.26 41.10 40.52 44.05 47.82 47.87 46.35 47.16 47.25 47.40 48.90
53.79 55.01 56.17 54.33 53.20 51.78 46.49 40.21 42.09 41.94 35.42 41.51 41.80 41.39 43.53 44.11 39.42 42.74 46.39 37.80 36.77 30.65 33.90 32.63 28.46 33.50 36.01 36.47 35.11 32.99 32.12 33.08 38.43 42.61 41.61 39.66 39.76 44.18 46.26 46.64 47.75 47.24 46.37 47.29 47.98
52.80 53.99 54.90 53.65 52.13 49.31 44.31 42.73 46.43 44.88 33.59 37.32 40.84 40.17 41.35 43.31 39.95 39.18 42.69 39.30 34.14 31.43 31.66 28.97 31.83 36.90 35.28 34.02 34.12 33.00 32.63 33.54 35.38 38.75 39.45 37.54 35.63 38.56 44.21 46.33 48.24 48.23 47.17 47.28 47.51
52.36 52.97 54.37 52.47 46.47 45.51 42.77 46.37 46.67 43.66 23.24 32.35 36.98 40.52 42.92 43.80 39.30 44.02 44.51 39.87 37.37 32.37 32.95 32.53 36.10 35.52 34.93 33.47 36.63 31.75 37.75 38.45 36.83 34.74 30.75 37.85 29.27 37.11 41.16 43.28 45.09 46.75 47.02 45.98 47.66
51.35 51.23 53.92 50.76 44.79 42.94 46.25 46.85 45.89 39.11 9.99 33.31 36.86 45.58 44.10 40.33 39.77 41.43 46.47 41.39 33.88 35.24 35.10 32.27 33.24 34.07 33.33 35.09 37.38 35.54 40.18 38.44 36.71 33.53 34.67 34.08 31.59 34.27 40.47 39.42 42.36 45.63 47.63 45.48 47.07
51.15 51.54 53.04 48.22 46.83 47.08 47.14 46.59 41.72 23.76 10.18 31.85 37.59 36.46 37.43 39.63 39.77 41.74 41.26 42.79 40.72 34.95 34.62 34.78 40.27 39.55 37.00 39.57 40.00 40.93 37.79 37.64 36.61 34.50 26.92 32.64 32.52 30.45 35.78 39.22 42.06 45.10 46.38 46.65 47.59
50.22 51.18 50.81 49.10 43.16 47.65 46.66 40.99 26.01 15.07 29.70 31.66 32.30 34.73 34.82 34.64 37.21 38.35 38.09 36.00 33.37 29.42 30.75 35.22 36.87 40.79 40.37 36.34 40.77 39.97 34.20 27.27 24.93 25.77 25.69 33.04 32.00 32.76 34.56 36.71 40.45 44.08 44.72 45.01 44.75
49.63 50.58 50.25 48.43 48.10 47.12 43.56 31.90 18.88 23.62 29.39 36.74 34.70 34.46 30.67 33.51 33.31 36.05 35.01 33.96 36.60 36.17 33.90 28.67 26.98 36.76 39.60 37.51 36.10 36.62 34.48 28.61 22.73 22.64 25.82 31.68 27.36 32.09 34.78 36.67 38.72 40.68 41.51 40.45 40.82
51.33 49.06 47.41 47.57 47.99 46.26 37.57 23.05 20.47 26.58 35.76 34.03 33.88 26.38 25.00 31.51 32.41 32.56 33.12 34.64 37.48 38.50 30.02 29.96 31.48 39.95 40.03 39.14 37.32 34.46 30.75 34.52 27.74 27.83 25.42 28.38 31.00 35.19 37.63 37.10 38.54 38.08 39.02 38.16 38.69
46.47 44.88 44.26 49.22 48.05 43.83 34.85 28.86 28.66 35.12 37.98 36.29 28.01 29.81 25.24 27.83 27.91 29.10 29.49 34.86 36.21 38.85 40.19 33.38 30.83 35.87 37.39 38.68 36.92 33.78 35.95 28.06 28.08 22.44 21.29 25.40 24.69 28.60 33.58 34.10 36.64 36.18 36.45 37.38 38.92
44.61 39.41 46.18 48.72 47.42 40.28 30.94 26.28 32.68 39.05 40.18 35.74 31.24 30.90 27.12 27.90 29.44 28.44 28.73 33.26 37.39 36.94 36.18 32.35 31.00 33.22 35.71 32.89 31.10 32.08 30.43 29.76 29.39 26.79 23.29 21.95 25.57 32.41 33.36 35.94 34.80 35.52 36.93 37.34 37.82
43.37 34.07 46.54 47.95 36.99 37.38 30.76 32.12 38.77 37.58 38.91 37.90 36.30 33.19 29.39 30.85 30.52 28.41 28.31 31.91 38.44 36.34 31.83 33.31 29.57 29.72 30.53 34.34 35.84 33.87 31.99 28.90 24.24 23.28 22.22 21.21 24.56 33.52 34.15 36.50 37.12 36.12 36.57 37.35 37.55
38.44 39.78 47.04 45.88 32.29 33.01 33.02 34.84 38.11 36.87 36.92 37.29 36.13 35.61 34.40 32.02 28.72 30.03 31.74 38.11 38.94 36.80 31.96 33.34 26.80 18.14 23.49 28.85 33.19 32.03 33.52 31.96 28.99 26.52 22.38 18.69 23.78 34.07 34.20 35.58 35.81 36.28 36.47 36.76 37.52
39.32 32.81 39.62 42.20 38.14 30.21 29.73 32.73 35.33 38.89 37.70 37.93 35.81 37.23 34.61 32.20 33.66 30.02 31.61 38.11 39.19 38.30 42.49 37.76 28.32 25.04 20.28 24.46 29.63 29.66 31.24 31.69 28.94 20.12 24.71 23.87 25.74 29.87 31.75 33.97 35.89 35.69 35.82 36.89 37.22
39.76 35.44 38.10 32.49 35.20 30.17 32.52 34.54 34.54 33.39 36.96 36.69 33.92 34.62 33.77 30.50 30.98 29.79 33.06 35.29 37.90 39.55 35.87 33.35 25.99 24.94 28.16 30.26 31.32 30.90 31.22 31.07 27.14 27.81 24.01 27.79 28.50 31.48 32.74 34.19 35.43 35.45 37.28 36.29 35.70
37.48 35.90 36.62 32.52 34.76 31.84 35.69 35.61 35.59 34.58 34.22 32.77 33.14 34.30 34.31 31.22 29.94 30.38 33.80 31.86 30.50 35.30 32.70 32.70 23.55 25.78 23.59 28.51 28.90 29.42 30.58 30.57 31.23 30.39 29.89 29.13 28.01 33.11 33.55 35.45 35.76 34.84 34.38 33.78 34.01
40.57 40.59 36.50 34.71 32.44 30.91 34.58 36.19 36.90 36.45 36.10 35.83 35.21 33.67 33.11 33.42 34.24 34.31 35.51 35.92 34.53 31.95 31.88 29.93 25.79 21.89 20.29 25.70 26.38 23.09 26.07 29.37 30.55 30.78 31.02 28.23 32.05 35.02 34.55 36.46 34.06 31.55 32.15 32.46 32.92

GFSSW_sfc_wetblb_081.txt.gz
Wetbulb
62.95 61.85 60.93 60.16 59.29 59.12 58.52 57.90 57.32 57.44 55.79 54.75 55.29 56.21 55.26 55.12 54.16 47.90 42.35 45.32 50.69 55.16 55.81 52.02 50.50 49.24 49.19 48.27 50.95 51.02 40.92 36.57 39.03 40.88 43.12 47.81 46.92 50.43 52.96 50.54 55.89 58.20 57.66 59.80 62.95
62.59 62.80 62.00 60.90 59.55 59.38 58.96 57.74 56.62 56.39 56.68 55.46 54.64 55.33 56.11 54.19 48.03 43.85 49.38 53.04 54.73 55.18 48.97 47.45 45.47 46.48 43.33 44.47 46.72 44.42 38.53 37.75 43.04 45.19 44.53 47.21 47.45 48.74 49.15 49.80 52.21 57.48 60.04 61.29 63.90
61.47 62.32 62.30 61.62 59.98 59.48 58.98 57.14 56.29 55.78 55.38 55.26 54.61 54.47 55.09 51.20 39.38 37.56 54.46 55.09 55.71 53.78 49.47 48.47 47.66 45.35 41.05 43.06 43.67 42.88 38.04 41.67 42.53 44.54 47.15 47.50 48.46 50.68 49.48 47.03 50.52 53.77 57.29 60.65 61.77
60.04 60.70 61.49 62.14 60.41 59.09 58.68 57.12 56.09 55.56 55.18 54.74 54.18 53.76 53.25 46.90 32.67 43.50 55.38 55.61 56.39 51.99 48.93 45.80 44.47 40.51 38.52 37.57 41.95 38.39 41.68 42.53 43.59 45.24 45.48 45.64 49.09 48.36 49.92 50.76 53.16 54.83 59.01 59.97 59.03
58.53 59.51 60.22 59.95 60.60 58.36 57.75 57.00 55.28 54.94 54.95 53.71 52.94 53.32 48.27 40.05 39.02 46.74 53.86 53.10 51.94 50.13 45.73 43.17 40.86 39.98 36.43 37.73 39.32 38.74 39.55 41.61 43.70 44.90 44.87 45.64 44.63 46.70 48.86 52.58 53.64 54.62 58.91 59.24 57.63
56.78 56.95 58.22 58.69 60.49 57.90 56.80 55.68 54.46 54.09 53.81 53.07 51.72 52.58 44.32 36.98 45.82 46.84 47.00 47.98 48.10 47.36 45.27 44.49 41.42 42.50 38.94 38.17 37.18 39.17 39.70 39.81 41.37 41.40 43.53 43.69 44.39 47.39 49.36 51.98 52.45 53.70 55.45 58.98 57.23
55.08 55.12 56.37 58.50 59.23 57.76 56.24 54.62 53.05 53.47 52.75 52.48 51.17 50.63 43.57 41.00 46.14 46.54 46.85 46.37 46.84 47.41 43.59 45.47 45.13 41.73 40.65 36.36 40.50 39.04 35.15 37.60 39.04 41.79 40.07 45.38 42.30 43.54 50.16 51.50 50.90 52.29 54.11 58.03 58.74
54.11 54.50 55.98 57.60 58.43 56.54 55.47 53.23 52.56 52.37 51.98 52.32 51.35 48.59 40.58 47.76 46.60 45.97 46.36 45.51 46.67 46.47 46.58 46.83 46.42 42.54 39.90 40.37 37.47 34.84 34.87 29.35 36.23 40.18 41.61 43.13 36.34 45.40 50.25 49.95 48.58 50.73 51.98 56.68 59.28
53.87 53.58 54.70 56.52 57.56 55.79 54.01 53.14 52.22 52.21 51.90 51.44 48.01 44.49 37.24 48.16 44.88 46.78 45.62 43.75 45.67 46.19 46.88 47.31 44.70 39.74 39.47 33.40 29.93 32.28 26.97 28.64 31.23 41.38 40.81 41.29 38.69 45.94 50.38 49.29 48.06 48.76 50.22 52.10 57.35
53.03 52.86 54.04 55.44 56.56 54.51 53.06 51.29 51.04 50.81 50.33 50.15 47.88 39.52 39.92 39.03 43.69 45.25 45.80 46.24 43.34 42.87 41.48 40.84 39.33 35.87 34.70 31.91 23.17 25.48 27.64 29.87 29.40 37.79 40.10 39.95 40.85 46.95 48.56 48.11 47.96 48.15 49.27 49.88 51.53
52.08 52.59 53.66 56.21 54.87 53.53 50.31 48.02 42.40 40.32 43.53 38.18 38.65 37.67 40.23 44.02 46.53 43.97 46.34 43.90 43.28 40.15 32.12 37.32 33.67 29.06 31.18 33.15 32.72 32.77 31.45 29.68 34.02 38.42 38.92 38.10 40.48 42.83 44.76 48.14 46.97 48.13 48.51 49.01 49.42
51.08 51.70 52.53 55.79 54.09 52.87 46.76 42.38 43.37 42.81 35.70 42.20 41.79 41.01 43.21 44.28 39.07 42.96 46.13 38.55 37.15 32.08 34.49 33.16 28.47 33.43 35.19 34.86 34.19 32.33 29.69 30.53 36.20 38.81 39.40 39.52 39.32 41.63 44.51 45.94 48.28 48.47 48.52 48.70 49.15
50.51 51.20 51.83 52.32 53.17 49.43 45.09 43.38 47.37 45.04 34.66 37.64 41.18 40.23 41.20 42.80 39.24 39.51 42.73 39.82 35.31 32.49 31.94 28.31 30.39 36.18 34.64 34.75 33.57 33.32 30.42 30.64 34.63 38.88 39.79 39.10 36.36 38.16 42.16 44.46 47.68 49.29 49.68 49.01 48.41
50.35 50.76 50.92 51.90 47.33 46.85 43.76 47.12 46.94 43.71 28.39 33.25 37.09 40.25 42.52 43.95 39.24 44.62 44.50 40.34 36.88 32.39 32.27 31.31 35.70 33.79 33.65 34.32 33.98 31.40 36.50 36.59 36.77 35.24 32.24 37.91 29.20 37.06 40.45 41.71 45.05 47.07 48.53 48.70 48.70
49.82 50.46 50.67 51.19 45.13 43.12 45.84 47.34 46.18 40.63 18.52 34.06 37.46 45.48 43.22 40.16 40.22 40.84 46.51 40.95 34.21 34.13 35.24 29.90 35.04 33.51 33.64 34.19 37.75 34.79 39.95 38.07 36.93 34.50 34.61 34.13 31.54 35.33 40.23 38.90 42.50 45.57 47.51 49.06 48.78
49.57 49.84 50.39 48.29 47.10 47.53 47.70 46.67 41.26 28.04 18.82 32.81 37.95 36.54 37.29 39.38 39.95 42.35 41.88 43.06 41.06 35.09 33.92 34.42 38.63 37.37 36.66 39.36 40.57 40.54 38.45 37.61 36.61 34.26 26.20 31.88 32.19 32.04 36.07 39.66 42.23 45.39 47.21 48.70 48.94
49.64 49.43 48.49 48.56 43.52 48.23 47.40 41.34 28.55 22.59 31.73 32.32 32.12 34.51 34.57 34.31 36.63 38.71 37.97 35.29 32.93 29.26 29.89 34.40 35.50 39.99 40.78 37.16 40.71 39.29 33.91 27.29 25.98 26.22 25.74 34.10 32.53 34.30 36.95 37.84 39.59 44.43 46.20 46.99 48.29
48.65 48.08 47.93 47.01 48.94 47.79 44.78 34.19 23.78 27.57 29.98 36.00 33.71 34.06 31.71 33.48 33.47 35.97 35.07 33.71 36.36 34.94 32.71 27.37 21.16 35.83 39.48 38.04 35.66 35.38 34.49 27.26 22.62 22.77 26.75 33.00 29.15 32.38 37.19 38.30 39.03 41.17 45.16 44.70 44.24
48.78 47.98 45.95 47.49 48.81 47.42 38.42 27.71 25.98 28.94 34.78 33.21 32.77 26.41 25.31 31.52 32.47 32.47 34.03 35.18 37.49 38.47 31.54 30.66 30.31 38.96 39.31 40.31 39.35 34.38 31.56 34.70 28.46 29.12 27.45 28.69 32.41 36.94 38.52 37.57 38.90 38.96 40.23 40.40 40.98
45.04 44.62 43.80 48.42 48.75 44.12 35.33 30.00 30.57 34.05 36.51 34.55 28.05 28.84 25.29 28.73 28.87 30.48 30.50 36.20 35.10 39.47 39.84 34.50 31.12 36.80 38.34 40.06 39.10 35.51 37.83 29.33 30.16 21.71 22.61 27.26 27.19 28.52 33.19 34.90 37.51 37.83 38.29 39.60 40.98
44.42 38.14 45.56 48.59 47.67 39.09 31.27 30.48 32.71 37.47 38.54 34.11 30.11 29.55 27.19 28.30 29.89 28.82 30.05 34.99 37.77 36.86 37.15 32.87 31.56 34.18 36.17 33.62 32.69 33.17 32.04 30.98 30.38 27.26 25.21 24.07 25.86 34.25 34.10 36.37 35.81 36.53 37.87 38.57 38.84
41.86 34.48 46.36 47.80 35.15 35.78 32.55 33.15 37.99 37.09 38.49 37.00 35.13 32.81 28.70 29.80 29.86 28.50 29.16 33.99 38.46 36.87 32.56 33.96 33.77 30.37 30.98 35.04 36.46 35.59 32.76 29.88 26.20 24.88 23.50 24.10 26.14 33.75 35.32 37.67 37.04 36.97 37.54 38.12 38.77
37.17 38.97 47.01 46.05 32.44 33.39 34.51 35.72 38.31 36.61 36.01 36.76 35.16 34.53 33.72 31.53 28.83 30.68 32.41 38.22 38.61 36.68 32.69 34.15 27.62 22.06 25.98 30.37 33.83 33.13 33.70 31.42 29.38 28.15 23.93 22.69 26.23 35.26 35.59 35.75 37.04 36.39 37.22 38.67 39.29
39.45 32.12 39.09 41.63 38.52 33.48 30.53 33.83 35.73 38.51 36.81 37.20 35.55 36.36 33.49 31.94 33.15 30.21 31.91 37.53 38.45 38.15 41.18 36.91 28.63 25.53 21.41 25.79 30.89 31.33 32.97 32.20 29.76 24.45 26.59 25.91 28.14 32.03 33.83 35.10 36.13 36.37 37.59 37.27 36.72
39.75 35.55 38.10 32.55 34.54 31.67 31.14 34.72 34.38 33.14 36.14 36.27 33.67 34.56 33.22 29.68 30.22 29.81 32.80 34.37 36.73 38.84 35.45 33.22 26.34 25.11 27.80 29.26 32.22 32.00 32.38 32.25 28.89 28.77 26.38 28.58 29.23 31.99 34.01 35.86 36.27 37.24 37.16 35.89 35.08
37.52 36.25 36.73 34.63 34.20 28.63 33.87 34.53 35.23 33.44 33.64 32.67 32.69 33.38 33.23 30.84 29.89 28.95 32.74 32.48 30.54 34.87 32.94 32.35 24.44 26.33 24.39 28.56 28.96 30.22 31.25 32.12 32.69 31.42 31.00 29.48 30.47 34.99 35.10 36.56 36.55 34.86 34.66 33.45 33.89
41.11 39.23 37.18 34.34 29.53 29.41 33.61 35.90 36.70 35.41 35.26 35.09 34.51 32.95 32.54 33.08 33.83 34.09 35.58 34.97 33.93 32.32 31.59 29.58 26.21 22.71 21.73 25.79 26.89 24.13 26.23 29.88 32.04 32.52 31.86 29.62 32.52 35.67 35.65 36.50 34.07 31.95 32.54 32.88 33.76

GFSSW_sfc_wetblb_084.txt.gz
Wetbulb
61.19 62.10 62.70 62.57 61.80 60.97 59.77 59.70 58.43 57.36 56.98 56.39 55.13 55.24 55.57 56.00 55.33 52.42 46.61 47.89 51.09 54.30 56.22 53.75 52.46 51.31 51.42 50.64 52.19 51.88 42.39 38.51 40.59 41.44 43.56 48.72 48.09 52.83 54.91 53.39 54.97 55.94 56.69 59.46 64.77
60.54 60.82 61.60 61.91 62.20 61.74 59.99 59.74 58.20 56.59 56.01 56.38 55.33 54.86 55.28 54.69 51.72 47.68 51.97 52.93 54.67 54.75 51.77 47.38 45.09 48.23 45.66 46.38 48.31 46.01 40.78 40.41 44.91 45.79 45.08 48.00 48.53 50.18 50.76 51.25 52.32 54.11 59.17 63.10 66.13
59.19 59.55 60.51 60.73 61.10 62.04 60.08 59.42 57.84 56.02 55.29 55.32 54.49 54.19 54.41 52.83 45.40 43.14 54.50 56.03 54.90 55.18 51.24 49.35 47.93 45.93 42.14 44.52 44.97 44.12 39.88 44.38 45.07 46.46 47.60 47.23 48.59 51.47 50.11 48.84 52.13 52.28 55.28 60.72 63.76
56.72 57.28 57.69 58.83 59.81 60.19 60.35 59.11 57.10 55.74 54.94 54.56 53.91 53.19 53.50 49.38 36.04 47.80 56.04 56.91 56.94 53.70 50.12 47.58 45.53 41.75 39.93 38.88 42.95 38.88 42.46 43.45 44.85 46.68 45.96 45.45 49.23 48.47 50.43 50.97 54.80 54.04 57.02 60.20 61.42
55.00 55.53 56.02 56.23 58.27 58.45 60.14 58.67 57.26 55.19 54.59 54.58 52.90 53.25 50.31 43.62 44.05 49.77 53.27 54.63 53.61 50.10 46.27 43.92 41.19 40.71 37.10 39.47 40.80 39.17 40.26 41.99 43.57 44.62 45.07 46.46 45.28 46.53 48.83 53.17 56.04 55.38 56.31 57.02 59.13
55.11 55.13 54.58 55.96 57.23 59.72 59.17 57.60 56.08 54.18 54.12 54.21 52.69 53.55 46.88 39.07 49.99 49.23 48.91 50.47 50.97 47.92 46.37 45.25 41.79 43.28 39.94 39.09 38.44 40.53 41.06 41.52 42.83 42.39 43.31 42.49 43.81 46.27 48.63 52.76 53.34 54.71 55.45 56.11 56.84
53.80 54.56 53.85 54.67 56.11 59.41 58.37 56.89 55.09 53.70 54.10 54.05 53.14 51.26 45.02 43.05 49.55 49.88 49.63 49.73 50.65 48.12 44.31 46.76 46.09 42.22 41.08 37.38 41.45 40.22 36.33 39.00 40.23 41.52 41.30 42.95 39.40 42.01 48.44 51.62 52.27 53.40 54.41 56.03 56.47
53.56 53.03 53.46 53.32 54.87 56.56 57.30 55.67 53.60 53.54 53.16 52.67 52.16 49.60 41.65 50.43 51.16 48.33 49.09 48.87 49.77 49.54 47.60 48.12 48.05 43.92 41.59 41.96 38.95 35.27 35.65 30.54 38.49 40.40 41.43 41.60 33.74 42.73 47.90 49.37 50.39 52.33 52.98 55.37 57.05
52.77 52.53 53.01 53.77 54.41 56.64 55.49 54.03 53.45 52.86 52.61 52.51 49.11 46.40 39.84 49.40 45.79 49.00 49.59 46.39 48.30 47.35 47.25 47.78 45.63 41.25 40.39 34.80 32.06 32.65 27.88 30.65 33.79 40.51 39.93 40.08 35.95 42.50 48.28 48.98 49.73 51.42 52.55 54.19 56.11
51.48 51.85 52.14 52.91 54.69 55.81 53.89 53.05 52.08 52.18 50.71 50.92 49.13 41.70 44.11 40.93 46.25 47.41 49.32 48.03 44.57 44.53 42.84 42.38 41.18 36.38 35.80 32.14 23.45 27.82 27.51 31.23 31.88 37.57 38.94 38.20 37.59 43.14 48.73 49.69 50.48 51.41 52.05 52.78 54.48
50.85 51.26 51.15 52.52 55.76 53.72 51.64 48.77 42.84 41.41 45.92 41.86 41.53 39.98 41.83 45.87 48.44 45.85 47.83 46.05 45.06 40.80 34.16 37.35 32.73 29.26 32.50 33.80 33.95 32.97 30.82 30.25 34.70 38.79 37.22 37.20 38.56 41.68 45.84 48.36 49.19 50.49 50.88 50.95 51.84
50.08 50.63 51.11 51.66 52.79 52.60 48.79 43.83 43.54 44.22 37.11 44.13 42.31 43.05 44.15 46.10 40.78 44.14 48.31 40.96 38.68 33.28 35.80 33.94 29.99 35.95 37.37 36.31 33.52 33.45 30.95 30.72 35.18 38.64 37.70 37.69 37.80 42.73 45.87 45.71 47.33 49.41 51.16 50.98 51.11
49.73 50.24 50.87 51.27 53.16 49.00 45.52 44.18 48.61 46.48 39.04 39.15 43.02 40.86 41.96 44.46 40.33 41.97 45.11 42.05 36.81 33.39 33.18 30.94 34.09 36.99 34.79 33.45 32.08 32.22 30.13 30.22 32.08 36.68 39.73 38.18 36.07 39.34 44.65 46.11 47.52 49.18 50.91 51.73 50.85
49.42 49.98 50.33 51.10 48.31 47.11 44.14 47.33 48.14 47.13 34.98 34.82 37.89 40.99 43.37 44.29 39.31 45.72 46.48 42.02 38.30 33.06 34.18 33.11 37.87 34.73 33.88 32.92 34.81 31.61 36.09 34.56 34.09 33.46 29.95 39.88 29.93 38.32 42.83 43.53 45.28 47.26 48.57 47.95 51.43
49.40 49.60 49.54 49.50 46.40 44.38 46.60 48.53 47.71 44.95 25.72 37.02 38.28 47.08 44.73 40.91 41.96 42.01 46.83 41.92 36.17 35.21 35.64 33.54 34.90 35.95 33.98 34.07 36.62 35.92 38.77 35.90 32.71 35.97 35.90 35.60 33.42 37.50 41.13 40.60 43.68 45.57 47.71 49.58 51.51
49.56 49.22 48.84 47.10 47.47 47.65 48.82 47.85 45.15 31.61 23.66 34.35 39.22 38.27 38.30 40.49 40.42 42.58 41.43 43.22 40.18 35.56 35.45 34.94 39.47 36.74 38.44 40.26 41.04 42.15 39.81 38.41 38.46 36.39 29.70 33.40 33.78 34.00 38.03 39.32 42.35 46.13 48.94 51.04 50.90
48.93 48.89 47.56 47.92 42.56 48.83 48.13 43.20 31.68 27.77 34.49 32.86 33.97 37.58 37.31 37.20 38.07 39.41 37.99 35.61 33.69 30.02 30.14 34.52 35.77 40.98 41.89 38.19 41.57 39.69 36.98 30.52 28.49 29.60 27.61 34.65 34.15 35.82 39.43 41.15 41.92 43.24 48.95 50.58 52.06
49.28 48.69 47.05 46.38 49.01 48.96 45.49 36.94 27.02 30.38 31.69 37.70 36.27 36.64 34.52 37.49 37.07 38.07 36.69 34.29 36.56 35.45 33.10 31.48 28.88 37.32 41.12 38.69 36.73 36.81 36.72 31.48 23.92 26.43 28.14 34.85 31.05 35.66 40.92 42.38 43.00 44.21 49.95 50.18 49.23
48.47 45.90 44.50 47.70 49.45 48.18 39.57 30.91 30.22 31.44 36.94 35.33 36.32 33.28 32.65 35.39 36.44 36.14 35.34 35.61 37.97 38.22 33.57 32.80 31.41 39.34 40.43 41.60 40.75 36.78 33.91 37.51 32.46 32.44 30.50 32.56 35.16 39.69 42.34 41.78 43.29 45.01 45.73 43.26 44.88
46.01 44.52 43.49 49.02 49.08 44.14 36.31 31.95 32.39 36.72 38.89 38.30 31.79 33.89 30.86 33.45 34.07 35.16 34.43 35.75 35.49 39.05 39.35 36.22 31.17 37.78 38.87 41.08 40.58 38.20 39.83 32.75 35.09 27.00 25.02 30.02 31.85 33.66 37.83 38.66 41.51 41.92 42.83 42.34 42.23
44.58 39.11 45.86 49.12 47.01 38.87 33.46 32.93 35.24 39.52 40.96 36.82 34.33 32.87 33.18 33.56 35.20 34.10 34.36 37.30 39.98 39.49 41.04 38.11 36.78 35.62 38.66 36.50 35.28 37.27 36.04 35.14 34.41 32.78 29.90 27.93 30.51 37.80 38.78 39.97 40.44 41.68 42.27 40.95 41.12
42.48 33.94 46.71 48.08 35.68 36.38 34.63 34.69 38.83 39.28 42.16 39.78 38.91 36.58 34.69 35.25 35.20 35.00 34.70 37.61 42.10 40.49 36.93 38.93 38.62 33.87 34.77 38.89 39.37 39.04 36.69 35.67 33.18 29.89 31.29 33.35 30.98 39.27 41.19 40.91 41.56 40.74 41.58 41.44 41.69
38.72 36.72 46.59 46.50 32.41 33.86 36.64 37.20 38.73 38.95 39.53 39.88 37.16 38.15 38.20 36.28 33.62 36.06 37.24 41.75 42.19 40.98 38.49 39.18 35.71 32.53 33.35 36.90 39.18 37.70 37.50 37.17 35.47 36.10 29.96 31.54 31.37 39.99 41.42 41.09 41.40 41.48 41.70 42.20 41.26
41.24 33.22 37.56 41.24 39.86 36.26 35.03 35.52 36.59 41.33 39.69 40.67 38.83 40.23 38.13 36.56 38.24 35.27 36.46 40.64 41.95 41.64 40.39 40.33 35.51 31.73 30.08 31.27 35.57 35.00 36.76 38.04 36.58 34.00 33.28 32.69 33.15 37.21 39.12 39.79 40.79 41.63 41.47 41.08 40.84
41.95 36.63 39.19 34.32 36.11 37.56 36.93 37.21 36.50 35.89 40.19 40.81 38.86 38.72 37.64 34.69 35.32 35.07 37.45 38.58 40.63 40.62 39.74 39.75 32.75 32.22 33.16 34.00 35.80 35.66 36.08 37.11 34.56 34.69 33.69 33.89 35.15 38.09 40.05 41.24 41.52 41.99 40.99 40.04 39.86
39.85 38.91 39.41 37.49 37.24 36.71 37.10 37.10 36.42 36.50 37.52 37.34 37.53 37.65 38.91 36.07 36.51 34.64 37.14 38.14 37.26 40.90 38.65 38.11 33.60 32.62 32.15 34.19 35.24 33.61 35.92 36.78 36.69 35.92 36.12 36.21 35.48 41.41 41.34 42.25 41.35 40.61 39.28 38.50 38.82
44.41 43.39 41.63 36.06 35.73 36.21 36.59 37.60 37.53 39.01 38.94 38.46 38.90 39.15 37.80 37.76 40.23 41.01 42.21 40.96 40.09 39.04 36.84 36.27 34.74 32.85 30.32 31.83 32.79 31.20 32.42 34.55 36.19 37.39 36.83 35.01 36.97 40.09 39.32 40.48 39.86 38.39 38.20 37.76 38.12

GFSSW_sfc_wetblb_087.txt.gz
Wetbulb
58.70 60.37 60.71 61.36 61.58 61.93 62.15 61.16 60.23 58.83 57.35 57.25 56.37 55.61 55.43 55.42 56.12 54.44 49.73 51.17 51.26 54.26 56.87 53.41 52.51 51.33 51.14 50.10 52.25 51.96 42.53 38.96 41.02 42.10 43.88 48.40 47.12 51.51 53.86 52.60 53.93 55.17 55.67 57.70 66.01
58.24 58.94 59.07 59.02 59.97 60.89 60.86 61.90 60.16 58.68 56.63 56.09 56.43 55.04 54.72 54.98 52.95 50.02 54.39 53.73 53.42 55.04 51.94 48.99 46.71 48.70 46.13 46.18 48.29 45.86 40.99 40.49 45.23 45.74 44.77 47.13 47.72 48.79 48.88 50.08 51.12 53.13 56.50 58.93 64.85
55.90 55.94 56.53 56.87 57.76 58.57 60.01 61.54 59.99 58.21 56.28 55.97 54.93 54.30 54.29 54.68 48.35 45.93 55.90 57.07 54.28 55.27 52.76 50.00 48.07 46.20 42.99 45.35 45.23 44.38 39.89 44.35 45.53 47.20 48.03 46.84 47.60 50.61 48.64 47.50 50.62 51.16 53.75 57.13 61.75
55.73 55.97 55.81 55.82 56.01 57.01 58.67 59.40 60.01 57.72 56.21 56.11 54.94 53.68 54.35 52.09 38.81 50.72 56.95 56.92 56.69 53.88 50.26 47.61 46.13 42.77 40.69 39.78 44.15 39.16 43.02 43.79 44.91 46.55 45.97 45.32 47.96 46.91 49.02 50.18 53.34 55.14 57.40 57.26 56.97
54.57 54.62 55.27 55.17 54.91 56.27 57.56 58.78 59.55 57.51 55.88 55.54 54.57 54.11 51.69 45.54 45.89 52.78 53.41 56.79 53.60 50.25 46.44 44.37 42.02 41.75 38.52 40.40 41.76 39.78 41.27 42.79 43.60 43.80 44.36 45.76 44.44 45.26 46.80 51.25 53.88 54.23 56.36 56.58 57.66
53.68 54.33 53.79 54.44 54.02 55.03 56.18 59.73 58.79 56.76 55.22 55.64 53.91 54.07 48.88 40.64 51.95 51.33 49.97 53.32 51.83 49.20 46.35 45.69 42.87 43.70 40.64 39.65 39.10 41.18 40.97 41.48 43.14 43.03 43.49 41.59 42.42 43.96 46.10 50.21 50.87 52.58 54.00 55.97 57.15
52.84 52.95 53.26 53.41 53.96 55.11 55.41 58.95 57.77 55.26 55.07 54.79 53.95 52.31 46.74 45.06 51.82 51.85 50.29 49.14 51.47 49.18 45.10 47.03 46.89 43.08 42.47 38.79 42.24 40.57 36.42 39.02 39.93 40.87 40.89 43.72 38.97 39.68 45.05 47.48 48.69 50.63 53.12 55.96 57.28
52.03 51.94 52.71 52.38 52.99 54.14 54.44 58.09 55.38 54.18 54.33 54.40 53.83 50.62 43.29 51.97 53.60 50.86 50.69 48.82 51.01 50.49 48.11 48.74 48.47 44.70 41.64 42.67 40.24 36.68 36.75 31.10 38.57 40.17 40.99 41.13 33.59 42.06 45.39 44.50 46.05 49.35 51.94 54.41 56.22
50.88 51.00 51.78 51.90 52.32 53.46 56.09 54.95 54.06 54.18 53.68 53.02 49.65 47.78 41.84 51.13 47.38 50.29 49.87 46.67 48.61 48.90 48.61 48.47 46.65 41.85 40.20 34.67 31.78 34.27 29.12 31.58 34.51 40.41 39.66 39.36 35.35 41.76 44.95 44.81 44.84 47.91 50.42 52.93 55.26
50.81 50.37 51.00 51.67 53.52 54.48 54.23 53.84 53.41 52.64 51.35 50.79 49.09 42.86 44.93 42.55 47.26 48.70 50.42 48.80 45.88 45.28 44.15 43.04 40.46 35.88 36.86 33.00 25.40 29.28 29.85 32.30 32.21 38.18 39.19 37.14 36.86 41.14 43.87 43.66 46.30 47.45 49.88 52.36 53.94
50.85 50.42 50.53 51.11 51.71 53.50 51.68 49.46 43.70 42.30 45.66 42.82 43.22 42.30 44.01 47.31 49.49 46.93 48.97 46.61 45.40 42.69 36.16 37.59 32.76 30.50 34.27 36.36 35.16 33.16 31.68 30.67 35.07 38.75 36.87 36.53 36.78 39.65 42.73 47.17 47.27 48.80 50.80 52.04 53.51
50.50 50.32 50.28 50.95 51.59 52.47 49.89 45.02 44.45 45.71 39.63 45.28 44.63 44.37 46.17 47.64 41.95 45.07 49.02 41.52 40.09 35.64 36.95 33.32 30.12 36.56 38.41 37.31 34.94 32.66 30.47 31.16 35.45 38.62 36.55 36.33 36.07 40.06 42.53 45.88 48.63 48.79 49.69 50.93 52.80
50.10 49.83 50.29 50.81 52.32 50.58 46.20 45.69 49.50 47.45 39.81 41.14 43.71 42.95 43.57 45.43 41.28 42.56 45.73 42.42 37.67 34.94 34.03 30.71 35.74 38.82 36.20 34.30 32.40 32.57 31.03 30.25 30.79 36.13 38.53 36.58 34.29 37.58 42.37 46.42 48.35 49.90 51.24 52.49 52.10
49.72 49.78 49.97 50.13 47.83 46.98 44.20 47.85 48.62 48.23 35.86 35.61 39.05 42.36 43.93 45.07 39.71 47.38 47.50 42.85 38.38 34.51 34.95 33.02 38.09 36.29 34.66 33.37 34.61 30.33 35.79 34.40 34.46 32.01 28.06 37.36 26.35 35.34 40.84 43.59 46.47 48.19 49.12 50.95 51.49
49.57 49.49 49.07 48.92 46.69 44.34 46.93 49.21 48.46 45.55 25.90 37.34 38.56 47.78 45.39 41.61 42.87 42.60 47.89 42.86 36.55 36.47 36.32 34.19 36.25 34.76 33.37 34.98 36.98 34.17 38.78 35.76 35.02 33.25 32.56 33.20 31.63 35.46 41.13 40.79 44.20 47.05 48.93 50.52 50.55
49.29 48.39 48.44 48.18 48.11 48.61 49.85 49.15 46.26 32.22 26.16 34.22 39.68 38.84 38.68 41.17 40.95 42.62 41.62 43.33 40.38 36.36 37.16 35.32 40.49 37.90 37.22 40.11 41.29 41.57 35.13 34.57 35.25 32.14 28.48 33.62 33.68 33.99 38.29 40.66 43.44 47.40 48.64 50.25 51.20
49.50 47.36 46.64 49.28 44.47 50.85 49.75 43.79 31.73 28.67 36.50 32.67 34.48 37.87 38.34 37.09 38.63 39.24 37.36 35.71 33.80 30.22 31.25 36.33 37.52 40.98 42.07 37.11 41.44 40.69 36.66 30.60 28.37 29.63 27.91 36.14 33.58 34.71 40.25 42.00 43.35 44.12 48.46 50.10 50.10
48.42 48.77 48.06 47.90 49.10 49.42 45.82 35.56 28.33 32.06 33.74 38.22 37.62 38.03 35.38 38.46 37.94 38.51 36.97 34.32 37.03 36.40 34.42 31.01 31.03 38.22 42.07 39.15 37.22 38.00 36.86 31.40 24.08 26.58 28.12 35.20 32.29 33.73 41.85 44.03 44.70 46.79 49.70 48.73 45.87
48.49 46.96 45.12 47.11 49.97 48.16 39.18 31.70 30.57 32.94 37.41 35.89 37.25 34.25 34.29 37.03 37.49 37.40 36.28 35.67 38.42 38.35 32.95 32.46 32.90 40.49 41.50 41.51 40.98 37.30 35.29 37.60 33.36 33.48 31.20 33.25 35.69 40.70 41.71 44.13 45.61 46.51 46.47 44.18 45.05
45.57 43.83 44.11 48.81 49.43 44.84 35.19 32.12 33.90 39.15 40.10 39.49 33.36 36.23 32.56 35.20 34.67 35.91 35.81 36.93 36.47 39.67 40.16 37.26 32.40 38.03 38.26 41.76 41.42 38.21 39.86 31.87 35.40 27.84 25.76 31.15 31.82 32.02 37.52 39.08 42.46 40.30 41.10 42.27 43.05
46.59 39.97 45.94 49.56 47.09 39.43 32.55 34.75 36.71 41.63 42.24 38.81 35.99 34.58 36.12 35.17 36.47 35.86 35.50 38.23 39.82 40.38 41.76 40.26 37.16 36.15 38.05 37.03 36.43 37.58 36.53 36.87 35.87 34.28 29.06 28.13 29.61 39.17 39.42 41.01 39.19 38.84 39.44 40.08 41.08
44.27 34.45 46.34 48.75 36.27 37.79 35.49 35.84 39.92 41.48 43.84 41.21 40.68 38.52 37.71 37.82 36.48 36.67 34.97 39.14 43.40 42.27 38.39 41.29 39.47 34.91 35.95 41.33 41.73 40.40 38.12 38.26 33.04 31.82 34.90 33.90 30.58 41.87 42.31 40.56 40.66 39.61 41.21 41.29 41.69
38.36 38.29 46.66 47.17 34.31 35.47 37.68 38.59 39.27 40.23 41.26 40.77 38.42 40.06 40.67 38.23 35.04 38.46 39.06 43.09 43.79 42.47 39.99 41.20 37.96 33.43 34.96 38.26 40.53 39.14 40.32 40.33 38.23 39.28 33.44 32.37 31.57 42.72 42.00 41.54 41.92 40.26 40.24 40.45 41.47
41.82 33.83 38.80 41.99 41.98 38.54 37.14 36.22 37.62 43.05 41.60 42.06 40.52 42.27 40.03 38.21 40.54 37.68 38.40 41.82 43.44 42.73 41.28 42.65 38.10 34.38 30.79 32.67 37.28 36.01 38.30 39.64 38.70 34.10 33.98 34.56 34.49 38.78 40.66 40.74 42.16 42.28 42.63 42.53 42.22
43.91 37.60 40.48 35.55 38.20 39.87 40.04 38.40 38.33 37.77 42.32 42.76 40.16 40.29 39.11 36.18 37.99 36.86 39.21 40.25 42.23 43.36 42.28 41.95 34.84 34.44 36.07 36.80 37.75 37.10 37.21 38.09 35.91 37.30 34.03 35.76 36.88 39.53 41.73 42.32 43.14 43.26 42.75 42.02 41.59
42.71 40.92 42.66 40.13 40.41 40.04 39.46 38.82 38.22 39.27 39.80 39.22 38.92 40.46 40.90 37.63 38.74 36.49 38.87 39.67 38.62 42.74 41.05 41.77 36.24 35.37 35.19 36.98 37.40 34.71 37.29 38.50 38.26 38.28 37.69 38.15 37.08 43.42 44.57 44.37 43.07 42.77 41.76 41.19 41.05
47.56 46.96 44.66 38.37 39.07 39.17 38.29 39.09 39.38 41.25 41.16 41.59 41.43 41.02 39.24 39.44 43.16 44.07 44.55 43.67 42.32 40.98 39.64 39.19 36.97 35.14 32.00 35.30 35.01 32.31 33.97 36.15 37.69 39.18 38.27 35.91 38.94 42.19 41.19 42.01 42.35 41.72 41.24 40.74 40.71

GFSSW_sfc_wetblb_090.txt.gz
Wetbulb
56.54 57.60 58.12 58.59 59.16 59.66 60.41 61.37 61.96 60.31 59.36 57.75 57.76 56.47 55.69 55.74 55.56 53.91 49.83 51.08 52.15 54.62 55.42 52.33 51.80 50.64 50.46 47.44 50.18 50.15 39.26 36.37 38.40 39.63 42.12 47.04 44.77 48.10 49.25 48.16 49.87 51.10 50.60 53.16 65.41
56.16 56.64 56.97 56.79 57.27 57.57 58.00 60.12 61.25 60.91 59.45 57.32 57.38 56.50 55.09 55.27 51.66 49.76 54.43 54.45 54.87 55.45 51.82 48.69 46.07 48.45 44.18 44.62 45.79 43.48 38.22 38.64 43.39 43.65 42.65 45.11 44.84 46.03 46.29 45.76 46.81 49.57 52.81 54.78 64.10
54.50 55.49 55.87 56.31 55.95 56.24 57.13 58.13 59.72 61.13 58.68 57.07 56.79 55.56 54.43 54.15 48.14 47.85 56.40 56.64 54.82 54.81 52.74 49.84 47.64 45.20 41.14 43.32 43.14 42.20 37.85 42.71 43.65 45.57 46.22 45.11 44.91 47.59 45.45 44.13 47.57 47.62 49.92 52.29 54.23
54.50 54.17 55.02 55.01 55.63 55.32 55.36 57.42 58.01 59.59 58.24 57.09 55.83 55.16 54.18 51.73 38.50 52.08 57.62 56.80 56.86 54.70 50.56 47.52 45.74 42.11 39.82 38.10 42.45 37.23 41.49 42.25 43.27 44.65 43.63 42.66 45.52 44.35 45.23 45.20 49.53 51.07 53.28 54.85 54.26
53.47 54.07 54.02 54.30 54.20 54.41 54.86 56.10 57.16 58.97 57.80 56.84 55.85 54.79 51.11 45.18 45.56 55.27 58.29 57.81 53.68 50.89 46.85 44.40 41.64 40.72 36.77 39.11 40.36 38.01 39.77 41.91 42.90 42.89 42.04 42.91 41.50 42.03 43.24 46.76 48.65 49.88 52.33 51.87 53.42
52.59 52.94 53.01 52.97 53.73 53.33 54.10 55.61 56.62 58.76 57.08 56.33 55.45 54.62 48.43 40.03 51.53 53.04 53.10 54.34 51.45 48.62 46.49 45.96 42.81 43.29 38.85 38.17 36.76 39.10 39.32 39.40 40.79 40.87 42.10 40.42 40.14 41.26 42.36 46.10 46.62 48.13 48.64 50.59 52.35
52.05 51.78 51.57 51.89 52.81 52.80 53.34 55.06 55.68 58.35 56.59 56.36 54.86 51.63 46.99 44.56 51.42 50.85 49.60 51.06 51.71 49.07 45.07 47.35 46.55 42.78 41.65 37.59 41.40 39.58 34.95 37.24 38.24 39.37 38.54 40.84 36.38 37.70 42.59 44.53 43.80 45.40 48.07 49.46 51.37
52.37 51.61 51.25 51.35 52.12 52.81 53.76 54.42 57.47 56.00 56.09 55.10 54.62 50.51 43.07 52.20 52.12 50.55 49.99 48.34 51.20 50.38 48.28 48.75 48.30 43.80 40.72 41.48 38.50 34.83 34.89 28.67 36.51 38.44 39.59 38.21 29.37 38.79 43.27 42.86 41.87 43.14 44.99 48.19 51.78
51.82 51.77 51.70 51.21 51.84 54.18 54.81 56.02 55.33 55.47 55.70 54.39 49.41 47.28 41.75 51.00 47.28 49.78 49.64 46.23 48.14 48.51 48.96 48.14 46.68 40.86 40.58 33.61 31.03 32.07 25.64 28.55 32.25 39.44 38.30 36.63 31.83 38.72 42.05 41.90 41.21 42.27 42.89 46.12 49.60
51.44 51.36 51.06 50.87 51.21 52.43 55.35 54.92 54.82 53.45 51.80 51.00 49.42 42.29 44.77 42.57 47.43 48.91 49.83 49.29 46.06 45.63 43.64 42.88 40.52 35.95 35.63 32.35 20.03 25.78 27.76 30.53 30.36 36.20 38.25 35.63 34.12 38.49 41.25 40.97 40.50 41.15 42.40 44.98 47.97
50.99 50.78 50.72 50.48 50.98 51.64 51.77 48.73 43.79 42.55 45.57 42.03 42.32 42.48 43.80 47.15 49.07 46.70 48.62 46.44 45.38 41.91 34.93 38.54 31.07 29.10 31.62 33.53 33.79 32.31 29.89 27.94 31.81 36.59 34.98 34.11 34.52 37.39 40.63 40.91 40.41 41.16 41.55 44.56 47.18
50.24 50.57 50.18 50.45 51.00 52.67 50.50 45.03 44.47 46.04 39.07 45.22 45.24 44.51 46.37 47.25 41.42 44.80 48.85 41.27 39.43 34.43 37.34 33.93 28.40 34.23 36.84 36.41 34.52 32.66 29.74 29.08 32.55 36.20 35.16 34.36 33.46 37.45 39.67 39.70 41.83 45.03 45.05 48.27 49.99
50.29 50.15 49.93 50.25 50.82 50.34 46.01 45.82 49.53 48.04 40.32 41.08 43.11 42.89 43.44 45.56 41.54 41.97 45.28 42.45 37.54 34.43 34.34 30.48 33.54 38.12 35.34 34.29 32.49 31.39 29.80 29.87 30.33 34.26 35.16 34.03 31.37 34.71 38.77 40.52 45.56 46.89 48.04 48.49 48.80
50.03 49.77 49.71 49.35 46.88 47.09 44.49 48.45 49.06 47.60 34.37 34.65 38.53 41.93 43.78 44.59 39.30 47.30 46.87 42.93 38.58 34.00 35.21 33.74 37.11 34.88 34.18 33.53 34.63 29.30 35.93 34.57 33.00 31.20 25.18 34.24 21.13 30.96 35.36 37.10 42.69 44.46 46.02 47.50 49.02
49.50 49.25 48.82 48.52 45.55 43.90 45.78 49.01 48.83 46.05 23.79 36.65 38.28 47.45 44.86 41.02 41.95 42.21 47.96 43.14 36.04 36.25 35.97 32.48 35.47 34.64 32.91 33.01 36.76 34.53 37.83 36.84 34.77 31.96 30.26 30.96 26.80 27.70 36.04 35.30 39.58 43.57 45.69 47.96 50.12
48.94 48.53 47.64 47.61 47.47 48.04 50.09 48.83 46.14 31.73 23.77 34.41 38.83 38.02 37.87 40.63 41.19 42.17 41.91 43.28 40.73 36.94 35.93 34.26 39.61 37.18 35.64 38.80 39.61 41.27 35.67 35.40 34.32 32.50 24.90 30.47 28.59 27.37 32.20 37.07 40.58 44.98 46.82 47.82 50.32
48.72 48.43 46.55 48.22 43.12 50.31 49.16 44.47 31.16 26.03 35.77 32.00 33.98 37.12 37.07 36.43 38.15 38.72 36.77 35.09 33.76 30.17 30.64 35.37 36.26 39.46 39.52 37.01 41.18 39.44 32.41 26.84 23.02 21.90 26.13 33.12 28.00 33.43 37.21 39.99 43.04 44.72 47.52 48.95 49.12
49.64 48.76 47.61 48.15 49.23 50.12 46.42 36.27 26.56 33.43 33.20 38.42 36.76 37.19 34.58 37.32 38.00 38.03 35.78 33.97 36.00 35.05 33.06 30.21 25.26 37.34 41.26 38.51 35.62 36.83 35.87 29.38 21.84 24.38 27.10 33.33 29.71 32.78 40.62 40.42 43.26 47.70 46.58 44.86 44.33
49.28 47.20 46.27 47.81 49.34 49.09 40.21 30.30 29.83 34.12 36.94 35.68 36.53 33.58 33.98 37.38 37.62 37.14 36.26 35.10 37.84 37.10 32.86 30.52 29.50 40.26 40.89 41.01 40.47 35.61 33.53 36.91 32.07 32.47 30.30 32.03 33.21 38.14 42.06 40.82 44.25 44.17 44.23 43.73 43.24
44.62 44.33 43.75 49.26 49.48 44.86 35.81 31.95 34.52 39.48 39.85 38.98 32.51 36.20 31.38 34.08 34.57 35.75 35.27 37.01 36.37 39.97 40.57 36.10 30.61 38.17 39.76 41.88 41.71 37.45 39.30 29.82 31.77 25.15 24.85 29.33 29.23 32.15 36.47 36.64 38.25 38.67 40.26 41.49 42.69
45.49 39.08 45.75 49.32 47.94 39.34 31.85 33.62 37.62 42.35 42.41 38.41 35.57 34.95 35.37 34.38 35.95 35.73 35.19 38.28 39.72 39.99 40.22 38.27 35.50 35.41 38.46 36.61 35.93 35.99 34.43 35.17 34.29 31.81 27.62 24.57 27.82 38.93 37.51 37.41 36.81 38.52 39.77 40.40 41.20
43.30 34.55 45.81 49.22 36.83 37.32 34.74 36.37 41.03 40.77 44.08 41.03 40.27 38.86 36.59 37.21 36.33 35.98 35.19 38.56 42.24 41.73 37.55 40.04 35.87 32.18 34.92 39.51 40.21 38.41 36.00 34.71 25.94 26.90 28.45 26.55 28.59 39.96 39.20 38.90 39.55 38.70 39.27 40.75 41.37
38.79 39.18 46.58 47.02 34.08 35.04 38.58 38.47 39.94 40.54 41.11 40.20 38.30 40.41 40.57 37.43 34.20 37.42 38.51 42.18 42.85 41.49 37.40 38.95 32.89 26.52 29.10 33.86 37.61 36.00 37.66 37.33 36.25 34.36 26.97 24.23 26.00 40.13 39.48 38.62 38.76 37.89 38.68 39.62 40.62
40.97 33.88 40.32 42.79 41.42 38.35 37.17 36.57 37.92 43.12 41.17 42.05 40.78 41.62 39.30 36.98 38.98 36.07 37.47 41.65 41.68 41.44 42.22 40.03 34.72 29.52 23.74 28.15 34.06 31.86 35.52 36.63 34.15 25.84 28.61 28.43 30.28 34.42 36.83 37.18 37.73 37.82 38.62 38.74 39.24
43.45 37.72 40.72 35.43 37.47 39.58 39.52 38.88 37.96 37.30 41.88 42.16 39.60 39.94 38.53 34.97 36.27 35.22 37.65 38.81 41.34 42.24 39.84 38.31 29.89 28.60 32.94 34.91 35.60 34.59 34.86 35.45 32.15 32.78 27.33 31.78 32.46 35.26 37.08 37.37 37.62 38.01 38.78 38.60 38.45
41.56 38.81 41.42 38.74 39.92 39.71 39.19 38.42 38.05 38.99 39.06 38.42 38.09 39.90 39.66 36.19 36.94 35.06 37.93 37.36 35.81 39.71 36.90 39.09 29.86 30.35 27.13 34.61 34.53 30.91 33.91 35.46 35.72 35.60 34.77 35.03 33.22 40.49 41.84 39.67 38.51 37.77 38.77 38.19 38.28
46.15 46.03 42.11 38.56 38.19 37.59 37.42 38.96 39.36 41.12 40.77 41.10 39.97 39.30 37.73 38.32 40.68 41.05 40.27 40.22 37.62 36.20 36.46 35.56 31.71 27.89 25.93 32.41 31.06 25.89 30.35 32.46 34.71 36.11 34.97 31.41 34.19 38.43 38.61 40.32 39.26 37.81 38.64 37.72 37.85

GFSSW_sfc_wetblb_093.txt.gz
Wetbulb
55.59 55.69 56.90 57.13 57.19 57.39 57.93 58.61 59.65 61.07 60.50 59.94 59.19 57.73 56.15 55.26 55.30 52.76 48.94 50.53 51.12 54.51 54.07 51.42 49.76 48.85 47.81 43.58 46.40 46.29 36.13 33.61 36.03 37.38 39.29 44.69 42.64 45.47 47.03 43.75 45.46 47.84 48.57 56.31 63.79
55.10 55.14 55.17 55.74 56.14 56.11 56.39 57.08 58.41 59.94 60.88 59.72 58.11 57.73 56.23 54.64 51.17 48.25 54.60 54.85 55.98 55.45 51.83 48.57 43.87 45.83 40.53 41.13 42.13 39.96 34.54 36.50 41.60 41.25 40.07 42.95 42.30 43.44 43.81 43.71 44.78 46.99 50.12 55.67 63.47
54.00 54.41 54.80 55.57 55.33 54.89 55.73 55.48 57.21 58.73 60.04 59.28 57.86 57.42 55.52 53.91 47.29 46.58 56.38 55.79 55.69 54.38 52.16 48.79 46.53 43.86 37.98 39.31 39.57 38.73 35.59 40.63 42.30 43.93 44.50 42.33 41.26 43.96 42.47 40.90 43.43 43.49 46.29 48.84 54.25
53.57 53.53 54.01 54.12 54.12 54.41 54.45 54.86 55.77 56.85 58.28 58.27 57.65 56.37 54.91 51.14 36.87 51.04 58.57 55.93 55.70 54.75 51.30 46.88 43.73 38.75 36.14 34.69 39.50 34.48 38.83 39.98 41.24 42.52 41.53 39.55 41.49 39.77 42.15 42.56 45.65 45.45 47.30 48.33 49.52
53.37 52.92 52.93 53.08 53.04 53.42 53.47 53.86 55.18 56.63 57.99 58.28 56.48 55.64 51.26 44.41 44.50 56.05 58.27 57.39 54.08 51.67 47.34 43.60 39.30 37.77 33.94 35.29 37.16 34.24 36.96 40.42 41.19 41.08 40.55 41.74 39.70 38.83 39.62 43.01 45.18 46.45 47.69 46.38 48.12
53.12 52.72 52.02 51.96 51.82 52.25 52.84 53.03 54.45 56.17 58.41 57.92 56.48 55.32 47.73 38.78 51.74 55.65 55.51 54.02 50.21 48.49 45.26 44.07 41.00 41.42 36.00 35.72 34.11 35.99 37.21 37.60 39.35 39.19 39.98 38.31 38.31 39.72 40.02 42.76 43.80 44.89 44.68 45.11 46.93
52.81 52.56 52.15 52.05 51.82 52.08 52.93 54.27 54.20 55.36 56.71 57.35 55.73 51.73 46.56 42.57 48.92 49.63 52.04 52.00 50.90 48.74 44.38 46.39 45.12 40.93 39.43 35.79 39.22 37.63 33.14 35.63 36.89 38.05 37.16 39.48 34.47 35.42 40.12 42.53 42.33 43.16 44.14 44.94 46.20
51.90 51.88 51.81 51.72 51.66 52.16 53.28 55.46 54.54 54.92 57.76 57.00 55.80 50.59 41.65 50.85 48.57 48.64 48.32 47.93 50.03 49.04 47.59 47.18 46.57 42.29 38.74 39.02 37.01 33.26 31.89 26.10 34.65 37.26 38.29 36.94 27.84 36.32 40.31 40.33 40.47 41.98 42.99 43.93 44.84
51.35 51.30 51.50 51.34 51.39 51.80 54.98 55.86 56.74 57.38 56.32 55.51 50.15 47.45 40.93 51.83 46.98 49.37 47.76 46.46 47.52 47.42 47.10 47.98 45.13 38.76 38.00 30.27 24.95 28.70 20.80 25.77 30.37 38.05 37.65 35.11 30.56 37.09 40.18 39.92 39.38 40.78 41.11 42.78 43.69
51.03 51.19 50.90 50.88 50.91 51.80 54.07 55.83 56.34 54.69 52.71 51.46 49.49 41.83 44.35 42.40 47.03 47.61 47.46 48.41 45.51 44.72 43.45 42.10 38.21 29.83 31.01 25.03 13.57 21.29 22.71 27.62 27.46 33.93 35.12 33.13 32.58 37.75 39.08 38.36 37.91 39.18 38.96 40.33 42.26
50.33 50.48 50.71 50.29 50.84 51.34 51.08 48.23 43.28 39.64 45.68 41.81 41.69 42.22 43.66 46.74 48.65 45.89 47.66 45.86 45.34 41.99 32.40 38.54 25.85 24.90 27.87 30.79 31.62 30.28 27.93 27.10 31.08 35.43 33.32 31.59 32.11 35.66 39.12 39.33 38.28 37.30 38.50 39.78 41.03
49.70 50.26 49.99 50.33 50.55 52.26 49.23 43.99 44.48 44.99 38.41 45.06 44.75 43.82 45.45 46.56 41.14 44.08 47.68 39.92 39.22 33.88 36.82 31.08 25.59 32.21 34.97 34.52 32.52 30.70 28.11 28.00 31.89 35.74 34.70 32.68 31.69 35.68 38.41 38.59 39.41 39.06 38.47 40.45 41.69
49.92 49.97 49.89 49.97 50.50 48.94 45.78 45.07 49.08 47.27 37.86 40.67 43.83 42.82 43.65 45.66 41.12 41.07 44.33 42.45 37.64 34.50 34.07 30.48 31.28 36.55 34.35 31.85 29.89 29.41 27.17 29.14 29.77 33.61 35.17 32.98 29.55 31.95 36.72 39.44 40.54 41.24 44.75 46.36 47.93
49.88 49.84 49.47 49.70 45.36 46.80 44.19 48.56 49.25 47.20 32.92 35.17 38.39 41.89 43.94 44.52 39.34 46.68 45.99 43.06 38.94 33.76 35.29 33.05 35.93 34.15 32.42 31.24 33.29 29.25 35.05 34.77 34.69 32.92 21.76 32.49 19.74 28.13 32.29 35.10 37.48 40.99 45.57 45.27 47.01
49.30 48.69 48.44 48.91 44.26 43.35 44.95 48.89 49.24 44.65 19.55 35.96 38.11 47.11 43.96 40.62 41.15 42.15 47.29 43.43 35.94 35.77 35.31 29.20 34.06 33.02 32.24 32.00 35.48 32.99 38.20 36.60 35.73 31.53 29.69 27.80 26.51 26.04 31.06 31.45 34.14 39.00 44.08 46.76 46.55
48.62 48.29 48.03 46.24 46.12 46.90 49.79 48.97 46.05 30.00 20.84 33.97 38.57 36.88 37.25 40.58 40.63 42.31 41.89 43.12 41.14 36.10 35.98 34.38 38.27 36.10 34.65 36.82 36.78 38.48 35.22 34.14 33.61 31.94 20.75 28.70 23.16 24.39 29.32 33.24 35.90 40.25 44.37 46.79 46.43
48.14 48.07 46.17 47.67 41.93 47.86 48.69 43.51 29.20 19.39 36.22 30.94 34.19 37.02 35.97 36.80 37.29 38.33 36.32 34.82 32.48 27.74 24.32 32.87 34.36 37.73 38.21 33.83 38.58 38.02 33.65 25.35 22.64 21.84 20.98 32.35 26.78 28.68 36.62 39.84 40.38 42.39 46.60 45.66 44.58
49.48 48.31 48.22 47.80 47.25 47.46 43.50 34.68 20.00 33.11 31.75 37.38 35.66 35.68 34.40 36.89 36.99 37.81 35.69 32.16 35.95 33.15 30.91 26.62 21.25 35.99 40.32 36.78 34.03 35.70 34.26 29.08 21.72 24.10 26.69 32.13 28.04 32.56 39.92 44.37 45.51 45.47 44.99 44.35 44.38
48.94 43.00 42.62 46.12 48.21 46.18 36.84 26.58 28.79 33.18 36.12 34.64 36.22 33.46 33.23 36.39 37.08 35.81 34.41 33.73 37.39 34.90 31.21 29.73 26.67 39.26 40.41 40.21 40.00 35.62 33.44 36.85 31.57 32.32 26.46 29.77 32.66 37.19 38.56 38.55 42.73 42.93 42.54 42.28 43.02
40.86 42.39 42.44 47.61 46.74 41.13 34.42 31.82 34.76 37.85 38.96 37.50 30.28 33.52 28.20 31.82 33.15 33.58 33.95 36.69 36.29 39.58 40.28 35.76 29.28 37.37 39.18 40.87 40.52 37.90 39.36 27.73 29.32 24.01 25.02 28.25 29.25 30.87 33.14 33.46 38.04 38.66 39.98 41.32 42.79
42.53 39.82 44.62 47.75 44.48 37.70 31.48 33.71 37.25 41.57 41.40 37.66 32.89 33.84 32.18 32.22 33.85 35.01 33.47 36.52 39.35 39.56 39.84 37.55 34.85 33.59 38.05 35.16 34.37 34.46 33.19 33.43 31.76 28.95 25.20 22.23 27.56 36.05 33.87 35.94 36.98 38.82 39.84 39.84 40.55
41.06 34.41 44.34 45.50 31.95 37.69 33.36 36.98 40.17 39.69 42.04 39.23 37.99 36.62 33.60 35.33 35.87 35.20 34.79 37.23 40.98 41.37 36.55 38.87 34.47 29.61 33.51 38.50 39.10 35.77 34.17 31.86 24.77 24.92 25.73 26.23 28.64 38.80 38.61 39.02 39.01 39.06 40.27 40.76 40.90
38.70 39.29 43.86 42.65 32.98 34.72 38.20 37.14 40.19 39.37 38.87 38.33 36.95 38.63 38.00 34.60 32.23 34.04 35.81 41.04 41.73 39.42 35.91 36.50 30.07 21.47 25.60 30.75 35.08 34.00 35.99 35.16 33.50 30.00 25.15 22.38 26.41 39.34 38.62 38.51 39.23 38.60 39.84 40.61 40.90
35.77 27.85 34.88 38.24 36.39 35.58 34.20 34.08 36.08 41.12 39.38 40.44 38.69 39.07 36.41 34.15 36.24 33.88 35.07 40.12 40.65 40.29 43.33 39.30 32.15 27.00 21.36 27.32 31.94 30.38 33.31 34.86 30.73 23.10 26.07 25.84 27.80 31.78 34.17 35.26 37.31 37.23 37.35 36.73 37.19
36.98 31.22 34.56 27.62 33.13 34.40 35.92 35.90 35.65 35.44 39.38 39.93 37.43 37.53 35.56 32.25 33.14 32.51 35.40 36.33 39.43 42.53 38.22 36.76 27.85 26.49 31.23 33.44 33.38 32.11 31.67 33.53 30.64 30.39 25.64 29.45 30.19 32.95 34.68 34.29 34.38 35.34 36.51 36.90 36.86
35.44 34.01 36.60 34.59 35.75 34.83 36.22 35.41 36.10 36.81 36.88 36.03 35.41 37.46 37.08 34.17 34.24 32.86 35.74 34.65 33.27 37.27 35.50 36.48 26.94 28.73 25.54 32.84 32.48 28.61 30.84 32.70 33.73 33.71 32.53 32.28 31.45 36.64 36.34 35.74 35.04 35.11 36.34 35.91 36.27
41.10 40.67 36.83 34.95 33.20 32.74 33.86 35.79 37.65 38.36 38.36 39.24 37.55 36.33 35.45 36.41 37.54 37.38 36.84 38.11 36.61 34.20 34.02 33.57 28.86 24.15 23.31 30.65 29.14 24.79 27.98 30.15 32.44 33.95 33.12 29.55 32.60 36.68 36.59 37.83 35.96 35.51 36.34 35.79 36.14

GFSSW_sfc_wetblb_096.txt.gz
Wetbulb
54.58 55.42 55.67 55.74 56.17 56.69 56.69 57.13 57.83 59.88 61.30 60.63 59.93 58.59 56.41 55.21 54.83 52.07 48.16 51.36 51.24 54.15 53.37 50.58 48.70 47.81 46.04 42.35 44.83 44.84 35.32 32.11 34.84 36.21 37.99 42.28 40.25 43.27 45.48 42.82 44.89 45.98 44.97 47.94 55.04
54.18 54.40 54.78 55.33 55.57 55.38 55.61 56.10 56.40 58.10 59.32 60.93 60.15 59.23 56.97 55.16 50.61 47.64 53.85 56.01 56.16 54.98 50.47 46.46 42.03 43.85 39.41 39.82 40.93 39.12 33.64 35.29 40.21 39.37 38.56 41.70 40.58 40.58 40.77 40.88 42.50 44.16 47.13 48.73 51.49
54.11 53.91 53.71 54.28 54.55 54.55 54.88 54.82 55.32 56.39 57.75 59.96 59.28 58.62 56.57 53.80 46.92 45.81 57.06 56.33 55.52 53.91 51.16 47.58 45.34 42.82 37.01 37.88 37.62 37.49 34.41 39.24 40.87 42.50 43.05 39.95 39.46 40.77 38.88 38.02 41.48 41.41 43.77 46.17 48.18
53.87 53.51 53.10 53.21 53.23 53.55 53.86 53.97 54.21 55.51 56.77 59.63 58.76 57.76 55.62 50.82 36.45 49.86 57.60 56.43 55.68 53.66 50.00 45.53 42.46 37.60 34.45 33.27 37.75 32.75 37.69 38.35 39.71 41.42 40.06 37.91 40.54 38.13 39.28 39.32 43.62 43.61 44.96 45.92 45.30
53.45 53.59 52.94 52.06 52.25 52.22 52.59 53.22 53.67 54.50 56.25 58.34 58.42 56.37 51.18 43.92 43.83 54.96 57.19 57.04 52.66 50.13 45.54 42.39 38.20 36.41 33.03 33.80 35.92 32.90 34.82 37.72 38.84 39.04 38.52 39.48 37.72 37.59 38.64 41.78 42.56 43.23 44.89 43.89 44.39
52.77 52.86 52.74 52.54 52.17 52.11 52.04 52.51 53.48 54.04 55.71 58.30 57.00 55.36 48.28 39.37 51.58 55.52 54.23 51.56 49.19 47.03 44.11 43.25 39.99 39.91 34.81 34.11 32.77 34.47 36.37 36.58 38.21 37.92 38.55 36.91 36.90 37.51 38.20 41.55 42.35 43.27 43.13 42.65 43.62
52.42 52.09 52.02 52.01 52.00 51.93 52.75 53.47 54.02 54.33 55.21 58.99 56.63 51.54 46.56 42.55 52.32 53.95 53.73 50.56 49.26 47.18 43.65 45.32 43.98 40.06 38.02 34.55 38.09 36.70 32.17 34.36 35.53 36.80 35.98 38.28 33.27 34.00 38.87 40.29 40.04 41.10 42.25 43.66 43.59
51.70 51.60 51.86 51.74 51.73 51.86 52.28 53.00 55.55 54.51 54.94 57.66 56.14 50.57 42.04 50.03 47.38 47.35 48.07 47.76 48.53 48.57 46.67 46.36 45.85 41.17 37.60 37.65 35.75 31.97 30.38 25.66 32.99 36.15 37.31 35.77 26.89 35.12 39.04 38.01 37.41 39.04 40.51 41.83 43.29
50.92 51.36 51.32 51.30 51.11 51.72 54.91 55.35 55.83 55.01 56.70 55.80 50.21 47.61 40.07 52.05 45.51 47.20 47.39 45.93 46.43 46.70 46.29 47.95 44.31 37.54 36.92 28.57 22.56 26.44 20.07 24.13 28.75 36.70 36.22 33.92 29.18 35.97 38.78 38.49 37.19 38.28 39.26 40.76 42.43
50.44 50.58 50.83 50.71 50.74 51.97 50.21 56.73 55.91 55.36 52.68 52.03 49.64 42.84 44.22 42.24 46.32 47.81 47.02 48.02 44.92 44.16 42.94 41.02 36.33 27.91 29.07 21.68 11.69 20.46 21.12 25.57 26.54 32.31 34.21 32.35 31.70 36.02 37.93 37.85 35.60 36.56 37.74 38.15 39.92
49.75 50.41 50.30 50.41 50.68 51.21 48.31 48.79 43.83 42.32 46.19 42.53 41.98 41.94 43.49 46.59 47.87 45.10 47.56 45.76 45.00 40.06 30.92 35.58 25.17 23.04 25.96 29.58 29.52 28.37 26.19 25.26 29.88 34.24 32.79 31.49 31.89 34.40 37.38 37.19 37.17 36.06 36.59 37.41 38.75
50.00 50.09 50.08 50.25 50.75 50.13 48.94 42.62 43.90 43.69 38.83 45.09 44.19 43.69 45.66 46.62 40.48 43.59 47.45 39.54 37.77 31.96 34.73 29.15 22.06 30.87 33.60 32.94 31.13 29.53 27.81 27.44 30.99 34.48 33.62 32.54 31.87 35.15 37.13 37.09 38.16 38.22 37.07 36.52 38.69
49.81 49.90 49.84 49.79 50.84 48.66 45.78 45.00 49.16 47.95 37.99 40.36 43.64 42.22 43.23 44.95 40.39 40.49 43.61 41.67 37.41 34.41 34.20 30.16 30.50 35.65 33.50 31.00 28.66 26.17 23.76 27.23 27.42 33.19 35.82 33.58 29.65 31.09 35.44 37.45 38.79 40.00 40.20 39.50 39.87
49.31 49.45 49.25 49.80 45.42 46.54 43.89 48.36 49.42 47.83 32.76 33.94 38.44 41.80 43.82 43.92 39.89 46.25 45.81 42.46 38.83 33.74 35.61 31.54 35.12 33.27 31.44 30.20 30.50 27.32 33.30 33.13 32.74 32.48 25.90 31.95 20.43 27.88 30.16 33.39 36.07 37.47 38.56 39.57 43.83
49.30 48.96 49.61 48.94 43.77 42.33 45.17 48.79 49.30 45.28 20.36 36.60 38.55 46.60 43.47 40.63 40.82 41.79 46.52 43.43 35.97 35.92 35.32 28.75 32.55 32.02 31.13 30.29 33.98 30.17 36.94 35.04 36.06 32.60 29.50 28.64 24.59 24.96 30.43 30.12 33.70 34.90 37.73 42.96 45.38
48.19 48.89 48.50 45.30 44.97 46.98 49.16 48.83 45.42 27.49 21.25 33.65 37.86 37.11 37.87 40.67 40.18 42.25 41.98 43.13 40.55 35.53 35.82 33.33 37.29 34.98 33.67 35.98 36.23 37.53 34.58 35.14 34.49 32.32 18.08 27.11 22.96 22.95 30.33 35.38 37.53 38.88 44.53 45.73 46.36
49.03 49.05 47.11 47.44 41.24 47.53 47.38 41.00 25.98 21.52 36.48 30.45 33.72 36.52 35.91 36.25 36.50 38.23 36.43 35.04 32.08 24.51 25.51 31.05 33.20 36.38 37.41 32.97 37.31 35.32 32.56 23.51 16.60 22.22 20.33 32.35 22.77 23.41 36.64 40.62 40.81 40.60 43.95 44.78 45.04
49.44 48.49 47.41 46.94 46.74 46.83 42.31 31.41 21.54 31.46 31.35 36.71 34.89 35.53 33.52 36.24 36.68 37.13 35.42 32.60 36.44 33.43 30.15 27.76 21.11 34.60 38.16 35.12 34.11 34.47 34.46 27.96 20.66 23.36 25.17 31.91 25.61 32.16 38.83 41.82 43.33 44.18 43.66 43.94 44.35
47.88 41.79 41.86 45.96 46.92 43.57 34.26 27.60 28.41 30.06 34.49 33.78 35.67 32.31 32.26 36.04 35.86 35.68 34.44 34.09 36.18 34.65 29.67 30.23 23.53 37.07 39.04 39.53 38.70 35.55 33.38 37.53 30.80 32.13 22.23 28.57 32.84 36.51 38.10 37.62 41.02 41.72 41.99 42.21 43.10
40.31 39.92 42.20 46.49 46.06 39.57 33.38 32.56 33.16 37.31 37.54 36.52 28.99 32.27 27.91 31.85 33.75 34.07 33.71 35.62 35.98 37.79 39.15 34.99 30.69 35.56 38.38 40.46 39.84 37.98 39.11 30.38 29.81 20.23 24.00 28.23 29.20 29.52 32.61 32.90 38.57 38.99 40.09 41.65 42.82
40.50 35.56 42.27 46.10 43.59 37.09 31.23 32.42 35.30 40.55 40.01 36.35 31.63 30.92 30.75 31.01 32.41 32.27 31.81 35.75 38.86 39.46 39.53 36.03 34.10 31.26 36.86 33.54 32.62 33.97 32.57 32.94 32.48 29.99 25.01 22.41 27.83 34.86 33.36 34.34 36.10 38.84 39.76 40.48 41.43
38.66 29.27 42.24 44.42 33.68 34.52 29.00 36.80 39.96 38.89 41.02 38.30 36.78 35.10 32.31 32.85 33.13 32.98 31.33 35.61 40.23 40.06 35.08 38.20 33.79 28.71 31.16 36.55 38.29 35.36 33.07 30.95 24.44 25.14 25.50 24.57 28.85 38.25 37.54 37.80 38.66 39.60 40.11 40.50 40.85
35.10 34.84 42.28 41.15 27.98 29.99 35.08 35.93 38.53 37.90 37.43 37.33 36.34 37.54 36.67 33.42 30.71 32.95 34.85 39.32 40.61 38.43 34.67 35.42 28.58 20.26 23.89 29.61 33.73 32.21 33.95 33.75 31.38 28.19 24.09 22.02 27.49 39.36 38.81 38.99 39.85 39.04 38.81 39.86 40.71
34.07 28.38 34.62 37.03 35.21 31.07 32.53 33.61 35.25 39.93 38.26 39.12 37.44 37.96 35.74 33.57 34.76 32.62 33.73 38.91 39.61 39.25 43.58 39.16 31.12 26.62 20.81 26.66 30.56 29.88 31.38 33.23 29.05 22.39 25.12 24.87 26.14 31.34 33.48 36.04 37.18 37.64 38.20 37.69 37.27
35.07 30.88 34.34 27.18 32.73 33.26 33.63 34.97 34.50 34.44 38.48 38.50 36.48 36.46 34.19 31.13 31.66 31.50 34.51 35.42 38.17 41.83 37.64 35.88 27.65 26.08 29.54 31.60 31.80 30.60 29.47 31.36 29.31 28.57 24.34 28.54 28.97 32.15 33.54 33.19 33.70 34.24 34.97 35.58 35.05
35.03 33.57 34.87 33.30 33.89 32.60 35.03 34.71 35.14 35.77 35.63 34.90 34.65 36.32 36.03 33.10 33.29 31.78 33.41 32.89 32.16 35.36 33.82 34.85 26.35 28.16 24.27 31.41 30.72 29.69 29.82 30.94 31.89 32.15 30.95 30.73 29.36 34.87 34.32 33.09 32.88 33.53 34.69 34.62 34.86
39.42 38.84 36.21 33.70 31.87 31.26 32.93 35.04 36.37 36.85 37.37 37.95 36.46 34.99 33.87 35.39 36.91 36.84 36.46 35.95 35.04 32.80 32.89 32.22 28.09 22.95 21.04 28.02 28.71 24.77 27.78 28.72 30.87 32.39 31.69 28.31 31.91 34.67 33.53 35.02 34.41 33.81 34.96 34.63 34.59

GFSSW_sfc_wetblb_099.txt.gz
Wetbulb
54.78 54.36 54.51 55.06 55.92 56.11 55.80 56.77 57.07 58.17 60.07 61.34 60.39 58.89 56.79 55.42 54.61 51.02 46.67 49.51 51.99 54.45 53.86 50.01 46.85 45.72 44.88 41.60 44.27 43.71 34.89 30.53 33.33 35.13 36.82 40.52 39.44 42.33 43.63 40.43 42.06 43.92 42.99 46.20 48.11
54.90 54.60 53.95 53.62 54.37 55.24 55.25 55.48 55.84 56.63 58.05 59.11 60.82 59.39 57.08 55.20 49.62 46.53 53.13 56.24 56.05 55.92 48.96 44.51 40.64 43.17 38.61 38.84 40.29 38.68 32.90 34.16 38.81 38.46 37.35 40.48 38.25 38.48 38.15 38.05 39.22 43.02 45.88 46.70 47.83
54.77 54.19 53.81 53.02 52.77 53.37 54.42 54.60 54.67 55.05 56.81 58.13 60.48 59.86 57.00 53.24 46.22 44.85 56.66 55.86 55.81 54.03 50.09 46.13 44.15 41.78 36.42 36.77 36.47 37.04 33.94 37.76 39.81 41.18 41.21 38.90 37.68 39.53 36.66 35.43 39.49 39.20 42.56 44.06 45.71
54.11 53.91 53.57 53.25 52.06 52.51 52.07 53.41 54.01 54.42 55.32 57.30 59.92 58.46 55.86 50.16 36.25 48.63 57.00 56.26 55.79 52.73 48.43 44.20 41.41 36.36 33.36 32.24 36.19 31.56 36.08 36.89 38.26 39.55 37.91 36.19 38.80 36.99 37.98 36.97 41.36 41.17 42.80 43.59 43.83
53.11 53.49 53.01 52.24 52.17 51.98 51.77 52.04 52.90 53.55 54.73 57.08 59.72 57.06 51.40 44.30 43.77 53.89 57.24 56.42 50.89 48.05 44.10 41.15 37.57 35.50 32.68 32.49 34.80 31.76 33.57 36.96 37.85 38.16 37.36 38.10 36.12 36.03 36.80 39.63 41.54 41.67 43.28 42.40 43.13
52.44 52.35 52.16 52.14 52.04 52.15 52.01 51.99 52.77 52.99 54.34 56.20 57.37 54.44 48.39 39.30 50.29 54.16 51.55 49.39 47.90 45.77 43.30 42.67 39.08 38.59 34.67 33.07 31.84 33.68 35.47 35.58 37.07 36.86 37.37 35.77 35.92 36.13 36.42 39.33 40.58 41.12 41.12 41.44 42.06
51.88 51.97 51.98 51.61 51.95 52.19 52.13 52.86 53.63 54.15 54.48 55.66 57.12 52.55 45.93 44.59 52.87 53.11 51.90 48.46 47.88 46.21 42.75 44.27 42.87 39.33 36.69 33.02 37.07 35.77 31.37 33.18 34.34 35.50 34.88 37.07 32.20 32.59 37.93 38.23 37.65 38.73 40.03 41.13 42.03
50.95 51.24 51.16 51.66 51.55 51.48 51.82 53.24 54.06 53.67 54.30 55.53 55.69 51.13 41.63 50.10 49.44 50.87 49.02 46.83 47.95 47.65 45.73 45.55 44.70 40.34 36.58 36.32 33.68 30.68 29.31 24.88 31.56 34.87 36.23 34.80 27.26 33.84 38.03 36.80 36.27 37.85 39.16 40.02 40.62
50.57 50.58 50.98 51.13 50.79 51.27 52.14 54.11 55.84 54.76 55.01 56.44 50.81 47.75 39.22 50.61 44.70 46.19 47.91 44.98 45.73 45.84 45.95 47.34 43.12 36.43 35.73 26.41 21.68 25.22 19.42 23.19 27.81 35.41 34.68 33.07 28.70 35.05 37.66 37.51 36.76 38.17 37.99 38.50 39.25
49.99 50.03 50.71 50.60 50.78 51.76 51.95 55.69 55.71 54.73 53.33 52.05 49.89 42.73 43.82 41.62 45.86 46.20 47.32 47.45 44.09 43.14 41.63 39.80 34.59 27.55 27.69 21.25 12.65 19.05 19.88 24.80 25.05 31.26 33.39 31.15 30.69 35.49 38.23 37.55 36.37 36.41 36.71 35.84 37.39
50.22 50.34 50.18 51.11 50.58 51.64 49.48 48.90 44.84 43.40 46.75 43.02 42.62 41.90 43.05 46.52 47.29 44.32 46.96 45.32 43.52 38.93 32.09 34.03 25.21 19.62 25.56 28.21 26.91 25.56 24.48 24.19 28.77 33.36 31.40 30.42 30.90 33.92 37.21 37.38 36.39 36.41 36.04 37.59 37.69
49.91 50.14 50.09 50.54 51.21 50.64 48.43 43.03 43.63 45.33 37.86 44.68 44.46 44.00 45.80 46.12 39.71 42.74 46.72 38.68 36.72 30.88 32.98 27.99 20.83 30.19 32.65 31.68 29.48 27.64 25.20 26.06 29.92 33.66 33.89 32.46 32.13 35.76 37.60 37.20 37.90 37.40 36.46 36.76 37.03
50.17 49.65 49.72 50.29 49.85 48.52 45.34 45.43 49.05 47.84 37.00 40.08 43.61 42.49 43.50 44.04 39.47 39.53 42.90 40.47 35.90 31.89 30.93 26.51 30.08 34.70 32.68 30.06 28.02 26.28 24.10 25.79 26.48 33.54 35.96 33.02 28.87 29.32 33.74 35.27 37.23 38.77 38.67 37.95 37.97
49.42 49.55 50.44 51.26 45.71 46.77 43.92 48.20 49.32 48.08 32.58 33.50 37.90 41.15 43.12 43.62 38.86 45.27 44.64 41.17 37.54 31.64 33.87 29.60 34.04 32.37 30.44 29.27 29.20 24.89 31.25 30.80 30.75 32.58 28.19 33.74 22.28 26.79 29.62 31.51 36.53 35.90 36.54 37.74 38.49
49.68 49.84 50.41 48.67 43.98 42.76 45.81 49.14 49.29 45.59 18.16 36.13 38.13 45.77 43.28 39.77 39.96 41.45 46.60 43.31 36.08 35.76 32.78 27.94 31.05 31.02 30.31 29.35 32.41 28.88 35.22 33.38 33.83 33.09 31.48 28.76 23.46 24.45 33.17 34.23 37.74 38.00 34.90 39.12 44.59
50.34 50.57 49.04 45.91 46.19 47.76 48.78 48.97 45.53 26.17 16.66 33.83 37.26 35.80 37.28 39.46 39.64 42.32 42.01 43.39 41.42 35.69 35.82 31.95 36.32 34.41 33.05 35.15 35.04 36.26 32.43 33.59 33.60 31.10 18.02 25.94 25.36 24.07 32.17 36.27 39.19 41.64 41.85 44.11 45.11
50.29 50.21 47.62 46.82 41.61 47.70 47.63 41.89 25.57 22.59 34.42 30.32 32.71 35.21 35.80 35.46 35.86 38.33 36.05 34.87 32.18 20.93 21.75 29.45 31.90 35.24 36.39 31.79 35.77 34.16 32.21 20.91 18.17 15.94 19.08 31.16 25.53 24.27 36.59 38.86 41.24 42.09 42.62 44.06 45.48
49.37 47.75 46.61 47.28 46.52 45.29 40.77 31.50 20.78 30.49 31.52 35.83 34.34 36.21 33.28 36.23 35.98 36.17 35.44 33.05 35.37 33.55 30.23 20.37 20.19 33.32 36.88 34.22 31.84 32.52 34.88 27.50 20.12 16.69 24.45 30.78 23.17 31.22 38.10 39.99 42.59 43.14 43.65 43.85 44.11
47.65 41.46 41.80 44.13 46.22 42.18 34.85 26.19 27.61 31.46 33.99 32.73 35.87 31.21 32.20 35.95 35.63 34.26 34.01 33.63 35.97 35.10 29.15 28.15 23.12 35.63 37.35 38.09 37.20 33.65 32.16 37.85 31.31 29.38 27.19 27.75 32.46 37.77 37.04 36.87 40.56 41.10 41.81 41.97 42.83
39.78 38.88 39.90 45.03 44.40 38.89 31.79 32.11 31.86 36.29 36.34 35.64 28.65 31.40 27.67 31.82 33.43 33.47 31.50 35.93 35.81 37.71 38.56 34.37 27.93 34.00 37.15 39.35 38.09 35.94 38.39 30.29 29.71 22.64 22.46 27.86 29.14 28.91 32.25 33.13 37.77 38.60 39.74 41.01 41.58
39.36 35.45 41.10 44.85 42.38 36.52 29.28 31.20 35.10 39.40 38.43 34.67 30.93 30.04 29.76 30.20 31.48 31.33 30.91 35.15 37.71 39.21 38.51 36.94 33.81 30.89 34.30 33.00 31.53 32.68 31.30 32.66 31.32 28.94 25.30 22.84 27.83 35.12 33.39 34.36 35.86 38.24 39.48 40.06 40.54
36.86 31.13 42.11 43.41 34.17 31.41 30.71 34.40 39.83 37.83 40.18 37.82 35.59 33.76 31.58 32.09 31.97 31.35 31.03 34.44 39.07 39.03 34.47 36.87 33.39 29.22 29.79 35.33 35.25 34.36 31.88 30.25 22.53 23.22 25.44 26.06 29.53 39.30 37.68 37.83 37.67 37.36 38.34 40.37 40.66
33.89 33.58 41.15 40.60 28.35 26.93 33.88 35.34 37.47 37.07 36.64 36.32 35.18 36.50 35.65 32.79 29.69 32.56 34.07 38.33 39.71 37.89 33.88 34.98 27.66 19.34 23.46 28.23 32.29 30.51 32.34 32.13 30.39 26.86 23.80 22.65 27.09 38.29 39.28 38.84 39.04 37.51 39.13 39.99 40.57
33.88 30.00 35.87 36.48 34.34 30.62 31.71 32.68 34.54 38.85 36.94 37.67 36.21 36.48 34.28 32.47 34.14 31.39 32.86 37.79 39.25 38.70 43.42 38.79 29.92 26.05 19.87 25.56 29.28 28.72 30.86 30.30 27.98 20.39 24.44 24.65 25.26 30.35 33.58 36.41 37.70 38.36 38.44 37.65 37.53
34.25 30.80 33.23 27.44 32.20 32.01 32.53 33.55 33.61 33.73 37.17 37.56 34.82 35.41 33.42 29.59 30.72 30.13 33.34 34.37 37.01 41.05 37.04 34.95 27.55 25.51 28.55 29.85 29.94 29.90 30.04 29.09 27.93 27.33 22.88 27.15 27.41 30.93 32.98 33.30 33.96 34.87 34.48 34.18 34.17
34.78 33.50 33.51 31.58 32.57 32.23 34.36 33.61 34.50 35.20 34.90 34.22 33.80 35.37 34.99 31.15 31.21 29.66 32.41 31.22 30.65 33.91 32.70 33.84 26.05 27.65 23.97 30.55 29.85 28.55 30.10 29.41 30.74 30.50 28.90 28.93 28.86 34.17 33.46 32.94 32.39 32.90 33.65 33.75 34.08
38.02 37.63 35.65 32.99 31.23 30.58 31.80 34.01 35.28 36.03 36.25 36.82 35.42 34.23 32.73 34.59 35.71 36.31 36.00 35.18 34.02 31.46 31.91 30.95 27.25 22.65 20.92 26.58 27.64 24.37 27.68 29.05 30.58 31.80 31.10 27.91 31.40 33.72 33.53 34.26 33.75 33.04 33.76 34.03 34.36

GFSSW_sfc_wetblb_102.txt.gz
Wetbulb
55.33 54.77 54.51 53.81 54.49 55.50 55.80 55.99 56.21 56.85 57.76 59.45 61.44 59.43 57.24 55.81 54.38 50.07 45.57 48.44 51.25 54.39 54.16 47.77 45.29 44.65 44.31 41.74 44.24 43.27 34.23 30.28 32.79 34.34 35.88 39.64 38.79 41.83 41.56 38.91 39.63 42.17 41.93 44.76 46.67
54.54 55.15 54.07 53.66 53.29 52.69 54.61 55.38 55.39 55.67 56.41 57.95 59.54 59.52 57.18 55.27 48.45 45.27 52.94 56.49 56.32 55.96 46.87 43.11 40.63 41.99 37.83 38.09 39.92 38.17 31.43 32.29 37.99 37.78 36.80 39.42 37.38 37.39 37.46 37.22 36.66 40.69 44.56 44.90 45.08
53.80 54.45 54.28 53.28 53.00 52.60 52.17 53.32 54.10 54.77 55.44 56.23 58.28 59.35 56.93 52.91 45.06 44.13 56.78 56.32 56.01 54.02 48.48 44.58 43.30 40.94 35.45 35.96 35.39 36.95 33.19 37.00 38.50 40.34 38.68 37.30 36.09 38.16 35.18 33.56 37.20 37.64 40.83 42.32 43.22
53.09 53.56 52.87 53.28 52.40 51.62 51.84 52.22 53.24 53.26 54.11 56.15 59.12 58.33 55.54 50.36 36.07 47.86 56.91 55.85 55.79 51.08 47.16 43.02 40.54 35.31 32.38 31.72 35.10 30.45 34.93 35.58 36.76 37.81 36.63 34.77 37.15 35.28 36.40 35.79 40.82 40.31 40.93 41.32 41.89
52.66 52.76 51.40 51.78 52.50 51.39 51.60 51.62 51.84 52.64 53.12 54.80 58.25 55.10 51.21 44.51 43.88 52.94 57.29 54.80 48.98 46.92 43.18 40.49 36.70 34.83 31.40 31.73 33.53 30.80 32.56 36.10 37.15 37.19 36.45 37.09 34.96 34.35 34.75 39.31 40.42 40.28 41.33 40.40 41.42
52.22 52.01 51.24 50.92 51.53 51.50 51.72 51.99 52.07 52.37 51.48 54.64 57.37 54.78 48.56 40.52 51.28 51.60 49.74 47.79 46.81 45.14 42.77 41.67 37.62 37.47 34.08 32.56 31.13 32.72 34.67 34.76 36.00 35.79 36.30 34.70 34.21 34.83 34.67 37.98 38.68 39.58 39.83 39.15 40.24
51.25 51.37 51.29 51.03 51.00 51.38 51.62 51.96 52.80 52.93 52.94 54.28 55.10 53.05 47.04 45.20 52.50 50.94 50.01 46.64 46.63 45.53 41.98 43.35 41.78 38.36 35.32 32.02 35.65 34.32 30.17 31.73 32.22 34.06 33.77 35.70 30.58 31.49 36.51 37.17 36.54 37.50 38.71 39.14 39.73
50.89 51.02 50.76 51.09 50.87 50.69 51.20 51.95 52.65 52.93 52.93 53.84 55.61 51.80 42.77 50.58 51.42 48.28 47.63 45.79 46.95 46.74 44.99 44.56 43.69 39.54 35.76 34.93 31.31 29.20 27.84 24.25 30.53 33.69 35.27 33.63 26.78 32.52 36.09 35.53 36.10 36.97 38.14 38.72 39.50
50.44 50.42 50.33 50.46 50.79 51.47 52.13 53.83 53.43 53.45 53.44 54.84 50.55 47.23 42.21 50.44 45.88 46.25 47.67 44.22 45.19 45.61 45.59 46.24 41.91 35.32 33.94 25.13 21.58 24.21 18.98 22.61 27.41 34.34 33.70 31.52 28.10 33.88 37.02 36.55 35.50 37.47 38.46 39.59 40.53
50.69 50.61 50.74 51.36 50.83 51.08 53.08 55.73 55.63 54.17 53.08 52.20 49.61 42.11 42.96 40.93 45.54 45.91 47.37 47.24 43.79 42.45 41.00 37.98 33.34 27.49 26.99 21.07 13.11 18.81 19.07 24.20 24.46 30.60 32.28 30.37 30.23 35.06 37.67 37.10 36.53 37.63 38.58 38.56 38.07
50.49 50.38 50.80 51.01 51.03 51.01 49.16 49.39 44.73 43.69 46.29 42.32 43.11 41.19 42.83 45.78 47.34 44.77 47.25 44.66 43.15 37.89 31.47 33.00 25.31 19.40 24.50 25.91 25.90 24.47 21.95 22.36 27.46 32.44 30.44 29.65 30.32 33.35 36.90 37.03 36.66 37.45 37.98 37.64 37.88
50.18 49.96 50.88 51.01 51.01 50.96 48.37 43.61 44.00 44.90 37.44 44.79 44.11 43.55 45.56 45.70 39.68 42.81 46.68 38.28 36.57 30.54 31.76 27.94 21.29 29.13 32.11 30.78 28.53 26.45 23.28 23.66 28.26 32.45 32.68 31.90 32.16 35.51 37.37 36.51 36.74 36.49 36.90 36.93 36.53
50.05 50.75 50.22 50.18 50.03 47.85 45.96 45.79 49.17 47.70 36.85 39.99 43.13 42.36 43.14 43.94 39.01 39.37 42.59 39.67 34.14 30.95 29.82 25.99 29.25 33.80 31.79 29.06 26.64 23.91 22.08 23.80 24.74 32.22 34.88 33.47 29.96 29.91 33.03 34.43 36.02 39.20 37.85 37.16 36.59
50.40 51.08 50.33 50.19 46.05 46.32 44.00 48.61 49.45 48.08 31.66 33.39 38.82 41.51 43.08 43.12 38.44 44.41 44.05 40.06 35.67 30.47 32.06 28.64 33.07 31.68 29.32 28.82 27.62 24.83 29.95 29.87 30.29 29.94 26.27 34.91 22.64 26.23 29.66 34.67 39.10 40.11 37.06 35.94 36.96
51.15 50.61 51.19 49.08 44.98 43.28 46.26 49.05 49.31 45.07 18.54 36.91 37.91 45.58 43.33 38.79 38.92 39.93 46.53 43.32 35.83 34.80 30.42 26.72 29.96 30.70 29.69 27.82 31.14 28.99 33.37 32.35 33.06 31.65 30.64 27.17 25.02 24.23 31.33 34.75 37.32 40.19 40.74 42.74 45.64
51.10 50.56 49.06 46.30 46.15 47.50 48.74 48.43 44.65 27.65 18.86 32.10 37.09 36.05 36.11 38.65 38.85 42.05 41.86 43.08 40.92 34.52 34.35 30.88 35.38 33.58 31.93 34.45 33.77 35.32 32.58 33.86 33.64 30.52 18.32 24.58 24.48 23.70 32.19 35.53 38.04 41.53 42.33 43.29 45.50
50.28 50.52 47.84 47.20 42.93 47.23 46.18 38.51 24.93 20.87 33.80 30.11 31.79 34.69 35.80 34.81 35.08 38.18 34.49 32.59 30.18 18.73 17.48 28.05 30.46 34.19 35.53 31.28 34.38 34.37 32.04 19.66 14.92 13.09 17.24 29.14 24.50 27.00 35.36 36.63 40.27 40.99 42.27 43.96 44.95
49.24 47.69 46.60 46.44 45.01 44.08 39.36 29.65 19.00 29.80 30.85 34.92 34.00 36.14 32.83 35.28 34.36 35.24 32.35 27.13 33.00 33.67 25.14 21.89 20.54 32.03 36.03 33.44 31.85 33.53 34.36 27.74 17.29 14.69 20.67 29.03 20.24 30.26 36.66 38.45 41.79 42.44 42.64 42.94 42.84
47.18 41.09 41.22 43.18 45.22 41.55 34.11 25.45 22.38 28.75 32.74 31.99 34.07 29.20 29.11 34.17 33.58 32.17 30.94 31.41 35.23 34.56 27.40 28.75 22.72 34.49 36.19 36.70 36.29 32.28 31.30 37.30 30.10 28.90 25.41 23.58 32.22 37.58 37.69 36.38 38.85 40.14 40.79 40.32 41.11
39.49 38.06 39.01 43.89 43.31 38.41 31.64 31.67 29.91 35.24 35.28 34.76 28.17 29.64 25.36 28.89 29.88 31.03 28.67 34.59 35.97 37.59 37.47 34.55 29.11 33.12 35.94 38.18 37.26 34.60 35.80 26.18 29.07 17.24 16.19 22.43 26.15 29.40 32.83 33.46 36.58 37.41 37.92 38.38 40.61
38.08 36.32 41.89 43.46 41.67 36.66 29.98 31.68 34.11 38.71 37.33 33.73 29.49 28.84 27.60 28.29 29.69 28.52 28.58 33.69 36.74 38.11 37.91 36.81 33.04 28.51 32.12 32.23 30.79 31.12 28.98 30.51 29.99 26.89 23.35 21.96 23.81 36.24 34.51 35.74 35.49 37.10 37.67 37.43 39.28
35.87 32.00 43.23 42.62 33.83 30.27 31.83 32.73 39.56 37.27 38.94 37.03 34.58 32.36 30.76 30.68 29.44 28.66 29.65 33.37 38.01 38.50 34.72 37.15 34.20 28.09 28.44 33.55 33.48 32.41 29.91 28.78 22.43 21.89 24.06 25.25 24.36 38.20 38.93 38.39 37.16 36.23 37.89 37.82 39.99
33.56 33.32 41.29 41.88 28.90 27.03 32.88 34.66 36.65 36.17 35.42 35.44 34.36 35.87 34.48 31.58 28.45 31.15 32.46 37.63 38.79 37.28 33.57 34.27 27.80 19.05 22.76 26.71 30.59 29.00 30.86 30.60 29.44 25.97 22.77 20.25 25.12 36.73 39.16 38.67 38.29 37.87 39.28 39.93 40.91
34.32 30.04 35.72 35.62 33.49 30.75 30.47 31.64 33.34 37.92 36.03 36.76 35.46 35.56 33.51 31.08 32.85 30.39 31.62 36.67 38.38 38.13 42.78 38.39 29.08 25.80 19.06 24.59 28.22 27.76 29.06 29.12 27.88 18.62 23.26 23.77 25.07 29.32 33.79 36.89 38.35 38.71 38.52 36.49 38.11
34.10 30.82 32.61 27.74 31.85 30.54 31.13 32.20 32.91 33.27 36.30 36.71 34.27 34.67 32.44 28.89 29.79 28.97 32.25 33.82 36.41 39.90 35.89 34.11 27.04 24.82 28.01 29.15 29.12 29.18 29.27 29.05 27.23 26.68 23.47 25.32 27.11 30.66 32.61 33.69 34.37 34.99 34.06 33.09 32.99
33.50 33.29 32.56 30.74 31.74 30.88 33.45 32.61 33.66 34.69 33.84 33.36 32.68 34.44 33.21 30.02 30.62 28.67 31.20 30.15 29.65 32.52 32.51 32.79 25.49 26.66 22.90 29.54 28.69 27.93 29.01 28.92 28.35 30.26 28.73 28.34 28.39 33.14 31.72 31.57 32.12 32.80 32.71 32.92 33.27
36.71 36.47 34.34 31.95 30.38 30.22 31.70 32.76 33.79 34.88 35.55 36.36 34.56 32.97 31.37 34.02 35.95 36.34 36.05 35.05 33.43 30.17 30.76 29.91 26.63 22.65 21.10 25.50 26.34 23.58 26.21 28.18 29.59 30.68 30.44 27.23 30.77 32.79 32.15 33.34 33.34 32.54 32.81 33.18 33.63

GFSSW_sfc_wetblb_105.txt.gz
Wetbulb
55.09 55.28 55.15 54.51 53.81 54.92 55.32 56.13 56.11 56.41 57.09 58.48 60.52 60.08 58.07 56.53 54.85 50.97 46.45 50.38 52.16 54.75 54.42 48.38 47.12 46.15 46.23 44.53 46.54 45.65 35.56 32.67 35.20 36.34 38.09 42.04 40.82 43.65 44.01 42.54 43.23 45.25 46.72 48.82 48.60
53.57 54.96 54.68 54.50 53.65 53.03 53.61 54.84 55.55 55.71 56.26 57.01 58.86 59.38 57.65 55.40 48.75 46.47 53.99 57.17 56.69 55.78 47.29 44.91 42.65 43.48 40.38 41.64 42.64 40.40 33.16 33.95 39.55 40.49 39.83 41.53 40.41 40.65 40.49 39.90 40.45 42.89 46.14 47.94 47.51
53.14 53.88 53.52 53.04 53.74 52.87 52.56 52.31 53.42 54.40 55.01 56.87 57.98 58.63 56.94 53.03 45.19 45.45 57.47 57.23 56.16 53.57 48.27 45.96 44.39 42.35 38.38 39.38 38.51 39.78 34.77 38.60 40.47 41.65 39.02 38.09 38.09 40.69 38.60 37.04 40.24 41.17 43.75 45.26 45.92
52.65 52.81 52.15 52.48 52.75 53.34 52.08 51.77 52.69 53.17 53.93 55.67 59.07 57.54 53.78 50.77 37.17 48.42 56.98 56.42 55.44 50.40 47.44 44.00 41.86 37.60 35.25 34.55 37.42 34.72 36.91 37.30 38.36 38.58 37.77 36.48 38.71 37.45 38.67 40.01 43.25 43.32 43.99 43.55 43.97
52.34 52.04 51.43 51.37 51.61 53.24 51.70 51.77 51.74 51.96 52.63 54.81 57.50 55.10 52.12 45.64 45.13 53.19 55.57 52.57 48.57 47.24 43.70 41.67 38.39 37.40 33.80 34.73 35.73 34.46 34.55 36.96 38.15 37.89 37.50 38.15 36.37 36.55 37.41 41.02 42.37 42.34 42.59 42.29 43.17
51.72 51.51 50.77 50.94 51.07 52.59 51.55 51.71 51.91 52.36 51.49 56.47 56.29 54.96 49.29 41.70 52.30 50.39 48.83 47.49 46.94 45.57 43.23 42.03 39.33 39.13 35.54 34.86 34.07 35.36 35.84 35.77 36.76 36.32 36.80 35.28 35.61 36.76 38.03 40.10 39.90 40.58 41.29 41.81 42.25
51.27 51.42 50.71 50.52 50.38 52.02 51.13 51.12 51.60 53.01 53.51 56.29 55.02 52.78 47.82 45.34 51.89 48.52 48.54 46.55 47.06 46.05 42.32 43.81 42.88 39.44 37.76 34.49 37.07 35.76 31.96 33.29 34.29 35.76 35.21 36.90 32.26 33.10 39.23 39.04 38.15 39.15 40.08 41.38 42.28
50.79 50.92 50.54 50.48 50.74 50.40 50.83 50.79 51.06 52.72 53.08 55.45 54.54 50.67 45.14 52.09 51.81 47.85 47.79 46.16 47.39 47.06 45.11 45.06 44.01 40.20 37.37 37.32 32.29 30.14 30.20 27.99 32.75 34.81 36.16 35.58 30.72 35.56 39.20 37.85 38.35 39.52 40.55 41.39 42.41
51.13 50.58 50.59 50.88 50.82 51.26 51.94 52.57 52.70 52.88 54.54 55.74 49.98 48.35 43.56 51.57 45.49 46.92 47.18 44.46 46.03 46.16 45.40 45.18 41.96 36.08 34.88 28.40 26.37 27.28 25.78 26.20 29.80 35.33 35.09 34.47 31.76 35.93 39.63 39.50 38.58 39.91 40.80 41.52 42.50
51.08 51.10 51.04 51.44 51.55 53.07 54.37 55.08 53.87 53.39 52.72 51.31 48.80 42.95 44.01 41.43 45.01 46.13 47.51 47.05 43.81 43.13 41.38 38.90 34.29 30.75 29.41 26.52 20.13 24.82 24.96 26.38 26.42 32.46 33.41 31.85 31.62 36.45 39.37 39.18 38.78 39.41 40.24 41.18 41.98
50.62 50.94 51.45 51.19 51.07 51.96 49.24 49.28 43.57 42.66 46.41 42.67 42.01 41.14 42.42 46.08 46.99 44.54 46.90 44.30 43.13 39.32 32.95 34.26 28.36 25.11 28.66 28.63 27.63 26.81 26.01 24.94 28.16 32.97 31.13 30.81 31.63 34.96 38.35 39.37 39.31 39.80 40.28 41.09 41.67
50.94 50.79 50.97 50.83 51.79 51.82 48.56 43.91 43.64 44.60 38.32 44.30 43.43 43.17 45.37 45.69 39.49 42.27 46.25 38.48 37.36 32.02 33.68 30.52 25.67 30.94 32.41 31.29 30.23 28.52 25.95 25.38 29.64 32.30 33.22 33.39 32.87 36.80 38.37 38.47 38.85 38.78 39.67 41.03 40.45
51.32 51.06 50.23 50.71 49.95 49.01 46.29 46.06 49.37 47.98 36.60 39.77 43.50 42.17 43.08 43.99 38.80 39.37 42.90 40.21 35.15 32.40 31.73 28.45 31.22 33.38 32.43 30.74 28.46 26.20 25.39 25.81 27.96 31.74 35.10 33.49 32.30 32.20 35.25 36.83 39.51 42.62 42.79 42.71 41.33
51.60 51.40 50.34 50.84 46.40 46.48 44.28 48.45 49.17 48.10 31.53 34.08 38.29 41.28 42.83 42.82 37.89 44.70 44.81 40.92 36.53 32.59 33.38 31.50 34.18 32.00 30.77 29.48 28.96 25.11 30.00 30.18 29.96 30.70 27.31 34.97 24.03 29.64 32.31 33.94 39.27 41.68 42.43 43.72 44.84
51.15 51.04 51.20 49.85 45.00 42.81 46.37 48.65 48.84 44.52 17.35 36.66 38.18 45.50 43.37 38.12 38.66 39.58 46.04 42.58 34.95 34.31 31.27 28.40 31.20 31.74 30.72 29.30 31.21 30.70 33.87 32.53 33.03 31.51 30.98 29.23 26.89 29.32 32.60 34.40 36.74 41.22 42.62 44.55 45.71
51.38 51.11 50.00 46.41 46.17 46.46 47.95 46.91 42.99 24.77 18.97 32.19 37.01 36.23 36.65 38.30 38.84 41.23 40.79 42.21 40.06 33.51 32.32 31.49 35.83 34.37 32.90 34.79 33.55 35.35 34.22 34.66 33.79 30.67 22.04 24.19 27.00 28.84 31.96 34.15 36.54 41.60 42.97 43.63 45.11
50.51 50.37 47.32 46.60 40.45 45.81 44.45 37.30 24.82 22.52 33.34 30.02 32.14 35.91 35.10 33.94 34.88 37.28 34.65 32.27 28.11 20.50 18.73 28.66 31.39 34.69 35.75 32.52 34.96 34.70 33.09 24.58 18.46 17.29 21.20 28.09 26.94 28.75 35.43 36.77 37.84 40.49 41.33 42.05 42.89
49.91 47.50 45.69 45.67 44.10 43.41 38.42 31.03 19.07 29.77 30.54 34.89 35.38 36.03 32.14 34.34 33.84 35.00 33.09 27.77 33.57 31.51 23.16 19.95 20.60 32.32 35.90 34.17 33.50 34.48 34.23 27.82 20.49 18.66 22.37 30.43 24.87 29.90 37.90 38.69 39.50 41.27 40.50 41.16 41.31
47.56 40.60 40.60 42.31 44.67 40.86 34.58 26.21 22.39 29.29 32.45 31.59 33.31 29.22 29.30 34.46 32.75 31.97 31.54 30.77 33.78 33.09 25.55 25.28 23.55 34.38 35.69 36.67 36.95 34.66 31.28 37.09 30.56 28.57 25.21 24.73 29.32 37.02 39.51 36.38 37.55 38.43 38.23 38.10 40.54
39.32 37.59 38.45 42.99 42.28 38.52 31.83 30.30 29.03 34.40 34.86 33.89 28.11 29.17 26.11 29.86 29.88 29.71 29.73 33.49 34.66 36.39 36.36 33.30 26.57 32.90 35.97 38.31 37.45 35.74 36.83 26.89 29.59 21.82 18.82 22.91 26.06 29.62 34.47 34.57 36.69 36.55 35.72 36.63 40.08
37.34 36.52 40.88 42.68 40.93 36.41 26.37 28.70 33.26 38.01 36.73 32.93 29.12 28.67 27.74 28.99 29.65 28.58 29.15 33.32 36.12 36.30 36.58 36.75 33.13 29.06 32.89 32.90 31.75 33.38 30.85 31.88 30.95 28.91 22.92 22.10 25.16 36.67 36.22 37.11 36.09 36.15 36.49 37.04 39.84
35.94 32.03 42.37 41.72 33.83 29.61 32.33 32.89 39.35 35.93 38.08 36.49 33.98 31.89 30.25 30.50 29.32 28.83 29.23 33.01 37.52 37.91 35.37 37.59 34.59 28.21 28.68 33.48 34.33 33.98 31.68 29.62 24.99 23.42 25.71 25.03 26.25 38.17 38.94 38.55 37.82 37.07 37.67 39.00 40.69
33.92 33.70 41.15 41.42 28.86 24.90 31.15 33.50 35.71 35.16 34.62 34.87 34.03 35.08 33.49 30.86 28.39 30.39 31.93 37.04 38.32 37.07 33.91 35.58 30.45 24.06 22.97 27.77 31.19 31.07 32.65 31.60 29.54 27.26 24.35 22.77 26.61 37.10 38.63 38.73 38.65 38.34 38.96 39.79 40.88
34.19 29.20 35.85 35.11 32.35 31.05 30.18 30.64 32.00 36.83 35.45 35.97 34.56 35.06 32.97 31.23 31.78 30.08 31.59 36.35 37.99 38.14 42.30 39.58 29.90 26.52 21.14 25.13 28.71 28.33 29.85 30.73 29.23 22.59 24.55 25.30 27.78 31.19 35.07 36.94 38.41 39.05 39.88 39.91 40.09
33.80 30.25 31.08 27.29 31.86 30.19 30.40 31.73 31.33 31.68 35.34 35.61 33.23 34.08 31.68 27.94 28.81 28.07 31.72 33.22 36.16 39.51 36.65 34.53 27.55 25.90 28.50 29.93 30.09 29.91 29.90 29.03 27.10 27.86 25.69 26.85 27.69 31.45 33.52 35.58 37.13 38.12 37.58 35.70 35.09
33.71 32.98 31.43 29.76 31.02 28.54 32.47 31.29 32.74 33.55 33.79 31.83 33.00 33.62 33.23 30.50 31.76 29.91 31.74 31.25 30.43 32.46 32.71 32.70 26.90 27.33 23.10 29.34 29.28 27.45 29.00 28.98 29.63 29.36 28.66 28.66 29.23 34.30 35.20 35.36 34.93 35.57 34.78 34.04 34.47
35.50 35.24 34.18 31.08 29.30 28.37 29.43 31.18 33.47 33.91 35.10 35.76 34.35 32.25 30.95 33.36 36.02 35.93 35.80 34.62 34.06 32.86 30.78 29.92 27.42 23.57 21.64 25.94 25.85 22.50 26.09 27.83 29.39 30.04 30.56 28.20 32.12 34.24 33.84 33.93 34.90 34.74 34.12 34.30 34.67

GFSSW_sfc_wetblb_108.txt.gz
Wetbulb
53.98 54.27 54.72 54.63 54.35 54.74 55.29 55.94 56.15 56.69 57.40 58.56 60.55 60.44 58.54 57.24 55.59 53.50 48.79 53.28 53.51 55.47 54.71 51.94 53.12 52.43 53.74 50.91 51.57 50.54 42.65 40.05 40.46 40.57 42.13 45.93 44.57 47.08 47.98 46.11 47.67 49.41 50.15 52.73 53.48
53.17 53.82 53.94 53.95 53.95 53.34 53.56 54.51 55.03 55.85 56.87 58.12 60.49 59.84 58.15 56.01 53.07 50.94 56.48 57.65 56.83 55.28 50.94 49.68 49.79 50.42 48.05 47.37 48.87 45.83 41.45 39.57 43.76 44.80 43.66 45.00 44.04 44.44 43.48 44.20 44.67 46.03 48.84 50.39 51.76
53.27 53.47 53.50 53.21 53.92 53.50 52.76 52.51 53.13 54.09 55.26 57.05 60.20 58.86 56.02 54.55 49.32 49.51 58.37 57.25 56.53 53.65 50.87 49.83 48.98 46.90 44.38 45.94 44.64 44.59 41.09 42.39 43.86 44.98 43.91 42.55 42.34 43.71 42.19 41.40 44.31 44.12 45.96 48.02 48.84
52.87 52.76 52.34 53.04 53.82 53.65 52.31 51.97 52.69 53.27 54.15 56.37 59.44 56.58 54.14 51.85 41.00 52.67 57.18 56.41 55.41 52.69 50.49 48.41 46.22 42.86 42.19 40.70 42.07 39.65 41.91 42.63 42.50 42.25 41.69 40.91 42.84 41.13 42.40 43.46 46.28 46.51 47.05 47.18 47.13
52.49 52.13 52.00 52.16 51.87 52.58 52.54 51.90 51.59 52.02 52.55 57.94 57.26 55.35 52.74 47.08 47.00 54.48 54.97 53.39 51.50 50.52 47.63 46.43 43.93 42.76 39.80 40.53 40.73 39.05 39.36 40.44 41.68 41.28 41.28 42.03 40.42 40.85 41.56 45.21 46.38 46.21 46.08 46.22 46.85
52.42 51.94 51.27 51.64 51.29 51.93 52.27 51.72 52.42 51.83 51.82 57.30 56.82 55.43 49.97 41.71 53.70 52.13 50.88 50.35 49.90 49.27 46.81 46.49 44.29 44.80 41.61 39.71 39.36 40.13 39.76 40.00 40.15 39.59 40.11 38.42 40.11 39.35 43.46 44.22 44.31 44.79 45.86 47.09 47.83
52.00 51.83 50.87 51.15 50.46 51.15 51.73 51.35 52.45 52.79 55.34 57.33 56.22 54.04 47.10 45.02 52.25 52.02 50.88 49.08 49.69 49.17 45.86 46.95 46.92 43.88 43.03 38.95 40.93 39.53 37.07 38.56 38.84 39.61 39.23 40.51 39.50 38.43 44.05 44.26 44.58 46.60 47.35 48.02 48.23
51.79 51.26 50.78 51.02 50.51 51.92 51.05 51.22 51.53 53.19 54.66 56.18 56.40 51.88 41.90 52.21 53.63 50.44 51.30 49.27 50.30 49.95 48.20 48.44 48.48 44.39 41.81 41.38 38.42 36.72 37.52 36.20 37.82 39.53 39.44 40.16 38.14 42.79 43.87 43.90 45.00 46.01 46.58 46.84 48.05
51.71 50.98 51.15 51.12 51.17 51.35 51.61 51.93 52.48 53.43 55.19 54.95 50.80 48.51 40.10 52.15 46.83 49.61 50.69 46.86 47.96 48.11 47.76 47.40 45.67 41.26 39.94 37.62 36.75 37.03 35.03 34.30 36.47 39.31 38.91 38.88 38.11 43.54 45.53 44.94 44.31 45.45 46.17 47.25 48.25
51.45 51.56 51.63 51.74 51.97 54.28 52.61 53.01 53.77 53.93 52.28 51.96 49.90 43.88 44.70 41.90 46.39 48.53 50.60 49.10 45.51 45.07 43.98 42.83 41.09 39.17 39.29 38.90 33.44 32.67 33.70 33.96 33.99 37.97 38.41 38.18 38.77 43.13 45.46 44.70 44.09 45.14 46.83 47.34 47.74
51.53 51.57 51.58 52.44 52.04 54.07 52.95 49.84 45.41 43.09 45.92 42.20 43.25 42.61 43.06 46.60 49.64 47.23 49.00 46.40 45.16 42.61 37.32 38.59 38.15 34.05 34.20 35.07 34.81 33.91 32.77 32.58 36.97 38.01 36.80 38.64 39.55 42.19 44.52 44.04 43.74 45.55 46.29 47.33 47.59
51.53 50.87 51.54 52.54 52.58 52.56 50.76 44.17 44.15 45.26 38.24 44.50 44.52 44.13 46.15 47.25 41.88 45.18 48.93 41.78 40.98 36.58 37.60 37.86 33.21 35.26 36.31 35.62 34.68 33.80 32.48 34.63 37.35 37.15 38.04 39.26 38.13 41.92 42.00 42.78 44.29 45.02 46.26 46.84 47.49
51.61 50.77 51.20 51.43 51.16 50.93 47.23 46.34 50.28 48.93 37.99 40.56 43.71 42.88 43.99 46.12 41.04 42.05 46.07 42.45 39.09 36.86 36.86 35.70 34.62 36.74 35.37 34.05 32.93 33.55 31.46 32.95 33.11 37.38 41.04 38.13 38.48 38.02 40.14 42.30 44.59 46.21 47.10 47.45 46.52
51.96 51.27 50.84 50.42 48.17 47.56 45.53 48.95 50.44 49.72 35.96 34.84 39.35 42.12 44.63 44.56 39.46 46.23 47.21 43.42 39.38 36.21 36.38 36.14 36.77 34.73 34.12 32.95 34.48 30.76 35.80 34.64 34.20 34.49 31.63 38.11 30.47 37.82 38.63 39.90 43.11 44.46 44.33 44.64 45.91
51.37 52.06 51.68 50.78 47.65 45.57 47.33 50.66 50.45 47.80 25.51 37.08 39.40 47.67 45.53 40.51 40.48 41.34 47.72 44.09 36.98 36.28 36.33 32.55 34.49 34.43 33.99 34.46 36.10 35.19 36.65 35.86 35.66 33.48 32.16 33.19 29.90 36.68 37.86 38.36 40.13 42.95 42.69 44.52 44.45
51.33 51.28 49.80 50.05 49.64 48.21 50.00 49.16 47.42 36.54 22.96 33.50 39.38 38.57 38.45 40.29 40.26 42.29 42.30 44.84 42.36 37.02 36.76 35.55 38.91 37.48 36.84 37.40 36.92 38.38 36.81 36.58 35.36 32.62 27.16 31.65 31.24 35.95 37.04 35.92 38.27 40.85 41.59 42.60 42.58
50.62 50.18 49.39 49.07 45.64 48.98 48.12 44.13 35.34 27.17 33.88 32.03 34.14 37.66 36.96 35.85 37.42 38.71 37.36 36.71 34.80 32.88 31.93 34.53 35.14 37.74 38.14 36.33 38.48 36.90 35.77 30.62 29.26 28.43 30.09 32.07 29.15 35.08 38.37 38.64 38.87 39.60 39.82 41.24 42.06
50.25 48.02 47.53 47.43 49.12 48.22 45.97 40.83 26.97 30.79 31.70 37.01 36.40 37.65 34.51 36.95 36.76 37.40 36.29 35.43 37.45 36.33 33.56 32.00 30.84 35.93 39.05 38.02 37.30 37.29 36.18 29.62 24.11 27.73 29.65 32.50 28.35 37.17 40.33 40.58 40.40 40.79 39.98 40.15 41.21
47.77 48.60 47.87 47.33 48.68 48.04 44.14 31.70 30.37 32.66 35.85 35.35 36.12 33.61 33.88 36.52 36.45 36.58 36.31 35.53 37.72 37.72 33.14 32.74 32.96 37.90 38.63 40.02 40.08 36.93 34.01 37.63 31.22 32.53 27.93 33.57 35.83 39.47 41.53 40.31 38.60 38.62 38.81 38.31 40.21
47.84 46.34 45.84 47.02 47.87 47.49 40.98 31.72 34.50 37.43 37.99 37.55 32.29 34.42 32.07 34.63 34.77 35.49 35.72 38.09 37.41 38.94 40.47 36.39 31.16 36.79 38.98 40.34 40.60 39.16 39.79 31.68 33.38 24.96 24.88 31.02 31.23 34.45 36.22 36.65 38.26 37.83 37.18 37.57 40.59
46.31 45.79 47.41 47.60 47.64 44.28 33.76 35.34 37.25 40.38 40.42 37.10 34.84 34.19 34.56 34.28 35.12 35.00 35.37 38.33 40.04 39.12 40.64 39.24 35.17 34.77 37.19 36.69 37.10 36.50 35.44 35.75 34.75 32.65 27.48 26.82 32.57 39.96 37.40 37.98 37.09 37.77 37.78 38.39 40.31
45.76 42.63 47.42 47.21 43.37 41.29 37.90 38.80 40.55 39.24 41.83 39.98 38.90 37.35 36.36 36.18 35.58 35.56 35.61 38.01 42.24 41.85 37.32 40.00 36.79 31.49 34.24 38.77 39.12 38.67 36.63 36.46 31.09 27.82 32.21 30.62 31.53 41.35 39.92 39.20 38.75 38.50 38.47 39.98 41.03
43.84 43.77 48.32 47.07 39.73 38.57 38.54 38.38 39.90 39.03 38.86 39.04 38.42 39.68 39.07 37.00 34.24 36.70 37.62 41.55 42.31 41.39 39.08 40.19 34.95 30.00 30.72 34.22 36.71 35.57 37.32 37.18 35.00 33.81 29.87 28.69 33.49 41.46 41.11 39.60 39.97 39.40 39.96 40.61 41.66
44.16 41.68 45.48 44.17 40.89 40.05 38.07 36.92 37.14 40.61 39.53 39.92 39.57 39.85 38.26 36.91 38.00 36.59 37.55 40.43 41.87 42.09 42.15 42.23 35.95 33.26 29.96 32.96 34.72 32.84 34.95 36.54 35.14 30.77 31.65 31.86 34.69 38.62 39.64 39.96 40.41 40.89 41.54 41.87 42.94
42.64 39.11 39.19 39.44 39.13 39.02 39.08 38.35 36.72 36.63 39.96 40.18 38.34 38.92 38.32 35.66 35.99 35.70 37.70 38.64 40.05 42.04 41.89 40.39 33.91 34.83 35.37 36.26 36.02 34.76 34.23 34.88 32.64 33.63 30.25 34.09 33.46 38.48 40.39 41.67 42.51 43.14 43.09 42.59 41.96
42.71 41.06 38.77 38.28 37.23 38.38 38.05 37.55 36.82 37.76 38.05 37.86 37.59 38.32 38.44 36.84 38.14 36.15 37.82 37.65 37.38 39.77 39.49 38.62 34.23 33.28 30.21 35.52 34.85 31.45 33.87 34.41 34.47 34.56 34.25 34.62 34.09 41.67 43.02 43.32 43.07 42.81 42.72 41.75 40.89
42.56 42.03 42.40 36.00 37.63 37.99 37.87 37.51 37.13 38.79 39.49 39.84 38.62 37.87 36.60 38.16 40.04 41.69 41.94 40.74 39.11 37.97 37.25 35.99 34.85 31.99 28.81 33.21 32.39 29.06 32.94 33.53 34.13 35.61 35.36 31.66 37.66 41.92 39.72 39.77 41.49 42.84 42.90 42.13 41.68

GFSSW_sfc_wetblb_111.txt.gz
Wetbulb
54.00 53.96 53.98 54.35 55.47 55.06 55.70 56.29 56.84 57.28 57.60 58.85 60.79 60.22 58.98 57.51 55.88 54.56 50.07 53.97 54.92 55.69 56.02 55.38 55.15 55.14 56.16 53.59 53.52 51.62 44.05 42.75 42.91 42.70 44.83 47.61 46.29 48.92 49.91 47.75 48.48 50.08 50.57 52.58 53.74
53.84 53.21 53.36 54.66 54.98 53.71 54.31 54.40 54.98 55.77 56.83 58.39 60.49 59.65 58.53 57.17 53.63 52.36 57.75 57.25 56.42 55.23 52.15 52.54 50.95 52.55 49.82 49.99 50.80 47.29 43.69 42.72 45.89 46.69 45.76 46.55 45.42 46.04 44.95 45.78 46.23 47.32 49.62 50.50 51.06
53.45 52.99 52.84 54.62 54.79 54.00 54.00 52.89 53.47 54.39 55.52 57.97 60.49 58.78 56.08 55.53 51.30 51.24 58.32 57.08 55.57 54.35 52.26 52.89 52.74 50.06 46.62 48.56 47.00 46.04 43.63 44.67 45.47 46.87 45.78 44.25 43.81 45.35 43.67 42.83 45.12 44.67 46.62 48.54 49.15
53.33 53.18 53.64 54.28 54.42 53.91 53.10 51.94 52.87 53.54 54.45 56.71 57.80 55.17 53.79 52.95 41.88 53.43 57.99 57.00 54.84 53.58 51.33 50.30 49.21 45.47 45.09 43.10 45.28 42.40 44.59 44.75 44.68 44.35 43.30 42.39 44.24 42.97 44.10 44.96 47.31 47.34 47.87 47.94 48.08
52.99 52.80 53.02 53.36 53.78 53.01 52.20 51.90 51.65 52.23 53.60 57.87 56.13 54.63 52.62 48.28 46.75 54.57 53.91 53.15 52.85 51.71 49.34 47.53 45.53 45.03 42.89 43.43 43.18 41.77 42.08 42.66 43.53 43.09 42.83 43.23 42.02 42.44 43.31 46.51 47.67 47.58 47.83 48.40 49.14
52.66 51.59 51.98 52.01 52.35 53.04 52.25 51.83 52.77 51.91 52.64 57.39 56.05 55.96 50.14 41.78 53.96 53.27 51.89 51.50 51.34 50.31 48.68 48.22 45.99 47.14 43.76 42.45 42.38 42.77 42.08 41.96 42.13 41.57 41.99 40.50 42.14 42.04 44.79 46.14 46.32 47.91 49.21 50.27 50.53
51.68 51.44 51.99 51.48 52.31 52.55 52.05 51.64 53.16 52.62 54.35 57.26 56.34 53.05 46.72 44.68 53.45 52.85 51.94 50.64 51.45 50.38 47.50 49.04 48.67 46.12 45.64 41.47 43.37 41.86 39.33 40.80 40.97 41.44 41.39 42.34 41.22 41.14 45.89 46.23 46.23 48.08 49.37 50.08 50.01
51.92 51.72 51.51 50.80 50.86 50.83 51.28 51.12 52.48 54.63 57.15 56.41 54.64 49.73 40.83 51.42 54.72 51.33 52.03 50.31 51.57 51.51 49.66 50.24 49.92 46.37 44.58 43.73 41.09 39.69 39.29 37.94 40.39 41.41 41.88 41.76 38.41 45.42 46.16 45.85 46.13 47.98 48.80 48.91 49.68
52.20 52.15 52.07 51.65 51.14 51.04 50.90 51.23 52.65 54.89 56.36 55.73 50.58 46.70 39.50 51.88 48.02 50.95 51.58 47.92 49.12 49.38 48.74 48.68 47.47 43.33 42.42 39.98 38.41 39.07 37.53 37.27 38.67 41.80 41.18 41.34 39.83 45.33 47.99 47.36 46.95 47.81 48.16 48.60 49.53
52.33 52.16 52.42 51.87 51.83 52.22 52.16 53.14 54.37 53.77 52.96 52.44 50.29 42.33 43.56 42.02 47.67 49.78 51.43 49.85 46.78 46.65 45.31 44.52 43.75 41.05 40.80 40.09 36.58 36.76 36.23 37.01 36.74 40.77 40.69 39.83 40.25 44.76 47.45 47.60 47.06 47.04 48.11 48.68 49.71
51.75 52.21 52.93 53.50 55.35 53.73 52.71 50.70 43.75 42.05 47.38 43.40 43.85 42.61 43.63 47.28 50.33 47.90 49.96 47.63 46.77 44.71 40.30 41.16 41.17 37.46 36.74 37.57 37.36 37.03 36.14 36.20 39.40 41.08 38.93 40.77 41.31 43.89 46.82 45.99 45.31 46.57 47.46 48.61 49.61
51.55 52.37 52.54 53.51 53.24 52.57 50.61 44.31 44.39 44.74 37.87 44.83 44.83 44.67 46.91 48.30 43.13 46.35 50.22 43.56 43.25 39.08 40.58 40.25 36.19 37.83 38.74 38.15 37.21 36.69 35.56 37.40 40.02 40.01 40.59 41.04 40.36 44.73 44.27 44.26 45.09 45.91 47.04 47.46 47.76
51.29 51.65 52.30 52.34 52.98 51.57 48.71 46.92 51.34 50.08 39.21 40.95 43.55 43.31 44.38 47.35 42.73 43.50 47.59 44.31 41.92 39.54 39.72 38.85 37.49 39.05 37.87 36.24 35.44 36.56 34.88 36.02 35.24 39.88 43.10 40.35 40.92 40.78 43.19 43.74 45.45 47.31 48.15 46.90 45.93
52.05 51.50 51.09 50.71 49.53 49.23 46.18 50.50 52.13 51.46 37.32 35.61 40.18 43.15 45.68 45.71 40.67 47.65 48.47 44.93 41.50 38.13 39.88 37.85 38.59 36.91 36.48 35.22 36.49 34.44 38.32 37.64 37.40 36.18 34.19 40.15 33.05 41.12 42.41 42.14 43.94 45.97 45.69 43.86 44.58
52.03 52.42 51.70 51.40 49.46 47.43 48.95 52.05 51.78 49.39 28.05 37.90 40.48 48.75 46.59 42.39 42.09 42.68 48.78 45.48 39.27 38.18 39.32 35.35 36.40 36.25 36.16 36.41 38.61 37.21 39.40 38.66 37.56 34.04 33.82 35.93 33.48 39.84 41.21 40.67 43.32 43.35 43.03 43.21 44.18
51.28 51.34 50.92 51.86 51.89 50.50 52.01 51.14 48.98 37.04 24.28 35.16 41.10 39.71 40.26 42.36 41.73 43.61 43.43 46.01 43.81 39.41 40.12 37.94 40.95 39.51 39.24 39.76 39.41 40.52 39.32 37.54 37.09 35.31 30.43 34.39 33.79 36.84 40.66 40.10 40.61 41.59 41.93 42.31 42.99
50.97 50.48 51.89 51.44 48.35 51.41 50.70 46.52 36.64 28.60 35.85 33.90 35.99 39.67 39.28 37.84 39.43 40.71 40.17 39.18 37.04 32.88 32.21 36.97 37.50 39.95 40.07 39.05 41.33 40.30 38.05 33.47 30.99 31.14 31.44 34.25 31.53 35.73 42.11 42.08 41.06 39.50 40.28 40.97 42.10
50.47 49.73 49.22 50.12 51.65 51.32 48.74 42.49 28.61 31.39 33.09 38.31 38.41 39.68 36.24 38.85 38.84 39.66 38.75 38.01 40.15 38.93 36.48 34.42 31.40 38.39 41.32 39.93 38.28 38.96 37.85 31.11 24.09 29.08 31.41 34.55 29.49 38.32 43.40 44.18 42.75 41.25 40.23 40.65 40.97
48.73 52.19 51.25 50.99 51.59 50.74 46.17 34.32 31.66 34.87 37.72 36.84 37.91 36.10 35.57 38.24 38.55 38.83 38.61 37.75 39.27 40.11 35.50 35.21 34.13 39.80 40.56 41.80 41.66 38.28 34.75 39.06 31.85 33.97 28.45 33.81 37.44 42.72 43.44 42.81 41.40 40.19 39.90 39.13 39.89
51.84 50.43 49.09 50.80 51.09 49.34 42.43 34.11 36.15 40.21 40.47 39.67 34.17 36.95 34.22 36.24 36.91 38.14 37.87 39.88 38.98 41.02 42.63 38.30 34.11 39.15 40.78 42.20 42.09 40.34 41.44 32.15 33.84 25.15 25.30 33.15 34.51 36.10 38.68 37.91 40.27 39.32 38.25 38.82 41.01
50.18 48.07 49.95 51.53 50.66 47.31 38.12 37.21 38.69 41.83 42.06 39.20 36.97 36.41 37.34 36.60 38.08 37.34 37.21 40.02 41.65 40.72 42.39 40.63 37.27 36.99 38.61 38.00 38.75 37.05 36.22 36.27 36.23 34.04 27.70 27.39 33.77 42.41 39.55 40.25 39.18 39.58 38.96 39.56 40.72
50.70 45.30 51.45 52.02 46.23 45.08 40.38 40.25 41.41 41.09 43.17 41.69 41.50 40.38 39.11 38.73 37.83 37.76 37.53 39.96 44.00 43.10 39.04 41.62 38.41 33.84 36.85 41.38 42.49 41.20 39.24 38.76 32.26 30.49 33.58 32.15 31.15 43.71 42.63 42.00 41.06 39.98 39.94 40.84 41.70
47.82 47.56 52.84 50.43 41.81 41.03 41.24 40.45 42.01 41.02 41.12 40.97 40.36 41.79 41.64 39.21 36.28 38.87 39.44 43.60 43.94 42.30 40.61 41.85 37.27 32.07 33.70 36.72 39.05 36.10 38.70 38.90 38.89 36.42 30.18 28.04 32.71 43.92 43.08 42.15 42.65 41.59 41.70 41.82 42.48
48.08 43.36 47.81 48.33 46.55 43.24 40.77 39.46 39.19 42.69 41.82 42.16 41.57 42.31 40.34 38.94 40.82 38.68 38.98 42.11 43.68 43.14 42.87 42.90 37.99 34.47 30.69 34.00 37.31 34.62 36.45 38.21 36.97 31.22 31.55 33.22 35.04 39.84 41.91 42.07 43.05 42.69 43.20 43.23 43.79
47.29 42.46 42.81 42.49 42.48 42.49 42.37 41.09 39.18 38.70 42.19 42.67 40.64 40.95 40.08 37.45 38.16 37.52 39.91 40.53 41.94 43.10 42.79 41.60 34.57 36.22 37.03 37.65 37.08 35.73 35.50 36.36 34.32 35.05 30.89 34.02 34.76 38.70 41.41 42.78 44.19 45.43 44.73 43.96 43.86
46.22 45.27 44.19 43.06 41.60 41.96 39.60 40.15 39.31 39.68 40.45 39.70 39.09 40.91 40.85 38.52 39.33 37.40 39.44 39.86 39.05 41.68 40.95 42.10 34.46 36.08 31.78 36.25 36.69 33.55 35.97 36.49 36.03 35.97 35.58 36.34 35.57 42.04 43.45 44.22 44.04 44.85 44.99 44.03 44.30
47.61 46.71 45.02 39.41 41.28 40.70 41.60 40.90 40.44 41.36 41.88 42.49 41.27 40.13 39.28 40.88 42.74 43.35 43.95 43.82 42.71 40.10 39.21 38.55 35.81 33.27 29.31 35.77 34.70 30.95 35.52 35.89 35.91 37.52 36.91 32.73 37.99 42.28 41.77 42.33 43.15 44.57 45.41 44.76 45.11

GFSSW_sfc_wetblb_114.txt.gz
Wetbulb
54.59 54.19 54.96 54.30 55.40 56.06 56.59 56.58 56.60 57.13 57.88 59.33 60.41 60.33 59.41 58.10 56.56 53.98 50.70 53.98 55.18 57.05 57.65 54.85 54.53 55.55 56.00 52.92 52.89 50.60 40.43 38.51 39.87 41.14 42.31 45.75 44.31 46.70 46.49 43.38 44.70 44.95 45.33 47.26 48.67
53.87 54.37 53.80 53.90 53.87 55.04 54.84 54.69 55.02 55.52 56.72 58.21 59.81 59.83 58.93 58.45 53.83 51.91 57.08 58.47 57.88 57.54 52.77 52.04 50.04 52.35 48.38 49.31 48.61 44.28 39.17 40.42 44.53 44.25 43.73 45.50 42.86 42.95 41.59 42.04 42.08 44.04 46.64 47.32 48.03
53.62 52.58 53.75 54.73 54.18 54.34 54.03 53.80 54.29 54.92 55.89 58.17 59.81 59.43 56.29 55.44 51.43 50.69 58.95 58.03 56.83 56.39 52.88 53.16 52.16 50.55 45.96 47.21 45.46 43.87 40.28 43.57 44.54 45.60 44.81 43.67 42.06 43.93 40.51 39.35 41.24 40.82 43.39 45.28 45.81
53.66 54.18 54.44 54.91 54.19 53.59 53.28 53.03 53.37 54.45 55.00 58.47 57.60 55.67 55.41 53.41 41.57 52.52 57.79 57.08 56.05 54.58 52.36 51.87 48.99 44.72 42.82 41.44 44.78 40.02 43.74 43.92 44.90 43.95 43.17 41.25 42.47 40.19 41.31 40.94 44.29 43.20 44.67 44.59 44.70
53.13 53.65 54.12 54.35 53.47 52.59 53.00 52.72 53.09 53.10 54.94 58.03 56.28 54.57 53.64 47.10 45.32 53.39 55.07 53.24 53.05 53.01 50.19 48.44 45.01 44.67 41.33 41.71 41.86 40.27 40.74 42.75 43.18 42.64 40.99 41.86 39.58 39.38 40.08 43.22 44.49 45.14 46.53 45.58 46.37
52.58 52.80 52.67 52.62 52.63 52.55 52.45 53.17 54.22 52.97 57.23 56.93 56.11 56.22 50.24 40.12 52.26 52.56 52.09 51.81 51.36 51.60 49.12 48.32 45.59 46.30 42.25 41.25 40.34 41.25 42.09 41.48 41.66 41.25 41.32 39.72 39.77 41.07 41.24 43.23 44.66 46.07 46.28 46.39 47.34
52.47 52.48 51.83 52.54 53.04 53.03 52.60 52.89 54.35 52.86 56.92 57.01 56.61 52.13 45.18 42.85 51.89 53.08 51.95 50.69 51.59 51.18 47.42 48.69 48.05 45.50 43.86 40.16 42.62 41.00 37.28 38.93 39.61 40.85 40.37 41.51 38.28 38.59 42.57 44.17 43.69 44.97 46.38 47.47 47.48
52.40 52.06 51.44 51.44 51.38 52.33 52.42 53.26 55.14 56.59 56.31 57.02 56.19 49.38 40.51 50.93 52.90 52.15 51.48 49.88 51.27 51.10 49.60 49.68 49.31 45.69 43.11 41.74 39.70 37.41 35.74 31.86 38.10 40.43 40.88 39.63 33.30 42.03 43.81 42.44 42.66 44.93 46.24 47.11 47.10
52.60 52.35 51.18 51.48 51.75 51.85 52.23 54.27 55.14 55.53 55.04 54.58 50.02 46.78 39.31 51.60 48.13 50.78 51.03 47.30 48.75 48.81 48.48 48.94 47.45 41.95 41.28 35.61 32.76 33.92 29.29 32.63 35.39 41.50 40.59 38.20 35.00 41.92 44.56 44.62 43.37 44.46 44.21 45.16 46.51
53.04 52.89 52.56 51.99 52.35 52.14 53.73 54.38 53.93 53.60 52.33 52.30 49.93 42.32 44.10 42.26 48.08 49.67 51.28 50.12 47.40 47.08 46.16 44.96 41.73 37.01 37.00 36.48 28.62 29.72 29.51 33.38 31.55 38.12 39.13 36.51 36.42 41.20 43.90 44.28 42.65 42.62 42.12 44.33 46.56
53.47 53.90 54.76 53.66 53.42 53.40 52.53 50.36 43.17 43.18 46.98 42.88 42.19 41.93 43.36 47.62 50.03 48.11 49.89 48.73 47.82 44.93 37.63 40.44 38.35 33.42 33.46 35.61 35.72 34.92 32.90 32.20 36.35 39.42 36.57 36.33 37.85 40.71 43.73 42.08 41.33 40.47 42.16 43.63 44.66
53.16 53.49 53.73 53.92 53.53 52.40 51.24 44.36 43.91 45.41 37.77 45.06 44.82 44.46 46.68 48.44 43.22 46.47 51.07 44.35 43.31 37.24 39.24 37.59 31.59 36.83 38.93 38.15 36.37 34.90 31.47 32.50 37.52 40.17 38.71 37.36 37.78 41.47 43.78 42.34 41.29 41.20 42.18 42.82 43.78
52.69 52.82 53.19 53.57 53.38 51.22 47.82 47.20 51.46 50.01 37.83 40.86 44.03 43.13 44.30 47.34 42.52 43.02 47.70 44.87 41.41 38.66 38.28 34.89 35.87 39.43 38.53 35.78 34.56 33.01 29.71 32.33 33.05 38.50 40.20 37.55 35.19 37.27 40.72 41.64 43.66 43.84 44.03 43.07 42.11
52.40 51.95 51.86 53.60 49.71 49.38 46.05 50.42 52.29 51.46 34.93 35.56 39.89 42.77 45.75 46.13 40.04 47.72 48.37 45.10 41.84 37.78 38.55 35.56 38.48 37.56 35.94 34.83 35.47 32.19 37.47 37.31 36.79 32.71 27.43 36.72 23.82 35.69 37.81 38.89 41.77 41.72 40.90 40.93 41.62
52.26 52.62 53.91 51.53 48.88 47.83 49.38 52.41 51.95 48.01 23.18 37.95 40.41 48.93 47.25 42.34 41.34 42.81 48.95 46.10 39.01 37.92 37.71 33.19 35.60 35.60 35.91 34.67 38.35 35.79 39.17 37.44 36.77 33.44 30.43 32.10 25.44 33.62 37.69 36.85 38.69 39.48 40.05 40.64 41.41
51.59 51.83 52.75 51.90 51.87 51.02 52.22 51.08 48.19 35.45 21.59 35.04 41.04 40.09 40.34 42.20 41.82 43.98 44.15 45.80 44.21 39.70 39.04 36.65 40.63 38.97 38.30 40.37 39.35 40.47 37.58 38.50 37.22 33.25 26.27 28.91 27.60 29.49 34.73 35.94 37.83 39.81 39.56 40.79 41.67
50.78 50.57 51.95 51.71 47.87 52.03 50.96 46.33 33.93 26.48 36.04 33.67 35.89 39.91 39.09 38.27 39.32 41.48 40.03 37.91 34.74 31.71 30.07 35.73 36.80 39.50 40.36 37.30 39.96 38.79 33.55 23.55 22.93 28.45 22.27 31.88 25.01 30.02 37.67 39.45 38.37 38.26 38.04 40.01 41.69
51.01 50.33 49.90 50.27 51.31 51.37 48.46 40.07 25.49 31.26 33.86 39.00 39.17 39.38 36.19 39.06 38.80 39.54 38.78 34.49 38.27 37.69 32.60 28.82 22.93 37.28 40.47 38.39 35.57 36.43 34.28 22.00 16.62 18.60 22.06 31.88 21.53 31.61 40.58 41.32 41.32 40.37 38.45 39.25 40.59
50.69 50.92 50.72 51.41 51.94 50.19 42.70 31.40 29.61 34.23 37.73 36.83 38.16 35.33 34.31 37.74 38.14 38.54 36.79 36.23 37.98 38.51 31.45 29.39 30.06 39.17 40.58 41.23 39.91 35.94 32.27 35.70 25.97 27.84 22.07 26.02 32.34 39.02 41.20 39.69 39.45 37.99 38.97 38.90 40.23
50.80 49.67 48.47 51.81 51.56 47.81 40.88 33.83 35.21 40.80 40.88 40.19 33.55 36.25 32.86 35.70 36.11 36.81 35.92 38.81 38.66 40.80 40.71 35.91 28.69 38.41 39.74 41.02 40.28 37.65 38.77 27.96 31.01 15.60 18.04 23.90 29.15 29.21 35.83 35.93 39.20 37.65 36.30 38.49 40.79
49.79 46.49 49.72 52.14 50.57 45.55 35.38 34.79 38.13 42.05 42.37 39.18 36.86 35.85 36.50 35.74 36.78 35.59 35.49 38.60 40.59 40.13 40.09 38.00 34.50 33.19 36.86 35.29 35.88 34.66 33.34 33.76 32.65 28.88 20.47 20.20 23.28 38.72 36.85 38.23 38.46 37.99 38.24 38.74 40.81
49.85 44.04 51.04 51.56 44.58 42.79 38.07 39.90 41.71 40.81 43.20 42.00 41.20 40.15 38.08 37.43 36.22 35.56 35.59 38.69 42.19 41.19 37.43 39.08 35.15 28.44 33.26 39.06 40.23 37.16 35.86 34.60 25.46 24.91 27.36 25.71 25.80 41.43 40.73 40.66 40.35 39.51 39.57 39.37 41.36
46.22 45.50 52.47 50.21 39.98 38.71 40.68 40.48 42.39 40.74 41.26 41.15 40.52 41.55 40.74 37.74 33.94 36.53 37.33 42.24 42.58 40.69 37.36 38.00 33.19 23.67 26.89 32.38 35.54 33.06 35.88 36.74 34.90 32.01 25.60 20.89 24.31 40.77 40.00 40.00 41.04 39.56 39.51 40.22 40.80
46.71 39.83 46.67 46.84 44.70 40.73 38.99 39.04 38.83 42.89 42.17 42.39 41.31 41.56 39.03 37.46 38.64 36.06 37.40 41.42 42.06 41.75 43.88 41.55 34.47 29.95 24.43 27.83 32.85 30.26 33.96 35.26 33.51 25.27 26.87 28.15 29.85 34.44 37.28 38.69 39.81 39.67 40.24 39.89 40.77
46.00 40.60 41.80 40.53 40.13 40.26 40.52 40.25 38.91 38.48 41.87 42.19 39.81 40.02 38.67 34.99 35.88 35.24 37.75 38.74 40.80 43.04 39.76 38.41 30.03 31.47 33.82 35.58 34.86 33.51 33.25 33.74 31.20 31.97 27.80 30.50 30.92 35.27 37.34 37.84 39.56 41.06 41.33 40.82 40.92
43.81 42.22 41.94 40.52 41.07 40.54 38.35 38.91 39.26 39.87 39.81 38.84 37.91 40.47 38.97 35.96 37.00 34.97 36.93 36.35 35.66 39.03 36.99 39.08 29.61 31.51 27.00 33.87 33.72 30.90 33.34 33.85 33.83 33.91 33.54 33.87 32.84 39.38 39.99 38.97 38.14 38.96 39.90 41.26 41.26
46.47 45.53 42.48 39.74 39.57 37.43 38.26 39.50 40.11 40.58 41.29 42.12 40.53 38.43 37.68 39.06 40.28 40.18 39.95 39.77 38.63 36.25 36.20 35.49 30.84 27.79 24.39 31.47 30.96 26.33 31.52 33.06 33.80 34.15 33.47 29.83 34.96 37.72 36.77 39.00 38.83 39.53 40.68 41.13 41.60

GFSSW_sfc_wetblb_117.txt.gz
Wetbulb
54.88 56.24 56.07 56.35 56.16 56.78 57.15 56.91 56.92 57.52 58.75 60.06 61.14 60.39 59.56 58.39 56.67 53.84 50.25 53.03 54.32 58.45 58.21 53.10 52.04 53.36 53.52 49.95 49.69 46.09 36.82 34.75 36.75 38.89 40.20 43.66 42.08 45.11 44.46 40.69 42.55 42.16 41.56 44.22 45.65
53.32 54.17 54.68 55.71 55.42 55.65 55.16 55.16 55.68 56.32 57.84 59.62 60.83 60.18 59.17 58.62 53.83 51.18 57.34 58.80 57.74 57.95 52.01 49.32 47.54 50.07 45.46 46.43 45.62 41.24 35.25 37.38 41.77 40.79 40.58 42.70 40.97 40.48 39.74 39.25 39.14 41.27 43.78 44.89 45.42
54.24 53.29 54.39 55.48 55.17 54.01 54.40 54.66 55.23 55.66 58.22 58.94 60.60 58.62 57.04 55.54 49.88 49.23 59.50 59.25 58.07 56.84 52.30 49.63 50.46 48.30 42.80 43.13 42.15 40.40 37.01 41.51 42.02 43.30 43.23 41.90 39.91 42.05 38.19 36.97 38.97 38.48 41.26 43.09 44.06
54.24 54.53 55.01 55.16 54.46 54.23 53.88 53.43 54.15 55.21 58.64 59.54 58.37 56.20 56.38 52.92 39.68 49.89 56.74 56.93 57.38 54.36 51.05 48.95 46.12 41.76 40.02 37.86 41.44 37.59 40.78 41.97 43.20 42.04 41.11 38.98 40.36 38.14 39.16 39.53 41.96 41.54 43.43 43.82 43.90
54.03 54.41 54.36 54.23 53.90 53.89 53.81 54.18 53.91 55.84 58.03 57.83 56.92 56.87 54.14 44.26 43.05 52.47 56.27 54.19 52.34 51.39 48.26 46.07 42.70 41.27 38.15 38.47 39.14 37.53 38.04 40.94 41.51 40.93 39.08 40.23 37.57 36.81 38.05 41.24 42.57 43.56 45.34 43.59 44.02
53.21 52.99 52.93 53.32 53.56 53.51 53.50 54.44 54.01 57.81 57.47 57.53 57.15 55.25 48.86 37.41 49.50 52.37 51.45 50.44 50.10 49.25 46.91 45.97 42.77 43.45 39.85 38.63 37.32 38.01 39.67 39.49 39.67 39.38 39.85 38.69 38.09 39.11 39.29 40.96 42.90 43.82 43.68 43.89 45.19
52.81 52.42 52.79 53.90 53.65 53.27 53.68 54.86 54.15 57.74 57.42 57.35 54.96 50.60 44.61 42.88 50.46 50.94 51.21 48.77 49.65 49.15 45.41 47.16 45.72 43.11 40.74 37.64 40.44 38.68 35.32 36.34 37.18 38.86 38.50 39.65 35.45 36.26 40.00 42.01 42.29 43.01 44.01 45.14 46.22
52.62 52.40 52.05 52.38 52.88 52.88 54.35 55.40 56.12 56.90 57.22 57.03 53.87 48.72 40.50 51.03 51.12 50.34 49.62 47.87 48.81 48.86 47.46 46.93 47.27 42.87 40.09 39.26 37.39 34.71 33.12 28.29 35.83 38.46 39.52 37.23 30.32 39.42 42.20 40.90 40.18 41.74 43.51 45.14 46.11
52.33 51.26 52.18 52.60 52.46 53.12 54.99 56.02 56.54 56.68 56.59 55.26 48.91 46.54 39.26 51.72 47.38 49.11 48.61 46.28 47.13 46.70 45.85 48.23 44.53 38.71 38.71 32.34 28.80 30.94 25.84 28.84 33.18 39.78 38.91 35.90 31.85 39.70 41.71 41.53 40.27 41.44 40.93 44.30 46.09
53.88 52.85 52.90 52.55 52.78 54.14 54.59 54.72 54.49 53.67 53.16 51.47 48.99 42.05 44.30 42.42 47.55 48.97 49.04 48.69 45.68 45.03 43.52 41.91 38.93 32.47 32.35 31.86 23.36 25.09 25.55 30.78 30.19 36.27 37.29 34.27 34.20 39.12 41.33 41.05 40.32 40.42 40.35 42.30 43.86
55.20 54.18 53.68 53.34 54.28 53.60 51.19 48.75 44.08 42.85 46.01 42.05 41.72 41.18 43.67 47.64 50.00 47.43 48.96 46.91 45.66 41.77 32.90 37.97 30.20 23.60 29.02 31.71 33.20 32.09 29.34 28.01 33.34 37.93 36.00 34.08 34.64 38.62 41.32 40.84 40.23 39.08 40.18 41.33 42.63
54.19 54.72 54.14 54.08 53.46 52.49 50.09 42.95 43.35 45.26 38.76 45.15 44.51 44.25 46.64 48.21 42.77 45.68 49.72 41.60 40.46 33.50 36.30 32.07 25.82 33.84 37.17 36.67 34.83 32.99 28.67 29.83 34.24 39.25 37.46 35.53 35.63 39.75 41.58 41.09 40.63 40.36 40.18 40.59 41.17
53.08 54.19 54.12 53.97 53.50 49.55 46.59 46.93 51.28 49.43 39.66 41.72 44.59 43.42 44.23 46.49 42.23 42.89 46.27 43.22 38.40 35.02 34.60 29.62 33.22 38.42 37.41 34.02 33.10 31.06 28.94 29.18 30.63 36.41 37.68 35.40 31.93 35.53 38.97 40.34 42.30 42.36 42.06 40.79 40.35
53.12 53.37 53.11 52.94 49.22 49.10 45.77 50.07 51.84 50.22 31.19 35.33 39.84 43.28 45.88 46.09 39.31 46.91 46.99 43.37 39.51 34.99 34.86 32.24 36.73 36.40 34.24 32.73 33.63 29.06 35.94 36.02 35.49 29.37 22.87 34.19 20.99 32.00 35.70 36.97 39.11 39.13 38.85 38.24 39.05
52.92 53.79 54.42 52.35 46.93 46.45 49.03 51.45 50.79 45.90 19.69 37.95 40.49 48.81 46.38 41.18 40.35 41.61 47.16 43.62 36.55 36.71 35.21 30.66 33.47 33.67 34.24 32.18 36.59 33.97 37.82 35.79 35.19 29.74 26.37 28.50 22.59 29.72 34.52 33.82 36.85 36.22 37.17 37.89 38.79
52.26 52.63 52.93 49.71 48.06 48.65 50.01 48.92 46.04 29.81 19.40 34.37 40.86 40.01 40.07 41.53 41.51 43.39 42.90 43.80 42.16 37.80 36.68 34.40 38.73 37.09 36.39 38.84 37.77 39.17 36.20 36.56 37.38 33.86 23.16 25.80 26.10 26.45 31.70 35.19 37.16 37.99 36.76 38.74 39.67
51.43 51.42 50.01 49.31 44.81 48.92 48.26 42.72 26.31 20.77 34.97 32.91 34.77 38.50 37.53 36.86 38.25 39.90 38.01 35.21 30.57 20.94 21.63 33.30 34.45 37.59 39.04 35.30 38.06 36.90 31.31 17.52 23.01 21.84 20.24 29.77 21.46 28.54 35.11 37.68 38.38 37.70 35.18 35.13 38.25
51.62 51.03 50.62 48.42 47.63 47.99 43.99 32.50 19.89 28.37 31.14 37.56 37.10 37.53 34.38 36.74 36.55 37.66 35.85 29.73 35.61 34.77 27.75 20.70 19.01 35.10 38.73 36.55 33.68 34.83 31.43 18.48 12.83 14.18 19.56 26.95 20.26 28.41 38.17 39.28 39.44 39.32 37.36 35.95 37.88
50.36 45.95 45.83 47.33 49.19 46.34 37.59 24.72 22.82 29.77 36.14 35.33 36.78 31.97 31.16 35.98 35.35 35.16 33.34 33.28 35.08 35.83 27.64 22.94 25.20 37.62 38.68 39.36 38.46 34.47 27.68 34.17 22.30 21.47 16.35 19.81 28.21 36.31 38.88 37.31 37.49 37.18 37.37 34.28 35.42
44.49 44.04 44.21 48.31 47.76 43.62 33.28 29.80 31.11 38.40 38.82 37.93 29.57 32.69 28.40 32.32 32.47 33.04 32.95 36.32 36.43 38.81 38.11 33.98 25.30 36.34 37.95 39.58 38.70 36.14 37.46 26.01 25.71 13.18 15.93 18.62 24.00 27.57 33.90 35.22 38.19 36.70 36.17 36.31 38.14
43.48 40.95 45.78 49.06 46.38 38.25 27.17 28.75 36.11 40.58 40.86 36.75 33.80 32.51 32.78 32.56 33.20 32.38 32.92 35.81 38.32 38.17 37.32 35.20 31.89 31.03 35.65 33.75 32.92 33.02 31.32 32.80 30.35 26.43 18.93 18.58 20.58 34.51 35.54 37.14 36.86 37.94 37.58 36.76 37.85
43.25 34.70 46.80 47.36 36.76 35.40 29.20 35.95 41.13 38.67 40.68 39.87 38.13 37.24 34.04 34.52 32.80 32.30 32.33 35.66 40.19 39.34 34.82 36.63 33.15 25.71 30.46 36.42 39.13 36.35 33.71 32.21 23.75 23.25 24.72 23.03 22.60 36.97 39.51 39.36 39.63 38.47 38.63 37.75 39.02
38.93 39.10 47.34 45.98 30.66 27.59 36.26 38.46 39.93 38.70 39.14 38.88 37.88 39.04 37.66 34.61 30.99 33.60 35.14 39.85 41.08 38.72 35.28 36.25 30.07 19.57 25.61 30.48 33.75 31.99 33.63 34.79 33.01 29.30 23.83 20.23 23.93 38.09 38.05 38.61 40.12 38.79 38.53 38.95 39.34
40.32 32.68 40.90 40.04 38.37 35.39 34.74 35.55 36.06 40.42 39.68 40.19 38.64 38.73 36.13 34.23 35.65 32.98 34.88 39.54 40.33 39.89 43.83 40.96 32.15 26.79 20.61 25.35 30.70 28.72 32.12 33.33 32.16 22.34 25.37 27.90 30.27 32.95 34.56 35.98 38.24 38.70 39.18 39.00 39.92
39.57 34.25 37.22 31.10 35.62 35.26 36.47 36.42 36.08 35.84 39.12 39.41 36.95 37.40 35.48 32.07 33.19 32.75 35.43 36.79 38.89 42.41 38.74 36.70 28.38 28.15 31.33 32.72 33.04 32.60 32.18 32.49 30.25 31.28 26.45 29.74 28.86 34.22 34.36 34.64 36.42 38.77 40.25 39.37 39.24
37.32 36.86 37.15 35.24 37.17 35.02 35.96 35.17 36.40 37.20 37.36 35.92 35.48 37.65 36.32 33.18 33.47 32.17 34.23 33.44 33.63 36.26 36.15 37.21 27.53 28.40 23.72 31.86 31.35 28.95 31.44 32.11 32.20 32.49 32.27 32.48 31.41 38.54 39.60 36.10 35.08 36.57 37.27 39.02 40.06
39.87 39.73 37.82 37.02 34.68 32.13 33.41 35.47 37.08 37.73 38.50 39.78 37.47 35.39 34.58 36.52 36.75 37.36 37.18 37.12 36.63 35.63 34.46 33.68 29.08 25.05 22.52 28.42 28.03 23.82 29.35 30.01 30.76 32.14 32.75 28.48 33.83 36.82 35.20 36.46 36.58 37.50 38.61 38.38 39.91